<?xml version="1.0" encoding="UTF-8" standalone="no" ?>
<gpx xmlns="http://www.topografix.com/GPX/1/1" xmlns:xsi="http://www.w3.org/2001/XMLSchema-instance" xsi:schemaLocation="http://www.topografix.com/GPX/1/1 http://www.topografix.com/GPX/1/1/gpx.xsd" version="1.1" creator="VisuGPX - https://www.visugpx.com">
  <metadata>
    <name>Sens - Pont - Nailly</name>
    <desc><![CDATA[1ere partie roulante en bordure d\'Yonne, puis quelques bosses en retour de pont]]></desc>
  </metadata>
  <trk>
    <name><![CDATA[12/04/2012 17:28]]></name>
    <desc><![CDATA[]]></desc>
    <trkseg>
      <trkpt lat="48.20339" lon="3.28193">
        <ele>67</ele>
        <time>2012-04-12T15:28:04.349Z</time>
      </trkpt>
      <trkpt lat="48.20337" lon="3.28225">
        <ele>67</ele>
        <time>2012-04-12T15:28:08.000Z</time>
      </trkpt>
      <trkpt lat="48.20333" lon="3.28167">
        <ele>66</ele>
        <time>2012-04-12T15:28:09.000Z</time>
      </trkpt>
      <trkpt lat="48.20324" lon="3.28128">
        <ele>66</ele>
        <time>2012-04-12T15:28:10.000Z</time>
      </trkpt>
      <trkpt lat="48.20314" lon="3.28109">
        <ele>66</ele>
        <time>2012-04-12T15:28:11.000Z</time>
      </trkpt>
      <trkpt lat="48.20301" lon="3.28096">
        <ele>66</ele>
        <time>2012-04-12T15:28:12.000Z</time>
      </trkpt>
      <trkpt lat="48.20285" lon="3.28086">
        <ele>67</ele>
        <time>2012-04-12T15:28:13.000Z</time>
      </trkpt>
      <trkpt lat="48.20274" lon="3.28075">
        <ele>67</ele>
        <time>2012-04-12T15:28:14.000Z</time>
      </trkpt>
      <trkpt lat="48.20268" lon="3.28064">
        <ele>67</ele>
        <time>2012-04-12T15:28:15.000Z</time>
      </trkpt>
      <trkpt lat="48.20268" lon="3.28064">
        <ele>67</ele>
        <time>2012-04-12T15:28:15.000Z</time>
      </trkpt>
      <trkpt lat="48.20268" lon="3.28064">
        <ele>67</ele>
        <time>2012-04-12T15:28:16.000Z</time>
      </trkpt>
      <trkpt lat="48.20263" lon="3.28051">
        <ele>67</ele>
        <time>2012-04-12T15:28:17.000Z</time>
      </trkpt>
      <trkpt lat="48.20263" lon="3.28051">
        <ele>67</ele>
        <time>2012-04-12T15:28:17.000Z</time>
      </trkpt>
      <trkpt lat="48.20263" lon="3.28051">
        <ele>67</ele>
        <time>2012-04-12T15:28:19.000Z</time>
      </trkpt>
      <trkpt lat="48.20266" lon="3.28036">
        <ele>67</ele>
        <time>2012-04-12T15:28:20.000Z</time>
      </trkpt>
      <trkpt lat="48.20271" lon="3.28028">
        <ele>67</ele>
        <time>2012-04-12T15:28:22.000Z</time>
      </trkpt>
      <trkpt lat="48.20275" lon="3.28017">
        <ele>67</ele>
        <time>2012-04-12T15:28:24.000Z</time>
      </trkpt>
      <trkpt lat="48.2028" lon="3.28008">
        <ele>67</ele>
        <time>2012-04-12T15:28:26.000Z</time>
      </trkpt>
      <trkpt lat="48.20287" lon="3.28">
        <ele>67</ele>
        <time>2012-04-12T15:28:28.000Z</time>
      </trkpt>
      <trkpt lat="48.20292" lon="3.27991">
        <ele>67</ele>
        <time>2012-04-12T15:28:30.000Z</time>
      </trkpt>
      <trkpt lat="48.20295" lon="3.27985">
        <ele>67</ele>
        <time>2012-04-12T15:28:31.000Z</time>
      </trkpt>
      <trkpt lat="48.20302" lon="3.27976">
        <ele>67</ele>
        <time>2012-04-12T15:28:33.000Z</time>
      </trkpt>
      <trkpt lat="48.20308" lon="3.27968">
        <ele>67</ele>
        <time>2012-04-12T15:28:35.000Z</time>
      </trkpt>
      <trkpt lat="48.20315" lon="3.27959">
        <ele>67</ele>
        <time>2012-04-12T15:28:37.000Z</time>
      </trkpt>
      <trkpt lat="48.20321" lon="3.2795">
        <ele>67</ele>
        <time>2012-04-12T15:28:39.000Z</time>
      </trkpt>
      <trkpt lat="48.20329" lon="3.27942">
        <ele>67</ele>
        <time>2012-04-12T15:28:41.000Z</time>
      </trkpt>
      <trkpt lat="48.20333" lon="3.27938">
        <ele>67</ele>
        <time>2012-04-12T15:28:42.000Z</time>
      </trkpt>
      <trkpt lat="48.20338" lon="3.27935">
        <ele>67</ele>
        <time>2012-04-12T15:28:43.000Z</time>
      </trkpt>
      <trkpt lat="48.20344" lon="3.27931">
        <ele>67</ele>
        <time>2012-04-12T15:28:44.000Z</time>
      </trkpt>
      <trkpt lat="48.20349" lon="3.27927">
        <ele>67</ele>
        <time>2012-04-12T15:28:45.000Z</time>
      </trkpt>
      <trkpt lat="48.20356" lon="3.27925">
        <ele>67</ele>
        <time>2012-04-12T15:28:46.000Z</time>
      </trkpt>
      <trkpt lat="48.20362" lon="3.27922">
        <ele>67</ele>
        <time>2012-04-12T15:28:47.000Z</time>
      </trkpt>
      <trkpt lat="48.20367" lon="3.27918">
        <ele>67</ele>
        <time>2012-04-12T15:28:48.000Z</time>
      </trkpt>
      <trkpt lat="48.20373" lon="3.27916">
        <ele>67</ele>
        <time>2012-04-12T15:28:49.000Z</time>
      </trkpt>
      <trkpt lat="48.20377" lon="3.27912">
        <ele>67</ele>
        <time>2012-04-12T15:28:50.000Z</time>
      </trkpt>
      <trkpt lat="48.20382" lon="3.27908">
        <ele>67</ele>
        <time>2012-04-12T15:28:51.000Z</time>
      </trkpt>
      <trkpt lat="48.20387" lon="3.27905">
        <ele>67</ele>
        <time>2012-04-12T15:28:52.000Z</time>
      </trkpt>
      <trkpt lat="48.20391" lon="3.27901">
        <ele>67</ele>
        <time>2012-04-12T15:28:53.000Z</time>
      </trkpt>
      <trkpt lat="48.20395" lon="3.27897">
        <ele>67</ele>
        <time>2012-04-12T15:28:54.000Z</time>
      </trkpt>
      <trkpt lat="48.204" lon="3.27892">
        <ele>67</ele>
        <time>2012-04-12T15:28:55.000Z</time>
      </trkpt>
      <trkpt lat="48.20404" lon="3.27888">
        <ele>67</ele>
        <time>2012-04-12T15:28:56.000Z</time>
      </trkpt>
      <trkpt lat="48.20408" lon="3.27884">
        <ele>67</ele>
        <time>2012-04-12T15:28:57.000Z</time>
      </trkpt>
      <trkpt lat="48.20412" lon="3.2788">
        <ele>67</ele>
        <time>2012-04-12T15:28:58.000Z</time>
      </trkpt>
      <trkpt lat="48.20417" lon="3.27875">
        <ele>66</ele>
        <time>2012-04-12T15:28:59.000Z</time>
      </trkpt>
      <trkpt lat="48.20421" lon="3.27871">
        <ele>65</ele>
        <time>2012-04-12T15:29:00.000Z</time>
      </trkpt>
      <trkpt lat="48.20425" lon="3.27867">
        <ele>65</ele>
        <time>2012-04-12T15:29:01.000Z</time>
      </trkpt>
      <trkpt lat="48.2043" lon="3.27862">
        <ele>65</ele>
        <time>2012-04-12T15:29:02.000Z</time>
      </trkpt>
      <trkpt lat="48.20434" lon="3.27858">
        <ele>65</ele>
        <time>2012-04-12T15:29:03.000Z</time>
      </trkpt>
      <trkpt lat="48.20438" lon="3.27854">
        <ele>65</ele>
        <time>2012-04-12T15:29:04.000Z</time>
      </trkpt>
      <trkpt lat="48.20442" lon="3.2785">
        <ele>65</ele>
        <time>2012-04-12T15:29:05.000Z</time>
      </trkpt>
      <trkpt lat="48.20447" lon="3.27845">
        <ele>65</ele>
        <time>2012-04-12T15:29:06.000Z</time>
      </trkpt>
      <trkpt lat="48.20451" lon="3.27841">
        <ele>65</ele>
        <time>2012-04-12T15:29:07.000Z</time>
      </trkpt>
      <trkpt lat="48.20455" lon="3.27837">
        <ele>65</ele>
        <time>2012-04-12T15:29:08.000Z</time>
      </trkpt>
      <trkpt lat="48.2046" lon="3.27832">
        <ele>65</ele>
        <time>2012-04-12T15:29:09.000Z</time>
      </trkpt>
      <trkpt lat="48.20464" lon="3.27828">
        <ele>65</ele>
        <time>2012-04-12T15:29:10.000Z</time>
      </trkpt>
      <trkpt lat="48.20468" lon="3.27824">
        <ele>65</ele>
        <time>2012-04-12T15:29:11.000Z</time>
      </trkpt>
      <trkpt lat="48.20472" lon="3.2782">
        <ele>65</ele>
        <time>2012-04-12T15:29:12.000Z</time>
      </trkpt>
      <trkpt lat="48.20477" lon="3.27815">
        <ele>65</ele>
        <time>2012-04-12T15:29:13.000Z</time>
      </trkpt>
      <trkpt lat="48.20481" lon="3.27811">
        <ele>64</ele>
        <time>2012-04-12T15:29:14.000Z</time>
      </trkpt>
      <trkpt lat="48.20485" lon="3.27809">
        <ele>64</ele>
        <time>2012-04-12T15:29:15.000Z</time>
      </trkpt>
      <trkpt lat="48.2049" lon="3.27804">
        <ele>64</ele>
        <time>2012-04-12T15:29:16.000Z</time>
      </trkpt>
      <trkpt lat="48.20494" lon="3.27802">
        <ele>64</ele>
        <time>2012-04-12T15:29:17.000Z</time>
      </trkpt>
      <trkpt lat="48.20498" lon="3.278">
        <ele>64</ele>
        <time>2012-04-12T15:29:18.000Z</time>
      </trkpt>
      <trkpt lat="48.20502" lon="3.27798">
        <ele>64</ele>
        <time>2012-04-12T15:29:19.000Z</time>
      </trkpt>
      <trkpt lat="48.20507" lon="3.278">
        <ele>64</ele>
        <time>2012-04-12T15:29:20.000Z</time>
      </trkpt>
      <trkpt lat="48.20512" lon="3.278">
        <ele>64</ele>
        <time>2012-04-12T15:29:21.000Z</time>
      </trkpt>
      <trkpt lat="48.20516" lon="3.27802">
        <ele>65</ele>
        <time>2012-04-12T15:29:22.000Z</time>
      </trkpt>
      <trkpt lat="48.20525" lon="3.278">
        <ele>65</ele>
        <time>2012-04-12T15:29:24.000Z</time>
      </trkpt>
      <trkpt lat="48.20529" lon="3.27798">
        <ele>65</ele>
        <time>2012-04-12T15:29:25.000Z</time>
      </trkpt>
      <trkpt lat="48.20534" lon="3.27796">
        <ele>65</ele>
        <time>2012-04-12T15:29:26.000Z</time>
      </trkpt>
      <trkpt lat="48.20539" lon="3.27792">
        <ele>65</ele>
        <time>2012-04-12T15:29:28.000Z</time>
      </trkpt>
      <trkpt lat="48.20545" lon="3.2779">
        <ele>65</ele>
        <time>2012-04-12T15:29:30.000Z</time>
      </trkpt>
      <trkpt lat="48.20552" lon="3.27785">
        <ele>65</ele>
        <time>2012-04-12T15:29:32.000Z</time>
      </trkpt>
      <trkpt lat="48.20557" lon="3.27783">
        <ele>65</ele>
        <time>2012-04-12T15:29:34.000Z</time>
      </trkpt>
      <trkpt lat="48.20563" lon="3.27783">
        <ele>65</ele>
        <time>2012-04-12T15:29:36.000Z</time>
      </trkpt>
      <trkpt lat="48.20567" lon="3.27781">
        <ele>65</ele>
        <time>2012-04-12T15:29:37.000Z</time>
      </trkpt>
      <trkpt lat="48.20575" lon="3.27779">
        <ele>65</ele>
        <time>2012-04-12T15:29:39.000Z</time>
      </trkpt>
      <trkpt lat="48.2058" lon="3.27777">
        <ele>65</ele>
        <time>2012-04-12T15:29:40.000Z</time>
      </trkpt>
      <trkpt lat="48.20588" lon="3.27774">
        <ele>66</ele>
        <time>2012-04-12T15:29:42.000Z</time>
      </trkpt>
      <trkpt lat="48.20593" lon="3.27772">
        <ele>66</ele>
        <time>2012-04-12T15:29:43.000Z</time>
      </trkpt>
      <trkpt lat="48.20598" lon="3.27772">
        <ele>66</ele>
        <time>2012-04-12T15:29:44.000Z</time>
      </trkpt>
      <trkpt lat="48.20602" lon="3.2777">
        <ele>66</ele>
        <time>2012-04-12T15:29:45.000Z</time>
      </trkpt>
      <trkpt lat="48.20612" lon="3.27768">
        <ele>65</ele>
        <time>2012-04-12T15:29:47.000Z</time>
      </trkpt>
      <trkpt lat="48.20617" lon="3.27768">
        <ele>65</ele>
        <time>2012-04-12T15:29:48.000Z</time>
      </trkpt>
      <trkpt lat="48.20622" lon="3.27766">
        <ele>65</ele>
        <time>2012-04-12T15:29:49.000Z</time>
      </trkpt>
      <trkpt lat="48.20627" lon="3.27766">
        <ele>65</ele>
        <time>2012-04-12T15:29:50.000Z</time>
      </trkpt>
      <trkpt lat="48.20632" lon="3.27764">
        <ele>65</ele>
        <time>2012-04-12T15:29:51.000Z</time>
      </trkpt>
      <trkpt lat="48.20638" lon="3.27762">
        <ele>65</ele>
        <time>2012-04-12T15:29:52.000Z</time>
      </trkpt>
      <trkpt lat="48.20643" lon="3.2776">
        <ele>66</ele>
        <time>2012-04-12T15:29:53.000Z</time>
      </trkpt>
      <trkpt lat="48.20648" lon="3.27757">
        <ele>66</ele>
        <time>2012-04-12T15:29:54.000Z</time>
      </trkpt>
      <trkpt lat="48.20654" lon="3.27755">
        <ele>66</ele>
        <time>2012-04-12T15:29:55.000Z</time>
      </trkpt>
      <trkpt lat="48.20658" lon="3.27753">
        <ele>66</ele>
        <time>2012-04-12T15:29:56.000Z</time>
      </trkpt>
      <trkpt lat="48.20663" lon="3.27753">
        <ele>66</ele>
        <time>2012-04-12T15:29:57.000Z</time>
      </trkpt>
      <trkpt lat="48.20669" lon="3.27751">
        <ele>66</ele>
        <time>2012-04-12T15:29:58.000Z</time>
      </trkpt>
      <trkpt lat="48.20674" lon="3.27749">
        <ele>66</ele>
        <time>2012-04-12T15:29:59.000Z</time>
      </trkpt>
      <trkpt lat="48.2068" lon="3.27747">
        <ele>65</ele>
        <time>2012-04-12T15:30:00.000Z</time>
      </trkpt>
      <trkpt lat="48.20684" lon="3.27744">
        <ele>65</ele>
        <time>2012-04-12T15:30:01.000Z</time>
      </trkpt>
      <trkpt lat="48.20689" lon="3.27744">
        <ele>65</ele>
        <time>2012-04-12T15:30:02.000Z</time>
      </trkpt>
      <trkpt lat="48.20694" lon="3.27742">
        <ele>65</ele>
        <time>2012-04-12T15:30:03.000Z</time>
      </trkpt>
      <trkpt lat="48.20704" lon="3.2774">
        <ele>64</ele>
        <time>2012-04-12T15:30:05.000Z</time>
      </trkpt>
      <trkpt lat="48.20708" lon="3.27738">
        <ele>64</ele>
        <time>2012-04-12T15:30:06.000Z</time>
      </trkpt>
      <trkpt lat="48.20716" lon="3.27736">
        <ele>64</ele>
        <time>2012-04-12T15:30:08.000Z</time>
      </trkpt>
      <trkpt lat="48.2072" lon="3.27734">
        <ele>64</ele>
        <time>2012-04-12T15:30:09.000Z</time>
      </trkpt>
      <trkpt lat="48.2073" lon="3.27732">
        <ele>64</ele>
        <time>2012-04-12T15:30:11.000Z</time>
      </trkpt>
      <trkpt lat="48.20735" lon="3.27732">
        <ele>63</ele>
        <time>2012-04-12T15:30:12.000Z</time>
      </trkpt>
      <trkpt lat="48.2074" lon="3.27729">
        <ele>63</ele>
        <time>2012-04-12T15:30:13.000Z</time>
      </trkpt>
      <trkpt lat="48.20746" lon="3.27729">
        <ele>63</ele>
        <time>2012-04-12T15:30:14.000Z</time>
      </trkpt>
      <trkpt lat="48.20756" lon="3.27727">
        <ele>63</ele>
        <time>2012-04-12T15:30:16.000Z</time>
      </trkpt>
      <trkpt lat="48.20761" lon="3.27727">
        <ele>63</ele>
        <time>2012-04-12T15:30:17.000Z</time>
      </trkpt>
      <trkpt lat="48.20766" lon="3.27725">
        <ele>63</ele>
        <time>2012-04-12T15:30:18.000Z</time>
      </trkpt>
      <trkpt lat="48.20772" lon="3.27725">
        <ele>64</ele>
        <time>2012-04-12T15:30:19.000Z</time>
      </trkpt>
      <trkpt lat="48.20777" lon="3.27723">
        <ele>64</ele>
        <time>2012-04-12T15:30:20.000Z</time>
      </trkpt>
      <trkpt lat="48.20782" lon="3.27723">
        <ele>64</ele>
        <time>2012-04-12T15:30:21.000Z</time>
      </trkpt>
      <trkpt lat="48.20788" lon="3.27721">
        <ele>64</ele>
        <time>2012-04-12T15:30:22.000Z</time>
      </trkpt>
      <trkpt lat="48.20793" lon="3.27721">
        <ele>64</ele>
        <time>2012-04-12T15:30:23.000Z</time>
      </trkpt>
      <trkpt lat="48.208" lon="3.27719">
        <ele>64</ele>
        <time>2012-04-12T15:30:24.000Z</time>
      </trkpt>
      <trkpt lat="48.20805" lon="3.27719">
        <ele>64</ele>
        <time>2012-04-12T15:30:25.000Z</time>
      </trkpt>
      <trkpt lat="48.20812" lon="3.27719">
        <ele>64</ele>
        <time>2012-04-12T15:30:26.000Z</time>
      </trkpt>
      <trkpt lat="48.2082" lon="3.27721">
        <ele>65</ele>
        <time>2012-04-12T15:30:28.000Z</time>
      </trkpt>
      <trkpt lat="48.20824" lon="3.27725">
        <ele>65</ele>
        <time>2012-04-12T15:30:29.000Z</time>
      </trkpt>
      <trkpt lat="48.2083" lon="3.27725">
        <ele>65</ele>
        <time>2012-04-12T15:30:30.000Z</time>
      </trkpt>
      <trkpt lat="48.20834" lon="3.27723">
        <ele>66</ele>
        <time>2012-04-12T15:30:31.000Z</time>
      </trkpt>
      <trkpt lat="48.20838" lon="3.27719">
        <ele>66</ele>
        <time>2012-04-12T15:30:32.000Z</time>
      </trkpt>
      <trkpt lat="48.20845" lon="3.27708">
        <ele>66</ele>
        <time>2012-04-12T15:30:34.000Z</time>
      </trkpt>
      <trkpt lat="48.20849" lon="3.27704">
        <ele>66</ele>
        <time>2012-04-12T15:30:35.000Z</time>
      </trkpt>
      <trkpt lat="48.20854" lon="3.27699">
        <ele>66</ele>
        <time>2012-04-12T15:30:36.000Z</time>
      </trkpt>
      <trkpt lat="48.2086" lon="3.27697">
        <ele>66</ele>
        <time>2012-04-12T15:30:37.000Z</time>
      </trkpt>
      <trkpt lat="48.20865" lon="3.27695">
        <ele>66</ele>
        <time>2012-04-12T15:30:38.000Z</time>
      </trkpt>
      <trkpt lat="48.20872" lon="3.27693">
        <ele>66</ele>
        <time>2012-04-12T15:30:39.000Z</time>
      </trkpt>
      <trkpt lat="48.20878" lon="3.27693">
        <ele>66</ele>
        <time>2012-04-12T15:30:40.000Z</time>
      </trkpt>
      <trkpt lat="48.20884" lon="3.27691">
        <ele>66</ele>
        <time>2012-04-12T15:30:41.000Z</time>
      </trkpt>
      <trkpt lat="48.2089" lon="3.27689">
        <ele>66</ele>
        <time>2012-04-12T15:30:42.000Z</time>
      </trkpt>
      <trkpt lat="48.20896" lon="3.27686">
        <ele>66</ele>
        <time>2012-04-12T15:30:43.000Z</time>
      </trkpt>
      <trkpt lat="48.20903" lon="3.27684">
        <ele>66</ele>
        <time>2012-04-12T15:30:44.000Z</time>
      </trkpt>
      <trkpt lat="48.20909" lon="3.27682">
        <ele>66</ele>
        <time>2012-04-12T15:30:45.000Z</time>
      </trkpt>
      <trkpt lat="48.20914" lon="3.2768">
        <ele>66</ele>
        <time>2012-04-12T15:30:46.000Z</time>
      </trkpt>
      <trkpt lat="48.20921" lon="3.27678">
        <ele>66</ele>
        <time>2012-04-12T15:30:47.000Z</time>
      </trkpt>
      <trkpt lat="48.20927" lon="3.27676">
        <ele>66</ele>
        <time>2012-04-12T15:30:48.000Z</time>
      </trkpt>
      <trkpt lat="48.20933" lon="3.27676">
        <ele>66</ele>
        <time>2012-04-12T15:30:49.000Z</time>
      </trkpt>
      <trkpt lat="48.20939" lon="3.27674">
        <ele>66</ele>
        <time>2012-04-12T15:30:50.000Z</time>
      </trkpt>
      <trkpt lat="48.20944" lon="3.27672">
        <ele>66</ele>
        <time>2012-04-12T15:30:51.000Z</time>
      </trkpt>
      <trkpt lat="48.20951" lon="3.27669">
        <ele>66</ele>
        <time>2012-04-12T15:30:52.000Z</time>
      </trkpt>
      <trkpt lat="48.20957" lon="3.27667">
        <ele>66</ele>
        <time>2012-04-12T15:30:53.000Z</time>
      </trkpt>
      <trkpt lat="48.20963" lon="3.27665">
        <ele>66</ele>
        <time>2012-04-12T15:30:54.000Z</time>
      </trkpt>
      <trkpt lat="48.20969" lon="3.27665">
        <ele>66</ele>
        <time>2012-04-12T15:30:55.000Z</time>
      </trkpt>
      <trkpt lat="48.20974" lon="3.27663">
        <ele>66</ele>
        <time>2012-04-12T15:30:56.000Z</time>
      </trkpt>
      <trkpt lat="48.20981" lon="3.27661">
        <ele>66</ele>
        <time>2012-04-12T15:30:57.000Z</time>
      </trkpt>
      <trkpt lat="48.20986" lon="3.27659">
        <ele>66</ele>
        <time>2012-04-12T15:30:58.000Z</time>
      </trkpt>
      <trkpt lat="48.20993" lon="3.27659">
        <ele>66</ele>
        <time>2012-04-12T15:30:59.000Z</time>
      </trkpt>
      <trkpt lat="48.20998" lon="3.27656">
        <ele>66</ele>
        <time>2012-04-12T15:31:00.000Z</time>
      </trkpt>
      <trkpt lat="48.21005" lon="3.27654">
        <ele>66</ele>
        <time>2012-04-12T15:31:01.000Z</time>
      </trkpt>
      <trkpt lat="48.2101" lon="3.27654">
        <ele>66</ele>
        <time>2012-04-12T15:31:02.000Z</time>
      </trkpt>
      <trkpt lat="48.21015" lon="3.27652">
        <ele>66</ele>
        <time>2012-04-12T15:31:03.000Z</time>
      </trkpt>
      <trkpt lat="48.21022" lon="3.2765">
        <ele>66</ele>
        <time>2012-04-12T15:31:04.000Z</time>
      </trkpt>
      <trkpt lat="48.21027" lon="3.27648">
        <ele>66</ele>
        <time>2012-04-12T15:31:05.000Z</time>
      </trkpt>
      <trkpt lat="48.21034" lon="3.27646">
        <ele>66</ele>
        <time>2012-04-12T15:31:06.000Z</time>
      </trkpt>
      <trkpt lat="48.21039" lon="3.27644">
        <ele>66</ele>
        <time>2012-04-12T15:31:07.000Z</time>
      </trkpt>
      <trkpt lat="48.21045" lon="3.27644">
        <ele>66</ele>
        <time>2012-04-12T15:31:08.000Z</time>
      </trkpt>
      <trkpt lat="48.21051" lon="3.27641">
        <ele>66</ele>
        <time>2012-04-12T15:31:09.000Z</time>
      </trkpt>
      <trkpt lat="48.21057" lon="3.27639">
        <ele>66</ele>
        <time>2012-04-12T15:31:10.000Z</time>
      </trkpt>
      <trkpt lat="48.21064" lon="3.27639">
        <ele>66</ele>
        <time>2012-04-12T15:31:11.000Z</time>
      </trkpt>
      <trkpt lat="48.2107" lon="3.27637">
        <ele>66</ele>
        <time>2012-04-12T15:31:12.000Z</time>
      </trkpt>
      <trkpt lat="48.21075" lon="3.27637">
        <ele>66</ele>
        <time>2012-04-12T15:31:13.000Z</time>
      </trkpt>
      <trkpt lat="48.21082" lon="3.27635">
        <ele>66</ele>
        <time>2012-04-12T15:31:14.000Z</time>
      </trkpt>
      <trkpt lat="48.21088" lon="3.27633">
        <ele>66</ele>
        <time>2012-04-12T15:31:15.000Z</time>
      </trkpt>
      <trkpt lat="48.21095" lon="3.27633">
        <ele>66</ele>
        <time>2012-04-12T15:31:16.000Z</time>
      </trkpt>
      <trkpt lat="48.21101" lon="3.27631">
        <ele>66</ele>
        <time>2012-04-12T15:31:17.000Z</time>
      </trkpt>
      <trkpt lat="48.21108" lon="3.27629">
        <ele>66</ele>
        <time>2012-04-12T15:31:18.000Z</time>
      </trkpt>
      <trkpt lat="48.21114" lon="3.27626">
        <ele>66</ele>
        <time>2012-04-12T15:31:19.000Z</time>
      </trkpt>
      <trkpt lat="48.2112" lon="3.27624">
        <ele>65</ele>
        <time>2012-04-12T15:31:20.000Z</time>
      </trkpt>
      <trkpt lat="48.21127" lon="3.27624">
        <ele>66</ele>
        <time>2012-04-12T15:31:21.000Z</time>
      </trkpt>
      <trkpt lat="48.21133" lon="3.27622">
        <ele>66</ele>
        <time>2012-04-12T15:31:22.000Z</time>
      </trkpt>
      <trkpt lat="48.21139" lon="3.2762">
        <ele>66</ele>
        <time>2012-04-12T15:31:23.000Z</time>
      </trkpt>
      <trkpt lat="48.21145" lon="3.27618">
        <ele>66</ele>
        <time>2012-04-12T15:31:24.000Z</time>
      </trkpt>
      <trkpt lat="48.21152" lon="3.27616">
        <ele>66</ele>
        <time>2012-04-12T15:31:25.000Z</time>
      </trkpt>
      <trkpt lat="48.21158" lon="3.27614">
        <ele>66</ele>
        <time>2012-04-12T15:31:26.000Z</time>
      </trkpt>
      <trkpt lat="48.21164" lon="3.27611">
        <ele>66</ele>
        <time>2012-04-12T15:31:27.000Z</time>
      </trkpt>
      <trkpt lat="48.21171" lon="3.27611">
        <ele>65</ele>
        <time>2012-04-12T15:31:28.000Z</time>
      </trkpt>
      <trkpt lat="48.21177" lon="3.27609">
        <ele>65</ele>
        <time>2012-04-12T15:31:29.000Z</time>
      </trkpt>
      <trkpt lat="48.21184" lon="3.27607">
        <ele>65</ele>
        <time>2012-04-12T15:31:30.000Z</time>
      </trkpt>
      <trkpt lat="48.2119" lon="3.27605">
        <ele>65</ele>
        <time>2012-04-12T15:31:31.000Z</time>
      </trkpt>
      <trkpt lat="48.21197" lon="3.27605">
        <ele>65</ele>
        <time>2012-04-12T15:31:32.000Z</time>
      </trkpt>
      <trkpt lat="48.21203" lon="3.27603">
        <ele>65</ele>
        <time>2012-04-12T15:31:33.000Z</time>
      </trkpt>
      <trkpt lat="48.2121" lon="3.27601">
        <ele>65</ele>
        <time>2012-04-12T15:31:34.000Z</time>
      </trkpt>
      <trkpt lat="48.21215" lon="3.27601">
        <ele>65</ele>
        <time>2012-04-12T15:31:35.000Z</time>
      </trkpt>
      <trkpt lat="48.21221" lon="3.27598">
        <ele>65</ele>
        <time>2012-04-12T15:31:36.000Z</time>
      </trkpt>
      <trkpt lat="48.21228" lon="3.27596">
        <ele>65</ele>
        <time>2012-04-12T15:31:37.000Z</time>
      </trkpt>
      <trkpt lat="48.21234" lon="3.27596">
        <ele>65</ele>
        <time>2012-04-12T15:31:38.000Z</time>
      </trkpt>
      <trkpt lat="48.21241" lon="3.27596">
        <ele>65</ele>
        <time>2012-04-12T15:31:39.000Z</time>
      </trkpt>
      <trkpt lat="48.21247" lon="3.27596">
        <ele>65</ele>
        <time>2012-04-12T15:31:40.000Z</time>
      </trkpt>
      <trkpt lat="48.21254" lon="3.27596">
        <ele>64</ele>
        <time>2012-04-12T15:31:41.000Z</time>
      </trkpt>
      <trkpt lat="48.21259" lon="3.27594">
        <ele>64</ele>
        <time>2012-04-12T15:31:42.000Z</time>
      </trkpt>
      <trkpt lat="48.21265" lon="3.2759">
        <ele>64</ele>
        <time>2012-04-12T15:31:43.000Z</time>
      </trkpt>
      <trkpt lat="48.21272" lon="3.27588">
        <ele>64</ele>
        <time>2012-04-12T15:31:44.000Z</time>
      </trkpt>
      <trkpt lat="48.21277" lon="3.27584">
        <ele>64</ele>
        <time>2012-04-12T15:31:45.000Z</time>
      </trkpt>
      <trkpt lat="48.21284" lon="3.27581">
        <ele>64</ele>
        <time>2012-04-12T15:31:46.000Z</time>
      </trkpt>
      <trkpt lat="48.2129" lon="3.27579">
        <ele>64</ele>
        <time>2012-04-12T15:31:47.000Z</time>
      </trkpt>
      <trkpt lat="48.21296" lon="3.27577">
        <ele>64</ele>
        <time>2012-04-12T15:31:48.000Z</time>
      </trkpt>
      <trkpt lat="48.21303" lon="3.27575">
        <ele>64</ele>
        <time>2012-04-12T15:31:49.000Z</time>
      </trkpt>
      <trkpt lat="48.21309" lon="3.27573">
        <ele>64</ele>
        <time>2012-04-12T15:31:50.000Z</time>
      </trkpt>
      <trkpt lat="48.21316" lon="3.27573">
        <ele>64</ele>
        <time>2012-04-12T15:31:51.000Z</time>
      </trkpt>
      <trkpt lat="48.21322" lon="3.27571">
        <ele>64</ele>
        <time>2012-04-12T15:31:52.000Z</time>
      </trkpt>
      <trkpt lat="48.21329" lon="3.27568">
        <ele>64</ele>
        <time>2012-04-12T15:31:53.000Z</time>
      </trkpt>
      <trkpt lat="48.21335" lon="3.27568">
        <ele>64</ele>
        <time>2012-04-12T15:31:54.000Z</time>
      </trkpt>
      <trkpt lat="48.2134" lon="3.27566">
        <ele>64</ele>
        <time>2012-04-12T15:31:55.000Z</time>
      </trkpt>
      <trkpt lat="48.21347" lon="3.27564">
        <ele>64</ele>
        <time>2012-04-12T15:31:56.000Z</time>
      </trkpt>
      <trkpt lat="48.21353" lon="3.27562">
        <ele>64</ele>
        <time>2012-04-12T15:31:57.000Z</time>
      </trkpt>
      <trkpt lat="48.21359" lon="3.2756">
        <ele>64</ele>
        <time>2012-04-12T15:31:58.000Z</time>
      </trkpt>
      <trkpt lat="48.21365" lon="3.27558">
        <ele>64</ele>
        <time>2012-04-12T15:31:59.000Z</time>
      </trkpt>
      <trkpt lat="48.2137" lon="3.27556">
        <ele>64</ele>
        <time>2012-04-12T15:32:00.000Z</time>
      </trkpt>
      <trkpt lat="48.21377" lon="3.27554">
        <ele>64</ele>
        <time>2012-04-12T15:32:01.000Z</time>
      </trkpt>
      <trkpt lat="48.21382" lon="3.27551">
        <ele>64</ele>
        <time>2012-04-12T15:32:02.000Z</time>
      </trkpt>
      <trkpt lat="48.21389" lon="3.27549">
        <ele>64</ele>
        <time>2012-04-12T15:32:03.000Z</time>
      </trkpt>
      <trkpt lat="48.21394" lon="3.27545">
        <ele>64</ele>
        <time>2012-04-12T15:32:04.000Z</time>
      </trkpt>
      <trkpt lat="48.214" lon="3.27543">
        <ele>64</ele>
        <time>2012-04-12T15:32:05.000Z</time>
      </trkpt>
      <trkpt lat="48.21407" lon="3.27541">
        <ele>64</ele>
        <time>2012-04-12T15:32:06.000Z</time>
      </trkpt>
      <trkpt lat="48.21413" lon="3.27538">
        <ele>64</ele>
        <time>2012-04-12T15:32:07.000Z</time>
      </trkpt>
      <trkpt lat="48.21421" lon="3.27536">
        <ele>64</ele>
        <time>2012-04-12T15:32:08.000Z</time>
      </trkpt>
      <trkpt lat="48.21427" lon="3.27532">
        <ele>64</ele>
        <time>2012-04-12T15:32:09.000Z</time>
      </trkpt>
      <trkpt lat="48.21434" lon="3.2753">
        <ele>64</ele>
        <time>2012-04-12T15:32:10.000Z</time>
      </trkpt>
      <trkpt lat="48.21441" lon="3.27528">
        <ele>64</ele>
        <time>2012-04-12T15:32:11.000Z</time>
      </trkpt>
      <trkpt lat="48.21448" lon="3.27526">
        <ele>64</ele>
        <time>2012-04-12T15:32:12.000Z</time>
      </trkpt>
      <trkpt lat="48.21453" lon="3.27523">
        <ele>64</ele>
        <time>2012-04-12T15:32:13.000Z</time>
      </trkpt>
      <trkpt lat="48.2146" lon="3.27521">
        <ele>64</ele>
        <time>2012-04-12T15:32:14.000Z</time>
      </trkpt>
      <trkpt lat="48.21466" lon="3.27521">
        <ele>64</ele>
        <time>2012-04-12T15:32:15.000Z</time>
      </trkpt>
      <trkpt lat="48.21471" lon="3.27519">
        <ele>64</ele>
        <time>2012-04-12T15:32:16.000Z</time>
      </trkpt>
      <trkpt lat="48.21476" lon="3.27517">
        <ele>64</ele>
        <time>2012-04-12T15:32:17.000Z</time>
      </trkpt>
      <trkpt lat="48.21482" lon="3.27515">
        <ele>64</ele>
        <time>2012-04-12T15:32:19.000Z</time>
      </trkpt>
      <trkpt lat="48.21492" lon="3.27513">
        <ele>64</ele>
        <time>2012-04-12T15:32:27.000Z</time>
      </trkpt>
      <trkpt lat="48.215" lon="3.27508">
        <ele>64</ele>
        <time>2012-04-12T15:32:29.000Z</time>
      </trkpt>
      <trkpt lat="48.21504" lon="3.27504">
        <ele>64</ele>
        <time>2012-04-12T15:32:30.000Z</time>
      </trkpt>
      <trkpt lat="48.21512" lon="3.27491">
        <ele>64</ele>
        <time>2012-04-12T15:32:32.000Z</time>
      </trkpt>
      <trkpt lat="48.21511" lon="3.27483">
        <ele>64</ele>
        <time>2012-04-12T15:32:33.000Z</time>
      </trkpt>
      <trkpt lat="48.21509" lon="3.27474">
        <ele>64</ele>
        <time>2012-04-12T15:32:34.000Z</time>
      </trkpt>
      <trkpt lat="48.21508" lon="3.27466">
        <ele>64</ele>
        <time>2012-04-12T15:32:35.000Z</time>
      </trkpt>
      <trkpt lat="48.21507" lon="3.27457">
        <ele>64</ele>
        <time>2012-04-12T15:32:36.000Z</time>
      </trkpt>
      <trkpt lat="48.21506" lon="3.27448">
        <ele>64</ele>
        <time>2012-04-12T15:32:37.000Z</time>
      </trkpt>
      <trkpt lat="48.21504" lon="3.2744">
        <ele>64</ele>
        <time>2012-04-12T15:32:38.000Z</time>
      </trkpt>
      <trkpt lat="48.21502" lon="3.27431">
        <ele>64</ele>
        <time>2012-04-12T15:32:39.000Z</time>
      </trkpt>
      <trkpt lat="48.21501" lon="3.27423">
        <ele>64</ele>
        <time>2012-04-12T15:32:40.000Z</time>
      </trkpt>
      <trkpt lat="48.215" lon="3.27414">
        <ele>64</ele>
        <time>2012-04-12T15:32:41.000Z</time>
      </trkpt>
      <trkpt lat="48.21498" lon="3.27399">
        <ele>64</ele>
        <time>2012-04-12T15:32:43.000Z</time>
      </trkpt>
      <trkpt lat="48.21496" lon="3.27384">
        <ele>64</ele>
        <time>2012-04-12T15:32:45.000Z</time>
      </trkpt>
      <trkpt lat="48.21495" lon="3.27375">
        <ele>64</ele>
        <time>2012-04-12T15:32:46.000Z</time>
      </trkpt>
      <trkpt lat="48.21493" lon="3.27369">
        <ele>64</ele>
        <time>2012-04-12T15:32:47.000Z</time>
      </trkpt>
      <trkpt lat="48.21492" lon="3.2736">
        <ele>64</ele>
        <time>2012-04-12T15:32:48.000Z</time>
      </trkpt>
      <trkpt lat="48.2149" lon="3.27345">
        <ele>64</ele>
        <time>2012-04-12T15:32:50.000Z</time>
      </trkpt>
      <trkpt lat="48.21486" lon="3.2733">
        <ele>64</ele>
        <time>2012-04-12T15:32:52.000Z</time>
      </trkpt>
      <trkpt lat="48.21484" lon="3.27315">
        <ele>64</ele>
        <time>2012-04-12T15:32:54.000Z</time>
      </trkpt>
      <trkpt lat="48.21482" lon="3.273">
        <ele>65</ele>
        <time>2012-04-12T15:32:56.000Z</time>
      </trkpt>
      <trkpt lat="48.2148" lon="3.27285">
        <ele>65</ele>
        <time>2012-04-12T15:32:58.000Z</time>
      </trkpt>
      <trkpt lat="48.21479" lon="3.27277">
        <ele>65</ele>
        <time>2012-04-12T15:32:59.000Z</time>
      </trkpt>
      <trkpt lat="48.21477" lon="3.27262">
        <ele>65</ele>
        <time>2012-04-12T15:33:01.000Z</time>
      </trkpt>
      <trkpt lat="48.21476" lon="3.27253">
        <ele>65</ele>
        <time>2012-04-12T15:33:02.000Z</time>
      </trkpt>
      <trkpt lat="48.21473" lon="3.27238">
        <ele>65</ele>
        <time>2012-04-12T15:33:04.000Z</time>
      </trkpt>
      <trkpt lat="48.21472" lon="3.27229">
        <ele>65</ele>
        <time>2012-04-12T15:33:05.000Z</time>
      </trkpt>
      <trkpt lat="48.2147" lon="3.27214">
        <ele>65</ele>
        <time>2012-04-12T15:33:07.000Z</time>
      </trkpt>
      <trkpt lat="48.21468" lon="3.27199">
        <ele>65</ele>
        <time>2012-04-12T15:33:09.000Z</time>
      </trkpt>
      <trkpt lat="48.21467" lon="3.27191">
        <ele>65</ele>
        <time>2012-04-12T15:33:10.000Z</time>
      </trkpt>
      <trkpt lat="48.21465" lon="3.27176">
        <ele>65</ele>
        <time>2012-04-12T15:33:12.000Z</time>
      </trkpt>
      <trkpt lat="48.21464" lon="3.27167">
        <ele>65</ele>
        <time>2012-04-12T15:33:13.000Z</time>
      </trkpt>
      <trkpt lat="48.21463" lon="3.27152">
        <ele>65</ele>
        <time>2012-04-12T15:33:15.000Z</time>
      </trkpt>
      <trkpt lat="48.21465" lon="3.27139">
        <ele>65</ele>
        <time>2012-04-12T15:33:17.000Z</time>
      </trkpt>
      <trkpt lat="48.21469" lon="3.27133">
        <ele>65</ele>
        <time>2012-04-12T15:33:18.000Z</time>
      </trkpt>
      <trkpt lat="48.21474" lon="3.27131">
        <ele>65</ele>
        <time>2012-04-12T15:33:19.000Z</time>
      </trkpt>
      <trkpt lat="48.2148" lon="3.27126">
        <ele>65</ele>
        <time>2012-04-12T15:33:20.000Z</time>
      </trkpt>
      <trkpt lat="48.21485" lon="3.27124">
        <ele>65</ele>
        <time>2012-04-12T15:33:21.000Z</time>
      </trkpt>
      <trkpt lat="48.21491" lon="3.27122">
        <ele>65</ele>
        <time>2012-04-12T15:33:22.000Z</time>
      </trkpt>
      <trkpt lat="48.21496" lon="3.2712">
        <ele>65</ele>
        <time>2012-04-12T15:33:23.000Z</time>
      </trkpt>
      <trkpt lat="48.21501" lon="3.27118">
        <ele>65</ele>
        <time>2012-04-12T15:33:24.000Z</time>
      </trkpt>
      <trkpt lat="48.21511" lon="3.27116">
        <ele>65</ele>
        <time>2012-04-12T15:33:26.000Z</time>
      </trkpt>
      <trkpt lat="48.21516" lon="3.27114">
        <ele>65</ele>
        <time>2012-04-12T15:33:27.000Z</time>
      </trkpt>
      <trkpt lat="48.21522" lon="3.27111">
        <ele>65</ele>
        <time>2012-04-12T15:33:28.000Z</time>
      </trkpt>
      <trkpt lat="48.21526" lon="3.27109">
        <ele>65</ele>
        <time>2012-04-12T15:33:29.000Z</time>
      </trkpt>
      <trkpt lat="48.21531" lon="3.27107">
        <ele>65</ele>
        <time>2012-04-12T15:33:30.000Z</time>
      </trkpt>
      <trkpt lat="48.21537" lon="3.27105">
        <ele>65</ele>
        <time>2012-04-12T15:33:31.000Z</time>
      </trkpt>
      <trkpt lat="48.21542" lon="3.27103">
        <ele>65</ele>
        <time>2012-04-12T15:33:32.000Z</time>
      </trkpt>
      <trkpt lat="48.21548" lon="3.27101">
        <ele>65</ele>
        <time>2012-04-12T15:33:33.000Z</time>
      </trkpt>
      <trkpt lat="48.21553" lon="3.27099">
        <ele>65</ele>
        <time>2012-04-12T15:33:34.000Z</time>
      </trkpt>
      <trkpt lat="48.21557" lon="3.27096">
        <ele>65</ele>
        <time>2012-04-12T15:33:35.000Z</time>
      </trkpt>
      <trkpt lat="48.21562" lon="3.27096">
        <ele>65</ele>
        <time>2012-04-12T15:33:36.000Z</time>
      </trkpt>
      <trkpt lat="48.21568" lon="3.27094">
        <ele>65</ele>
        <time>2012-04-12T15:33:37.000Z</time>
      </trkpt>
      <trkpt lat="48.21573" lon="3.27094">
        <ele>65</ele>
        <time>2012-04-12T15:33:38.000Z</time>
      </trkpt>
      <trkpt lat="48.21579" lon="3.27092">
        <ele>65</ele>
        <time>2012-04-12T15:33:39.000Z</time>
      </trkpt>
      <trkpt lat="48.21584" lon="3.27092">
        <ele>65</ele>
        <time>2012-04-12T15:33:40.000Z</time>
      </trkpt>
      <trkpt lat="48.21589" lon="3.2709">
        <ele>65</ele>
        <time>2012-04-12T15:33:41.000Z</time>
      </trkpt>
      <trkpt lat="48.21595" lon="3.27088">
        <ele>65</ele>
        <time>2012-04-12T15:33:42.000Z</time>
      </trkpt>
      <trkpt lat="48.21599" lon="3.27086">
        <ele>65</ele>
        <time>2012-04-12T15:33:43.000Z</time>
      </trkpt>
      <trkpt lat="48.21601" lon="3.27079">
        <ele>64</ele>
        <time>2012-04-12T15:33:44.000Z</time>
      </trkpt>
      <trkpt lat="48.21601" lon="3.27066">
        <ele>64</ele>
        <time>2012-04-12T15:33:46.000Z</time>
      </trkpt>
      <trkpt lat="48.21601" lon="3.27054">
        <ele>64</ele>
        <time>2012-04-12T15:33:48.000Z</time>
      </trkpt>
      <trkpt lat="48.216" lon="3.27038">
        <ele>64</ele>
        <time>2012-04-12T15:33:50.000Z</time>
      </trkpt>
      <trkpt lat="48.21599" lon="3.27026">
        <ele>63</ele>
        <time>2012-04-12T15:33:52.000Z</time>
      </trkpt>
      <trkpt lat="48.21598" lon="3.27017">
        <ele>63</ele>
        <time>2012-04-12T15:33:53.000Z</time>
      </trkpt>
      <trkpt lat="48.21597" lon="3.27004">
        <ele>63</ele>
        <time>2012-04-12T15:33:55.000Z</time>
      </trkpt>
      <trkpt lat="48.21596" lon="3.26996">
        <ele>62</ele>
        <time>2012-04-12T15:33:56.000Z</time>
      </trkpt>
      <trkpt lat="48.21595" lon="3.26983">
        <ele>62</ele>
        <time>2012-04-12T15:33:58.000Z</time>
      </trkpt>
      <trkpt lat="48.21594" lon="3.26974">
        <ele>62</ele>
        <time>2012-04-12T15:33:59.000Z</time>
      </trkpt>
      <trkpt lat="48.21592" lon="3.26959">
        <ele>62</ele>
        <time>2012-04-12T15:34:01.000Z</time>
      </trkpt>
      <trkpt lat="48.2159" lon="3.26944">
        <ele>62</ele>
        <time>2012-04-12T15:34:03.000Z</time>
      </trkpt>
      <trkpt lat="48.21589" lon="3.26929">
        <ele>62</ele>
        <time>2012-04-12T15:34:05.000Z</time>
      </trkpt>
      <trkpt lat="48.21587" lon="3.26914">
        <ele>62</ele>
        <time>2012-04-12T15:34:07.000Z</time>
      </trkpt>
      <trkpt lat="48.21586" lon="3.26905">
        <ele>62</ele>
        <time>2012-04-12T15:34:08.000Z</time>
      </trkpt>
      <trkpt lat="48.21584" lon="3.2689">
        <ele>62</ele>
        <time>2012-04-12T15:34:10.000Z</time>
      </trkpt>
      <trkpt lat="48.21582" lon="3.26875">
        <ele>62</ele>
        <time>2012-04-12T15:34:12.000Z</time>
      </trkpt>
      <trkpt lat="48.21581" lon="3.26867">
        <ele>62</ele>
        <time>2012-04-12T15:34:13.000Z</time>
      </trkpt>
      <trkpt lat="48.21579" lon="3.26852">
        <ele>62</ele>
        <time>2012-04-12T15:34:15.000Z</time>
      </trkpt>
      <trkpt lat="48.21576" lon="3.26837">
        <ele>62</ele>
        <time>2012-04-12T15:34:17.000Z</time>
      </trkpt>
      <trkpt lat="48.21574" lon="3.26822">
        <ele>62</ele>
        <time>2012-04-12T15:34:19.000Z</time>
      </trkpt>
      <trkpt lat="48.21573" lon="3.26807">
        <ele>62</ele>
        <time>2012-04-12T15:34:21.000Z</time>
      </trkpt>
      <trkpt lat="48.21571" lon="3.26792">
        <ele>62</ele>
        <time>2012-04-12T15:34:23.000Z</time>
      </trkpt>
      <trkpt lat="48.2157" lon="3.26777">
        <ele>62</ele>
        <time>2012-04-12T15:34:25.000Z</time>
      </trkpt>
      <trkpt lat="48.21568" lon="3.26762">
        <ele>62</ele>
        <time>2012-04-12T15:34:27.000Z</time>
      </trkpt>
      <trkpt lat="48.21566" lon="3.26747">
        <ele>62</ele>
        <time>2012-04-12T15:34:29.000Z</time>
      </trkpt>
      <trkpt lat="48.21564" lon="3.26732">
        <ele>62</ele>
        <time>2012-04-12T15:34:31.000Z</time>
      </trkpt>
      <trkpt lat="48.21561" lon="3.26717">
        <ele>63</ele>
        <time>2012-04-12T15:34:33.000Z</time>
      </trkpt>
      <trkpt lat="48.2156" lon="3.26708">
        <ele>63</ele>
        <time>2012-04-12T15:34:34.000Z</time>
      </trkpt>
      <trkpt lat="48.21558" lon="3.26693">
        <ele>63</ele>
        <time>2012-04-12T15:34:36.000Z</time>
      </trkpt>
      <trkpt lat="48.21557" lon="3.26684">
        <ele>63</ele>
        <time>2012-04-12T15:34:37.000Z</time>
      </trkpt>
      <trkpt lat="48.21556" lon="3.26676">
        <ele>63</ele>
        <time>2012-04-12T15:34:38.000Z</time>
      </trkpt>
      <trkpt lat="48.21554" lon="3.26661">
        <ele>63</ele>
        <time>2012-04-12T15:34:40.000Z</time>
      </trkpt>
      <trkpt lat="48.21553" lon="3.26652">
        <ele>63</ele>
        <time>2012-04-12T15:34:41.000Z</time>
      </trkpt>
      <trkpt lat="48.21551" lon="3.26637">
        <ele>63</ele>
        <time>2012-04-12T15:34:43.000Z</time>
      </trkpt>
      <trkpt lat="48.21548" lon="3.26622">
        <ele>63</ele>
        <time>2012-04-12T15:34:45.000Z</time>
      </trkpt>
      <trkpt lat="48.21548" lon="3.26614">
        <ele>63</ele>
        <time>2012-04-12T15:34:46.000Z</time>
      </trkpt>
      <trkpt lat="48.21545" lon="3.26599">
        <ele>63</ele>
        <time>2012-04-12T15:34:48.000Z</time>
      </trkpt>
      <trkpt lat="48.21543" lon="3.26584">
        <ele>63</ele>
        <time>2012-04-12T15:34:50.000Z</time>
      </trkpt>
      <trkpt lat="48.21543" lon="3.26569">
        <ele>63</ele>
        <time>2012-04-12T15:34:52.000Z</time>
      </trkpt>
      <trkpt lat="48.21548" lon="3.26558">
        <ele>63</ele>
        <time>2012-04-12T15:34:54.000Z</time>
      </trkpt>
      <trkpt lat="48.21558" lon="3.26556">
        <ele>63</ele>
        <time>2012-04-12T15:34:56.000Z</time>
      </trkpt>
      <trkpt lat="48.21568" lon="3.26556">
        <ele>63</ele>
        <time>2012-04-12T15:34:58.000Z</time>
      </trkpt>
      <trkpt lat="48.21578" lon="3.26556">
        <ele>63</ele>
        <time>2012-04-12T15:35:00.000Z</time>
      </trkpt>
      <trkpt lat="48.21583" lon="3.26556">
        <ele>63</ele>
        <time>2012-04-12T15:35:01.000Z</time>
      </trkpt>
      <trkpt lat="48.21588" lon="3.26558">
        <ele>63</ele>
        <time>2012-04-12T15:35:02.000Z</time>
      </trkpt>
      <trkpt lat="48.21598" lon="3.2656">
        <ele>63</ele>
        <time>2012-04-12T15:35:04.000Z</time>
      </trkpt>
      <trkpt lat="48.21603" lon="3.2656">
        <ele>63</ele>
        <time>2012-04-12T15:35:05.000Z</time>
      </trkpt>
      <trkpt lat="48.21609" lon="3.26562">
        <ele>63</ele>
        <time>2012-04-12T15:35:06.000Z</time>
      </trkpt>
      <trkpt lat="48.21614" lon="3.26564">
        <ele>63</ele>
        <time>2012-04-12T15:35:07.000Z</time>
      </trkpt>
      <trkpt lat="48.21619" lon="3.26564">
        <ele>63</ele>
        <time>2012-04-12T15:35:08.000Z</time>
      </trkpt>
      <trkpt lat="48.21625" lon="3.26566">
        <ele>63</ele>
        <time>2012-04-12T15:35:09.000Z</time>
      </trkpt>
      <trkpt lat="48.2163" lon="3.26566">
        <ele>63</ele>
        <time>2012-04-12T15:35:10.000Z</time>
      </trkpt>
      <trkpt lat="48.21635" lon="3.26569">
        <ele>63</ele>
        <time>2012-04-12T15:35:11.000Z</time>
      </trkpt>
      <trkpt lat="48.21641" lon="3.26571">
        <ele>62</ele>
        <time>2012-04-12T15:35:12.000Z</time>
      </trkpt>
      <trkpt lat="48.21646" lon="3.26571">
        <ele>62</ele>
        <time>2012-04-12T15:35:13.000Z</time>
      </trkpt>
      <trkpt lat="48.21652" lon="3.26573">
        <ele>62</ele>
        <time>2012-04-12T15:35:14.000Z</time>
      </trkpt>
      <trkpt lat="48.21657" lon="3.26573">
        <ele>62</ele>
        <time>2012-04-12T15:35:15.000Z</time>
      </trkpt>
      <trkpt lat="48.21662" lon="3.26575">
        <ele>62</ele>
        <time>2012-04-12T15:35:16.000Z</time>
      </trkpt>
      <trkpt lat="48.21668" lon="3.26577">
        <ele>62</ele>
        <time>2012-04-12T15:35:17.000Z</time>
      </trkpt>
      <trkpt lat="48.21673" lon="3.26577">
        <ele>62</ele>
        <time>2012-04-12T15:35:18.000Z</time>
      </trkpt>
      <trkpt lat="48.21678" lon="3.26577">
        <ele>62</ele>
        <time>2012-04-12T15:35:19.000Z</time>
      </trkpt>
      <trkpt lat="48.21684" lon="3.26579">
        <ele>62</ele>
        <time>2012-04-12T15:35:20.000Z</time>
      </trkpt>
      <trkpt lat="48.21689" lon="3.26579">
        <ele>62</ele>
        <time>2012-04-12T15:35:21.000Z</time>
      </trkpt>
      <trkpt lat="48.21694" lon="3.26579">
        <ele>63</ele>
        <time>2012-04-12T15:35:22.000Z</time>
      </trkpt>
      <trkpt lat="48.217" lon="3.26579">
        <ele>63</ele>
        <time>2012-04-12T15:35:23.000Z</time>
      </trkpt>
      <trkpt lat="48.21705" lon="3.26579">
        <ele>63</ele>
        <time>2012-04-12T15:35:24.000Z</time>
      </trkpt>
      <trkpt lat="48.2171" lon="3.26579">
        <ele>63</ele>
        <time>2012-04-12T15:35:25.000Z</time>
      </trkpt>
      <trkpt lat="48.21716" lon="3.26579">
        <ele>63</ele>
        <time>2012-04-12T15:35:26.000Z</time>
      </trkpt>
      <trkpt lat="48.21726" lon="3.26579">
        <ele>63</ele>
        <time>2012-04-12T15:35:28.000Z</time>
      </trkpt>
      <trkpt lat="48.21731" lon="3.26579">
        <ele>63</ele>
        <time>2012-04-12T15:35:29.000Z</time>
      </trkpt>
      <trkpt lat="48.21741" lon="3.26581">
        <ele>62</ele>
        <time>2012-04-12T15:35:31.000Z</time>
      </trkpt>
      <trkpt lat="48.21749" lon="3.26581">
        <ele>62</ele>
        <time>2012-04-12T15:35:33.000Z</time>
      </trkpt>
      <trkpt lat="48.21759" lon="3.26581">
        <ele>63</ele>
        <time>2012-04-12T15:35:35.000Z</time>
      </trkpt>
      <trkpt lat="48.21767" lon="3.26581">
        <ele>63</ele>
        <time>2012-04-12T15:35:37.000Z</time>
      </trkpt>
      <trkpt lat="48.21777" lon="3.26581">
        <ele>63</ele>
        <time>2012-04-12T15:35:39.000Z</time>
      </trkpt>
      <trkpt lat="48.21787" lon="3.26581">
        <ele>63</ele>
        <time>2012-04-12T15:35:41.000Z</time>
      </trkpt>
      <trkpt lat="48.21796" lon="3.26584">
        <ele>63</ele>
        <time>2012-04-12T15:35:43.000Z</time>
      </trkpt>
      <trkpt lat="48.21802" lon="3.26584">
        <ele>63</ele>
        <time>2012-04-12T15:35:44.000Z</time>
      </trkpt>
      <trkpt lat="48.21807" lon="3.26584">
        <ele>63</ele>
        <time>2012-04-12T15:35:45.000Z</time>
      </trkpt>
      <trkpt lat="48.21812" lon="3.26584">
        <ele>63</ele>
        <time>2012-04-12T15:35:46.000Z</time>
      </trkpt>
      <trkpt lat="48.21818" lon="3.26581">
        <ele>63</ele>
        <time>2012-04-12T15:35:47.000Z</time>
      </trkpt>
      <trkpt lat="48.21823" lon="3.26581">
        <ele>63</ele>
        <time>2012-04-12T15:35:48.000Z</time>
      </trkpt>
      <trkpt lat="48.21829" lon="3.26581">
        <ele>63</ele>
        <time>2012-04-12T15:35:49.000Z</time>
      </trkpt>
      <trkpt lat="48.21834" lon="3.26581">
        <ele>63</ele>
        <time>2012-04-12T15:35:50.000Z</time>
      </trkpt>
      <trkpt lat="48.21839" lon="3.26579">
        <ele>63</ele>
        <time>2012-04-12T15:35:51.000Z</time>
      </trkpt>
      <trkpt lat="48.21845" lon="3.26579">
        <ele>63</ele>
        <time>2012-04-12T15:35:52.000Z</time>
      </trkpt>
      <trkpt lat="48.21851" lon="3.26579">
        <ele>62</ele>
        <time>2012-04-12T15:35:53.000Z</time>
      </trkpt>
      <trkpt lat="48.21856" lon="3.26579">
        <ele>62</ele>
        <time>2012-04-12T15:35:54.000Z</time>
      </trkpt>
      <trkpt lat="48.21862" lon="3.26579">
        <ele>62</ele>
        <time>2012-04-12T15:35:55.000Z</time>
      </trkpt>
      <trkpt lat="48.21867" lon="3.26579">
        <ele>62</ele>
        <time>2012-04-12T15:35:56.000Z</time>
      </trkpt>
      <trkpt lat="48.21874" lon="3.26579">
        <ele>62</ele>
        <time>2012-04-12T15:35:57.000Z</time>
      </trkpt>
      <trkpt lat="48.21879" lon="3.26581">
        <ele>62</ele>
        <time>2012-04-12T15:35:58.000Z</time>
      </trkpt>
      <trkpt lat="48.21884" lon="3.26581">
        <ele>62</ele>
        <time>2012-04-12T15:35:59.000Z</time>
      </trkpt>
      <trkpt lat="48.2189" lon="3.26581">
        <ele>62</ele>
        <time>2012-04-12T15:36:00.000Z</time>
      </trkpt>
      <trkpt lat="48.21895" lon="3.26581">
        <ele>61</ele>
        <time>2012-04-12T15:36:01.000Z</time>
      </trkpt>
      <trkpt lat="48.219" lon="3.26579">
        <ele>61</ele>
        <time>2012-04-12T15:36:02.000Z</time>
      </trkpt>
      <trkpt lat="48.21907" lon="3.26579">
        <ele>61</ele>
        <time>2012-04-12T15:36:03.000Z</time>
      </trkpt>
      <trkpt lat="48.21912" lon="3.26579">
        <ele>61</ele>
        <time>2012-04-12T15:36:04.000Z</time>
      </trkpt>
      <trkpt lat="48.21918" lon="3.26579">
        <ele>61</ele>
        <time>2012-04-12T15:36:05.000Z</time>
      </trkpt>
      <trkpt lat="48.21924" lon="3.26579">
        <ele>61</ele>
        <time>2012-04-12T15:36:06.000Z</time>
      </trkpt>
      <trkpt lat="48.21929" lon="3.26581">
        <ele>61</ele>
        <time>2012-04-12T15:36:07.000Z</time>
      </trkpt>
      <trkpt lat="48.21936" lon="3.26581">
        <ele>60</ele>
        <time>2012-04-12T15:36:08.000Z</time>
      </trkpt>
      <trkpt lat="48.21941" lon="3.26581">
        <ele>60</ele>
        <time>2012-04-12T15:36:09.000Z</time>
      </trkpt>
      <trkpt lat="48.21948" lon="3.26581">
        <ele>60</ele>
        <time>2012-04-12T15:36:10.000Z</time>
      </trkpt>
      <trkpt lat="48.21953" lon="3.26581">
        <ele>60</ele>
        <time>2012-04-12T15:36:11.000Z</time>
      </trkpt>
      <trkpt lat="48.21959" lon="3.26581">
        <ele>60</ele>
        <time>2012-04-12T15:36:12.000Z</time>
      </trkpt>
      <trkpt lat="48.21965" lon="3.26581">
        <ele>60</ele>
        <time>2012-04-12T15:36:13.000Z</time>
      </trkpt>
      <trkpt lat="48.21971" lon="3.26581">
        <ele>60</ele>
        <time>2012-04-12T15:36:14.000Z</time>
      </trkpt>
      <trkpt lat="48.21977" lon="3.26581">
        <ele>60</ele>
        <time>2012-04-12T15:36:15.000Z</time>
      </trkpt>
      <trkpt lat="48.21983" lon="3.26581">
        <ele>60</ele>
        <time>2012-04-12T15:36:16.000Z</time>
      </trkpt>
      <trkpt lat="48.21988" lon="3.26581">
        <ele>60</ele>
        <time>2012-04-12T15:36:17.000Z</time>
      </trkpt>
      <trkpt lat="48.21995" lon="3.26581">
        <ele>60</ele>
        <time>2012-04-12T15:36:18.000Z</time>
      </trkpt>
      <trkpt lat="48.22" lon="3.26581">
        <ele>60</ele>
        <time>2012-04-12T15:36:19.000Z</time>
      </trkpt>
      <trkpt lat="48.22007" lon="3.26581">
        <ele>60</ele>
        <time>2012-04-12T15:36:20.000Z</time>
      </trkpt>
      <trkpt lat="48.22013" lon="3.26581">
        <ele>60</ele>
        <time>2012-04-12T15:36:21.000Z</time>
      </trkpt>
      <trkpt lat="48.2202" lon="3.26581">
        <ele>60</ele>
        <time>2012-04-12T15:36:22.000Z</time>
      </trkpt>
      <trkpt lat="48.22025" lon="3.26581">
        <ele>60</ele>
        <time>2012-04-12T15:36:23.000Z</time>
      </trkpt>
      <trkpt lat="48.22031" lon="3.26581">
        <ele>60</ele>
        <time>2012-04-12T15:36:24.000Z</time>
      </trkpt>
      <trkpt lat="48.22038" lon="3.26581">
        <ele>60</ele>
        <time>2012-04-12T15:36:25.000Z</time>
      </trkpt>
      <trkpt lat="48.22044" lon="3.26581">
        <ele>61</ele>
        <time>2012-04-12T15:36:26.000Z</time>
      </trkpt>
      <trkpt lat="48.22051" lon="3.26579">
        <ele>61</ele>
        <time>2012-04-12T15:36:27.000Z</time>
      </trkpt>
      <trkpt lat="48.22057" lon="3.26579">
        <ele>61</ele>
        <time>2012-04-12T15:36:28.000Z</time>
      </trkpt>
      <trkpt lat="48.22064" lon="3.26579">
        <ele>61</ele>
        <time>2012-04-12T15:36:29.000Z</time>
      </trkpt>
      <trkpt lat="48.2207" lon="3.26579">
        <ele>61</ele>
        <time>2012-04-12T15:36:30.000Z</time>
      </trkpt>
      <trkpt lat="48.22076" lon="3.26579">
        <ele>61</ele>
        <time>2012-04-12T15:36:31.000Z</time>
      </trkpt>
      <trkpt lat="48.22082" lon="3.26579">
        <ele>61</ele>
        <time>2012-04-12T15:36:32.000Z</time>
      </trkpt>
      <trkpt lat="48.22088" lon="3.26577">
        <ele>61</ele>
        <time>2012-04-12T15:36:33.000Z</time>
      </trkpt>
      <trkpt lat="48.22095" lon="3.26577">
        <ele>61</ele>
        <time>2012-04-12T15:36:34.000Z</time>
      </trkpt>
      <trkpt lat="48.22101" lon="3.26577">
        <ele>61</ele>
        <time>2012-04-12T15:36:35.000Z</time>
      </trkpt>
      <trkpt lat="48.22106" lon="3.26577">
        <ele>61</ele>
        <time>2012-04-12T15:36:36.000Z</time>
      </trkpt>
      <trkpt lat="48.22113" lon="3.26577">
        <ele>61</ele>
        <time>2012-04-12T15:36:37.000Z</time>
      </trkpt>
      <trkpt lat="48.22119" lon="3.26575">
        <ele>61</ele>
        <time>2012-04-12T15:36:38.000Z</time>
      </trkpt>
      <trkpt lat="48.22126" lon="3.26575">
        <ele>61</ele>
        <time>2012-04-12T15:36:39.000Z</time>
      </trkpt>
      <trkpt lat="48.22131" lon="3.26575">
        <ele>61</ele>
        <time>2012-04-12T15:36:40.000Z</time>
      </trkpt>
      <trkpt lat="48.22138" lon="3.26575">
        <ele>61</ele>
        <time>2012-04-12T15:36:41.000Z</time>
      </trkpt>
      <trkpt lat="48.22144" lon="3.26573">
        <ele>61</ele>
        <time>2012-04-12T15:36:42.000Z</time>
      </trkpt>
      <trkpt lat="48.22149" lon="3.26573">
        <ele>61</ele>
        <time>2012-04-12T15:36:43.000Z</time>
      </trkpt>
      <trkpt lat="48.22156" lon="3.26573">
        <ele>61</ele>
        <time>2012-04-12T15:36:44.000Z</time>
      </trkpt>
      <trkpt lat="48.22162" lon="3.26573">
        <ele>61</ele>
        <time>2012-04-12T15:36:45.000Z</time>
      </trkpt>
      <trkpt lat="48.22169" lon="3.26575">
        <ele>61</ele>
        <time>2012-04-12T15:36:46.000Z</time>
      </trkpt>
      <trkpt lat="48.22175" lon="3.26575">
        <ele>61</ele>
        <time>2012-04-12T15:36:47.000Z</time>
      </trkpt>
      <trkpt lat="48.22182" lon="3.26575">
        <ele>62</ele>
        <time>2012-04-12T15:36:48.000Z</time>
      </trkpt>
      <trkpt lat="48.22188" lon="3.26575">
        <ele>62</ele>
        <time>2012-04-12T15:36:49.000Z</time>
      </trkpt>
      <trkpt lat="48.22194" lon="3.26575">
        <ele>62</ele>
        <time>2012-04-12T15:36:50.000Z</time>
      </trkpt>
      <trkpt lat="48.22201" lon="3.26575">
        <ele>62</ele>
        <time>2012-04-12T15:36:51.000Z</time>
      </trkpt>
      <trkpt lat="48.22207" lon="3.26575">
        <ele>62</ele>
        <time>2012-04-12T15:36:52.000Z</time>
      </trkpt>
      <trkpt lat="48.22214" lon="3.26575">
        <ele>62</ele>
        <time>2012-04-12T15:36:53.000Z</time>
      </trkpt>
      <trkpt lat="48.2222" lon="3.26575">
        <ele>62</ele>
        <time>2012-04-12T15:36:54.000Z</time>
      </trkpt>
      <trkpt lat="48.22227" lon="3.26575">
        <ele>62</ele>
        <time>2012-04-12T15:36:55.000Z</time>
      </trkpt>
      <trkpt lat="48.22233" lon="3.26575">
        <ele>62</ele>
        <time>2012-04-12T15:36:56.000Z</time>
      </trkpt>
      <trkpt lat="48.2224" lon="3.26575">
        <ele>62</ele>
        <time>2012-04-12T15:36:57.000Z</time>
      </trkpt>
      <trkpt lat="48.22246" lon="3.26575">
        <ele>62</ele>
        <time>2012-04-12T15:36:58.000Z</time>
      </trkpt>
      <trkpt lat="48.22252" lon="3.26575">
        <ele>62</ele>
        <time>2012-04-12T15:36:59.000Z</time>
      </trkpt>
      <trkpt lat="48.2226" lon="3.26575">
        <ele>62</ele>
        <time>2012-04-12T15:37:00.000Z</time>
      </trkpt>
      <trkpt lat="48.22266" lon="3.26575">
        <ele>62</ele>
        <time>2012-04-12T15:37:01.000Z</time>
      </trkpt>
      <trkpt lat="48.22273" lon="3.26575">
        <ele>62</ele>
        <time>2012-04-12T15:37:02.000Z</time>
      </trkpt>
      <trkpt lat="48.22279" lon="3.26575">
        <ele>62</ele>
        <time>2012-04-12T15:37:03.000Z</time>
      </trkpt>
      <trkpt lat="48.22287" lon="3.26573">
        <ele>62</ele>
        <time>2012-04-12T15:37:04.000Z</time>
      </trkpt>
      <trkpt lat="48.22294" lon="3.26573">
        <ele>62</ele>
        <time>2012-04-12T15:37:05.000Z</time>
      </trkpt>
      <trkpt lat="48.22301" lon="3.26573">
        <ele>62</ele>
        <time>2012-04-12T15:37:06.000Z</time>
      </trkpt>
      <trkpt lat="48.22308" lon="3.26573">
        <ele>62</ele>
        <time>2012-04-12T15:37:07.000Z</time>
      </trkpt>
      <trkpt lat="48.22316" lon="3.26571">
        <ele>62</ele>
        <time>2012-04-12T15:37:08.000Z</time>
      </trkpt>
      <trkpt lat="48.22323" lon="3.26571">
        <ele>62</ele>
        <time>2012-04-12T15:37:09.000Z</time>
      </trkpt>
      <trkpt lat="48.22331" lon="3.26571">
        <ele>62</ele>
        <time>2012-04-12T15:37:10.000Z</time>
      </trkpt>
      <trkpt lat="48.22337" lon="3.26571">
        <ele>62</ele>
        <time>2012-04-12T15:37:11.000Z</time>
      </trkpt>
      <trkpt lat="48.22345" lon="3.26571">
        <ele>62</ele>
        <time>2012-04-12T15:37:12.000Z</time>
      </trkpt>
      <trkpt lat="48.22352" lon="3.26569">
        <ele>62</ele>
        <time>2012-04-12T15:37:13.000Z</time>
      </trkpt>
      <trkpt lat="48.2236" lon="3.26569">
        <ele>62</ele>
        <time>2012-04-12T15:37:14.000Z</time>
      </trkpt>
      <trkpt lat="48.22367" lon="3.26566">
        <ele>62</ele>
        <time>2012-04-12T15:37:15.000Z</time>
      </trkpt>
      <trkpt lat="48.22376" lon="3.26566">
        <ele>62</ele>
        <time>2012-04-12T15:37:16.000Z</time>
      </trkpt>
      <trkpt lat="48.22383" lon="3.26566">
        <ele>62</ele>
        <time>2012-04-12T15:37:17.000Z</time>
      </trkpt>
      <trkpt lat="48.22391" lon="3.26566">
        <ele>62</ele>
        <time>2012-04-12T15:37:18.000Z</time>
      </trkpt>
      <trkpt lat="48.22398" lon="3.26566">
        <ele>62</ele>
        <time>2012-04-12T15:37:19.000Z</time>
      </trkpt>
      <trkpt lat="48.22406" lon="3.26564">
        <ele>62</ele>
        <time>2012-04-12T15:37:20.000Z</time>
      </trkpt>
      <trkpt lat="48.22413" lon="3.26564">
        <ele>62</ele>
        <time>2012-04-12T15:37:21.000Z</time>
      </trkpt>
      <trkpt lat="48.22421" lon="3.26564">
        <ele>62</ele>
        <time>2012-04-12T15:37:22.000Z</time>
      </trkpt>
      <trkpt lat="48.22428" lon="3.26562">
        <ele>62</ele>
        <time>2012-04-12T15:37:23.000Z</time>
      </trkpt>
      <trkpt lat="48.22437" lon="3.26562">
        <ele>62</ele>
        <time>2012-04-12T15:37:24.000Z</time>
      </trkpt>
      <trkpt lat="48.22444" lon="3.26562">
        <ele>62</ele>
        <time>2012-04-12T15:37:25.000Z</time>
      </trkpt>
      <trkpt lat="48.22451" lon="3.2656">
        <ele>62</ele>
        <time>2012-04-12T15:37:26.000Z</time>
      </trkpt>
      <trkpt lat="48.22458" lon="3.2656">
        <ele>62</ele>
        <time>2012-04-12T15:37:27.000Z</time>
      </trkpt>
      <trkpt lat="48.22466" lon="3.2656">
        <ele>62</ele>
        <time>2012-04-12T15:37:28.000Z</time>
      </trkpt>
      <trkpt lat="48.22473" lon="3.26558">
        <ele>62</ele>
        <time>2012-04-12T15:37:29.000Z</time>
      </trkpt>
      <trkpt lat="48.22481" lon="3.26558">
        <ele>62</ele>
        <time>2012-04-12T15:37:30.000Z</time>
      </trkpt>
      <trkpt lat="48.22487" lon="3.26558">
        <ele>62</ele>
        <time>2012-04-12T15:37:31.000Z</time>
      </trkpt>
      <trkpt lat="48.22495" lon="3.26556">
        <ele>62</ele>
        <time>2012-04-12T15:37:32.000Z</time>
      </trkpt>
      <trkpt lat="48.22502" lon="3.26554">
        <ele>63</ele>
        <time>2012-04-12T15:37:33.000Z</time>
      </trkpt>
      <trkpt lat="48.22509" lon="3.26554">
        <ele>63</ele>
        <time>2012-04-12T15:37:34.000Z</time>
      </trkpt>
      <trkpt lat="48.22516" lon="3.26551">
        <ele>63</ele>
        <time>2012-04-12T15:37:35.000Z</time>
      </trkpt>
      <trkpt lat="48.22523" lon="3.26549">
        <ele>63</ele>
        <time>2012-04-12T15:37:36.000Z</time>
      </trkpt>
      <trkpt lat="48.2253" lon="3.26547">
        <ele>63</ele>
        <time>2012-04-12T15:37:37.000Z</time>
      </trkpt>
      <trkpt lat="48.22537" lon="3.26545">
        <ele>63</ele>
        <time>2012-04-12T15:37:38.000Z</time>
      </trkpt>
      <trkpt lat="48.22544" lon="3.26543">
        <ele>63</ele>
        <time>2012-04-12T15:37:39.000Z</time>
      </trkpt>
      <trkpt lat="48.22551" lon="3.26543">
        <ele>63</ele>
        <time>2012-04-12T15:37:40.000Z</time>
      </trkpt>
      <trkpt lat="48.22558" lon="3.26541">
        <ele>62</ele>
        <time>2012-04-12T15:37:41.000Z</time>
      </trkpt>
      <trkpt lat="48.22565" lon="3.26538">
        <ele>62</ele>
        <time>2012-04-12T15:37:42.000Z</time>
      </trkpt>
      <trkpt lat="48.22572" lon="3.26536">
        <ele>62</ele>
        <time>2012-04-12T15:37:43.000Z</time>
      </trkpt>
      <trkpt lat="48.2258" lon="3.26534">
        <ele>62</ele>
        <time>2012-04-12T15:37:44.000Z</time>
      </trkpt>
      <trkpt lat="48.22586" lon="3.26534">
        <ele>63</ele>
        <time>2012-04-12T15:37:45.000Z</time>
      </trkpt>
      <trkpt lat="48.22594" lon="3.26532">
        <ele>63</ele>
        <time>2012-04-12T15:37:46.000Z</time>
      </trkpt>
      <trkpt lat="48.226" lon="3.2653">
        <ele>63</ele>
        <time>2012-04-12T15:37:47.000Z</time>
      </trkpt>
      <trkpt lat="48.22606" lon="3.26528">
        <ele>63</ele>
        <time>2012-04-12T15:37:48.000Z</time>
      </trkpt>
      <trkpt lat="48.22613" lon="3.26526">
        <ele>63</ele>
        <time>2012-04-12T15:37:49.000Z</time>
      </trkpt>
      <trkpt lat="48.22619" lon="3.26524">
        <ele>63</ele>
        <time>2012-04-12T15:37:50.000Z</time>
      </trkpt>
      <trkpt lat="48.22626" lon="3.26521">
        <ele>63</ele>
        <time>2012-04-12T15:37:51.000Z</time>
      </trkpt>
      <trkpt lat="48.22633" lon="3.26519">
        <ele>63</ele>
        <time>2012-04-12T15:37:52.000Z</time>
      </trkpt>
      <trkpt lat="48.22639" lon="3.26517">
        <ele>63</ele>
        <time>2012-04-12T15:37:53.000Z</time>
      </trkpt>
      <trkpt lat="48.22645" lon="3.26515">
        <ele>63</ele>
        <time>2012-04-12T15:37:54.000Z</time>
      </trkpt>
      <trkpt lat="48.22652" lon="3.26515">
        <ele>63</ele>
        <time>2012-04-12T15:37:55.000Z</time>
      </trkpt>
      <trkpt lat="48.22658" lon="3.26513">
        <ele>63</ele>
        <time>2012-04-12T15:37:56.000Z</time>
      </trkpt>
      <trkpt lat="48.22663" lon="3.26511">
        <ele>63</ele>
        <time>2012-04-12T15:37:57.000Z</time>
      </trkpt>
      <trkpt lat="48.2267" lon="3.26508">
        <ele>63</ele>
        <time>2012-04-12T15:37:58.000Z</time>
      </trkpt>
      <trkpt lat="48.22676" lon="3.26506">
        <ele>63</ele>
        <time>2012-04-12T15:37:59.000Z</time>
      </trkpt>
      <trkpt lat="48.22682" lon="3.26506">
        <ele>63</ele>
        <time>2012-04-12T15:38:00.000Z</time>
      </trkpt>
      <trkpt lat="48.22688" lon="3.26504">
        <ele>63</ele>
        <time>2012-04-12T15:38:01.000Z</time>
      </trkpt>
      <trkpt lat="48.22693" lon="3.26502">
        <ele>63</ele>
        <time>2012-04-12T15:38:02.000Z</time>
      </trkpt>
      <trkpt lat="48.227" lon="3.265">
        <ele>63</ele>
        <time>2012-04-12T15:38:03.000Z</time>
      </trkpt>
      <trkpt lat="48.22705" lon="3.26498">
        <ele>62</ele>
        <time>2012-04-12T15:38:04.000Z</time>
      </trkpt>
      <trkpt lat="48.22712" lon="3.26496">
        <ele>62</ele>
        <time>2012-04-12T15:38:05.000Z</time>
      </trkpt>
      <trkpt lat="48.22718" lon="3.26494">
        <ele>62</ele>
        <time>2012-04-12T15:38:06.000Z</time>
      </trkpt>
      <trkpt lat="48.22723" lon="3.26494">
        <ele>62</ele>
        <time>2012-04-12T15:38:07.000Z</time>
      </trkpt>
      <trkpt lat="48.2273" lon="3.26491">
        <ele>62</ele>
        <time>2012-04-12T15:38:08.000Z</time>
      </trkpt>
      <trkpt lat="48.22736" lon="3.26489">
        <ele>62</ele>
        <time>2012-04-12T15:38:09.000Z</time>
      </trkpt>
      <trkpt lat="48.22743" lon="3.26487">
        <ele>62</ele>
        <time>2012-04-12T15:38:10.000Z</time>
      </trkpt>
      <trkpt lat="48.22748" lon="3.26485">
        <ele>62</ele>
        <time>2012-04-12T15:38:11.000Z</time>
      </trkpt>
      <trkpt lat="48.22754" lon="3.26481">
        <ele>63</ele>
        <time>2012-04-12T15:38:12.000Z</time>
      </trkpt>
      <trkpt lat="48.2276" lon="3.26478">
        <ele>63</ele>
        <time>2012-04-12T15:38:13.000Z</time>
      </trkpt>
      <trkpt lat="48.22766" lon="3.26476">
        <ele>63</ele>
        <time>2012-04-12T15:38:14.000Z</time>
      </trkpt>
      <trkpt lat="48.22772" lon="3.26474">
        <ele>63</ele>
        <time>2012-04-12T15:38:15.000Z</time>
      </trkpt>
      <trkpt lat="48.22777" lon="3.26472">
        <ele>63</ele>
        <time>2012-04-12T15:38:16.000Z</time>
      </trkpt>
      <trkpt lat="48.22783" lon="3.2647">
        <ele>63</ele>
        <time>2012-04-12T15:38:17.000Z</time>
      </trkpt>
      <trkpt lat="48.22789" lon="3.26468">
        <ele>63</ele>
        <time>2012-04-12T15:38:18.000Z</time>
      </trkpt>
      <trkpt lat="48.22795" lon="3.26466">
        <ele>63</ele>
        <time>2012-04-12T15:38:19.000Z</time>
      </trkpt>
      <trkpt lat="48.22801" lon="3.26463">
        <ele>63</ele>
        <time>2012-04-12T15:38:20.000Z</time>
      </trkpt>
      <trkpt lat="48.22807" lon="3.26461">
        <ele>63</ele>
        <time>2012-04-12T15:38:21.000Z</time>
      </trkpt>
      <trkpt lat="48.22814" lon="3.26459">
        <ele>63</ele>
        <time>2012-04-12T15:38:22.000Z</time>
      </trkpt>
      <trkpt lat="48.2282" lon="3.26457">
        <ele>63</ele>
        <time>2012-04-12T15:38:23.000Z</time>
      </trkpt>
      <trkpt lat="48.22825" lon="3.26455">
        <ele>63</ele>
        <time>2012-04-12T15:38:24.000Z</time>
      </trkpt>
      <trkpt lat="48.22832" lon="3.26453">
        <ele>63</ele>
        <time>2012-04-12T15:38:25.000Z</time>
      </trkpt>
      <trkpt lat="48.22838" lon="3.2645">
        <ele>64</ele>
        <time>2012-04-12T15:38:26.000Z</time>
      </trkpt>
      <trkpt lat="48.22845" lon="3.26448">
        <ele>64</ele>
        <time>2012-04-12T15:38:27.000Z</time>
      </trkpt>
      <trkpt lat="48.22851" lon="3.26446">
        <ele>64</ele>
        <time>2012-04-12T15:38:28.000Z</time>
      </trkpt>
      <trkpt lat="48.22857" lon="3.26444">
        <ele>64</ele>
        <time>2012-04-12T15:38:29.000Z</time>
      </trkpt>
      <trkpt lat="48.22863" lon="3.26442">
        <ele>64</ele>
        <time>2012-04-12T15:38:30.000Z</time>
      </trkpt>
      <trkpt lat="48.22869" lon="3.2644">
        <ele>64</ele>
        <time>2012-04-12T15:38:31.000Z</time>
      </trkpt>
      <trkpt lat="48.22876" lon="3.26436">
        <ele>64</ele>
        <time>2012-04-12T15:38:32.000Z</time>
      </trkpt>
      <trkpt lat="48.22882" lon="3.26433">
        <ele>64</ele>
        <time>2012-04-12T15:38:33.000Z</time>
      </trkpt>
      <trkpt lat="48.22889" lon="3.26431">
        <ele>64</ele>
        <time>2012-04-12T15:38:34.000Z</time>
      </trkpt>
      <trkpt lat="48.22895" lon="3.26429">
        <ele>63</ele>
        <time>2012-04-12T15:38:35.000Z</time>
      </trkpt>
      <trkpt lat="48.22901" lon="3.26425">
        <ele>63</ele>
        <time>2012-04-12T15:38:36.000Z</time>
      </trkpt>
      <trkpt lat="48.22908" lon="3.26423">
        <ele>63</ele>
        <time>2012-04-12T15:38:37.000Z</time>
      </trkpt>
      <trkpt lat="48.22913" lon="3.2642">
        <ele>63</ele>
        <time>2012-04-12T15:38:38.000Z</time>
      </trkpt>
      <trkpt lat="48.2292" lon="3.26416">
        <ele>63</ele>
        <time>2012-04-12T15:38:39.000Z</time>
      </trkpt>
      <trkpt lat="48.22926" lon="3.26414">
        <ele>63</ele>
        <time>2012-04-12T15:38:40.000Z</time>
      </trkpt>
      <trkpt lat="48.22933" lon="3.26412">
        <ele>63</ele>
        <time>2012-04-12T15:38:41.000Z</time>
      </trkpt>
      <trkpt lat="48.22939" lon="3.26408">
        <ele>63</ele>
        <time>2012-04-12T15:38:42.000Z</time>
      </trkpt>
      <trkpt lat="48.22945" lon="3.26406">
        <ele>64</ele>
        <time>2012-04-12T15:38:43.000Z</time>
      </trkpt>
      <trkpt lat="48.22951" lon="3.26401">
        <ele>64</ele>
        <time>2012-04-12T15:38:44.000Z</time>
      </trkpt>
      <trkpt lat="48.22957" lon="3.26399">
        <ele>64</ele>
        <time>2012-04-12T15:38:45.000Z</time>
      </trkpt>
      <trkpt lat="48.22964" lon="3.26397">
        <ele>64</ele>
        <time>2012-04-12T15:38:46.000Z</time>
      </trkpt>
      <trkpt lat="48.2297" lon="3.26393">
        <ele>64</ele>
        <time>2012-04-12T15:38:47.000Z</time>
      </trkpt>
      <trkpt lat="48.22976" lon="3.2639">
        <ele>64</ele>
        <time>2012-04-12T15:38:48.000Z</time>
      </trkpt>
      <trkpt lat="48.22982" lon="3.26386">
        <ele>64</ele>
        <time>2012-04-12T15:38:49.000Z</time>
      </trkpt>
      <trkpt lat="48.22988" lon="3.26384">
        <ele>64</ele>
        <time>2012-04-12T15:38:50.000Z</time>
      </trkpt>
      <trkpt lat="48.22994" lon="3.2638">
        <ele>64</ele>
        <time>2012-04-12T15:38:51.000Z</time>
      </trkpt>
      <trkpt lat="48.23" lon="3.26378">
        <ele>64</ele>
        <time>2012-04-12T15:38:52.000Z</time>
      </trkpt>
      <trkpt lat="48.23006" lon="3.26375">
        <ele>64</ele>
        <time>2012-04-12T15:38:53.000Z</time>
      </trkpt>
      <trkpt lat="48.23011" lon="3.26371">
        <ele>64</ele>
        <time>2012-04-12T15:38:54.000Z</time>
      </trkpt>
      <trkpt lat="48.23017" lon="3.26369">
        <ele>64</ele>
        <time>2012-04-12T15:38:55.000Z</time>
      </trkpt>
      <trkpt lat="48.23023" lon="3.26367">
        <ele>64</ele>
        <time>2012-04-12T15:38:56.000Z</time>
      </trkpt>
      <trkpt lat="48.23029" lon="3.26365">
        <ele>64</ele>
        <time>2012-04-12T15:38:57.000Z</time>
      </trkpt>
      <trkpt lat="48.23034" lon="3.26363">
        <ele>64</ele>
        <time>2012-04-12T15:38:58.000Z</time>
      </trkpt>
      <trkpt lat="48.23041" lon="3.26358">
        <ele>64</ele>
        <time>2012-04-12T15:38:59.000Z</time>
      </trkpt>
      <trkpt lat="48.23047" lon="3.26356">
        <ele>64</ele>
        <time>2012-04-12T15:39:00.000Z</time>
      </trkpt>
      <trkpt lat="48.23053" lon="3.26354">
        <ele>64</ele>
        <time>2012-04-12T15:39:01.000Z</time>
      </trkpt>
      <trkpt lat="48.23059" lon="3.26352">
        <ele>64</ele>
        <time>2012-04-12T15:39:02.000Z</time>
      </trkpt>
      <trkpt lat="48.23064" lon="3.2635">
        <ele>64</ele>
        <time>2012-04-12T15:39:03.000Z</time>
      </trkpt>
      <trkpt lat="48.23071" lon="3.26345">
        <ele>63</ele>
        <time>2012-04-12T15:39:04.000Z</time>
      </trkpt>
      <trkpt lat="48.23077" lon="3.26343">
        <ele>63</ele>
        <time>2012-04-12T15:39:05.000Z</time>
      </trkpt>
      <trkpt lat="48.23083" lon="3.26341">
        <ele>63</ele>
        <time>2012-04-12T15:39:06.000Z</time>
      </trkpt>
      <trkpt lat="48.23089" lon="3.26339">
        <ele>63</ele>
        <time>2012-04-12T15:39:07.000Z</time>
      </trkpt>
      <trkpt lat="48.23095" lon="3.26335">
        <ele>64</ele>
        <time>2012-04-12T15:39:08.000Z</time>
      </trkpt>
      <trkpt lat="48.23101" lon="3.26332">
        <ele>64</ele>
        <time>2012-04-12T15:39:09.000Z</time>
      </trkpt>
      <trkpt lat="48.23106" lon="3.2633">
        <ele>64</ele>
        <time>2012-04-12T15:39:10.000Z</time>
      </trkpt>
      <trkpt lat="48.23113" lon="3.26326">
        <ele>64</ele>
        <time>2012-04-12T15:39:11.000Z</time>
      </trkpt>
      <trkpt lat="48.23118" lon="3.26324">
        <ele>65</ele>
        <time>2012-04-12T15:39:12.000Z</time>
      </trkpt>
      <trkpt lat="48.23125" lon="3.2632">
        <ele>65</ele>
        <time>2012-04-12T15:39:13.000Z</time>
      </trkpt>
      <trkpt lat="48.2313" lon="3.26318">
        <ele>65</ele>
        <time>2012-04-12T15:39:14.000Z</time>
      </trkpt>
      <trkpt lat="48.23136" lon="3.26313">
        <ele>65</ele>
        <time>2012-04-12T15:39:15.000Z</time>
      </trkpt>
      <trkpt lat="48.23142" lon="3.26311">
        <ele>65</ele>
        <time>2012-04-12T15:39:16.000Z</time>
      </trkpt>
      <trkpt lat="48.23147" lon="3.26307">
        <ele>65</ele>
        <time>2012-04-12T15:39:17.000Z</time>
      </trkpt>
      <trkpt lat="48.23154" lon="3.26302">
        <ele>66</ele>
        <time>2012-04-12T15:39:18.000Z</time>
      </trkpt>
      <trkpt lat="48.23159" lon="3.263">
        <ele>66</ele>
        <time>2012-04-12T15:39:19.000Z</time>
      </trkpt>
      <trkpt lat="48.23165" lon="3.26296">
        <ele>66</ele>
        <time>2012-04-12T15:39:20.000Z</time>
      </trkpt>
      <trkpt lat="48.23171" lon="3.26294">
        <ele>67</ele>
        <time>2012-04-12T15:39:21.000Z</time>
      </trkpt>
      <trkpt lat="48.23176" lon="3.2629">
        <ele>67</ele>
        <time>2012-04-12T15:39:22.000Z</time>
      </trkpt>
      <trkpt lat="48.23182" lon="3.26285">
        <ele>67</ele>
        <time>2012-04-12T15:39:23.000Z</time>
      </trkpt>
      <trkpt lat="48.23188" lon="3.26281">
        <ele>67</ele>
        <time>2012-04-12T15:39:24.000Z</time>
      </trkpt>
      <trkpt lat="48.23194" lon="3.26275">
        <ele>67</ele>
        <time>2012-04-12T15:39:25.000Z</time>
      </trkpt>
      <trkpt lat="48.232" lon="3.2627">
        <ele>67</ele>
        <time>2012-04-12T15:39:26.000Z</time>
      </trkpt>
      <trkpt lat="48.23205" lon="3.26266">
        <ele>67</ele>
        <time>2012-04-12T15:39:27.000Z</time>
      </trkpt>
      <trkpt lat="48.2321" lon="3.26262">
        <ele>67</ele>
        <time>2012-04-12T15:39:28.000Z</time>
      </trkpt>
      <trkpt lat="48.23216" lon="3.26257">
        <ele>67</ele>
        <time>2012-04-12T15:39:29.000Z</time>
      </trkpt>
      <trkpt lat="48.23221" lon="3.26251">
        <ele>67</ele>
        <time>2012-04-12T15:39:30.000Z</time>
      </trkpt>
      <trkpt lat="48.23226" lon="3.26247">
        <ele>66</ele>
        <time>2012-04-12T15:39:31.000Z</time>
      </trkpt>
      <trkpt lat="48.23232" lon="3.26242">
        <ele>66</ele>
        <time>2012-04-12T15:39:32.000Z</time>
      </trkpt>
      <trkpt lat="48.23237" lon="3.26238">
        <ele>66</ele>
        <time>2012-04-12T15:39:33.000Z</time>
      </trkpt>
      <trkpt lat="48.23243" lon="3.26234">
        <ele>66</ele>
        <time>2012-04-12T15:39:34.000Z</time>
      </trkpt>
      <trkpt lat="48.23248" lon="3.2623">
        <ele>66</ele>
        <time>2012-04-12T15:39:35.000Z</time>
      </trkpt>
      <trkpt lat="48.23253" lon="3.26225">
        <ele>65</ele>
        <time>2012-04-12T15:39:36.000Z</time>
      </trkpt>
      <trkpt lat="48.2326" lon="3.26219">
        <ele>65</ele>
        <time>2012-04-12T15:39:37.000Z</time>
      </trkpt>
      <trkpt lat="48.23265" lon="3.26214">
        <ele>65</ele>
        <time>2012-04-12T15:39:38.000Z</time>
      </trkpt>
      <trkpt lat="48.2327" lon="3.26208">
        <ele>65</ele>
        <time>2012-04-12T15:39:39.000Z</time>
      </trkpt>
      <trkpt lat="48.23276" lon="3.26204">
        <ele>65</ele>
        <time>2012-04-12T15:39:40.000Z</time>
      </trkpt>
      <trkpt lat="48.23281" lon="3.26197">
        <ele>64</ele>
        <time>2012-04-12T15:39:41.000Z</time>
      </trkpt>
      <trkpt lat="48.23287" lon="3.26193">
        <ele>64</ele>
        <time>2012-04-12T15:39:42.000Z</time>
      </trkpt>
      <trkpt lat="48.23292" lon="3.26187">
        <ele>64</ele>
        <time>2012-04-12T15:39:43.000Z</time>
      </trkpt>
      <trkpt lat="48.23297" lon="3.26182">
        <ele>64</ele>
        <time>2012-04-12T15:39:44.000Z</time>
      </trkpt>
      <trkpt lat="48.23303" lon="3.26178">
        <ele>64</ele>
        <time>2012-04-12T15:39:45.000Z</time>
      </trkpt>
      <trkpt lat="48.23308" lon="3.26172">
        <ele>63</ele>
        <time>2012-04-12T15:39:46.000Z</time>
      </trkpt>
      <trkpt lat="48.23312" lon="3.26167">
        <ele>63</ele>
        <time>2012-04-12T15:39:47.000Z</time>
      </trkpt>
      <trkpt lat="48.23318" lon="3.26161">
        <ele>63</ele>
        <time>2012-04-12T15:39:48.000Z</time>
      </trkpt>
      <trkpt lat="48.23322" lon="3.26157">
        <ele>63</ele>
        <time>2012-04-12T15:39:49.000Z</time>
      </trkpt>
      <trkpt lat="48.23326" lon="3.2615">
        <ele>63</ele>
        <time>2012-04-12T15:39:50.000Z</time>
      </trkpt>
      <trkpt lat="48.23331" lon="3.26144">
        <ele>63</ele>
        <time>2012-04-12T15:39:51.000Z</time>
      </trkpt>
      <trkpt lat="48.23335" lon="3.26137">
        <ele>63</ele>
        <time>2012-04-12T15:39:52.000Z</time>
      </trkpt>
      <trkpt lat="48.23339" lon="3.26131">
        <ele>63</ele>
        <time>2012-04-12T15:39:53.000Z</time>
      </trkpt>
      <trkpt lat="48.23344" lon="3.26124">
        <ele>63</ele>
        <time>2012-04-12T15:39:54.000Z</time>
      </trkpt>
      <trkpt lat="48.23347" lon="3.26118">
        <ele>63</ele>
        <time>2012-04-12T15:39:55.000Z</time>
      </trkpt>
      <trkpt lat="48.2335" lon="3.26109">
        <ele>63</ele>
        <time>2012-04-12T15:39:56.000Z</time>
      </trkpt>
      <trkpt lat="48.23353" lon="3.26101">
        <ele>63</ele>
        <time>2012-04-12T15:39:57.000Z</time>
      </trkpt>
      <trkpt lat="48.23356" lon="3.26094">
        <ele>63</ele>
        <time>2012-04-12T15:39:58.000Z</time>
      </trkpt>
      <trkpt lat="48.23358" lon="3.26088">
        <ele>63</ele>
        <time>2012-04-12T15:39:59.000Z</time>
      </trkpt>
      <trkpt lat="48.23362" lon="3.26079">
        <ele>64</ele>
        <time>2012-04-12T15:40:00.000Z</time>
      </trkpt>
      <trkpt lat="48.23365" lon="3.26073">
        <ele>64</ele>
        <time>2012-04-12T15:40:01.000Z</time>
      </trkpt>
      <trkpt lat="48.23368" lon="3.26066">
        <ele>64</ele>
        <time>2012-04-12T15:40:02.000Z</time>
      </trkpt>
      <trkpt lat="48.23371" lon="3.26058">
        <ele>64</ele>
        <time>2012-04-12T15:40:03.000Z</time>
      </trkpt>
      <trkpt lat="48.23375" lon="3.26051">
        <ele>64</ele>
        <time>2012-04-12T15:40:04.000Z</time>
      </trkpt>
      <trkpt lat="48.23378" lon="3.26045">
        <ele>63</ele>
        <time>2012-04-12T15:40:05.000Z</time>
      </trkpt>
      <trkpt lat="48.2338" lon="3.26038">
        <ele>63</ele>
        <time>2012-04-12T15:40:06.000Z</time>
      </trkpt>
      <trkpt lat="48.23382" lon="3.26032">
        <ele>63</ele>
        <time>2012-04-12T15:40:07.000Z</time>
      </trkpt>
      <trkpt lat="48.23385" lon="3.26024">
        <ele>63</ele>
        <time>2012-04-12T15:40:08.000Z</time>
      </trkpt>
      <trkpt lat="48.23388" lon="3.26017">
        <ele>63</ele>
        <time>2012-04-12T15:40:09.000Z</time>
      </trkpt>
      <trkpt lat="48.2339" lon="3.26011">
        <ele>63</ele>
        <time>2012-04-12T15:40:10.000Z</time>
      </trkpt>
      <trkpt lat="48.23392" lon="3.26004">
        <ele>63</ele>
        <time>2012-04-12T15:40:11.000Z</time>
      </trkpt>
      <trkpt lat="48.23395" lon="3.25991">
        <ele>63</ele>
        <time>2012-04-12T15:40:13.000Z</time>
      </trkpt>
      <trkpt lat="48.23398" lon="3.25976">
        <ele>62</ele>
        <time>2012-04-12T15:40:15.000Z</time>
      </trkpt>
      <trkpt lat="48.23401" lon="3.25961">
        <ele>62</ele>
        <time>2012-04-12T15:40:17.000Z</time>
      </trkpt>
      <trkpt lat="48.23402" lon="3.25953">
        <ele>62</ele>
        <time>2012-04-12T15:40:18.000Z</time>
      </trkpt>
      <trkpt lat="48.23405" lon="3.25946">
        <ele>62</ele>
        <time>2012-04-12T15:40:19.000Z</time>
      </trkpt>
      <trkpt lat="48.23406" lon="3.25938">
        <ele>62</ele>
        <time>2012-04-12T15:40:20.000Z</time>
      </trkpt>
      <trkpt lat="48.23408" lon="3.25929">
        <ele>62</ele>
        <time>2012-04-12T15:40:21.000Z</time>
      </trkpt>
      <trkpt lat="48.23411" lon="3.25914">
        <ele>61</ele>
        <time>2012-04-12T15:40:23.000Z</time>
      </trkpt>
      <trkpt lat="48.23412" lon="3.25906">
        <ele>61</ele>
        <time>2012-04-12T15:40:24.000Z</time>
      </trkpt>
      <trkpt lat="48.23414" lon="3.25899">
        <ele>61</ele>
        <time>2012-04-12T15:40:25.000Z</time>
      </trkpt>
      <trkpt lat="48.23415" lon="3.2589">
        <ele>61</ele>
        <time>2012-04-12T15:40:26.000Z</time>
      </trkpt>
      <trkpt lat="48.23418" lon="3.25884">
        <ele>62</ele>
        <time>2012-04-12T15:40:27.000Z</time>
      </trkpt>
      <trkpt lat="48.2342" lon="3.25876">
        <ele>62</ele>
        <time>2012-04-12T15:40:28.000Z</time>
      </trkpt>
      <trkpt lat="48.23422" lon="3.25869">
        <ele>62</ele>
        <time>2012-04-12T15:40:29.000Z</time>
      </trkpt>
      <trkpt lat="48.23424" lon="3.25863">
        <ele>61</ele>
        <time>2012-04-12T15:40:30.000Z</time>
      </trkpt>
      <trkpt lat="48.23426" lon="3.25854">
        <ele>61</ele>
        <time>2012-04-12T15:40:31.000Z</time>
      </trkpt>
      <trkpt lat="48.23428" lon="3.25845">
        <ele>61</ele>
        <time>2012-04-12T15:40:32.000Z</time>
      </trkpt>
      <trkpt lat="48.2343" lon="3.25839">
        <ele>61</ele>
        <time>2012-04-12T15:40:33.000Z</time>
      </trkpt>
      <trkpt lat="48.23432" lon="3.2583">
        <ele>61</ele>
        <time>2012-04-12T15:40:34.000Z</time>
      </trkpt>
      <trkpt lat="48.23435" lon="3.25822">
        <ele>61</ele>
        <time>2012-04-12T15:40:35.000Z</time>
      </trkpt>
      <trkpt lat="48.23438" lon="3.25815">
        <ele>61</ele>
        <time>2012-04-12T15:40:36.000Z</time>
      </trkpt>
      <trkpt lat="48.2344" lon="3.25807">
        <ele>61</ele>
        <time>2012-04-12T15:40:37.000Z</time>
      </trkpt>
      <trkpt lat="48.23443" lon="3.258">
        <ele>62</ele>
        <time>2012-04-12T15:40:38.000Z</time>
      </trkpt>
      <trkpt lat="48.23445" lon="3.25792">
        <ele>62</ele>
        <time>2012-04-12T15:40:39.000Z</time>
      </trkpt>
      <trkpt lat="48.23449" lon="3.25785">
        <ele>62</ele>
        <time>2012-04-12T15:40:40.000Z</time>
      </trkpt>
      <trkpt lat="48.23451" lon="3.25779">
        <ele>62</ele>
        <time>2012-04-12T15:40:41.000Z</time>
      </trkpt>
      <trkpt lat="48.23454" lon="3.2577">
        <ele>62</ele>
        <time>2012-04-12T15:40:42.000Z</time>
      </trkpt>
      <trkpt lat="48.23456" lon="3.25762">
        <ele>62</ele>
        <time>2012-04-12T15:40:43.000Z</time>
      </trkpt>
      <trkpt lat="48.23458" lon="3.25755">
        <ele>62</ele>
        <time>2012-04-12T15:40:44.000Z</time>
      </trkpt>
      <trkpt lat="48.23462" lon="3.25749">
        <ele>62</ele>
        <time>2012-04-12T15:40:45.000Z</time>
      </trkpt>
      <trkpt lat="48.23465" lon="3.2574">
        <ele>62</ele>
        <time>2012-04-12T15:40:46.000Z</time>
      </trkpt>
      <trkpt lat="48.23468" lon="3.25734">
        <ele>62</ele>
        <time>2012-04-12T15:40:47.000Z</time>
      </trkpt>
      <trkpt lat="48.23471" lon="3.25725">
        <ele>62</ele>
        <time>2012-04-12T15:40:48.000Z</time>
      </trkpt>
      <trkpt lat="48.23475" lon="3.25719">
        <ele>62</ele>
        <time>2012-04-12T15:40:49.000Z</time>
      </trkpt>
      <trkpt lat="48.2348" lon="3.25712">
        <ele>62</ele>
        <time>2012-04-12T15:40:50.000Z</time>
      </trkpt>
      <trkpt lat="48.23485" lon="3.25704">
        <ele>62</ele>
        <time>2012-04-12T15:40:51.000Z</time>
      </trkpt>
      <trkpt lat="48.23493" lon="3.25697">
        <ele>62</ele>
        <time>2012-04-12T15:40:52.000Z</time>
      </trkpt>
      <trkpt lat="48.23498" lon="3.25689">
        <ele>62</ele>
        <time>2012-04-12T15:40:53.000Z</time>
      </trkpt>
      <trkpt lat="48.23503" lon="3.25682">
        <ele>62</ele>
        <time>2012-04-12T15:40:54.000Z</time>
      </trkpt>
      <trkpt lat="48.23509" lon="3.25676">
        <ele>62</ele>
        <time>2012-04-12T15:40:55.000Z</time>
      </trkpt>
      <trkpt lat="48.23514" lon="3.25667">
        <ele>62</ele>
        <time>2012-04-12T15:40:56.000Z</time>
      </trkpt>
      <trkpt lat="48.23519" lon="3.25661">
        <ele>62</ele>
        <time>2012-04-12T15:40:57.000Z</time>
      </trkpt>
      <trkpt lat="48.23525" lon="3.25654">
        <ele>62</ele>
        <time>2012-04-12T15:40:58.000Z</time>
      </trkpt>
      <trkpt lat="48.2353" lon="3.25648">
        <ele>62</ele>
        <time>2012-04-12T15:40:59.000Z</time>
      </trkpt>
      <trkpt lat="48.23537" lon="3.25639">
        <ele>62</ele>
        <time>2012-04-12T15:41:00.000Z</time>
      </trkpt>
      <trkpt lat="48.23542" lon="3.25633">
        <ele>62</ele>
        <time>2012-04-12T15:41:01.000Z</time>
      </trkpt>
      <trkpt lat="48.23548" lon="3.25624">
        <ele>62</ele>
        <time>2012-04-12T15:41:02.000Z</time>
      </trkpt>
      <trkpt lat="48.23554" lon="3.25618">
        <ele>62</ele>
        <time>2012-04-12T15:41:03.000Z</time>
      </trkpt>
      <trkpt lat="48.23559" lon="3.25609">
        <ele>62</ele>
        <time>2012-04-12T15:41:04.000Z</time>
      </trkpt>
      <trkpt lat="48.23566" lon="3.25601">
        <ele>61</ele>
        <time>2012-04-12T15:41:05.000Z</time>
      </trkpt>
      <trkpt lat="48.23571" lon="3.25594">
        <ele>61</ele>
        <time>2012-04-12T15:41:06.000Z</time>
      </trkpt>
      <trkpt lat="48.23576" lon="3.25586">
        <ele>61</ele>
        <time>2012-04-12T15:41:07.000Z</time>
      </trkpt>
      <trkpt lat="48.23582" lon="3.25579">
        <ele>61</ele>
        <time>2012-04-12T15:41:08.000Z</time>
      </trkpt>
      <trkpt lat="48.23587" lon="3.25571">
        <ele>61</ele>
        <time>2012-04-12T15:41:09.000Z</time>
      </trkpt>
      <trkpt lat="48.23592" lon="3.25562">
        <ele>61</ele>
        <time>2012-04-12T15:41:10.000Z</time>
      </trkpt>
      <trkpt lat="48.23598" lon="3.25556">
        <ele>62</ele>
        <time>2012-04-12T15:41:11.000Z</time>
      </trkpt>
      <trkpt lat="48.23603" lon="3.25549">
        <ele>62</ele>
        <time>2012-04-12T15:41:12.000Z</time>
      </trkpt>
      <trkpt lat="48.23608" lon="3.25543">
        <ele>62</ele>
        <time>2012-04-12T15:41:13.000Z</time>
      </trkpt>
      <trkpt lat="48.23614" lon="3.25536">
        <ele>62</ele>
        <time>2012-04-12T15:41:14.000Z</time>
      </trkpt>
      <trkpt lat="48.23619" lon="3.25528">
        <ele>62</ele>
        <time>2012-04-12T15:41:15.000Z</time>
      </trkpt>
      <trkpt lat="48.23625" lon="3.25521">
        <ele>62</ele>
        <time>2012-04-12T15:41:16.000Z</time>
      </trkpt>
      <trkpt lat="48.2363" lon="3.25515">
        <ele>62</ele>
        <time>2012-04-12T15:41:17.000Z</time>
      </trkpt>
      <trkpt lat="48.23636" lon="3.25508">
        <ele>62</ele>
        <time>2012-04-12T15:41:18.000Z</time>
      </trkpt>
      <trkpt lat="48.23642" lon="3.25502">
        <ele>63</ele>
        <time>2012-04-12T15:41:19.000Z</time>
      </trkpt>
      <trkpt lat="48.23647" lon="3.25494">
        <ele>65</ele>
        <time>2012-04-12T15:41:20.000Z</time>
      </trkpt>
      <trkpt lat="48.23652" lon="3.25487">
        <ele>65</ele>
        <time>2012-04-12T15:41:21.000Z</time>
      </trkpt>
      <trkpt lat="48.23657" lon="3.25481">
        <ele>65</ele>
        <time>2012-04-12T15:41:22.000Z</time>
      </trkpt>
      <trkpt lat="48.23662" lon="3.25474">
        <ele>65</ele>
        <time>2012-04-12T15:41:23.000Z</time>
      </trkpt>
      <trkpt lat="48.23668" lon="3.25468">
        <ele>66</ele>
        <time>2012-04-12T15:41:24.000Z</time>
      </trkpt>
      <trkpt lat="48.23673" lon="3.25461">
        <ele>66</ele>
        <time>2012-04-12T15:41:25.000Z</time>
      </trkpt>
      <trkpt lat="48.23678" lon="3.25457">
        <ele>67</ele>
        <time>2012-04-12T15:41:26.000Z</time>
      </trkpt>
      <trkpt lat="48.23684" lon="3.25451">
        <ele>67</ele>
        <time>2012-04-12T15:41:27.000Z</time>
      </trkpt>
      <trkpt lat="48.23689" lon="3.25444">
        <ele>67</ele>
        <time>2012-04-12T15:41:28.000Z</time>
      </trkpt>
      <trkpt lat="48.23693" lon="3.2544">
        <ele>67</ele>
        <time>2012-04-12T15:41:29.000Z</time>
      </trkpt>
      <trkpt lat="48.23698" lon="3.25433">
        <ele>67</ele>
        <time>2012-04-12T15:41:30.000Z</time>
      </trkpt>
      <trkpt lat="48.23703" lon="3.25429">
        <ele>67</ele>
        <time>2012-04-12T15:41:31.000Z</time>
      </trkpt>
      <trkpt lat="48.23707" lon="3.25423">
        <ele>66</ele>
        <time>2012-04-12T15:41:32.000Z</time>
      </trkpt>
      <trkpt lat="48.23712" lon="3.25416">
        <ele>65</ele>
        <time>2012-04-12T15:41:33.000Z</time>
      </trkpt>
      <trkpt lat="48.23716" lon="3.25412">
        <ele>65</ele>
        <time>2012-04-12T15:41:34.000Z</time>
      </trkpt>
      <trkpt lat="48.2372" lon="3.25406">
        <ele>65</ele>
        <time>2012-04-12T15:41:35.000Z</time>
      </trkpt>
      <trkpt lat="48.23724" lon="3.25401">
        <ele>64</ele>
        <time>2012-04-12T15:41:36.000Z</time>
      </trkpt>
      <trkpt lat="48.2373" lon="3.25395">
        <ele>64</ele>
        <time>2012-04-12T15:41:37.000Z</time>
      </trkpt>
      <trkpt lat="48.23734" lon="3.2539">
        <ele>64</ele>
        <time>2012-04-12T15:41:38.000Z</time>
      </trkpt>
      <trkpt lat="48.23738" lon="3.25384">
        <ele>63</ele>
        <time>2012-04-12T15:41:39.000Z</time>
      </trkpt>
      <trkpt lat="48.23743" lon="3.2538">
        <ele>63</ele>
        <time>2012-04-12T15:41:40.000Z</time>
      </trkpt>
      <trkpt lat="48.23747" lon="3.25373">
        <ele>63</ele>
        <time>2012-04-12T15:41:41.000Z</time>
      </trkpt>
      <trkpt lat="48.23751" lon="3.25369">
        <ele>59</ele>
        <time>2012-04-12T15:41:42.000Z</time>
      </trkpt>
      <trkpt lat="48.23756" lon="3.25363">
        <ele>59</ele>
        <time>2012-04-12T15:41:43.000Z</time>
      </trkpt>
      <trkpt lat="48.23762" lon="3.25358">
        <ele>59</ele>
        <time>2012-04-12T15:41:44.000Z</time>
      </trkpt>
      <trkpt lat="48.23766" lon="3.25352">
        <ele>59</ele>
        <time>2012-04-12T15:41:45.000Z</time>
      </trkpt>
      <trkpt lat="48.23772" lon="3.25346">
        <ele>59</ele>
        <time>2012-04-12T15:41:46.000Z</time>
      </trkpt>
      <trkpt lat="48.23776" lon="3.25339">
        <ele>59</ele>
        <time>2012-04-12T15:41:47.000Z</time>
      </trkpt>
      <trkpt lat="48.2378" lon="3.25333">
        <ele>59</ele>
        <time>2012-04-12T15:41:48.000Z</time>
      </trkpt>
      <trkpt lat="48.23784" lon="3.25326">
        <ele>59</ele>
        <time>2012-04-12T15:41:49.000Z</time>
      </trkpt>
      <trkpt lat="48.2379" lon="3.2532">
        <ele>59</ele>
        <time>2012-04-12T15:41:50.000Z</time>
      </trkpt>
      <trkpt lat="48.23794" lon="3.25313">
        <ele>60</ele>
        <time>2012-04-12T15:41:51.000Z</time>
      </trkpt>
      <trkpt lat="48.23798" lon="3.25307">
        <ele>60</ele>
        <time>2012-04-12T15:41:52.000Z</time>
      </trkpt>
      <trkpt lat="48.23803" lon="3.25303">
        <ele>60</ele>
        <time>2012-04-12T15:41:53.000Z</time>
      </trkpt>
      <trkpt lat="48.23808" lon="3.25296">
        <ele>60</ele>
        <time>2012-04-12T15:41:54.000Z</time>
      </trkpt>
      <trkpt lat="48.23812" lon="3.2529">
        <ele>60</ele>
        <time>2012-04-12T15:41:55.000Z</time>
      </trkpt>
      <trkpt lat="48.23818" lon="3.25283">
        <ele>60</ele>
        <time>2012-04-12T15:41:56.000Z</time>
      </trkpt>
      <trkpt lat="48.23823" lon="3.25275">
        <ele>61</ele>
        <time>2012-04-12T15:41:57.000Z</time>
      </trkpt>
      <trkpt lat="48.23828" lon="3.25268">
        <ele>61</ele>
        <time>2012-04-12T15:41:58.000Z</time>
      </trkpt>
      <trkpt lat="48.23834" lon="3.25262">
        <ele>61</ele>
        <time>2012-04-12T15:41:59.000Z</time>
      </trkpt>
      <trkpt lat="48.23838" lon="3.25255">
        <ele>62</ele>
        <time>2012-04-12T15:42:00.000Z</time>
      </trkpt>
      <trkpt lat="48.23843" lon="3.25249">
        <ele>62</ele>
        <time>2012-04-12T15:42:01.000Z</time>
      </trkpt>
      <trkpt lat="48.23849" lon="3.25242">
        <ele>62</ele>
        <time>2012-04-12T15:42:02.000Z</time>
      </trkpt>
      <trkpt lat="48.23854" lon="3.25236">
        <ele>62</ele>
        <time>2012-04-12T15:42:03.000Z</time>
      </trkpt>
      <trkpt lat="48.2386" lon="3.2523">
        <ele>62</ele>
        <time>2012-04-12T15:42:04.000Z</time>
      </trkpt>
      <trkpt lat="48.23865" lon="3.25223">
        <ele>62</ele>
        <time>2012-04-12T15:42:05.000Z</time>
      </trkpt>
      <trkpt lat="48.2387" lon="3.25217">
        <ele>62</ele>
        <time>2012-04-12T15:42:06.000Z</time>
      </trkpt>
      <trkpt lat="48.23876" lon="3.2521">
        <ele>62</ele>
        <time>2012-04-12T15:42:07.000Z</time>
      </trkpt>
      <trkpt lat="48.23881" lon="3.25204">
        <ele>62</ele>
        <time>2012-04-12T15:42:08.000Z</time>
      </trkpt>
      <trkpt lat="48.23886" lon="3.252">
        <ele>62</ele>
        <time>2012-04-12T15:42:09.000Z</time>
      </trkpt>
      <trkpt lat="48.23892" lon="3.25193">
        <ele>62</ele>
        <time>2012-04-12T15:42:10.000Z</time>
      </trkpt>
      <trkpt lat="48.23898" lon="3.25187">
        <ele>62</ele>
        <time>2012-04-12T15:42:11.000Z</time>
      </trkpt>
      <trkpt lat="48.23905" lon="3.25182">
        <ele>62</ele>
        <time>2012-04-12T15:42:12.000Z</time>
      </trkpt>
      <trkpt lat="48.2391" lon="3.25176">
        <ele>62</ele>
        <time>2012-04-12T15:42:13.000Z</time>
      </trkpt>
      <trkpt lat="48.23916" lon="3.25172">
        <ele>62</ele>
        <time>2012-04-12T15:42:14.000Z</time>
      </trkpt>
      <trkpt lat="48.23922" lon="3.25167">
        <ele>62</ele>
        <time>2012-04-12T15:42:15.000Z</time>
      </trkpt>
      <trkpt lat="48.23928" lon="3.25163">
        <ele>62</ele>
        <time>2012-04-12T15:42:16.000Z</time>
      </trkpt>
      <trkpt lat="48.23935" lon="3.25157">
        <ele>62</ele>
        <time>2012-04-12T15:42:17.000Z</time>
      </trkpt>
      <trkpt lat="48.2394" lon="3.25152">
        <ele>62</ele>
        <time>2012-04-12T15:42:18.000Z</time>
      </trkpt>
      <trkpt lat="48.23946" lon="3.2515">
        <ele>61</ele>
        <time>2012-04-12T15:42:19.000Z</time>
      </trkpt>
      <trkpt lat="48.23953" lon="3.25146">
        <ele>61</ele>
        <time>2012-04-12T15:42:20.000Z</time>
      </trkpt>
      <trkpt lat="48.23959" lon="3.25142">
        <ele>61</ele>
        <time>2012-04-12T15:42:21.000Z</time>
      </trkpt>
      <trkpt lat="48.23966" lon="3.25137">
        <ele>61</ele>
        <time>2012-04-12T15:42:22.000Z</time>
      </trkpt>
      <trkpt lat="48.23972" lon="3.25133">
        <ele>61</ele>
        <time>2012-04-12T15:42:23.000Z</time>
      </trkpt>
      <trkpt lat="48.23979" lon="3.25129">
        <ele>61</ele>
        <time>2012-04-12T15:42:24.000Z</time>
      </trkpt>
      <trkpt lat="48.23985" lon="3.25127">
        <ele>61</ele>
        <time>2012-04-12T15:42:25.000Z</time>
      </trkpt>
      <trkpt lat="48.23992" lon="3.25122">
        <ele>61</ele>
        <time>2012-04-12T15:42:26.000Z</time>
      </trkpt>
      <trkpt lat="48.23998" lon="3.25118">
        <ele>61</ele>
        <time>2012-04-12T15:42:27.000Z</time>
      </trkpt>
      <trkpt lat="48.24004" lon="3.25114">
        <ele>60</ele>
        <time>2012-04-12T15:42:28.000Z</time>
      </trkpt>
      <trkpt lat="48.24012" lon="3.25112">
        <ele>60</ele>
        <time>2012-04-12T15:42:29.000Z</time>
      </trkpt>
      <trkpt lat="48.24018" lon="3.25107">
        <ele>60</ele>
        <time>2012-04-12T15:42:30.000Z</time>
      </trkpt>
      <trkpt lat="48.24025" lon="3.25103">
        <ele>60</ele>
        <time>2012-04-12T15:42:31.000Z</time>
      </trkpt>
      <trkpt lat="48.24031" lon="3.25099">
        <ele>60</ele>
        <time>2012-04-12T15:42:32.000Z</time>
      </trkpt>
      <trkpt lat="48.24038" lon="3.25097">
        <ele>60</ele>
        <time>2012-04-12T15:42:33.000Z</time>
      </trkpt>
      <trkpt lat="48.24044" lon="3.25092">
        <ele>60</ele>
        <time>2012-04-12T15:42:34.000Z</time>
      </trkpt>
      <trkpt lat="48.2405" lon="3.2509">
        <ele>60</ele>
        <time>2012-04-12T15:42:35.000Z</time>
      </trkpt>
      <trkpt lat="48.24057" lon="3.25086">
        <ele>60</ele>
        <time>2012-04-12T15:42:36.000Z</time>
      </trkpt>
      <trkpt lat="48.24063" lon="3.25084">
        <ele>60</ele>
        <time>2012-04-12T15:42:37.000Z</time>
      </trkpt>
      <trkpt lat="48.2407" lon="3.25079">
        <ele>60</ele>
        <time>2012-04-12T15:42:38.000Z</time>
      </trkpt>
      <trkpt lat="48.24075" lon="3.25077">
        <ele>60</ele>
        <time>2012-04-12T15:42:39.000Z</time>
      </trkpt>
      <trkpt lat="48.24082" lon="3.25073">
        <ele>60</ele>
        <time>2012-04-12T15:42:40.000Z</time>
      </trkpt>
      <trkpt lat="48.24088" lon="3.25071">
        <ele>60</ele>
        <time>2012-04-12T15:42:41.000Z</time>
      </trkpt>
      <trkpt lat="48.24094" lon="3.25069">
        <ele>60</ele>
        <time>2012-04-12T15:42:42.000Z</time>
      </trkpt>
      <trkpt lat="48.24101" lon="3.25066">
        <ele>60</ele>
        <time>2012-04-12T15:42:43.000Z</time>
      </trkpt>
      <trkpt lat="48.24107" lon="3.25062">
        <ele>60</ele>
        <time>2012-04-12T15:42:44.000Z</time>
      </trkpt>
      <trkpt lat="48.24114" lon="3.2506">
        <ele>60</ele>
        <time>2012-04-12T15:42:45.000Z</time>
      </trkpt>
      <trkpt lat="48.2412" lon="3.25058">
        <ele>60</ele>
        <time>2012-04-12T15:42:46.000Z</time>
      </trkpt>
      <trkpt lat="48.24126" lon="3.25054">
        <ele>60</ele>
        <time>2012-04-12T15:42:47.000Z</time>
      </trkpt>
      <trkpt lat="48.24132" lon="3.25052">
        <ele>60</ele>
        <time>2012-04-12T15:42:48.000Z</time>
      </trkpt>
      <trkpt lat="48.24138" lon="3.25047">
        <ele>60</ele>
        <time>2012-04-12T15:42:49.000Z</time>
      </trkpt>
      <trkpt lat="48.24144" lon="3.25045">
        <ele>60</ele>
        <time>2012-04-12T15:42:50.000Z</time>
      </trkpt>
      <trkpt lat="48.24149" lon="3.25041">
        <ele>60</ele>
        <time>2012-04-12T15:42:51.000Z</time>
      </trkpt>
      <trkpt lat="48.24156" lon="3.25039">
        <ele>60</ele>
        <time>2012-04-12T15:42:52.000Z</time>
      </trkpt>
      <trkpt lat="48.24161" lon="3.25034">
        <ele>60</ele>
        <time>2012-04-12T15:42:53.000Z</time>
      </trkpt>
      <trkpt lat="48.24166" lon="3.2503">
        <ele>60</ele>
        <time>2012-04-12T15:42:54.000Z</time>
      </trkpt>
      <trkpt lat="48.24172" lon="3.25026">
        <ele>60</ele>
        <time>2012-04-12T15:42:55.000Z</time>
      </trkpt>
      <trkpt lat="48.24177" lon="3.25022">
        <ele>60</ele>
        <time>2012-04-12T15:42:56.000Z</time>
      </trkpt>
      <trkpt lat="48.24182" lon="3.25017">
        <ele>60</ele>
        <time>2012-04-12T15:42:57.000Z</time>
      </trkpt>
      <trkpt lat="48.24188" lon="3.25013">
        <ele>60</ele>
        <time>2012-04-12T15:42:58.000Z</time>
      </trkpt>
      <trkpt lat="48.24193" lon="3.25009">
        <ele>60</ele>
        <time>2012-04-12T15:42:59.000Z</time>
      </trkpt>
      <trkpt lat="48.24199" lon="3.25004">
        <ele>60</ele>
        <time>2012-04-12T15:43:00.000Z</time>
      </trkpt>
      <trkpt lat="48.24204" lon="3.24998">
        <ele>59</ele>
        <time>2012-04-12T15:43:01.000Z</time>
      </trkpt>
      <trkpt lat="48.24209" lon="3.24994">
        <ele>59</ele>
        <time>2012-04-12T15:43:02.000Z</time>
      </trkpt>
      <trkpt lat="48.24215" lon="3.24987">
        <ele>59</ele>
        <time>2012-04-12T15:43:03.000Z</time>
      </trkpt>
      <trkpt lat="48.2422" lon="3.24983">
        <ele>59</ele>
        <time>2012-04-12T15:43:04.000Z</time>
      </trkpt>
      <trkpt lat="48.24225" lon="3.24978">
        <ele>59</ele>
        <time>2012-04-12T15:43:05.000Z</time>
      </trkpt>
      <trkpt lat="48.24231" lon="3.24972">
        <ele>59</ele>
        <time>2012-04-12T15:43:06.000Z</time>
      </trkpt>
      <trkpt lat="48.24236" lon="3.24968">
        <ele>59</ele>
        <time>2012-04-12T15:43:07.000Z</time>
      </trkpt>
      <trkpt lat="48.2424" lon="3.24961">
        <ele>59</ele>
        <time>2012-04-12T15:43:08.000Z</time>
      </trkpt>
      <trkpt lat="48.24246" lon="3.24957">
        <ele>59</ele>
        <time>2012-04-12T15:43:09.000Z</time>
      </trkpt>
      <trkpt lat="48.24251" lon="3.24953">
        <ele>59</ele>
        <time>2012-04-12T15:43:10.000Z</time>
      </trkpt>
      <trkpt lat="48.24256" lon="3.24948">
        <ele>58</ele>
        <time>2012-04-12T15:43:11.000Z</time>
      </trkpt>
      <trkpt lat="48.24262" lon="3.24944">
        <ele>58</ele>
        <time>2012-04-12T15:43:12.000Z</time>
      </trkpt>
      <trkpt lat="48.24267" lon="3.2494">
        <ele>58</ele>
        <time>2012-04-12T15:43:13.000Z</time>
      </trkpt>
      <trkpt lat="48.24273" lon="3.24936">
        <ele>58</ele>
        <time>2012-04-12T15:43:14.000Z</time>
      </trkpt>
      <trkpt lat="48.24278" lon="3.24931">
        <ele>59</ele>
        <time>2012-04-12T15:43:15.000Z</time>
      </trkpt>
      <trkpt lat="48.24284" lon="3.24927">
        <ele>59</ele>
        <time>2012-04-12T15:43:16.000Z</time>
      </trkpt>
      <trkpt lat="48.2429" lon="3.24923">
        <ele>59</ele>
        <time>2012-04-12T15:43:17.000Z</time>
      </trkpt>
      <trkpt lat="48.24295" lon="3.24918">
        <ele>59</ele>
        <time>2012-04-12T15:43:18.000Z</time>
      </trkpt>
      <trkpt lat="48.24299" lon="3.24914">
        <ele>59</ele>
        <time>2012-04-12T15:43:19.000Z</time>
      </trkpt>
      <trkpt lat="48.24305" lon="3.2491">
        <ele>60</ele>
        <time>2012-04-12T15:43:20.000Z</time>
      </trkpt>
      <trkpt lat="48.2431" lon="3.24906">
        <ele>60</ele>
        <time>2012-04-12T15:43:21.000Z</time>
      </trkpt>
      <trkpt lat="48.24316" lon="3.24901">
        <ele>60</ele>
        <time>2012-04-12T15:43:22.000Z</time>
      </trkpt>
      <trkpt lat="48.24321" lon="3.24895">
        <ele>60</ele>
        <time>2012-04-12T15:43:23.000Z</time>
      </trkpt>
      <trkpt lat="48.24326" lon="3.24891">
        <ele>60</ele>
        <time>2012-04-12T15:43:24.000Z</time>
      </trkpt>
      <trkpt lat="48.24332" lon="3.24886">
        <ele>60</ele>
        <time>2012-04-12T15:43:25.000Z</time>
      </trkpt>
      <trkpt lat="48.24337" lon="3.24882">
        <ele>61</ele>
        <time>2012-04-12T15:43:26.000Z</time>
      </trkpt>
      <trkpt lat="48.24342" lon="3.24876">
        <ele>61</ele>
        <time>2012-04-12T15:43:27.000Z</time>
      </trkpt>
      <trkpt lat="48.24348" lon="3.24871">
        <ele>61</ele>
        <time>2012-04-12T15:43:28.000Z</time>
      </trkpt>
      <trkpt lat="48.24353" lon="3.24865">
        <ele>61</ele>
        <time>2012-04-12T15:43:29.000Z</time>
      </trkpt>
      <trkpt lat="48.24358" lon="3.2486">
        <ele>61</ele>
        <time>2012-04-12T15:43:30.000Z</time>
      </trkpt>
      <trkpt lat="48.24364" lon="3.24854">
        <ele>61</ele>
        <time>2012-04-12T15:43:31.000Z</time>
      </trkpt>
      <trkpt lat="48.24369" lon="3.24848">
        <ele>61</ele>
        <time>2012-04-12T15:43:32.000Z</time>
      </trkpt>
      <trkpt lat="48.24374" lon="3.24841">
        <ele>61</ele>
        <time>2012-04-12T15:43:33.000Z</time>
      </trkpt>
      <trkpt lat="48.2438" lon="3.24837">
        <ele>61</ele>
        <time>2012-04-12T15:43:34.000Z</time>
      </trkpt>
      <trkpt lat="48.24385" lon="3.2483">
        <ele>62</ele>
        <time>2012-04-12T15:43:35.000Z</time>
      </trkpt>
      <trkpt lat="48.24391" lon="3.24824">
        <ele>62</ele>
        <time>2012-04-12T15:43:36.000Z</time>
      </trkpt>
      <trkpt lat="48.24397" lon="3.2482">
        <ele>62</ele>
        <time>2012-04-12T15:43:37.000Z</time>
      </trkpt>
      <trkpt lat="48.24402" lon="3.24813">
        <ele>62</ele>
        <time>2012-04-12T15:43:38.000Z</time>
      </trkpt>
      <trkpt lat="48.24409" lon="3.24807">
        <ele>62</ele>
        <time>2012-04-12T15:43:39.000Z</time>
      </trkpt>
      <trkpt lat="48.24414" lon="3.248">
        <ele>62</ele>
        <time>2012-04-12T15:43:40.000Z</time>
      </trkpt>
      <trkpt lat="48.24421" lon="3.24794">
        <ele>61</ele>
        <time>2012-04-12T15:43:41.000Z</time>
      </trkpt>
      <trkpt lat="48.24426" lon="3.24788">
        <ele>61</ele>
        <time>2012-04-12T15:43:42.000Z</time>
      </trkpt>
      <trkpt lat="48.24432" lon="3.24783">
        <ele>61</ele>
        <time>2012-04-12T15:43:43.000Z</time>
      </trkpt>
      <trkpt lat="48.24438" lon="3.24777">
        <ele>61</ele>
        <time>2012-04-12T15:43:44.000Z</time>
      </trkpt>
      <trkpt lat="48.24444" lon="3.2477">
        <ele>61</ele>
        <time>2012-04-12T15:43:45.000Z</time>
      </trkpt>
      <trkpt lat="48.2445" lon="3.24764">
        <ele>61</ele>
        <time>2012-04-12T15:43:46.000Z</time>
      </trkpt>
      <trkpt lat="48.24456" lon="3.2476">
        <ele>61</ele>
        <time>2012-04-12T15:43:47.000Z</time>
      </trkpt>
      <trkpt lat="48.24461" lon="3.24753">
        <ele>61</ele>
        <time>2012-04-12T15:43:48.000Z</time>
      </trkpt>
      <trkpt lat="48.24467" lon="3.24749">
        <ele>62</ele>
        <time>2012-04-12T15:43:49.000Z</time>
      </trkpt>
      <trkpt lat="48.24473" lon="3.24742">
        <ele>62</ele>
        <time>2012-04-12T15:43:50.000Z</time>
      </trkpt>
      <trkpt lat="48.24479" lon="3.24738">
        <ele>62</ele>
        <time>2012-04-12T15:43:51.000Z</time>
      </trkpt>
      <trkpt lat="48.24484" lon="3.24732">
        <ele>62</ele>
        <time>2012-04-12T15:43:52.000Z</time>
      </trkpt>
      <trkpt lat="48.24489" lon="3.24728">
        <ele>62</ele>
        <time>2012-04-12T15:43:53.000Z</time>
      </trkpt>
      <trkpt lat="48.24496" lon="3.24723">
        <ele>62</ele>
        <time>2012-04-12T15:43:54.000Z</time>
      </trkpt>
      <trkpt lat="48.24501" lon="3.24717">
        <ele>62</ele>
        <time>2012-04-12T15:43:55.000Z</time>
      </trkpt>
      <trkpt lat="48.24506" lon="3.24712">
        <ele>62</ele>
        <time>2012-04-12T15:43:56.000Z</time>
      </trkpt>
      <trkpt lat="48.24512" lon="3.24708">
        <ele>62</ele>
        <time>2012-04-12T15:43:57.000Z</time>
      </trkpt>
      <trkpt lat="48.24517" lon="3.24702">
        <ele>62</ele>
        <time>2012-04-12T15:43:58.000Z</time>
      </trkpt>
      <trkpt lat="48.24523" lon="3.24697">
        <ele>62</ele>
        <time>2012-04-12T15:43:59.000Z</time>
      </trkpt>
      <trkpt lat="48.24528" lon="3.24691">
        <ele>62</ele>
        <time>2012-04-12T15:44:00.000Z</time>
      </trkpt>
      <trkpt lat="48.24534" lon="3.24687">
        <ele>62</ele>
        <time>2012-04-12T15:44:01.000Z</time>
      </trkpt>
      <trkpt lat="48.2454" lon="3.24682">
        <ele>62</ele>
        <time>2012-04-12T15:44:02.000Z</time>
      </trkpt>
      <trkpt lat="48.24545" lon="3.24676">
        <ele>62</ele>
        <time>2012-04-12T15:44:03.000Z</time>
      </trkpt>
      <trkpt lat="48.2455" lon="3.24672">
        <ele>62</ele>
        <time>2012-04-12T15:44:04.000Z</time>
      </trkpt>
      <trkpt lat="48.24556" lon="3.24667">
        <ele>62</ele>
        <time>2012-04-12T15:44:05.000Z</time>
      </trkpt>
      <trkpt lat="48.24561" lon="3.24663">
        <ele>63</ele>
        <time>2012-04-12T15:44:06.000Z</time>
      </trkpt>
      <trkpt lat="48.24567" lon="3.24659">
        <ele>63</ele>
        <time>2012-04-12T15:44:07.000Z</time>
      </trkpt>
      <trkpt lat="48.24572" lon="3.24652">
        <ele>63</ele>
        <time>2012-04-12T15:44:08.000Z</time>
      </trkpt>
      <trkpt lat="48.24577" lon="3.24648">
        <ele>63</ele>
        <time>2012-04-12T15:44:09.000Z</time>
      </trkpt>
      <trkpt lat="48.24584" lon="3.24644">
        <ele>62</ele>
        <time>2012-04-12T15:44:10.000Z</time>
      </trkpt>
      <trkpt lat="48.24589" lon="3.2464">
        <ele>62</ele>
        <time>2012-04-12T15:44:11.000Z</time>
      </trkpt>
      <trkpt lat="48.24596" lon="3.24633">
        <ele>62</ele>
        <time>2012-04-12T15:44:12.000Z</time>
      </trkpt>
      <trkpt lat="48.24602" lon="3.24629">
        <ele>62</ele>
        <time>2012-04-12T15:44:13.000Z</time>
      </trkpt>
      <trkpt lat="48.24608" lon="3.24622">
        <ele>62</ele>
        <time>2012-04-12T15:44:14.000Z</time>
      </trkpt>
      <trkpt lat="48.24614" lon="3.24618">
        <ele>62</ele>
        <time>2012-04-12T15:44:15.000Z</time>
      </trkpt>
      <trkpt lat="48.2462" lon="3.24614">
        <ele>62</ele>
        <time>2012-04-12T15:44:16.000Z</time>
      </trkpt>
      <trkpt lat="48.24626" lon="3.2461">
        <ele>62</ele>
        <time>2012-04-12T15:44:17.000Z</time>
      </trkpt>
      <trkpt lat="48.24632" lon="3.24603">
        <ele>62</ele>
        <time>2012-04-12T15:44:18.000Z</time>
      </trkpt>
      <trkpt lat="48.24638" lon="3.24599">
        <ele>62</ele>
        <time>2012-04-12T15:44:19.000Z</time>
      </trkpt>
      <trkpt lat="48.24645" lon="3.24594">
        <ele>62</ele>
        <time>2012-04-12T15:44:20.000Z</time>
      </trkpt>
      <trkpt lat="48.24651" lon="3.24588">
        <ele>61</ele>
        <time>2012-04-12T15:44:21.000Z</time>
      </trkpt>
      <trkpt lat="48.24658" lon="3.24584">
        <ele>61</ele>
        <time>2012-04-12T15:44:22.000Z</time>
      </trkpt>
      <trkpt lat="48.24663" lon="3.24577">
        <ele>61</ele>
        <time>2012-04-12T15:44:23.000Z</time>
      </trkpt>
      <trkpt lat="48.2467" lon="3.24573">
        <ele>61</ele>
        <time>2012-04-12T15:44:24.000Z</time>
      </trkpt>
      <trkpt lat="48.24676" lon="3.24569">
        <ele>61</ele>
        <time>2012-04-12T15:44:25.000Z</time>
      </trkpt>
      <trkpt lat="48.24681" lon="3.24564">
        <ele>61</ele>
        <time>2012-04-12T15:44:26.000Z</time>
      </trkpt>
      <trkpt lat="48.24687" lon="3.2456">
        <ele>61</ele>
        <time>2012-04-12T15:44:27.000Z</time>
      </trkpt>
      <trkpt lat="48.24692" lon="3.24556">
        <ele>61</ele>
        <time>2012-04-12T15:44:28.000Z</time>
      </trkpt>
      <trkpt lat="48.24697" lon="3.24552">
        <ele>61</ele>
        <time>2012-04-12T15:44:29.000Z</time>
      </trkpt>
      <trkpt lat="48.24704" lon="3.24545">
        <ele>61</ele>
        <time>2012-04-12T15:44:30.000Z</time>
      </trkpt>
      <trkpt lat="48.24709" lon="3.24541">
        <ele>61</ele>
        <time>2012-04-12T15:44:31.000Z</time>
      </trkpt>
      <trkpt lat="48.24715" lon="3.24534">
        <ele>61</ele>
        <time>2012-04-12T15:44:32.000Z</time>
      </trkpt>
      <trkpt lat="48.2472" lon="3.2453">
        <ele>61</ele>
        <time>2012-04-12T15:44:33.000Z</time>
      </trkpt>
      <trkpt lat="48.24725" lon="3.24524">
        <ele>61</ele>
        <time>2012-04-12T15:44:34.000Z</time>
      </trkpt>
      <trkpt lat="48.24731" lon="3.24519">
        <ele>61</ele>
        <time>2012-04-12T15:44:35.000Z</time>
      </trkpt>
      <trkpt lat="48.24736" lon="3.24515">
        <ele>60</ele>
        <time>2012-04-12T15:44:36.000Z</time>
      </trkpt>
      <trkpt lat="48.24742" lon="3.24511">
        <ele>60</ele>
        <time>2012-04-12T15:44:37.000Z</time>
      </trkpt>
      <trkpt lat="48.24748" lon="3.24506">
        <ele>60</ele>
        <time>2012-04-12T15:44:38.000Z</time>
      </trkpt>
      <trkpt lat="48.24753" lon="3.24502">
        <ele>60</ele>
        <time>2012-04-12T15:44:39.000Z</time>
      </trkpt>
      <trkpt lat="48.2476" lon="3.24496">
        <ele>60</ele>
        <time>2012-04-12T15:44:40.000Z</time>
      </trkpt>
      <trkpt lat="48.24765" lon="3.24492">
        <ele>60</ele>
        <time>2012-04-12T15:44:41.000Z</time>
      </trkpt>
      <trkpt lat="48.2477" lon="3.24487">
        <ele>61</ele>
        <time>2012-04-12T15:44:42.000Z</time>
      </trkpt>
      <trkpt lat="48.24775" lon="3.24485">
        <ele>61</ele>
        <time>2012-04-12T15:44:43.000Z</time>
      </trkpt>
      <trkpt lat="48.2478" lon="3.24481">
        <ele>61</ele>
        <time>2012-04-12T15:44:44.000Z</time>
      </trkpt>
      <trkpt lat="48.24785" lon="3.24476">
        <ele>61</ele>
        <time>2012-04-12T15:44:45.000Z</time>
      </trkpt>
      <trkpt lat="48.2479" lon="3.24474">
        <ele>61</ele>
        <time>2012-04-12T15:44:46.000Z</time>
      </trkpt>
      <trkpt lat="48.24795" lon="3.2447">
        <ele>61</ele>
        <time>2012-04-12T15:44:47.000Z</time>
      </trkpt>
      <trkpt lat="48.24799" lon="3.24468">
        <ele>61</ele>
        <time>2012-04-12T15:44:48.000Z</time>
      </trkpt>
      <trkpt lat="48.24805" lon="3.24466">
        <ele>61</ele>
        <time>2012-04-12T15:44:49.000Z</time>
      </trkpt>
      <trkpt lat="48.24809" lon="3.24461">
        <ele>61</ele>
        <time>2012-04-12T15:44:50.000Z</time>
      </trkpt>
      <trkpt lat="48.24814" lon="3.24459">
        <ele>61</ele>
        <time>2012-04-12T15:44:51.000Z</time>
      </trkpt>
      <trkpt lat="48.2482" lon="3.24455">
        <ele>61</ele>
        <time>2012-04-12T15:44:52.000Z</time>
      </trkpt>
      <trkpt lat="48.24824" lon="3.24453">
        <ele>61</ele>
        <time>2012-04-12T15:44:53.000Z</time>
      </trkpt>
      <trkpt lat="48.24829" lon="3.24448">
        <ele>61</ele>
        <time>2012-04-12T15:44:54.000Z</time>
      </trkpt>
      <trkpt lat="48.24835" lon="3.24444">
        <ele>61</ele>
        <time>2012-04-12T15:44:55.000Z</time>
      </trkpt>
      <trkpt lat="48.2484" lon="3.2444">
        <ele>61</ele>
        <time>2012-04-12T15:44:56.000Z</time>
      </trkpt>
      <trkpt lat="48.24846" lon="3.24436">
        <ele>61</ele>
        <time>2012-04-12T15:44:57.000Z</time>
      </trkpt>
      <trkpt lat="48.24851" lon="3.24431">
        <ele>61</ele>
        <time>2012-04-12T15:44:58.000Z</time>
      </trkpt>
      <trkpt lat="48.24856" lon="3.24427">
        <ele>61</ele>
        <time>2012-04-12T15:44:59.000Z</time>
      </trkpt>
      <trkpt lat="48.24862" lon="3.24423">
        <ele>61</ele>
        <time>2012-04-12T15:45:00.000Z</time>
      </trkpt>
      <trkpt lat="48.24867" lon="3.24421">
        <ele>61</ele>
        <time>2012-04-12T15:45:01.000Z</time>
      </trkpt>
      <trkpt lat="48.24872" lon="3.24416">
        <ele>62</ele>
        <time>2012-04-12T15:45:02.000Z</time>
      </trkpt>
      <trkpt lat="48.24879" lon="3.24412">
        <ele>62</ele>
        <time>2012-04-12T15:45:03.000Z</time>
      </trkpt>
      <trkpt lat="48.24883" lon="3.2441">
        <ele>62</ele>
        <time>2012-04-12T15:45:04.000Z</time>
      </trkpt>
      <trkpt lat="48.24888" lon="3.24406">
        <ele>62</ele>
        <time>2012-04-12T15:45:05.000Z</time>
      </trkpt>
      <trkpt lat="48.24894" lon="3.24404">
        <ele>62</ele>
        <time>2012-04-12T15:45:06.000Z</time>
      </trkpt>
      <trkpt lat="48.24899" lon="3.24399">
        <ele>62</ele>
        <time>2012-04-12T15:45:07.000Z</time>
      </trkpt>
      <trkpt lat="48.24903" lon="3.24395">
        <ele>62</ele>
        <time>2012-04-12T15:45:08.000Z</time>
      </trkpt>
      <trkpt lat="48.24909" lon="3.24393">
        <ele>62</ele>
        <time>2012-04-12T15:45:09.000Z</time>
      </trkpt>
      <trkpt lat="48.24914" lon="3.24388">
        <ele>62</ele>
        <time>2012-04-12T15:45:10.000Z</time>
      </trkpt>
      <trkpt lat="48.24918" lon="3.24386">
        <ele>62</ele>
        <time>2012-04-12T15:45:11.000Z</time>
      </trkpt>
      <trkpt lat="48.24924" lon="3.24382">
        <ele>62</ele>
        <time>2012-04-12T15:45:12.000Z</time>
      </trkpt>
      <trkpt lat="48.24928" lon="3.2438">
        <ele>62</ele>
        <time>2012-04-12T15:45:13.000Z</time>
      </trkpt>
      <trkpt lat="48.24934" lon="3.24378">
        <ele>62</ele>
        <time>2012-04-12T15:45:14.000Z</time>
      </trkpt>
      <trkpt lat="48.24939" lon="3.24373">
        <ele>62</ele>
        <time>2012-04-12T15:45:15.000Z</time>
      </trkpt>
      <trkpt lat="48.24944" lon="3.24371">
        <ele>62</ele>
        <time>2012-04-12T15:45:16.000Z</time>
      </trkpt>
      <trkpt lat="48.24951" lon="3.24367">
        <ele>62</ele>
        <time>2012-04-12T15:45:17.000Z</time>
      </trkpt>
      <trkpt lat="48.24956" lon="3.24363">
        <ele>61</ele>
        <time>2012-04-12T15:45:18.000Z</time>
      </trkpt>
      <trkpt lat="48.24962" lon="3.24361">
        <ele>61</ele>
        <time>2012-04-12T15:45:19.000Z</time>
      </trkpt>
      <trkpt lat="48.24969" lon="3.24356">
        <ele>61</ele>
        <time>2012-04-12T15:45:20.000Z</time>
      </trkpt>
      <trkpt lat="48.24974" lon="3.24354">
        <ele>61</ele>
        <time>2012-04-12T15:45:21.000Z</time>
      </trkpt>
      <trkpt lat="48.24981" lon="3.24352">
        <ele>61</ele>
        <time>2012-04-12T15:45:22.000Z</time>
      </trkpt>
      <trkpt lat="48.24986" lon="3.24348">
        <ele>61</ele>
        <time>2012-04-12T15:45:23.000Z</time>
      </trkpt>
      <trkpt lat="48.24992" lon="3.24346">
        <ele>61</ele>
        <time>2012-04-12T15:45:24.000Z</time>
      </trkpt>
      <trkpt lat="48.24999" lon="3.24343">
        <ele>60</ele>
        <time>2012-04-12T15:45:25.000Z</time>
      </trkpt>
      <trkpt lat="48.25005" lon="3.24341">
        <ele>60</ele>
        <time>2012-04-12T15:45:26.000Z</time>
      </trkpt>
      <trkpt lat="48.25011" lon="3.24339">
        <ele>60</ele>
        <time>2012-04-12T15:45:27.000Z</time>
      </trkpt>
      <trkpt lat="48.25017" lon="3.24337">
        <ele>60</ele>
        <time>2012-04-12T15:45:28.000Z</time>
      </trkpt>
      <trkpt lat="48.25024" lon="3.24335">
        <ele>60</ele>
        <time>2012-04-12T15:45:29.000Z</time>
      </trkpt>
      <trkpt lat="48.2503" lon="3.24333">
        <ele>60</ele>
        <time>2012-04-12T15:45:30.000Z</time>
      </trkpt>
      <trkpt lat="48.25035" lon="3.2433">
        <ele>60</ele>
        <time>2012-04-12T15:45:31.000Z</time>
      </trkpt>
      <trkpt lat="48.25042" lon="3.2433">
        <ele>60</ele>
        <time>2012-04-12T15:45:32.000Z</time>
      </trkpt>
      <trkpt lat="48.25048" lon="3.2433">
        <ele>60</ele>
        <time>2012-04-12T15:45:33.000Z</time>
      </trkpt>
      <trkpt lat="48.25054" lon="3.24328">
        <ele>60</ele>
        <time>2012-04-12T15:45:34.000Z</time>
      </trkpt>
      <trkpt lat="48.2506" lon="3.24326">
        <ele>60</ele>
        <time>2012-04-12T15:45:35.000Z</time>
      </trkpt>
      <trkpt lat="48.25065" lon="3.24326">
        <ele>60</ele>
        <time>2012-04-12T15:45:36.000Z</time>
      </trkpt>
      <trkpt lat="48.25072" lon="3.24324">
        <ele>60</ele>
        <time>2012-04-12T15:45:37.000Z</time>
      </trkpt>
      <trkpt lat="48.25077" lon="3.24324">
        <ele>60</ele>
        <time>2012-04-12T15:45:38.000Z</time>
      </trkpt>
      <trkpt lat="48.25084" lon="3.24324">
        <ele>60</ele>
        <time>2012-04-12T15:45:39.000Z</time>
      </trkpt>
      <trkpt lat="48.25089" lon="3.24322">
        <ele>60</ele>
        <time>2012-04-12T15:45:40.000Z</time>
      </trkpt>
      <trkpt lat="48.25094" lon="3.24322">
        <ele>60</ele>
        <time>2012-04-12T15:45:41.000Z</time>
      </trkpt>
      <trkpt lat="48.251" lon="3.2432">
        <ele>60</ele>
        <time>2012-04-12T15:45:42.000Z</time>
      </trkpt>
      <trkpt lat="48.25106" lon="3.24318">
        <ele>60</ele>
        <time>2012-04-12T15:45:43.000Z</time>
      </trkpt>
      <trkpt lat="48.25112" lon="3.24318">
        <ele>60</ele>
        <time>2012-04-12T15:45:44.000Z</time>
      </trkpt>
      <trkpt lat="48.25117" lon="3.24316">
        <ele>60</ele>
        <time>2012-04-12T15:45:45.000Z</time>
      </trkpt>
      <trkpt lat="48.25122" lon="3.24316">
        <ele>60</ele>
        <time>2012-04-12T15:45:46.000Z</time>
      </trkpt>
      <trkpt lat="48.25128" lon="3.24313">
        <ele>60</ele>
        <time>2012-04-12T15:45:47.000Z</time>
      </trkpt>
      <trkpt lat="48.25134" lon="3.24311">
        <ele>60</ele>
        <time>2012-04-12T15:45:48.000Z</time>
      </trkpt>
      <trkpt lat="48.2514" lon="3.24307">
        <ele>60</ele>
        <time>2012-04-12T15:45:49.000Z</time>
      </trkpt>
      <trkpt lat="48.25146" lon="3.24305">
        <ele>60</ele>
        <time>2012-04-12T15:45:50.000Z</time>
      </trkpt>
      <trkpt lat="48.25151" lon="3.24303">
        <ele>60</ele>
        <time>2012-04-12T15:45:51.000Z</time>
      </trkpt>
      <trkpt lat="48.25157" lon="3.24298">
        <ele>61</ele>
        <time>2012-04-12T15:45:52.000Z</time>
      </trkpt>
      <trkpt lat="48.25163" lon="3.24296">
        <ele>61</ele>
        <time>2012-04-12T15:45:53.000Z</time>
      </trkpt>
      <trkpt lat="48.25168" lon="3.24292">
        <ele>60</ele>
        <time>2012-04-12T15:45:54.000Z</time>
      </trkpt>
      <trkpt lat="48.25175" lon="3.2429">
        <ele>60</ele>
        <time>2012-04-12T15:45:55.000Z</time>
      </trkpt>
      <trkpt lat="48.2518" lon="3.24286">
        <ele>60</ele>
        <time>2012-04-12T15:45:56.000Z</time>
      </trkpt>
      <trkpt lat="48.25187" lon="3.24281">
        <ele>60</ele>
        <time>2012-04-12T15:45:57.000Z</time>
      </trkpt>
      <trkpt lat="48.25192" lon="3.24279">
        <ele>60</ele>
        <time>2012-04-12T15:45:58.000Z</time>
      </trkpt>
      <trkpt lat="48.25197" lon="3.24275">
        <ele>60</ele>
        <time>2012-04-12T15:45:59.000Z</time>
      </trkpt>
      <trkpt lat="48.25204" lon="3.24273">
        <ele>60</ele>
        <time>2012-04-12T15:46:00.000Z</time>
      </trkpt>
      <trkpt lat="48.25209" lon="3.24268">
        <ele>60</ele>
        <time>2012-04-12T15:46:01.000Z</time>
      </trkpt>
      <trkpt lat="48.25215" lon="3.24266">
        <ele>60</ele>
        <time>2012-04-12T15:46:02.000Z</time>
      </trkpt>
      <trkpt lat="48.2522" lon="3.24264">
        <ele>60</ele>
        <time>2012-04-12T15:46:03.000Z</time>
      </trkpt>
      <trkpt lat="48.25225" lon="3.24262">
        <ele>60</ele>
        <time>2012-04-12T15:46:04.000Z</time>
      </trkpt>
      <trkpt lat="48.25231" lon="3.24258">
        <ele>60</ele>
        <time>2012-04-12T15:46:05.000Z</time>
      </trkpt>
      <trkpt lat="48.25237" lon="3.24255">
        <ele>59</ele>
        <time>2012-04-12T15:46:06.000Z</time>
      </trkpt>
      <trkpt lat="48.25242" lon="3.24253">
        <ele>59</ele>
        <time>2012-04-12T15:46:07.000Z</time>
      </trkpt>
      <trkpt lat="48.25249" lon="3.24251">
        <ele>59</ele>
        <time>2012-04-12T15:46:08.000Z</time>
      </trkpt>
      <trkpt lat="48.25254" lon="3.24249">
        <ele>59</ele>
        <time>2012-04-12T15:46:09.000Z</time>
      </trkpt>
      <trkpt lat="48.25261" lon="3.24247">
        <ele>60</ele>
        <time>2012-04-12T15:46:10.000Z</time>
      </trkpt>
      <trkpt lat="48.25266" lon="3.24245">
        <ele>60</ele>
        <time>2012-04-12T15:46:11.000Z</time>
      </trkpt>
      <trkpt lat="48.25271" lon="3.24245">
        <ele>60</ele>
        <time>2012-04-12T15:46:12.000Z</time>
      </trkpt>
      <trkpt lat="48.25277" lon="3.24242">
        <ele>60</ele>
        <time>2012-04-12T15:46:13.000Z</time>
      </trkpt>
      <trkpt lat="48.25283" lon="3.2424">
        <ele>60</ele>
        <time>2012-04-12T15:46:14.000Z</time>
      </trkpt>
      <trkpt lat="48.25293" lon="3.24238">
        <ele>60</ele>
        <time>2012-04-12T15:46:16.000Z</time>
      </trkpt>
      <trkpt lat="48.25298" lon="3.24236">
        <ele>60</ele>
        <time>2012-04-12T15:46:17.000Z</time>
      </trkpt>
      <trkpt lat="48.25304" lon="3.24234">
        <ele>60</ele>
        <time>2012-04-12T15:46:18.000Z</time>
      </trkpt>
      <trkpt lat="48.25309" lon="3.24232">
        <ele>60</ele>
        <time>2012-04-12T15:46:19.000Z</time>
      </trkpt>
      <trkpt lat="48.25314" lon="3.2423">
        <ele>60</ele>
        <time>2012-04-12T15:46:20.000Z</time>
      </trkpt>
      <trkpt lat="48.2532" lon="3.24228">
        <ele>61</ele>
        <time>2012-04-12T15:46:21.000Z</time>
      </trkpt>
      <trkpt lat="48.25325" lon="3.24225">
        <ele>61</ele>
        <time>2012-04-12T15:46:22.000Z</time>
      </trkpt>
      <trkpt lat="48.25332" lon="3.24223">
        <ele>61</ele>
        <time>2012-04-12T15:46:23.000Z</time>
      </trkpt>
      <trkpt lat="48.25337" lon="3.24219">
        <ele>60</ele>
        <time>2012-04-12T15:46:24.000Z</time>
      </trkpt>
      <trkpt lat="48.25343" lon="3.24217">
        <ele>60</ele>
        <time>2012-04-12T15:46:25.000Z</time>
      </trkpt>
      <trkpt lat="48.25349" lon="3.24215">
        <ele>60</ele>
        <time>2012-04-12T15:46:26.000Z</time>
      </trkpt>
      <trkpt lat="48.25355" lon="3.24212">
        <ele>60</ele>
        <time>2012-04-12T15:46:27.000Z</time>
      </trkpt>
      <trkpt lat="48.2536" lon="3.24208">
        <ele>60</ele>
        <time>2012-04-12T15:46:28.000Z</time>
      </trkpt>
      <trkpt lat="48.25367" lon="3.24206">
        <ele>60</ele>
        <time>2012-04-12T15:46:29.000Z</time>
      </trkpt>
      <trkpt lat="48.25372" lon="3.24202">
        <ele>60</ele>
        <time>2012-04-12T15:46:30.000Z</time>
      </trkpt>
      <trkpt lat="48.25378" lon="3.242">
        <ele>60</ele>
        <time>2012-04-12T15:46:31.000Z</time>
      </trkpt>
      <trkpt lat="48.25384" lon="3.24198">
        <ele>60</ele>
        <time>2012-04-12T15:46:32.000Z</time>
      </trkpt>
      <trkpt lat="48.2539" lon="3.24193">
        <ele>60</ele>
        <time>2012-04-12T15:46:33.000Z</time>
      </trkpt>
      <trkpt lat="48.25395" lon="3.24191">
        <ele>60</ele>
        <time>2012-04-12T15:46:34.000Z</time>
      </trkpt>
      <trkpt lat="48.25401" lon="3.24189">
        <ele>60</ele>
        <time>2012-04-12T15:46:35.000Z</time>
      </trkpt>
      <trkpt lat="48.25407" lon="3.24185">
        <ele>60</ele>
        <time>2012-04-12T15:46:36.000Z</time>
      </trkpt>
      <trkpt lat="48.25412" lon="3.24182">
        <ele>60</ele>
        <time>2012-04-12T15:46:37.000Z</time>
      </trkpt>
      <trkpt lat="48.25418" lon="3.24178">
        <ele>59</ele>
        <time>2012-04-12T15:46:38.000Z</time>
      </trkpt>
      <trkpt lat="48.25424" lon="3.24176">
        <ele>59</ele>
        <time>2012-04-12T15:46:39.000Z</time>
      </trkpt>
      <trkpt lat="48.25429" lon="3.24172">
        <ele>59</ele>
        <time>2012-04-12T15:46:40.000Z</time>
      </trkpt>
      <trkpt lat="48.25434" lon="3.2417">
        <ele>59</ele>
        <time>2012-04-12T15:46:41.000Z</time>
      </trkpt>
      <trkpt lat="48.2544" lon="3.24165">
        <ele>59</ele>
        <time>2012-04-12T15:46:42.000Z</time>
      </trkpt>
      <trkpt lat="48.25445" lon="3.24163">
        <ele>59</ele>
        <time>2012-04-12T15:46:43.000Z</time>
      </trkpt>
      <trkpt lat="48.25451" lon="3.24159">
        <ele>59</ele>
        <time>2012-04-12T15:46:44.000Z</time>
      </trkpt>
      <trkpt lat="48.25457" lon="3.24157">
        <ele>59</ele>
        <time>2012-04-12T15:46:45.000Z</time>
      </trkpt>
      <trkpt lat="48.25461" lon="3.24152">
        <ele>60</ele>
        <time>2012-04-12T15:46:46.000Z</time>
      </trkpt>
      <trkpt lat="48.25467" lon="3.24148">
        <ele>60</ele>
        <time>2012-04-12T15:46:47.000Z</time>
      </trkpt>
      <trkpt lat="48.25472" lon="3.24146">
        <ele>60</ele>
        <time>2012-04-12T15:46:48.000Z</time>
      </trkpt>
      <trkpt lat="48.25477" lon="3.24142">
        <ele>60</ele>
        <time>2012-04-12T15:46:49.000Z</time>
      </trkpt>
      <trkpt lat="48.25483" lon="3.2414">
        <ele>60</ele>
        <time>2012-04-12T15:46:50.000Z</time>
      </trkpt>
      <trkpt lat="48.25488" lon="3.24135">
        <ele>60</ele>
        <time>2012-04-12T15:46:51.000Z</time>
      </trkpt>
      <trkpt lat="48.25495" lon="3.24131">
        <ele>60</ele>
        <time>2012-04-12T15:46:52.000Z</time>
      </trkpt>
      <trkpt lat="48.255" lon="3.24129">
        <ele>60</ele>
        <time>2012-04-12T15:46:53.000Z</time>
      </trkpt>
      <trkpt lat="48.25505" lon="3.24124">
        <ele>60</ele>
        <time>2012-04-12T15:46:54.000Z</time>
      </trkpt>
      <trkpt lat="48.25511" lon="3.2412">
        <ele>60</ele>
        <time>2012-04-12T15:46:55.000Z</time>
      </trkpt>
      <trkpt lat="48.25516" lon="3.24116">
        <ele>60</ele>
        <time>2012-04-12T15:46:56.000Z</time>
      </trkpt>
      <trkpt lat="48.25521" lon="3.24112">
        <ele>60</ele>
        <time>2012-04-12T15:46:57.000Z</time>
      </trkpt>
      <trkpt lat="48.25527" lon="3.24107">
        <ele>60</ele>
        <time>2012-04-12T15:46:58.000Z</time>
      </trkpt>
      <trkpt lat="48.25532" lon="3.24103">
        <ele>60</ele>
        <time>2012-04-12T15:46:59.000Z</time>
      </trkpt>
      <trkpt lat="48.25538" lon="3.24099">
        <ele>60</ele>
        <time>2012-04-12T15:47:00.000Z</time>
      </trkpt>
      <trkpt lat="48.25543" lon="3.24094">
        <ele>60</ele>
        <time>2012-04-12T15:47:01.000Z</time>
      </trkpt>
      <trkpt lat="48.25548" lon="3.2409">
        <ele>60</ele>
        <time>2012-04-12T15:47:02.000Z</time>
      </trkpt>
      <trkpt lat="48.25554" lon="3.24086">
        <ele>60</ele>
        <time>2012-04-12T15:47:03.000Z</time>
      </trkpt>
      <trkpt lat="48.25559" lon="3.24082">
        <ele>60</ele>
        <time>2012-04-12T15:47:04.000Z</time>
      </trkpt>
      <trkpt lat="48.25564" lon="3.24075">
        <ele>60</ele>
        <time>2012-04-12T15:47:05.000Z</time>
      </trkpt>
      <trkpt lat="48.2557" lon="3.24071">
        <ele>60</ele>
        <time>2012-04-12T15:47:06.000Z</time>
      </trkpt>
      <trkpt lat="48.25575" lon="3.24064">
        <ele>61</ele>
        <time>2012-04-12T15:47:07.000Z</time>
      </trkpt>
      <trkpt lat="48.2558" lon="3.2406">
        <ele>61</ele>
        <time>2012-04-12T15:47:08.000Z</time>
      </trkpt>
      <trkpt lat="48.25586" lon="3.24054">
        <ele>61</ele>
        <time>2012-04-12T15:47:09.000Z</time>
      </trkpt>
      <trkpt lat="48.25591" lon="3.24049">
        <ele>61</ele>
        <time>2012-04-12T15:47:10.000Z</time>
      </trkpt>
      <trkpt lat="48.25595" lon="3.24045">
        <ele>61</ele>
        <time>2012-04-12T15:47:11.000Z</time>
      </trkpt>
      <trkpt lat="48.256" lon="3.24041">
        <ele>61</ele>
        <time>2012-04-12T15:47:12.000Z</time>
      </trkpt>
      <trkpt lat="48.25605" lon="3.24034">
        <ele>61</ele>
        <time>2012-04-12T15:47:13.000Z</time>
      </trkpt>
      <trkpt lat="48.25609" lon="3.2403">
        <ele>61</ele>
        <time>2012-04-12T15:47:14.000Z</time>
      </trkpt>
      <trkpt lat="48.25614" lon="3.24026">
        <ele>61</ele>
        <time>2012-04-12T15:47:15.000Z</time>
      </trkpt>
      <trkpt lat="48.25618" lon="3.24022">
        <ele>61</ele>
        <time>2012-04-12T15:47:16.000Z</time>
      </trkpt>
      <trkpt lat="48.25623" lon="3.24017">
        <ele>61</ele>
        <time>2012-04-12T15:47:17.000Z</time>
      </trkpt>
      <trkpt lat="48.25631" lon="3.24009">
        <ele>61</ele>
        <time>2012-04-12T15:47:19.000Z</time>
      </trkpt>
      <trkpt lat="48.25636" lon="3.24004">
        <ele>61</ele>
        <time>2012-04-12T15:47:20.000Z</time>
      </trkpt>
      <trkpt lat="48.2564" lon="3.24">
        <ele>61</ele>
        <time>2012-04-12T15:47:21.000Z</time>
      </trkpt>
      <trkpt lat="48.25645" lon="3.23996">
        <ele>61</ele>
        <time>2012-04-12T15:47:22.000Z</time>
      </trkpt>
      <trkpt lat="48.25649" lon="3.23992">
        <ele>61</ele>
        <time>2012-04-12T15:47:23.000Z</time>
      </trkpt>
      <trkpt lat="48.25654" lon="3.23987">
        <ele>61</ele>
        <time>2012-04-12T15:47:24.000Z</time>
      </trkpt>
      <trkpt lat="48.25659" lon="3.23983">
        <ele>61</ele>
        <time>2012-04-12T15:47:25.000Z</time>
      </trkpt>
      <trkpt lat="48.25666" lon="3.23974">
        <ele>61</ele>
        <time>2012-04-12T15:47:27.000Z</time>
      </trkpt>
      <trkpt lat="48.2567" lon="3.2397">
        <ele>60</ele>
        <time>2012-04-12T15:47:28.000Z</time>
      </trkpt>
      <trkpt lat="48.25677" lon="3.23961">
        <ele>60</ele>
        <time>2012-04-12T15:47:30.000Z</time>
      </trkpt>
      <trkpt lat="48.2568" lon="3.23955">
        <ele>60</ele>
        <time>2012-04-12T15:47:31.000Z</time>
      </trkpt>
      <trkpt lat="48.25688" lon="3.23946">
        <ele>60</ele>
        <time>2012-04-12T15:47:33.000Z</time>
      </trkpt>
      <trkpt lat="48.25693" lon="3.23944">
        <ele>60</ele>
        <time>2012-04-12T15:47:34.000Z</time>
      </trkpt>
      <trkpt lat="48.25697" lon="3.2394">
        <ele>60</ele>
        <time>2012-04-12T15:47:35.000Z</time>
      </trkpt>
      <trkpt lat="48.25702" lon="3.23936">
        <ele>60</ele>
        <time>2012-04-12T15:47:36.000Z</time>
      </trkpt>
      <trkpt lat="48.25707" lon="3.23931">
        <ele>60</ele>
        <time>2012-04-12T15:47:37.000Z</time>
      </trkpt>
      <trkpt lat="48.25711" lon="3.23927">
        <ele>60</ele>
        <time>2012-04-12T15:47:38.000Z</time>
      </trkpt>
      <trkpt lat="48.25716" lon="3.23923">
        <ele>60</ele>
        <time>2012-04-12T15:47:39.000Z</time>
      </trkpt>
      <trkpt lat="48.2572" lon="3.23918">
        <ele>60</ele>
        <time>2012-04-12T15:47:40.000Z</time>
      </trkpt>
      <trkpt lat="48.25724" lon="3.23914">
        <ele>61</ele>
        <time>2012-04-12T15:47:41.000Z</time>
      </trkpt>
      <trkpt lat="48.25728" lon="3.2391">
        <ele>61</ele>
        <time>2012-04-12T15:47:42.000Z</time>
      </trkpt>
      <trkpt lat="48.25734" lon="3.23906">
        <ele>61</ele>
        <time>2012-04-12T15:47:43.000Z</time>
      </trkpt>
      <trkpt lat="48.25738" lon="3.23901">
        <ele>61</ele>
        <time>2012-04-12T15:47:44.000Z</time>
      </trkpt>
      <trkpt lat="48.25742" lon="3.23895">
        <ele>61</ele>
        <time>2012-04-12T15:47:45.000Z</time>
      </trkpt>
      <trkpt lat="48.25747" lon="3.23891">
        <ele>61</ele>
        <time>2012-04-12T15:47:46.000Z</time>
      </trkpt>
      <trkpt lat="48.25752" lon="3.23886">
        <ele>61</ele>
        <time>2012-04-12T15:47:47.000Z</time>
      </trkpt>
      <trkpt lat="48.25756" lon="3.2388">
        <ele>61</ele>
        <time>2012-04-12T15:47:48.000Z</time>
      </trkpt>
      <trkpt lat="48.25761" lon="3.23876">
        <ele>61</ele>
        <time>2012-04-12T15:47:49.000Z</time>
      </trkpt>
      <trkpt lat="48.25766" lon="3.23871">
        <ele>61</ele>
        <time>2012-04-12T15:47:50.000Z</time>
      </trkpt>
      <trkpt lat="48.2577" lon="3.23867">
        <ele>61</ele>
        <time>2012-04-12T15:47:51.000Z</time>
      </trkpt>
      <trkpt lat="48.25775" lon="3.23861">
        <ele>61</ele>
        <time>2012-04-12T15:47:52.000Z</time>
      </trkpt>
      <trkpt lat="48.2578" lon="3.23856">
        <ele>61</ele>
        <time>2012-04-12T15:47:53.000Z</time>
      </trkpt>
      <trkpt lat="48.25784" lon="3.23852">
        <ele>61</ele>
        <time>2012-04-12T15:47:54.000Z</time>
      </trkpt>
      <trkpt lat="48.2579" lon="3.23848">
        <ele>61</ele>
        <time>2012-04-12T15:47:55.000Z</time>
      </trkpt>
      <trkpt lat="48.25795" lon="3.23843">
        <ele>61</ele>
        <time>2012-04-12T15:47:56.000Z</time>
      </trkpt>
      <trkpt lat="48.25799" lon="3.23837">
        <ele>61</ele>
        <time>2012-04-12T15:47:57.000Z</time>
      </trkpt>
      <trkpt lat="48.25805" lon="3.23833">
        <ele>61</ele>
        <time>2012-04-12T15:47:58.000Z</time>
      </trkpt>
      <trkpt lat="48.25809" lon="3.23826">
        <ele>61</ele>
        <time>2012-04-12T15:47:59.000Z</time>
      </trkpt>
      <trkpt lat="48.25814" lon="3.23822">
        <ele>61</ele>
        <time>2012-04-12T15:48:00.000Z</time>
      </trkpt>
      <trkpt lat="48.25819" lon="3.23818">
        <ele>61</ele>
        <time>2012-04-12T15:48:01.000Z</time>
      </trkpt>
      <trkpt lat="48.25823" lon="3.23813">
        <ele>61</ele>
        <time>2012-04-12T15:48:02.000Z</time>
      </trkpt>
      <trkpt lat="48.25827" lon="3.23807">
        <ele>61</ele>
        <time>2012-04-12T15:48:03.000Z</time>
      </trkpt>
      <trkpt lat="48.25833" lon="3.23803">
        <ele>61</ele>
        <time>2012-04-12T15:48:04.000Z</time>
      </trkpt>
      <trkpt lat="48.25837" lon="3.23798">
        <ele>61</ele>
        <time>2012-04-12T15:48:05.000Z</time>
      </trkpt>
      <trkpt lat="48.25841" lon="3.23792">
        <ele>61</ele>
        <time>2012-04-12T15:48:06.000Z</time>
      </trkpt>
      <trkpt lat="48.25846" lon="3.23788">
        <ele>61</ele>
        <time>2012-04-12T15:48:07.000Z</time>
      </trkpt>
      <trkpt lat="48.25854" lon="3.23777">
        <ele>60</ele>
        <time>2012-04-12T15:48:09.000Z</time>
      </trkpt>
      <trkpt lat="48.25859" lon="3.23773">
        <ele>60</ele>
        <time>2012-04-12T15:48:10.000Z</time>
      </trkpt>
      <trkpt lat="48.25864" lon="3.23766">
        <ele>60</ele>
        <time>2012-04-12T15:48:11.000Z</time>
      </trkpt>
      <trkpt lat="48.25869" lon="3.23762">
        <ele>60</ele>
        <time>2012-04-12T15:48:12.000Z</time>
      </trkpt>
      <trkpt lat="48.25874" lon="3.23756">
        <ele>60</ele>
        <time>2012-04-12T15:48:13.000Z</time>
      </trkpt>
      <trkpt lat="48.25879" lon="3.23751">
        <ele>60</ele>
        <time>2012-04-12T15:48:14.000Z</time>
      </trkpt>
      <trkpt lat="48.25884" lon="3.23745">
        <ele>60</ele>
        <time>2012-04-12T15:48:15.000Z</time>
      </trkpt>
      <trkpt lat="48.25889" lon="3.2374">
        <ele>60</ele>
        <time>2012-04-12T15:48:16.000Z</time>
      </trkpt>
      <trkpt lat="48.25895" lon="3.23736">
        <ele>60</ele>
        <time>2012-04-12T15:48:17.000Z</time>
      </trkpt>
      <trkpt lat="48.25899" lon="3.23732">
        <ele>60</ele>
        <time>2012-04-12T15:48:18.000Z</time>
      </trkpt>
      <trkpt lat="48.25904" lon="3.23728">
        <ele>60</ele>
        <time>2012-04-12T15:48:19.000Z</time>
      </trkpt>
      <trkpt lat="48.25909" lon="3.23723">
        <ele>60</ele>
        <time>2012-04-12T15:48:20.000Z</time>
      </trkpt>
      <trkpt lat="48.25913" lon="3.23719">
        <ele>60</ele>
        <time>2012-04-12T15:48:21.000Z</time>
      </trkpt>
      <trkpt lat="48.25917" lon="3.23715">
        <ele>59</ele>
        <time>2012-04-12T15:48:22.000Z</time>
      </trkpt>
      <trkpt lat="48.25923" lon="3.2371">
        <ele>59</ele>
        <time>2012-04-12T15:48:23.000Z</time>
      </trkpt>
      <trkpt lat="48.25927" lon="3.23706">
        <ele>59</ele>
        <time>2012-04-12T15:48:24.000Z</time>
      </trkpt>
      <trkpt lat="48.25932" lon="3.23702">
        <ele>59</ele>
        <time>2012-04-12T15:48:25.000Z</time>
      </trkpt>
      <trkpt lat="48.25938" lon="3.237">
        <ele>59</ele>
        <time>2012-04-12T15:48:26.000Z</time>
      </trkpt>
      <trkpt lat="48.25942" lon="3.23695">
        <ele>59</ele>
        <time>2012-04-12T15:48:27.000Z</time>
      </trkpt>
      <trkpt lat="48.25947" lon="3.23691">
        <ele>59</ele>
        <time>2012-04-12T15:48:28.000Z</time>
      </trkpt>
      <trkpt lat="48.25953" lon="3.23687">
        <ele>59</ele>
        <time>2012-04-12T15:48:29.000Z</time>
      </trkpt>
      <trkpt lat="48.25958" lon="3.2368">
        <ele>59</ele>
        <time>2012-04-12T15:48:30.000Z</time>
      </trkpt>
      <trkpt lat="48.25963" lon="3.23676">
        <ele>59</ele>
        <time>2012-04-12T15:48:31.000Z</time>
      </trkpt>
      <trkpt lat="48.25968" lon="3.2367">
        <ele>59</ele>
        <time>2012-04-12T15:48:32.000Z</time>
      </trkpt>
      <trkpt lat="48.25973" lon="3.23665">
        <ele>59</ele>
        <time>2012-04-12T15:48:33.000Z</time>
      </trkpt>
      <trkpt lat="48.25978" lon="3.23661">
        <ele>59</ele>
        <time>2012-04-12T15:48:34.000Z</time>
      </trkpt>
      <trkpt lat="48.25985" lon="3.23657">
        <ele>59</ele>
        <time>2012-04-12T15:48:35.000Z</time>
      </trkpt>
      <trkpt lat="48.2599" lon="3.2365">
        <ele>59</ele>
        <time>2012-04-12T15:48:36.000Z</time>
      </trkpt>
      <trkpt lat="48.25996" lon="3.23646">
        <ele>59</ele>
        <time>2012-04-12T15:48:37.000Z</time>
      </trkpt>
      <trkpt lat="48.26" lon="3.23642">
        <ele>59</ele>
        <time>2012-04-12T15:48:38.000Z</time>
      </trkpt>
      <trkpt lat="48.26005" lon="3.23637">
        <ele>59</ele>
        <time>2012-04-12T15:48:39.000Z</time>
      </trkpt>
      <trkpt lat="48.26011" lon="3.23633">
        <ele>59</ele>
        <time>2012-04-12T15:48:40.000Z</time>
      </trkpt>
      <trkpt lat="48.26016" lon="3.23631">
        <ele>59</ele>
        <time>2012-04-12T15:48:41.000Z</time>
      </trkpt>
      <trkpt lat="48.2602" lon="3.23627">
        <ele>59</ele>
        <time>2012-04-12T15:48:42.000Z</time>
      </trkpt>
      <trkpt lat="48.26026" lon="3.2362">
        <ele>60</ele>
        <time>2012-04-12T15:48:43.000Z</time>
      </trkpt>
      <trkpt lat="48.2603" lon="3.23616">
        <ele>60</ele>
        <time>2012-04-12T15:48:44.000Z</time>
      </trkpt>
      <trkpt lat="48.26034" lon="3.23612">
        <ele>60</ele>
        <time>2012-04-12T15:48:45.000Z</time>
      </trkpt>
      <trkpt lat="48.2604" lon="3.23607">
        <ele>60</ele>
        <time>2012-04-12T15:48:46.000Z</time>
      </trkpt>
      <trkpt lat="48.26044" lon="3.23605">
        <ele>60</ele>
        <time>2012-04-12T15:48:47.000Z</time>
      </trkpt>
      <trkpt lat="48.26048" lon="3.23601">
        <ele>60</ele>
        <time>2012-04-12T15:48:48.000Z</time>
      </trkpt>
      <trkpt lat="48.26052" lon="3.23597">
        <ele>60</ele>
        <time>2012-04-12T15:48:49.000Z</time>
      </trkpt>
      <trkpt lat="48.26058" lon="3.23594">
        <ele>60</ele>
        <time>2012-04-12T15:48:50.000Z</time>
      </trkpt>
      <trkpt lat="48.26062" lon="3.2359">
        <ele>60</ele>
        <time>2012-04-12T15:48:51.000Z</time>
      </trkpt>
      <trkpt lat="48.2607" lon="3.23584">
        <ele>60</ele>
        <time>2012-04-12T15:48:53.000Z</time>
      </trkpt>
      <trkpt lat="48.26075" lon="3.23582">
        <ele>60</ele>
        <time>2012-04-12T15:48:54.000Z</time>
      </trkpt>
      <trkpt lat="48.26079" lon="3.23577">
        <ele>60</ele>
        <time>2012-04-12T15:48:55.000Z</time>
      </trkpt>
      <trkpt lat="48.26084" lon="3.23575">
        <ele>60</ele>
        <time>2012-04-12T15:48:56.000Z</time>
      </trkpt>
      <trkpt lat="48.26088" lon="3.23573">
        <ele>60</ele>
        <time>2012-04-12T15:48:57.000Z</time>
      </trkpt>
      <trkpt lat="48.26092" lon="3.23571">
        <ele>60</ele>
        <time>2012-04-12T15:48:58.000Z</time>
      </trkpt>
      <trkpt lat="48.261" lon="3.23564">
        <ele>60</ele>
        <time>2012-04-12T15:49:00.000Z</time>
      </trkpt>
      <trkpt lat="48.26104" lon="3.23562">
        <ele>59</ele>
        <time>2012-04-12T15:49:01.000Z</time>
      </trkpt>
      <trkpt lat="48.26108" lon="3.2356">
        <ele>59</ele>
        <time>2012-04-12T15:49:02.000Z</time>
      </trkpt>
      <trkpt lat="48.26114" lon="3.23558">
        <ele>59</ele>
        <time>2012-04-12T15:49:03.000Z</time>
      </trkpt>
      <trkpt lat="48.26118" lon="3.23554">
        <ele>59</ele>
        <time>2012-04-12T15:49:04.000Z</time>
      </trkpt>
      <trkpt lat="48.26122" lon="3.23552">
        <ele>59</ele>
        <time>2012-04-12T15:49:05.000Z</time>
      </trkpt>
      <trkpt lat="48.26128" lon="3.2355">
        <ele>59</ele>
        <time>2012-04-12T15:49:06.000Z</time>
      </trkpt>
      <trkpt lat="48.26132" lon="3.23547">
        <ele>59</ele>
        <time>2012-04-12T15:49:07.000Z</time>
      </trkpt>
      <trkpt lat="48.26137" lon="3.23545">
        <ele>59</ele>
        <time>2012-04-12T15:49:08.000Z</time>
      </trkpt>
      <trkpt lat="48.26143" lon="3.23543">
        <ele>59</ele>
        <time>2012-04-12T15:49:09.000Z</time>
      </trkpt>
      <trkpt lat="48.26149" lon="3.23541">
        <ele>59</ele>
        <time>2012-04-12T15:49:10.000Z</time>
      </trkpt>
      <trkpt lat="48.26154" lon="3.23537">
        <ele>59</ele>
        <time>2012-04-12T15:49:11.000Z</time>
      </trkpt>
      <trkpt lat="48.26161" lon="3.23534">
        <ele>59</ele>
        <time>2012-04-12T15:49:12.000Z</time>
      </trkpt>
      <trkpt lat="48.26167" lon="3.23532">
        <ele>59</ele>
        <time>2012-04-12T15:49:13.000Z</time>
      </trkpt>
      <trkpt lat="48.26173" lon="3.2353">
        <ele>59</ele>
        <time>2012-04-12T15:49:14.000Z</time>
      </trkpt>
      <trkpt lat="48.26179" lon="3.23528">
        <ele>59</ele>
        <time>2012-04-12T15:49:15.000Z</time>
      </trkpt>
      <trkpt lat="48.26186" lon="3.23526">
        <ele>59</ele>
        <time>2012-04-12T15:49:16.000Z</time>
      </trkpt>
      <trkpt lat="48.26192" lon="3.23524">
        <ele>59</ele>
        <time>2012-04-12T15:49:17.000Z</time>
      </trkpt>
      <trkpt lat="48.26198" lon="3.23524">
        <ele>59</ele>
        <time>2012-04-12T15:49:18.000Z</time>
      </trkpt>
      <trkpt lat="48.26204" lon="3.23522">
        <ele>59</ele>
        <time>2012-04-12T15:49:19.000Z</time>
      </trkpt>
      <trkpt lat="48.2621" lon="3.23519">
        <ele>60</ele>
        <time>2012-04-12T15:49:20.000Z</time>
      </trkpt>
      <trkpt lat="48.26217" lon="3.23517">
        <ele>60</ele>
        <time>2012-04-12T15:49:21.000Z</time>
      </trkpt>
      <trkpt lat="48.26223" lon="3.23515">
        <ele>60</ele>
        <time>2012-04-12T15:49:22.000Z</time>
      </trkpt>
      <trkpt lat="48.26228" lon="3.23515">
        <ele>60</ele>
        <time>2012-04-12T15:49:23.000Z</time>
      </trkpt>
      <trkpt lat="48.26234" lon="3.23513">
        <ele>60</ele>
        <time>2012-04-12T15:49:24.000Z</time>
      </trkpt>
      <trkpt lat="48.26239" lon="3.23513">
        <ele>60</ele>
        <time>2012-04-12T15:49:25.000Z</time>
      </trkpt>
      <trkpt lat="48.26244" lon="3.23513">
        <ele>60</ele>
        <time>2012-04-12T15:49:26.000Z</time>
      </trkpt>
      <trkpt lat="48.26251" lon="3.23513">
        <ele>61</ele>
        <time>2012-04-12T15:49:27.000Z</time>
      </trkpt>
      <trkpt lat="48.26256" lon="3.23513">
        <ele>61</ele>
        <time>2012-04-12T15:49:28.000Z</time>
      </trkpt>
      <trkpt lat="48.26263" lon="3.23513">
        <ele>61</ele>
        <time>2012-04-12T15:49:29.000Z</time>
      </trkpt>
      <trkpt lat="48.26269" lon="3.23515">
        <ele>61</ele>
        <time>2012-04-12T15:49:30.000Z</time>
      </trkpt>
      <trkpt lat="48.26275" lon="3.23515">
        <ele>61</ele>
        <time>2012-04-12T15:49:31.000Z</time>
      </trkpt>
      <trkpt lat="48.2628" lon="3.23515">
        <ele>61</ele>
        <time>2012-04-12T15:49:32.000Z</time>
      </trkpt>
      <trkpt lat="48.26285" lon="3.23515">
        <ele>61</ele>
        <time>2012-04-12T15:49:33.000Z</time>
      </trkpt>
      <trkpt lat="48.26292" lon="3.23515">
        <ele>61</ele>
        <time>2012-04-12T15:49:34.000Z</time>
      </trkpt>
      <trkpt lat="48.26298" lon="3.23515">
        <ele>61</ele>
        <time>2012-04-12T15:49:35.000Z</time>
      </trkpt>
      <trkpt lat="48.26305" lon="3.23515">
        <ele>61</ele>
        <time>2012-04-12T15:49:36.000Z</time>
      </trkpt>
      <trkpt lat="48.2631" lon="3.23515">
        <ele>61</ele>
        <time>2012-04-12T15:49:37.000Z</time>
      </trkpt>
      <trkpt lat="48.26316" lon="3.23515">
        <ele>62</ele>
        <time>2012-04-12T15:49:38.000Z</time>
      </trkpt>
      <trkpt lat="48.26322" lon="3.23515">
        <ele>62</ele>
        <time>2012-04-12T15:49:39.000Z</time>
      </trkpt>
      <trkpt lat="48.26327" lon="3.23515">
        <ele>62</ele>
        <time>2012-04-12T15:49:40.000Z</time>
      </trkpt>
      <trkpt lat="48.26334" lon="3.23515">
        <ele>62</ele>
        <time>2012-04-12T15:49:41.000Z</time>
      </trkpt>
      <trkpt lat="48.26339" lon="3.23515">
        <ele>62</ele>
        <time>2012-04-12T15:49:42.000Z</time>
      </trkpt>
      <trkpt lat="48.26345" lon="3.23515">
        <ele>62</ele>
        <time>2012-04-12T15:49:43.000Z</time>
      </trkpt>
      <trkpt lat="48.26351" lon="3.23515">
        <ele>62</ele>
        <time>2012-04-12T15:49:44.000Z</time>
      </trkpt>
      <trkpt lat="48.26356" lon="3.23515">
        <ele>62</ele>
        <time>2012-04-12T15:49:45.000Z</time>
      </trkpt>
      <trkpt lat="48.26362" lon="3.23517">
        <ele>62</ele>
        <time>2012-04-12T15:49:46.000Z</time>
      </trkpt>
      <trkpt lat="48.26367" lon="3.23517">
        <ele>62</ele>
        <time>2012-04-12T15:49:47.000Z</time>
      </trkpt>
      <trkpt lat="48.26373" lon="3.23517">
        <ele>61</ele>
        <time>2012-04-12T15:49:48.000Z</time>
      </trkpt>
      <trkpt lat="48.2638" lon="3.23517">
        <ele>61</ele>
        <time>2012-04-12T15:49:49.000Z</time>
      </trkpt>
      <trkpt lat="48.26386" lon="3.23517">
        <ele>61</ele>
        <time>2012-04-12T15:49:50.000Z</time>
      </trkpt>
      <trkpt lat="48.26393" lon="3.23519">
        <ele>61</ele>
        <time>2012-04-12T15:49:51.000Z</time>
      </trkpt>
      <trkpt lat="48.26399" lon="3.23519">
        <ele>61</ele>
        <time>2012-04-12T15:49:52.000Z</time>
      </trkpt>
      <trkpt lat="48.26406" lon="3.23522">
        <ele>61</ele>
        <time>2012-04-12T15:49:53.000Z</time>
      </trkpt>
      <trkpt lat="48.26412" lon="3.23522">
        <ele>61</ele>
        <time>2012-04-12T15:49:54.000Z</time>
      </trkpt>
      <trkpt lat="48.26418" lon="3.23522">
        <ele>61</ele>
        <time>2012-04-12T15:49:55.000Z</time>
      </trkpt>
      <trkpt lat="48.26426" lon="3.23524">
        <ele>61</ele>
        <time>2012-04-12T15:49:56.000Z</time>
      </trkpt>
      <trkpt lat="48.26432" lon="3.23524">
        <ele>61</ele>
        <time>2012-04-12T15:49:57.000Z</time>
      </trkpt>
      <trkpt lat="48.26439" lon="3.23524">
        <ele>61</ele>
        <time>2012-04-12T15:49:58.000Z</time>
      </trkpt>
      <trkpt lat="48.26444" lon="3.23524">
        <ele>61</ele>
        <time>2012-04-12T15:49:59.000Z</time>
      </trkpt>
      <trkpt lat="48.2645" lon="3.23524">
        <ele>62</ele>
        <time>2012-04-12T15:50:00.000Z</time>
      </trkpt>
      <trkpt lat="48.26457" lon="3.23524">
        <ele>62</ele>
        <time>2012-04-12T15:50:01.000Z</time>
      </trkpt>
      <trkpt lat="48.26463" lon="3.23522">
        <ele>62</ele>
        <time>2012-04-12T15:50:02.000Z</time>
      </trkpt>
      <trkpt lat="48.2647" lon="3.23524">
        <ele>62</ele>
        <time>2012-04-12T15:50:03.000Z</time>
      </trkpt>
      <trkpt lat="48.26475" lon="3.23524">
        <ele>62</ele>
        <time>2012-04-12T15:50:04.000Z</time>
      </trkpt>
      <trkpt lat="48.26482" lon="3.23524">
        <ele>62</ele>
        <time>2012-04-12T15:50:05.000Z</time>
      </trkpt>
      <trkpt lat="48.26487" lon="3.23524">
        <ele>62</ele>
        <time>2012-04-12T15:50:06.000Z</time>
      </trkpt>
      <trkpt lat="48.26494" lon="3.23524">
        <ele>62</ele>
        <time>2012-04-12T15:50:07.000Z</time>
      </trkpt>
      <trkpt lat="48.26499" lon="3.23524">
        <ele>62</ele>
        <time>2012-04-12T15:50:08.000Z</time>
      </trkpt>
      <trkpt lat="48.26504" lon="3.23524">
        <ele>62</ele>
        <time>2012-04-12T15:50:09.000Z</time>
      </trkpt>
      <trkpt lat="48.2651" lon="3.23524">
        <ele>62</ele>
        <time>2012-04-12T15:50:10.000Z</time>
      </trkpt>
      <trkpt lat="48.26515" lon="3.23524">
        <ele>62</ele>
        <time>2012-04-12T15:50:11.000Z</time>
      </trkpt>
      <trkpt lat="48.2652" lon="3.23524">
        <ele>62</ele>
        <time>2012-04-12T15:50:12.000Z</time>
      </trkpt>
      <trkpt lat="48.26527" lon="3.23524">
        <ele>62</ele>
        <time>2012-04-12T15:50:13.000Z</time>
      </trkpt>
      <trkpt lat="48.26532" lon="3.23524">
        <ele>62</ele>
        <time>2012-04-12T15:50:14.000Z</time>
      </trkpt>
      <trkpt lat="48.26537" lon="3.23524">
        <ele>62</ele>
        <time>2012-04-12T15:50:15.000Z</time>
      </trkpt>
      <trkpt lat="48.26544" lon="3.23524">
        <ele>62</ele>
        <time>2012-04-12T15:50:16.000Z</time>
      </trkpt>
      <trkpt lat="48.26549" lon="3.23524">
        <ele>62</ele>
        <time>2012-04-12T15:50:17.000Z</time>
      </trkpt>
      <trkpt lat="48.26555" lon="3.23524">
        <ele>62</ele>
        <time>2012-04-12T15:50:18.000Z</time>
      </trkpt>
      <trkpt lat="48.2656" lon="3.23524">
        <ele>62</ele>
        <time>2012-04-12T15:50:19.000Z</time>
      </trkpt>
      <trkpt lat="48.26565" lon="3.23524">
        <ele>62</ele>
        <time>2012-04-12T15:50:20.000Z</time>
      </trkpt>
      <trkpt lat="48.26571" lon="3.23524">
        <ele>62</ele>
        <time>2012-04-12T15:50:21.000Z</time>
      </trkpt>
      <trkpt lat="48.26576" lon="3.23522">
        <ele>62</ele>
        <time>2012-04-12T15:50:22.000Z</time>
      </trkpt>
      <trkpt lat="48.26581" lon="3.23522">
        <ele>62</ele>
        <time>2012-04-12T15:50:23.000Z</time>
      </trkpt>
      <trkpt lat="48.26587" lon="3.23519">
        <ele>61</ele>
        <time>2012-04-12T15:50:24.000Z</time>
      </trkpt>
      <trkpt lat="48.26592" lon="3.23517">
        <ele>61</ele>
        <time>2012-04-12T15:50:25.000Z</time>
      </trkpt>
      <trkpt lat="48.26598" lon="3.23517">
        <ele>61</ele>
        <time>2012-04-12T15:50:26.000Z</time>
      </trkpt>
      <trkpt lat="48.26604" lon="3.23517">
        <ele>61</ele>
        <time>2012-04-12T15:50:27.000Z</time>
      </trkpt>
      <trkpt lat="48.2661" lon="3.23517">
        <ele>61</ele>
        <time>2012-04-12T15:50:28.000Z</time>
      </trkpt>
      <trkpt lat="48.26617" lon="3.23517">
        <ele>61</ele>
        <time>2012-04-12T15:50:29.000Z</time>
      </trkpt>
      <trkpt lat="48.26623" lon="3.23515">
        <ele>61</ele>
        <time>2012-04-12T15:50:30.000Z</time>
      </trkpt>
      <trkpt lat="48.2663" lon="3.23513">
        <ele>61</ele>
        <time>2012-04-12T15:50:31.000Z</time>
      </trkpt>
      <trkpt lat="48.26636" lon="3.23511">
        <ele>61</ele>
        <time>2012-04-12T15:50:32.000Z</time>
      </trkpt>
      <trkpt lat="48.26642" lon="3.23509">
        <ele>60</ele>
        <time>2012-04-12T15:50:33.000Z</time>
      </trkpt>
      <trkpt lat="48.26647" lon="3.23504">
        <ele>60</ele>
        <time>2012-04-12T15:50:34.000Z</time>
      </trkpt>
      <trkpt lat="48.26652" lon="3.23502">
        <ele>60</ele>
        <time>2012-04-12T15:50:35.000Z</time>
      </trkpt>
      <trkpt lat="48.26658" lon="3.235">
        <ele>60</ele>
        <time>2012-04-12T15:50:36.000Z</time>
      </trkpt>
      <trkpt lat="48.26663" lon="3.235">
        <ele>60</ele>
        <time>2012-04-12T15:50:37.000Z</time>
      </trkpt>
      <trkpt lat="48.26667" lon="3.23498">
        <ele>60</ele>
        <time>2012-04-12T15:50:38.000Z</time>
      </trkpt>
      <trkpt lat="48.26672" lon="3.23496">
        <ele>60</ele>
        <time>2012-04-12T15:50:39.000Z</time>
      </trkpt>
      <trkpt lat="48.26677" lon="3.23487">
        <ele>60</ele>
        <time>2012-04-12T15:50:41.000Z</time>
      </trkpt>
      <trkpt lat="48.26681" lon="3.23479">
        <ele>60</ele>
        <time>2012-04-12T15:50:43.000Z</time>
      </trkpt>
      <trkpt lat="48.26687" lon="3.23472">
        <ele>60</ele>
        <time>2012-04-12T15:50:45.000Z</time>
      </trkpt>
      <trkpt lat="48.26691" lon="3.23468">
        <ele>60</ele>
        <time>2012-04-12T15:50:46.000Z</time>
      </trkpt>
      <trkpt lat="48.26698" lon="3.23464">
        <ele>60</ele>
        <time>2012-04-12T15:50:48.000Z</time>
      </trkpt>
      <trkpt lat="48.26706" lon="3.23455">
        <ele>59</ele>
        <time>2012-04-12T15:50:50.000Z</time>
      </trkpt>
      <trkpt lat="48.2671" lon="3.23451">
        <ele>60</ele>
        <time>2012-04-12T15:50:51.000Z</time>
      </trkpt>
      <trkpt lat="48.26716" lon="3.23446">
        <ele>60</ele>
        <time>2012-04-12T15:50:52.000Z</time>
      </trkpt>
      <trkpt lat="48.26721" lon="3.23442">
        <ele>60</ele>
        <time>2012-04-12T15:50:53.000Z</time>
      </trkpt>
      <trkpt lat="48.26727" lon="3.23438">
        <ele>60</ele>
        <time>2012-04-12T15:50:54.000Z</time>
      </trkpt>
      <trkpt lat="48.26732" lon="3.23431">
        <ele>60</ele>
        <time>2012-04-12T15:50:55.000Z</time>
      </trkpt>
      <trkpt lat="48.26737" lon="3.23427">
        <ele>60</ele>
        <time>2012-04-12T15:50:56.000Z</time>
      </trkpt>
      <trkpt lat="48.26742" lon="3.23423">
        <ele>60</ele>
        <time>2012-04-12T15:50:57.000Z</time>
      </trkpt>
      <trkpt lat="48.26748" lon="3.23416">
        <ele>60</ele>
        <time>2012-04-12T15:50:58.000Z</time>
      </trkpt>
      <trkpt lat="48.26753" lon="3.23408">
        <ele>60</ele>
        <time>2012-04-12T15:50:59.000Z</time>
      </trkpt>
      <trkpt lat="48.26758" lon="3.23401">
        <ele>61</ele>
        <time>2012-04-12T15:51:00.000Z</time>
      </trkpt>
      <trkpt lat="48.26764" lon="3.23395">
        <ele>61</ele>
        <time>2012-04-12T15:51:01.000Z</time>
      </trkpt>
      <trkpt lat="48.26768" lon="3.23388">
        <ele>61</ele>
        <time>2012-04-12T15:51:02.000Z</time>
      </trkpt>
      <trkpt lat="48.26772" lon="3.23382">
        <ele>61</ele>
        <time>2012-04-12T15:51:03.000Z</time>
      </trkpt>
      <trkpt lat="48.26778" lon="3.23376">
        <ele>61</ele>
        <time>2012-04-12T15:51:04.000Z</time>
      </trkpt>
      <trkpt lat="48.26782" lon="3.23369">
        <ele>61</ele>
        <time>2012-04-12T15:51:05.000Z</time>
      </trkpt>
      <trkpt lat="48.26786" lon="3.23363">
        <ele>61</ele>
        <time>2012-04-12T15:51:06.000Z</time>
      </trkpt>
      <trkpt lat="48.2679" lon="3.23356">
        <ele>61</ele>
        <time>2012-04-12T15:51:07.000Z</time>
      </trkpt>
      <trkpt lat="48.26794" lon="3.2335">
        <ele>61</ele>
        <time>2012-04-12T15:51:08.000Z</time>
      </trkpt>
      <trkpt lat="48.26797" lon="3.23344">
        <ele>61</ele>
        <time>2012-04-12T15:51:09.000Z</time>
      </trkpt>
      <trkpt lat="48.26799" lon="3.23337">
        <ele>61</ele>
        <time>2012-04-12T15:51:10.000Z</time>
      </trkpt>
      <trkpt lat="48.26802" lon="3.23331">
        <ele>61</ele>
        <time>2012-04-12T15:51:11.000Z</time>
      </trkpt>
      <trkpt lat="48.26805" lon="3.23324">
        <ele>61</ele>
        <time>2012-04-12T15:51:12.000Z</time>
      </trkpt>
      <trkpt lat="48.26807" lon="3.23318">
        <ele>61</ele>
        <time>2012-04-12T15:51:13.000Z</time>
      </trkpt>
      <trkpt lat="48.26812" lon="3.23307">
        <ele>61</ele>
        <time>2012-04-12T15:51:15.000Z</time>
      </trkpt>
      <trkpt lat="48.26815" lon="3.23301">
        <ele>61</ele>
        <time>2012-04-12T15:51:16.000Z</time>
      </trkpt>
      <trkpt lat="48.26818" lon="3.23294">
        <ele>61</ele>
        <time>2012-04-12T15:51:17.000Z</time>
      </trkpt>
      <trkpt lat="48.26822" lon="3.23288">
        <ele>61</ele>
        <time>2012-04-12T15:51:18.000Z</time>
      </trkpt>
      <trkpt lat="48.26828" lon="3.23275">
        <ele>61</ele>
        <time>2012-04-12T15:51:20.000Z</time>
      </trkpt>
      <trkpt lat="48.2683" lon="3.23268">
        <ele>61</ele>
        <time>2012-04-12T15:51:21.000Z</time>
      </trkpt>
      <trkpt lat="48.26834" lon="3.23262">
        <ele>61</ele>
        <time>2012-04-12T15:51:22.000Z</time>
      </trkpt>
      <trkpt lat="48.26836" lon="3.23256">
        <ele>61</ele>
        <time>2012-04-12T15:51:23.000Z</time>
      </trkpt>
      <trkpt lat="48.26838" lon="3.23249">
        <ele>61</ele>
        <time>2012-04-12T15:51:24.000Z</time>
      </trkpt>
      <trkpt lat="48.2684" lon="3.2324">
        <ele>61</ele>
        <time>2012-04-12T15:51:25.000Z</time>
      </trkpt>
      <trkpt lat="48.26843" lon="3.2323">
        <ele>60</ele>
        <time>2012-04-12T15:51:27.000Z</time>
      </trkpt>
      <trkpt lat="48.26845" lon="3.23223">
        <ele>60</ele>
        <time>2012-04-12T15:51:28.000Z</time>
      </trkpt>
      <trkpt lat="48.26848" lon="3.23215">
        <ele>60</ele>
        <time>2012-04-12T15:51:29.000Z</time>
      </trkpt>
      <trkpt lat="48.26851" lon="3.23202">
        <ele>60</ele>
        <time>2012-04-12T15:51:31.000Z</time>
      </trkpt>
      <trkpt lat="48.26852" lon="3.23193">
        <ele>60</ele>
        <time>2012-04-12T15:51:32.000Z</time>
      </trkpt>
      <trkpt lat="48.26854" lon="3.23187">
        <ele>60</ele>
        <time>2012-04-12T15:51:33.000Z</time>
      </trkpt>
      <trkpt lat="48.26858" lon="3.23172">
        <ele>60</ele>
        <time>2012-04-12T15:51:35.000Z</time>
      </trkpt>
      <trkpt lat="48.2686" lon="3.23163">
        <ele>60</ele>
        <time>2012-04-12T15:51:36.000Z</time>
      </trkpt>
      <trkpt lat="48.26862" lon="3.23155">
        <ele>60</ele>
        <time>2012-04-12T15:51:37.000Z</time>
      </trkpt>
      <trkpt lat="48.26865" lon="3.23146">
        <ele>60</ele>
        <time>2012-04-12T15:51:38.000Z</time>
      </trkpt>
      <trkpt lat="48.26868" lon="3.2314">
        <ele>60</ele>
        <time>2012-04-12T15:51:39.000Z</time>
      </trkpt>
      <trkpt lat="48.2687" lon="3.23133">
        <ele>61</ele>
        <time>2012-04-12T15:51:40.000Z</time>
      </trkpt>
      <trkpt lat="48.26873" lon="3.23125">
        <ele>61</ele>
        <time>2012-04-12T15:51:41.000Z</time>
      </trkpt>
      <trkpt lat="48.26875" lon="3.23118">
        <ele>61</ele>
        <time>2012-04-12T15:51:42.000Z</time>
      </trkpt>
      <trkpt lat="48.26878" lon="3.23112">
        <ele>61</ele>
        <time>2012-04-12T15:51:43.000Z</time>
      </trkpt>
      <trkpt lat="48.2688" lon="3.23105">
        <ele>61</ele>
        <time>2012-04-12T15:51:44.000Z</time>
      </trkpt>
      <trkpt lat="48.26883" lon="3.23097">
        <ele>61</ele>
        <time>2012-04-12T15:51:45.000Z</time>
      </trkpt>
      <trkpt lat="48.26886" lon="3.23088">
        <ele>62</ele>
        <time>2012-04-12T15:51:46.000Z</time>
      </trkpt>
      <trkpt lat="48.2689" lon="3.23077">
        <ele>62</ele>
        <time>2012-04-12T15:51:47.000Z</time>
      </trkpt>
      <trkpt lat="48.26895" lon="3.23069">
        <ele>62</ele>
        <time>2012-04-12T15:51:48.000Z</time>
      </trkpt>
      <trkpt lat="48.26899" lon="3.23058">
        <ele>62</ele>
        <time>2012-04-12T15:51:49.000Z</time>
      </trkpt>
      <trkpt lat="48.26902" lon="3.23047">
        <ele>62</ele>
        <time>2012-04-12T15:51:50.000Z</time>
      </trkpt>
      <trkpt lat="48.26906" lon="3.23037">
        <ele>62</ele>
        <time>2012-04-12T15:51:51.000Z</time>
      </trkpt>
      <trkpt lat="48.2691" lon="3.23024">
        <ele>63</ele>
        <time>2012-04-12T15:51:52.000Z</time>
      </trkpt>
      <trkpt lat="48.26913" lon="3.23011">
        <ele>63</ele>
        <time>2012-04-12T15:51:53.000Z</time>
      </trkpt>
      <trkpt lat="48.26916" lon="3.23">
        <ele>64</ele>
        <time>2012-04-12T15:51:54.000Z</time>
      </trkpt>
      <trkpt lat="48.26919" lon="3.22989">
        <ele>63</ele>
        <time>2012-04-12T15:51:55.000Z</time>
      </trkpt>
      <trkpt lat="48.26923" lon="3.22979">
        <ele>63</ele>
        <time>2012-04-12T15:51:56.000Z</time>
      </trkpt>
      <trkpt lat="48.26927" lon="3.22968">
        <ele>63</ele>
        <time>2012-04-12T15:51:57.000Z</time>
      </trkpt>
      <trkpt lat="48.26929" lon="3.22955">
        <ele>63</ele>
        <time>2012-04-12T15:51:58.000Z</time>
      </trkpt>
      <trkpt lat="48.26932" lon="3.22944">
        <ele>62</ele>
        <time>2012-04-12T15:51:59.000Z</time>
      </trkpt>
      <trkpt lat="48.26934" lon="3.22934">
        <ele>62</ele>
        <time>2012-04-12T15:52:00.000Z</time>
      </trkpt>
      <trkpt lat="48.26937" lon="3.22923">
        <ele>62</ele>
        <time>2012-04-12T15:52:01.000Z</time>
      </trkpt>
      <trkpt lat="48.26939" lon="3.22914">
        <ele>62</ele>
        <time>2012-04-12T15:52:02.000Z</time>
      </trkpt>
      <trkpt lat="48.26942" lon="3.22908">
        <ele>62</ele>
        <time>2012-04-12T15:52:03.000Z</time>
      </trkpt>
      <trkpt lat="48.26946" lon="3.22899">
        <ele>61</ele>
        <time>2012-04-12T15:52:04.000Z</time>
      </trkpt>
      <trkpt lat="48.26953" lon="3.22889">
        <ele>61</ele>
        <time>2012-04-12T15:52:06.000Z</time>
      </trkpt>
      <trkpt lat="48.26956" lon="3.22882">
        <ele>61</ele>
        <time>2012-04-12T15:52:07.000Z</time>
      </trkpt>
      <trkpt lat="48.26959" lon="3.22876">
        <ele>61</ele>
        <time>2012-04-12T15:52:08.000Z</time>
      </trkpt>
      <trkpt lat="48.26961" lon="3.22869">
        <ele>61</ele>
        <time>2012-04-12T15:52:09.000Z</time>
      </trkpt>
      <trkpt lat="48.26968" lon="3.22858">
        <ele>61</ele>
        <time>2012-04-12T15:52:11.000Z</time>
      </trkpt>
      <trkpt lat="48.2697" lon="3.22852">
        <ele>61</ele>
        <time>2012-04-12T15:52:12.000Z</time>
      </trkpt>
      <trkpt lat="48.26975" lon="3.22841">
        <ele>61</ele>
        <time>2012-04-12T15:52:14.000Z</time>
      </trkpt>
      <trkpt lat="48.26982" lon="3.22833">
        <ele>60</ele>
        <time>2012-04-12T15:52:16.000Z</time>
      </trkpt>
      <trkpt lat="48.26985" lon="3.22826">
        <ele>60</ele>
        <time>2012-04-12T15:52:17.000Z</time>
      </trkpt>
      <trkpt lat="48.26992" lon="3.22816">
        <ele>60</ele>
        <time>2012-04-12T15:52:19.000Z</time>
      </trkpt>
      <trkpt lat="48.26999" lon="3.22805">
        <ele>60</ele>
        <time>2012-04-12T15:52:21.000Z</time>
      </trkpt>
      <trkpt lat="48.27002" lon="3.22798">
        <ele>59</ele>
        <time>2012-04-12T15:52:22.000Z</time>
      </trkpt>
      <trkpt lat="48.2701" lon="3.22788">
        <ele>59</ele>
        <time>2012-04-12T15:52:24.000Z</time>
      </trkpt>
      <trkpt lat="48.27013" lon="3.22781">
        <ele>59</ele>
        <time>2012-04-12T15:52:25.000Z</time>
      </trkpt>
      <trkpt lat="48.27017" lon="3.22777">
        <ele>59</ele>
        <time>2012-04-12T15:52:26.000Z</time>
      </trkpt>
      <trkpt lat="48.27021" lon="3.22773">
        <ele>59</ele>
        <time>2012-04-12T15:52:27.000Z</time>
      </trkpt>
      <trkpt lat="48.27026" lon="3.22766">
        <ele>59</ele>
        <time>2012-04-12T15:52:28.000Z</time>
      </trkpt>
      <trkpt lat="48.2703" lon="3.22762">
        <ele>59</ele>
        <time>2012-04-12T15:52:29.000Z</time>
      </trkpt>
      <trkpt lat="48.27035" lon="3.22756">
        <ele>59</ele>
        <time>2012-04-12T15:52:30.000Z</time>
      </trkpt>
      <trkpt lat="48.2704" lon="3.22751">
        <ele>59</ele>
        <time>2012-04-12T15:52:31.000Z</time>
      </trkpt>
      <trkpt lat="48.27044" lon="3.22745">
        <ele>58</ele>
        <time>2012-04-12T15:52:32.000Z</time>
      </trkpt>
      <trkpt lat="48.27048" lon="3.2274">
        <ele>58</ele>
        <time>2012-04-12T15:52:33.000Z</time>
      </trkpt>
      <trkpt lat="48.27052" lon="3.22734">
        <ele>58</ele>
        <time>2012-04-12T15:52:34.000Z</time>
      </trkpt>
      <trkpt lat="48.27057" lon="3.2273">
        <ele>58</ele>
        <time>2012-04-12T15:52:35.000Z</time>
      </trkpt>
      <trkpt lat="48.27061" lon="3.22726">
        <ele>58</ele>
        <time>2012-04-12T15:52:36.000Z</time>
      </trkpt>
      <trkpt lat="48.27065" lon="3.22721">
        <ele>58</ele>
        <time>2012-04-12T15:52:37.000Z</time>
      </trkpt>
      <trkpt lat="48.2707" lon="3.22715">
        <ele>58</ele>
        <time>2012-04-12T15:52:38.000Z</time>
      </trkpt>
      <trkpt lat="48.27074" lon="3.2271">
        <ele>58</ele>
        <time>2012-04-12T15:52:39.000Z</time>
      </trkpt>
      <trkpt lat="48.27078" lon="3.22706">
        <ele>58</ele>
        <time>2012-04-12T15:52:40.000Z</time>
      </trkpt>
      <trkpt lat="48.27082" lon="3.22702">
        <ele>58</ele>
        <time>2012-04-12T15:52:41.000Z</time>
      </trkpt>
      <trkpt lat="48.27087" lon="3.22698">
        <ele>59</ele>
        <time>2012-04-12T15:52:42.000Z</time>
      </trkpt>
      <trkpt lat="48.27092" lon="3.22693">
        <ele>59</ele>
        <time>2012-04-12T15:52:43.000Z</time>
      </trkpt>
      <trkpt lat="48.27096" lon="3.22689">
        <ele>59</ele>
        <time>2012-04-12T15:52:44.000Z</time>
      </trkpt>
      <trkpt lat="48.27101" lon="3.22685">
        <ele>59</ele>
        <time>2012-04-12T15:52:45.000Z</time>
      </trkpt>
      <trkpt lat="48.27105" lon="3.2268">
        <ele>58</ele>
        <time>2012-04-12T15:52:46.000Z</time>
      </trkpt>
      <trkpt lat="48.27109" lon="3.22676">
        <ele>58</ele>
        <time>2012-04-12T15:52:47.000Z</time>
      </trkpt>
      <trkpt lat="48.27114" lon="3.22672">
        <ele>58</ele>
        <time>2012-04-12T15:52:48.000Z</time>
      </trkpt>
      <trkpt lat="48.27119" lon="3.22668">
        <ele>59</ele>
        <time>2012-04-12T15:52:49.000Z</time>
      </trkpt>
      <trkpt lat="48.27123" lon="3.22663">
        <ele>57</ele>
        <time>2012-04-12T15:52:50.000Z</time>
      </trkpt>
      <trkpt lat="48.27128" lon="3.22659">
        <ele>57</ele>
        <time>2012-04-12T15:52:51.000Z</time>
      </trkpt>
      <trkpt lat="48.27132" lon="3.22655">
        <ele>57</ele>
        <time>2012-04-12T15:52:52.000Z</time>
      </trkpt>
      <trkpt lat="48.27137" lon="3.2265">
        <ele>57</ele>
        <time>2012-04-12T15:52:53.000Z</time>
      </trkpt>
      <trkpt lat="48.27142" lon="3.22646">
        <ele>57</ele>
        <time>2012-04-12T15:52:54.000Z</time>
      </trkpt>
      <trkpt lat="48.27146" lon="3.22642">
        <ele>57</ele>
        <time>2012-04-12T15:52:55.000Z</time>
      </trkpt>
      <trkpt lat="48.27151" lon="3.2264">
        <ele>57</ele>
        <time>2012-04-12T15:52:56.000Z</time>
      </trkpt>
      <trkpt lat="48.27155" lon="3.22635">
        <ele>57</ele>
        <time>2012-04-12T15:52:57.000Z</time>
      </trkpt>
      <trkpt lat="48.27161" lon="3.22631">
        <ele>57</ele>
        <time>2012-04-12T15:52:58.000Z</time>
      </trkpt>
      <trkpt lat="48.27165" lon="3.22627">
        <ele>57</ele>
        <time>2012-04-12T15:52:59.000Z</time>
      </trkpt>
      <trkpt lat="48.27169" lon="3.22622">
        <ele>59</ele>
        <time>2012-04-12T15:53:00.000Z</time>
      </trkpt>
      <trkpt lat="48.27174" lon="3.2262">
        <ele>59</ele>
        <time>2012-04-12T15:53:01.000Z</time>
      </trkpt>
      <trkpt lat="48.27178" lon="3.22616">
        <ele>59</ele>
        <time>2012-04-12T15:53:02.000Z</time>
      </trkpt>
      <trkpt lat="48.27182" lon="3.22612">
        <ele>59</ele>
        <time>2012-04-12T15:53:03.000Z</time>
      </trkpt>
      <trkpt lat="48.27186" lon="3.22608">
        <ele>59</ele>
        <time>2012-04-12T15:53:04.000Z</time>
      </trkpt>
      <trkpt lat="48.27191" lon="3.22603">
        <ele>60</ele>
        <time>2012-04-12T15:53:05.000Z</time>
      </trkpt>
      <trkpt lat="48.27195" lon="3.22599">
        <ele>60</ele>
        <time>2012-04-12T15:53:06.000Z</time>
      </trkpt>
      <trkpt lat="48.27199" lon="3.22595">
        <ele>60</ele>
        <time>2012-04-12T15:53:07.000Z</time>
      </trkpt>
      <trkpt lat="48.27204" lon="3.2259">
        <ele>60</ele>
        <time>2012-04-12T15:53:08.000Z</time>
      </trkpt>
      <trkpt lat="48.27208" lon="3.22586">
        <ele>60</ele>
        <time>2012-04-12T15:53:09.000Z</time>
      </trkpt>
      <trkpt lat="48.27212" lon="3.22582">
        <ele>61</ele>
        <time>2012-04-12T15:53:10.000Z</time>
      </trkpt>
      <trkpt lat="48.2722" lon="3.22573">
        <ele>62</ele>
        <time>2012-04-12T15:53:12.000Z</time>
      </trkpt>
      <trkpt lat="48.27224" lon="3.22569">
        <ele>62</ele>
        <time>2012-04-12T15:53:13.000Z</time>
      </trkpt>
      <trkpt lat="48.27227" lon="3.22562">
        <ele>62</ele>
        <time>2012-04-12T15:53:14.000Z</time>
      </trkpt>
      <trkpt lat="48.27235" lon="3.22554">
        <ele>62</ele>
        <time>2012-04-12T15:53:16.000Z</time>
      </trkpt>
      <trkpt lat="48.27241" lon="3.22545">
        <ele>62</ele>
        <time>2012-04-12T15:53:18.000Z</time>
      </trkpt>
      <trkpt lat="48.27246" lon="3.22541">
        <ele>62</ele>
        <time>2012-04-12T15:53:19.000Z</time>
      </trkpt>
      <trkpt lat="48.27249" lon="3.22534">
        <ele>62</ele>
        <time>2012-04-12T15:53:20.000Z</time>
      </trkpt>
      <trkpt lat="48.27255" lon="3.22528">
        <ele>64</ele>
        <time>2012-04-12T15:53:22.000Z</time>
      </trkpt>
      <trkpt lat="48.2726" lon="3.22524">
        <ele>64</ele>
        <time>2012-04-12T15:53:23.000Z</time>
      </trkpt>
      <trkpt lat="48.27266" lon="3.22515">
        <ele>64</ele>
        <time>2012-04-12T15:53:25.000Z</time>
      </trkpt>
      <trkpt lat="48.27273" lon="3.22507">
        <ele>64</ele>
        <time>2012-04-12T15:53:27.000Z</time>
      </trkpt>
      <trkpt lat="48.2728" lon="3.22498">
        <ele>63</ele>
        <time>2012-04-12T15:53:29.000Z</time>
      </trkpt>
      <trkpt lat="48.27284" lon="3.22494">
        <ele>63</ele>
        <time>2012-04-12T15:53:30.000Z</time>
      </trkpt>
      <trkpt lat="48.27291" lon="3.22485">
        <ele>62</ele>
        <time>2012-04-12T15:53:32.000Z</time>
      </trkpt>
      <trkpt lat="48.27297" lon="3.22474">
        <ele>62</ele>
        <time>2012-04-12T15:53:34.000Z</time>
      </trkpt>
      <trkpt lat="48.27305" lon="3.22466">
        <ele>62</ele>
        <time>2012-04-12T15:53:36.000Z</time>
      </trkpt>
      <trkpt lat="48.2731" lon="3.22457">
        <ele>62</ele>
        <time>2012-04-12T15:53:37.000Z</time>
      </trkpt>
      <trkpt lat="48.27316" lon="3.22451">
        <ele>62</ele>
        <time>2012-04-12T15:53:38.000Z</time>
      </trkpt>
      <trkpt lat="48.27322" lon="3.22446">
        <ele>62</ele>
        <time>2012-04-12T15:53:39.000Z</time>
      </trkpt>
      <trkpt lat="48.27328" lon="3.2244">
        <ele>62</ele>
        <time>2012-04-12T15:53:40.000Z</time>
      </trkpt>
      <trkpt lat="48.27334" lon="3.22434">
        <ele>61</ele>
        <time>2012-04-12T15:53:41.000Z</time>
      </trkpt>
      <trkpt lat="48.27339" lon="3.22429">
        <ele>61</ele>
        <time>2012-04-12T15:53:42.000Z</time>
      </trkpt>
      <trkpt lat="48.27343" lon="3.22423">
        <ele>61</ele>
        <time>2012-04-12T15:53:43.000Z</time>
      </trkpt>
      <trkpt lat="48.27348" lon="3.22416">
        <ele>61</ele>
        <time>2012-04-12T15:53:44.000Z</time>
      </trkpt>
      <trkpt lat="48.27353" lon="3.22412">
        <ele>61</ele>
        <time>2012-04-12T15:53:45.000Z</time>
      </trkpt>
      <trkpt lat="48.27357" lon="3.22406">
        <ele>62</ele>
        <time>2012-04-12T15:53:46.000Z</time>
      </trkpt>
      <trkpt lat="48.27365" lon="3.22395">
        <ele>62</ele>
        <time>2012-04-12T15:53:48.000Z</time>
      </trkpt>
      <trkpt lat="48.27369" lon="3.22389">
        <ele>62</ele>
        <time>2012-04-12T15:53:49.000Z</time>
      </trkpt>
      <trkpt lat="48.27372" lon="3.22382">
        <ele>62</ele>
        <time>2012-04-12T15:53:50.000Z</time>
      </trkpt>
      <trkpt lat="48.27379" lon="3.22371">
        <ele>62</ele>
        <time>2012-04-12T15:53:52.000Z</time>
      </trkpt>
      <trkpt lat="48.27383" lon="3.22365">
        <ele>62</ele>
        <time>2012-04-12T15:53:53.000Z</time>
      </trkpt>
      <trkpt lat="48.2739" lon="3.22354">
        <ele>62</ele>
        <time>2012-04-12T15:53:55.000Z</time>
      </trkpt>
      <trkpt lat="48.27398" lon="3.22346">
        <ele>63</ele>
        <time>2012-04-12T15:53:57.000Z</time>
      </trkpt>
      <trkpt lat="48.27403" lon="3.22339">
        <ele>63</ele>
        <time>2012-04-12T15:53:59.000Z</time>
      </trkpt>
      <trkpt lat="48.27411" lon="3.22328">
        <ele>63</ele>
        <time>2012-04-12T15:54:01.000Z</time>
      </trkpt>
      <trkpt lat="48.27415" lon="3.22324">
        <ele>63</ele>
        <time>2012-04-12T15:54:02.000Z</time>
      </trkpt>
      <trkpt lat="48.2742" lon="3.22318">
        <ele>63</ele>
        <time>2012-04-12T15:54:03.000Z</time>
      </trkpt>
      <trkpt lat="48.27426" lon="3.22311">
        <ele>63</ele>
        <time>2012-04-12T15:54:04.000Z</time>
      </trkpt>
      <trkpt lat="48.2743" lon="3.22305">
        <ele>63</ele>
        <time>2012-04-12T15:54:05.000Z</time>
      </trkpt>
      <trkpt lat="48.27435" lon="3.22301">
        <ele>63</ele>
        <time>2012-04-12T15:54:06.000Z</time>
      </trkpt>
      <trkpt lat="48.2744" lon="3.22294">
        <ele>63</ele>
        <time>2012-04-12T15:54:07.000Z</time>
      </trkpt>
      <trkpt lat="48.27444" lon="3.22288">
        <ele>63</ele>
        <time>2012-04-12T15:54:09.000Z</time>
      </trkpt>
      <trkpt lat="48.27444" lon="3.22288">
        <ele>63</ele>
        <time>2012-04-12T15:54:09.000Z</time>
      </trkpt>
      <trkpt lat="48.27444" lon="3.22288">
        <ele>63</ele>
        <time>2012-04-12T15:54:13.000Z</time>
      </trkpt>
      <trkpt lat="48.27452" lon="3.22273">
        <ele>63</ele>
        <time>2012-04-12T15:54:14.000Z</time>
      </trkpt>
      <trkpt lat="48.27456" lon="3.22266">
        <ele>63</ele>
        <time>2012-04-12T15:54:15.000Z</time>
      </trkpt>
      <trkpt lat="48.27463" lon="3.22256">
        <ele>63</ele>
        <time>2012-04-12T15:54:17.000Z</time>
      </trkpt>
      <trkpt lat="48.27467" lon="3.22249">
        <ele>63</ele>
        <time>2012-04-12T15:54:18.000Z</time>
      </trkpt>
      <trkpt lat="48.27471" lon="3.22245">
        <ele>63</ele>
        <time>2012-04-12T15:54:19.000Z</time>
      </trkpt>
      <trkpt lat="48.27475" lon="3.22238">
        <ele>63</ele>
        <time>2012-04-12T15:54:20.000Z</time>
      </trkpt>
      <trkpt lat="48.2748" lon="3.22232">
        <ele>63</ele>
        <time>2012-04-12T15:54:21.000Z</time>
      </trkpt>
      <trkpt lat="48.27486" lon="3.22223">
        <ele>63</ele>
        <time>2012-04-12T15:54:22.000Z</time>
      </trkpt>
      <trkpt lat="48.2749" lon="3.22217">
        <ele>63</ele>
        <time>2012-04-12T15:54:23.000Z</time>
      </trkpt>
      <trkpt lat="48.27496" lon="3.2221">
        <ele>63</ele>
        <time>2012-04-12T15:54:24.000Z</time>
      </trkpt>
      <trkpt lat="48.27501" lon="3.22206">
        <ele>63</ele>
        <time>2012-04-12T15:54:25.000Z</time>
      </trkpt>
      <trkpt lat="48.27506" lon="3.222">
        <ele>63</ele>
        <time>2012-04-12T15:54:26.000Z</time>
      </trkpt>
      <trkpt lat="48.2751" lon="3.22193">
        <ele>63</ele>
        <time>2012-04-12T15:54:27.000Z</time>
      </trkpt>
      <trkpt lat="48.27515" lon="3.22189">
        <ele>63</ele>
        <time>2012-04-12T15:54:28.000Z</time>
      </trkpt>
      <trkpt lat="48.2752" lon="3.22183">
        <ele>63</ele>
        <time>2012-04-12T15:54:29.000Z</time>
      </trkpt>
      <trkpt lat="48.27524" lon="3.22178">
        <ele>63</ele>
        <time>2012-04-12T15:54:30.000Z</time>
      </trkpt>
      <trkpt lat="48.27529" lon="3.22172">
        <ele>63</ele>
        <time>2012-04-12T15:54:31.000Z</time>
      </trkpt>
      <trkpt lat="48.27533" lon="3.22165">
        <ele>62</ele>
        <time>2012-04-12T15:54:32.000Z</time>
      </trkpt>
      <trkpt lat="48.27537" lon="3.22161">
        <ele>62</ele>
        <time>2012-04-12T15:54:33.000Z</time>
      </trkpt>
      <trkpt lat="48.27542" lon="3.22155">
        <ele>62</ele>
        <time>2012-04-12T15:54:34.000Z</time>
      </trkpt>
      <trkpt lat="48.27547" lon="3.22148">
        <ele>62</ele>
        <time>2012-04-12T15:54:35.000Z</time>
      </trkpt>
      <trkpt lat="48.27552" lon="3.22144">
        <ele>62</ele>
        <time>2012-04-12T15:54:36.000Z</time>
      </trkpt>
      <trkpt lat="48.27558" lon="3.22138">
        <ele>62</ele>
        <time>2012-04-12T15:54:37.000Z</time>
      </trkpt>
      <trkpt lat="48.27563" lon="3.22131">
        <ele>62</ele>
        <time>2012-04-12T15:54:38.000Z</time>
      </trkpt>
      <trkpt lat="48.27568" lon="3.22125">
        <ele>62</ele>
        <time>2012-04-12T15:54:39.000Z</time>
      </trkpt>
      <trkpt lat="48.27573" lon="3.22118">
        <ele>62</ele>
        <time>2012-04-12T15:54:40.000Z</time>
      </trkpt>
      <trkpt lat="48.27577" lon="3.2211">
        <ele>61</ele>
        <time>2012-04-12T15:54:41.000Z</time>
      </trkpt>
      <trkpt lat="48.2758" lon="3.22103">
        <ele>61</ele>
        <time>2012-04-12T15:54:42.000Z</time>
      </trkpt>
      <trkpt lat="48.27585" lon="3.22097">
        <ele>60</ele>
        <time>2012-04-12T15:54:43.000Z</time>
      </trkpt>
      <trkpt lat="48.27588" lon="3.22088">
        <ele>60</ele>
        <time>2012-04-12T15:54:44.000Z</time>
      </trkpt>
      <trkpt lat="48.27592" lon="3.22082">
        <ele>60</ele>
        <time>2012-04-12T15:54:45.000Z</time>
      </trkpt>
      <trkpt lat="48.27595" lon="3.22073">
        <ele>60</ele>
        <time>2012-04-12T15:54:46.000Z</time>
      </trkpt>
      <trkpt lat="48.276" lon="3.22065">
        <ele>60</ele>
        <time>2012-04-12T15:54:47.000Z</time>
      </trkpt>
      <trkpt lat="48.27603" lon="3.22056">
        <ele>60</ele>
        <time>2012-04-12T15:54:48.000Z</time>
      </trkpt>
      <trkpt lat="48.27607" lon="3.2205">
        <ele>60</ele>
        <time>2012-04-12T15:54:49.000Z</time>
      </trkpt>
      <trkpt lat="48.2761" lon="3.22041">
        <ele>60</ele>
        <time>2012-04-12T15:54:50.000Z</time>
      </trkpt>
      <trkpt lat="48.27615" lon="3.22034">
        <ele>60</ele>
        <time>2012-04-12T15:54:51.000Z</time>
      </trkpt>
      <trkpt lat="48.27618" lon="3.22028">
        <ele>60</ele>
        <time>2012-04-12T15:54:52.000Z</time>
      </trkpt>
      <trkpt lat="48.27621" lon="3.22022">
        <ele>60</ele>
        <time>2012-04-12T15:54:53.000Z</time>
      </trkpt>
      <trkpt lat="48.27624" lon="3.22015">
        <ele>60</ele>
        <time>2012-04-12T15:54:54.000Z</time>
      </trkpt>
      <trkpt lat="48.27628" lon="3.22009">
        <ele>60</ele>
        <time>2012-04-12T15:54:55.000Z</time>
      </trkpt>
      <trkpt lat="48.27631" lon="3.22002">
        <ele>60</ele>
        <time>2012-04-12T15:54:56.000Z</time>
      </trkpt>
      <trkpt lat="48.27634" lon="3.21996">
        <ele>61</ele>
        <time>2012-04-12T15:54:57.000Z</time>
      </trkpt>
      <trkpt lat="48.27637" lon="3.2199">
        <ele>61</ele>
        <time>2012-04-12T15:54:58.000Z</time>
      </trkpt>
      <trkpt lat="48.2764" lon="3.21983">
        <ele>61</ele>
        <time>2012-04-12T15:54:59.000Z</time>
      </trkpt>
      <trkpt lat="48.27645" lon="3.21977">
        <ele>61</ele>
        <time>2012-04-12T15:55:00.000Z</time>
      </trkpt>
      <trkpt lat="48.27649" lon="3.2197">
        <ele>61</ele>
        <time>2012-04-12T15:55:01.000Z</time>
      </trkpt>
      <trkpt lat="48.27653" lon="3.21962">
        <ele>61</ele>
        <time>2012-04-12T15:55:02.000Z</time>
      </trkpt>
      <trkpt lat="48.27658" lon="3.21953">
        <ele>61</ele>
        <time>2012-04-12T15:55:03.000Z</time>
      </trkpt>
      <trkpt lat="48.27662" lon="3.21947">
        <ele>61</ele>
        <time>2012-04-12T15:55:04.000Z</time>
      </trkpt>
      <trkpt lat="48.27667" lon="3.2194">
        <ele>60</ele>
        <time>2012-04-12T15:55:05.000Z</time>
      </trkpt>
      <trkpt lat="48.27672" lon="3.21934">
        <ele>60</ele>
        <time>2012-04-12T15:55:06.000Z</time>
      </trkpt>
      <trkpt lat="48.27675" lon="3.21927">
        <ele>60</ele>
        <time>2012-04-12T15:55:07.000Z</time>
      </trkpt>
      <trkpt lat="48.27678" lon="3.21921">
        <ele>60</ele>
        <time>2012-04-12T15:55:08.000Z</time>
      </trkpt>
      <trkpt lat="48.27682" lon="3.21916">
        <ele>61</ele>
        <time>2012-04-12T15:55:09.000Z</time>
      </trkpt>
      <trkpt lat="48.27686" lon="3.2191">
        <ele>61</ele>
        <time>2012-04-12T15:55:10.000Z</time>
      </trkpt>
      <trkpt lat="48.27691" lon="3.21906">
        <ele>61</ele>
        <time>2012-04-12T15:55:11.000Z</time>
      </trkpt>
      <trkpt lat="48.27695" lon="3.21902">
        <ele>61</ele>
        <time>2012-04-12T15:55:12.000Z</time>
      </trkpt>
      <trkpt lat="48.27699" lon="3.21895">
        <ele>61</ele>
        <time>2012-04-12T15:55:13.000Z</time>
      </trkpt>
      <trkpt lat="48.27704" lon="3.21891">
        <ele>61</ele>
        <time>2012-04-12T15:55:14.000Z</time>
      </trkpt>
      <trkpt lat="48.27709" lon="3.21884">
        <ele>61</ele>
        <time>2012-04-12T15:55:15.000Z</time>
      </trkpt>
      <trkpt lat="48.27713" lon="3.21878">
        <ele>61</ele>
        <time>2012-04-12T15:55:16.000Z</time>
      </trkpt>
      <trkpt lat="48.27719" lon="3.21872">
        <ele>61</ele>
        <time>2012-04-12T15:55:17.000Z</time>
      </trkpt>
      <trkpt lat="48.27724" lon="3.21865">
        <ele>61</ele>
        <time>2012-04-12T15:55:18.000Z</time>
      </trkpt>
      <trkpt lat="48.27729" lon="3.21859">
        <ele>61</ele>
        <time>2012-04-12T15:55:19.000Z</time>
      </trkpt>
      <trkpt lat="48.27734" lon="3.21852">
        <ele>61</ele>
        <time>2012-04-12T15:55:20.000Z</time>
      </trkpt>
      <trkpt lat="48.27739" lon="3.21846">
        <ele>61</ele>
        <time>2012-04-12T15:55:21.000Z</time>
      </trkpt>
      <trkpt lat="48.27744" lon="3.21839">
        <ele>61</ele>
        <time>2012-04-12T15:55:22.000Z</time>
      </trkpt>
      <trkpt lat="48.27749" lon="3.21833">
        <ele>61</ele>
        <time>2012-04-12T15:55:23.000Z</time>
      </trkpt>
      <trkpt lat="48.27754" lon="3.21829">
        <ele>61</ele>
        <time>2012-04-12T15:55:24.000Z</time>
      </trkpt>
      <trkpt lat="48.27758" lon="3.21824">
        <ele>61</ele>
        <time>2012-04-12T15:55:25.000Z</time>
      </trkpt>
      <trkpt lat="48.27763" lon="3.21818">
        <ele>61</ele>
        <time>2012-04-12T15:55:26.000Z</time>
      </trkpt>
      <trkpt lat="48.27767" lon="3.21814">
        <ele>61</ele>
        <time>2012-04-12T15:55:27.000Z</time>
      </trkpt>
      <trkpt lat="48.27771" lon="3.21809">
        <ele>60</ele>
        <time>2012-04-12T15:55:28.000Z</time>
      </trkpt>
      <trkpt lat="48.27776" lon="3.21805">
        <ele>60</ele>
        <time>2012-04-12T15:55:29.000Z</time>
      </trkpt>
      <trkpt lat="48.2778" lon="3.21798">
        <ele>60</ele>
        <time>2012-04-12T15:55:30.000Z</time>
      </trkpt>
      <trkpt lat="48.27784" lon="3.21794">
        <ele>60</ele>
        <time>2012-04-12T15:55:31.000Z</time>
      </trkpt>
      <trkpt lat="48.27788" lon="3.2179">
        <ele>60</ele>
        <time>2012-04-12T15:55:32.000Z</time>
      </trkpt>
      <trkpt lat="48.27793" lon="3.21786">
        <ele>60</ele>
        <time>2012-04-12T15:55:33.000Z</time>
      </trkpt>
      <trkpt lat="48.27796" lon="3.21779">
        <ele>60</ele>
        <time>2012-04-12T15:55:34.000Z</time>
      </trkpt>
      <trkpt lat="48.278" lon="3.21777">
        <ele>60</ele>
        <time>2012-04-12T15:55:35.000Z</time>
      </trkpt>
      <trkpt lat="48.27804" lon="3.21773">
        <ele>60</ele>
        <time>2012-04-12T15:55:36.000Z</time>
      </trkpt>
      <trkpt lat="48.27812" lon="3.21764">
        <ele>60</ele>
        <time>2012-04-12T15:55:38.000Z</time>
      </trkpt>
      <trkpt lat="48.27818" lon="3.21756">
        <ele>60</ele>
        <time>2012-04-12T15:55:40.000Z</time>
      </trkpt>
      <trkpt lat="48.27825" lon="3.21749">
        <ele>59</ele>
        <time>2012-04-12T15:55:42.000Z</time>
      </trkpt>
      <trkpt lat="48.27831" lon="3.21741">
        <ele>59</ele>
        <time>2012-04-12T15:55:44.000Z</time>
      </trkpt>
      <trkpt lat="48.27838" lon="3.21734">
        <ele>59</ele>
        <time>2012-04-12T15:55:46.000Z</time>
      </trkpt>
      <trkpt lat="48.27844" lon="3.21726">
        <ele>59</ele>
        <time>2012-04-12T15:55:48.000Z</time>
      </trkpt>
      <trkpt lat="48.27851" lon="3.21719">
        <ele>59</ele>
        <time>2012-04-12T15:55:50.000Z</time>
      </trkpt>
      <trkpt lat="48.27855" lon="3.21715">
        <ele>59</ele>
        <time>2012-04-12T15:55:52.000Z</time>
      </trkpt>
      <trkpt lat="48.2786" lon="3.21706">
        <ele>59</ele>
        <time>2012-04-12T15:56:16.000Z</time>
      </trkpt>
      <trkpt lat="48.2786" lon="3.21706">
        <ele>59</ele>
        <time>2012-04-12T15:56:16.000Z</time>
      </trkpt>
      <trkpt lat="48.2786" lon="3.21706">
        <ele>59</ele>
        <time>2012-04-12T15:56:17.000Z</time>
      </trkpt>
      <trkpt lat="48.27866" lon="3.217">
        <ele>59</ele>
        <time>2012-04-12T15:56:18.000Z</time>
      </trkpt>
      <trkpt lat="48.27872" lon="3.21693">
        <ele>59</ele>
        <time>2012-04-12T15:56:20.000Z</time>
      </trkpt>
      <trkpt lat="48.27878" lon="3.21687">
        <ele>59</ele>
        <time>2012-04-12T15:56:22.000Z</time>
      </trkpt>
      <trkpt lat="48.27885" lon="3.21678">
        <ele>59</ele>
        <time>2012-04-12T15:56:24.000Z</time>
      </trkpt>
      <trkpt lat="48.27891" lon="3.21672">
        <ele>59</ele>
        <time>2012-04-12T15:56:26.000Z</time>
      </trkpt>
      <trkpt lat="48.27898" lon="3.21663">
        <ele>59</ele>
        <time>2012-04-12T15:56:28.000Z</time>
      </trkpt>
      <trkpt lat="48.27904" lon="3.21655">
        <ele>59</ele>
        <time>2012-04-12T15:56:30.000Z</time>
      </trkpt>
      <trkpt lat="48.27912" lon="3.21646">
        <ele>59</ele>
        <time>2012-04-12T15:56:32.000Z</time>
      </trkpt>
      <trkpt lat="48.27918" lon="3.2164">
        <ele>59</ele>
        <time>2012-04-12T15:56:34.000Z</time>
      </trkpt>
      <trkpt lat="48.27925" lon="3.21631">
        <ele>59</ele>
        <time>2012-04-12T15:56:36.000Z</time>
      </trkpt>
      <trkpt lat="48.27931" lon="3.21623">
        <ele>59</ele>
        <time>2012-04-12T15:56:38.000Z</time>
      </trkpt>
      <trkpt lat="48.27938" lon="3.21616">
        <ele>59</ele>
        <time>2012-04-12T15:56:40.000Z</time>
      </trkpt>
      <trkpt lat="48.27944" lon="3.21608">
        <ele>59</ele>
        <time>2012-04-12T15:56:42.000Z</time>
      </trkpt>
      <trkpt lat="48.2795" lon="3.21599">
        <ele>59</ele>
        <time>2012-04-12T15:56:44.000Z</time>
      </trkpt>
      <trkpt lat="48.27957" lon="3.2159">
        <ele>59</ele>
        <time>2012-04-12T15:56:46.000Z</time>
      </trkpt>
      <trkpt lat="48.27962" lon="3.21582">
        <ele>59</ele>
        <time>2012-04-12T15:56:48.000Z</time>
      </trkpt>
      <trkpt lat="48.27965" lon="3.21575">
        <ele>59</ele>
        <time>2012-04-12T15:56:49.000Z</time>
      </trkpt>
      <trkpt lat="48.2797" lon="3.21569">
        <ele>59</ele>
        <time>2012-04-12T15:56:51.000Z</time>
      </trkpt>
      <trkpt lat="48.27973" lon="3.21562">
        <ele>59</ele>
        <time>2012-04-12T15:56:52.000Z</time>
      </trkpt>
      <trkpt lat="48.27978" lon="3.21554">
        <ele>59</ele>
        <time>2012-04-12T15:56:54.000Z</time>
      </trkpt>
      <trkpt lat="48.27984" lon="3.21545">
        <ele>59</ele>
        <time>2012-04-12T15:56:56.000Z</time>
      </trkpt>
      <trkpt lat="48.27987" lon="3.21539">
        <ele>59</ele>
        <time>2012-04-12T15:56:57.000Z</time>
      </trkpt>
      <trkpt lat="48.27993" lon="3.2153">
        <ele>59</ele>
        <time>2012-04-12T15:56:59.000Z</time>
      </trkpt>
      <trkpt lat="48.28" lon="3.21522">
        <ele>59</ele>
        <time>2012-04-12T15:57:01.000Z</time>
      </trkpt>
      <trkpt lat="48.28002" lon="3.21515">
        <ele>59</ele>
        <time>2012-04-12T15:57:02.000Z</time>
      </trkpt>
      <trkpt lat="48.28008" lon="3.21507">
        <ele>59</ele>
        <time>2012-04-12T15:57:04.000Z</time>
      </trkpt>
      <trkpt lat="48.28014" lon="3.21496">
        <ele>59</ele>
        <time>2012-04-12T15:57:06.000Z</time>
      </trkpt>
      <trkpt lat="48.2802" lon="3.21485">
        <ele>60</ele>
        <time>2012-04-12T15:57:08.000Z</time>
      </trkpt>
      <trkpt lat="48.28026" lon="3.21474">
        <ele>60</ele>
        <time>2012-04-12T15:57:10.000Z</time>
      </trkpt>
      <trkpt lat="48.28032" lon="3.21466">
        <ele>60</ele>
        <time>2012-04-12T15:57:12.000Z</time>
      </trkpt>
      <trkpt lat="48.28034" lon="3.2146">
        <ele>60</ele>
        <time>2012-04-12T15:57:13.000Z</time>
      </trkpt>
      <trkpt lat="48.28038" lon="3.21455">
        <ele>60</ele>
        <time>2012-04-12T15:57:14.000Z</time>
      </trkpt>
      <trkpt lat="48.28046" lon="3.21444">
        <ele>61</ele>
        <time>2012-04-12T15:57:16.000Z</time>
      </trkpt>
      <trkpt lat="48.2805" lon="3.21438">
        <ele>61</ele>
        <time>2012-04-12T15:57:17.000Z</time>
      </trkpt>
      <trkpt lat="48.28053" lon="3.21432">
        <ele>61</ele>
        <time>2012-04-12T15:57:18.000Z</time>
      </trkpt>
      <trkpt lat="48.28058" lon="3.21425">
        <ele>61</ele>
        <time>2012-04-12T15:57:19.000Z</time>
      </trkpt>
      <trkpt lat="48.28061" lon="3.21419">
        <ele>61</ele>
        <time>2012-04-12T15:57:20.000Z</time>
      </trkpt>
      <trkpt lat="48.28065" lon="3.21414">
        <ele>63</ele>
        <time>2012-04-12T15:57:21.000Z</time>
      </trkpt>
      <trkpt lat="48.28068" lon="3.21408">
        <ele>63</ele>
        <time>2012-04-12T15:57:22.000Z</time>
      </trkpt>
      <trkpt lat="48.28072" lon="3.21402">
        <ele>63</ele>
        <time>2012-04-12T15:57:23.000Z</time>
      </trkpt>
      <trkpt lat="48.28077" lon="3.21393">
        <ele>63</ele>
        <time>2012-04-12T15:57:25.000Z</time>
      </trkpt>
      <trkpt lat="48.28082" lon="3.21382">
        <ele>63</ele>
        <time>2012-04-12T15:57:27.000Z</time>
      </trkpt>
      <trkpt lat="48.28088" lon="3.21374">
        <ele>62</ele>
        <time>2012-04-12T15:57:29.000Z</time>
      </trkpt>
      <trkpt lat="48.28093" lon="3.21367">
        <ele>62</ele>
        <time>2012-04-12T15:57:31.000Z</time>
      </trkpt>
      <trkpt lat="48.28097" lon="3.21361">
        <ele>62</ele>
        <time>2012-04-12T15:57:33.000Z</time>
      </trkpt>
      <trkpt lat="48.28102" lon="3.21354">
        <ele>62</ele>
        <time>2012-04-12T15:57:35.000Z</time>
      </trkpt>
      <trkpt lat="48.28107" lon="3.21346">
        <ele>62</ele>
        <time>2012-04-12T15:57:37.000Z</time>
      </trkpt>
      <trkpt lat="48.28111" lon="3.21339">
        <ele>62</ele>
        <time>2012-04-12T15:57:39.000Z</time>
      </trkpt>
      <trkpt lat="48.28116" lon="3.21333">
        <ele>63</ele>
        <time>2012-04-12T15:57:41.000Z</time>
      </trkpt>
      <trkpt lat="48.28121" lon="3.21324">
        <ele>63</ele>
        <time>2012-04-12T15:57:43.000Z</time>
      </trkpt>
      <trkpt lat="48.28125" lon="3.21318">
        <ele>63</ele>
        <time>2012-04-12T15:57:45.000Z</time>
      </trkpt>
      <trkpt lat="48.28131" lon="3.21309">
        <ele>63</ele>
        <time>2012-04-12T15:57:47.000Z</time>
      </trkpt>
      <trkpt lat="48.28137" lon="3.21298">
        <ele>63</ele>
        <time>2012-04-12T15:57:49.000Z</time>
      </trkpt>
      <trkpt lat="48.28141" lon="3.21294">
        <ele>63</ele>
        <time>2012-04-12T15:57:50.000Z</time>
      </trkpt>
      <trkpt lat="48.28145" lon="3.21288">
        <ele>63</ele>
        <time>2012-04-12T15:57:51.000Z</time>
      </trkpt>
      <trkpt lat="48.28151" lon="3.21277">
        <ele>63</ele>
        <time>2012-04-12T15:57:53.000Z</time>
      </trkpt>
      <trkpt lat="48.28155" lon="3.21271">
        <ele>63</ele>
        <time>2012-04-12T15:57:54.000Z</time>
      </trkpt>
      <trkpt lat="48.28163" lon="3.21262">
        <ele>63</ele>
        <time>2012-04-12T15:57:56.000Z</time>
      </trkpt>
      <trkpt lat="48.28169" lon="3.21254">
        <ele>63</ele>
        <time>2012-04-12T15:57:58.000Z</time>
      </trkpt>
      <trkpt lat="48.28176" lon="3.21245">
        <ele>63</ele>
        <time>2012-04-12T15:58:00.000Z</time>
      </trkpt>
      <trkpt lat="48.28183" lon="3.21234">
        <ele>63</ele>
        <time>2012-04-12T15:58:02.000Z</time>
      </trkpt>
      <trkpt lat="48.28191" lon="3.21226">
        <ele>63</ele>
        <time>2012-04-12T15:58:04.000Z</time>
      </trkpt>
      <trkpt lat="48.28194" lon="3.21219">
        <ele>63</ele>
        <time>2012-04-12T15:58:05.000Z</time>
      </trkpt>
      <trkpt lat="48.28199" lon="3.21215">
        <ele>63</ele>
        <time>2012-04-12T15:58:06.000Z</time>
      </trkpt>
      <trkpt lat="48.28204" lon="3.21208">
        <ele>63</ele>
        <time>2012-04-12T15:58:07.000Z</time>
      </trkpt>
      <trkpt lat="48.28208" lon="3.21204">
        <ele>63</ele>
        <time>2012-04-12T15:58:08.000Z</time>
      </trkpt>
      <trkpt lat="48.28212" lon="3.21198">
        <ele>63</ele>
        <time>2012-04-12T15:58:09.000Z</time>
      </trkpt>
      <trkpt lat="48.28216" lon="3.21193">
        <ele>63</ele>
        <time>2012-04-12T15:58:10.000Z</time>
      </trkpt>
      <trkpt lat="48.28224" lon="3.21185">
        <ele>63</ele>
        <time>2012-04-12T15:58:12.000Z</time>
      </trkpt>
      <trkpt lat="48.28228" lon="3.21178">
        <ele>63</ele>
        <time>2012-04-12T15:58:13.000Z</time>
      </trkpt>
      <trkpt lat="48.28233" lon="3.21174">
        <ele>63</ele>
        <time>2012-04-12T15:58:14.000Z</time>
      </trkpt>
      <trkpt lat="48.2824" lon="3.21166">
        <ele>63</ele>
        <time>2012-04-12T15:58:16.000Z</time>
      </trkpt>
      <trkpt lat="48.28244" lon="3.21161">
        <ele>63</ele>
        <time>2012-04-12T15:58:17.000Z</time>
      </trkpt>
      <trkpt lat="48.28251" lon="3.21153">
        <ele>62</ele>
        <time>2012-04-12T15:58:18.000Z</time>
      </trkpt>
      <trkpt lat="48.28257" lon="3.21148">
        <ele>62</ele>
        <time>2012-04-12T15:58:19.000Z</time>
      </trkpt>
      <trkpt lat="48.28264" lon="3.21142">
        <ele>62</ele>
        <time>2012-04-12T15:58:20.000Z</time>
      </trkpt>
      <trkpt lat="48.28271" lon="3.21138">
        <ele>62</ele>
        <time>2012-04-12T15:58:21.000Z</time>
      </trkpt>
      <trkpt lat="48.28277" lon="3.21131">
        <ele>61</ele>
        <time>2012-04-12T15:58:22.000Z</time>
      </trkpt>
      <trkpt lat="48.28283" lon="3.21127">
        <ele>61</ele>
        <time>2012-04-12T15:58:23.000Z</time>
      </trkpt>
      <trkpt lat="48.2829" lon="3.2112">
        <ele>61</ele>
        <time>2012-04-12T15:58:24.000Z</time>
      </trkpt>
      <trkpt lat="48.28295" lon="3.21116">
        <ele>61</ele>
        <time>2012-04-12T15:58:25.000Z</time>
      </trkpt>
      <trkpt lat="48.283" lon="3.2111">
        <ele>61</ele>
        <time>2012-04-12T15:58:26.000Z</time>
      </trkpt>
      <trkpt lat="48.28306" lon="3.21103">
        <ele>61</ele>
        <time>2012-04-12T15:58:27.000Z</time>
      </trkpt>
      <trkpt lat="48.2831" lon="3.21099">
        <ele>61</ele>
        <time>2012-04-12T15:58:28.000Z</time>
      </trkpt>
      <trkpt lat="48.28315" lon="3.21093">
        <ele>61</ele>
        <time>2012-04-12T15:58:29.000Z</time>
      </trkpt>
      <trkpt lat="48.28321" lon="3.21086">
        <ele>61</ele>
        <time>2012-04-12T15:58:30.000Z</time>
      </trkpt>
      <trkpt lat="48.28325" lon="3.2108">
        <ele>61</ele>
        <time>2012-04-12T15:58:31.000Z</time>
      </trkpt>
      <trkpt lat="48.28329" lon="3.21073">
        <ele>61</ele>
        <time>2012-04-12T15:58:32.000Z</time>
      </trkpt>
      <trkpt lat="48.28333" lon="3.21067">
        <ele>61</ele>
        <time>2012-04-12T15:58:33.000Z</time>
      </trkpt>
      <trkpt lat="48.28339" lon="3.21058">
        <ele>61</ele>
        <time>2012-04-12T15:58:34.000Z</time>
      </trkpt>
      <trkpt lat="48.28344" lon="3.21052">
        <ele>61</ele>
        <time>2012-04-12T15:58:35.000Z</time>
      </trkpt>
      <trkpt lat="48.28351" lon="3.21043">
        <ele>61</ele>
        <time>2012-04-12T15:58:36.000Z</time>
      </trkpt>
      <trkpt lat="48.28356" lon="3.21037">
        <ele>61</ele>
        <time>2012-04-12T15:58:37.000Z</time>
      </trkpt>
      <trkpt lat="48.28361" lon="3.2103">
        <ele>61</ele>
        <time>2012-04-12T15:58:38.000Z</time>
      </trkpt>
      <trkpt lat="48.28367" lon="3.21022">
        <ele>61</ele>
        <time>2012-04-12T15:58:39.000Z</time>
      </trkpt>
      <trkpt lat="48.28373" lon="3.21015">
        <ele>61</ele>
        <time>2012-04-12T15:58:40.000Z</time>
      </trkpt>
      <trkpt lat="48.28378" lon="3.21009">
        <ele>61</ele>
        <time>2012-04-12T15:58:41.000Z</time>
      </trkpt>
      <trkpt lat="48.28384" lon="3.21002">
        <ele>61</ele>
        <time>2012-04-12T15:58:42.000Z</time>
      </trkpt>
      <trkpt lat="48.28388" lon="3.20996">
        <ele>61</ele>
        <time>2012-04-12T15:58:43.000Z</time>
      </trkpt>
      <trkpt lat="48.28392" lon="3.2099">
        <ele>61</ele>
        <time>2012-04-12T15:58:44.000Z</time>
      </trkpt>
      <trkpt lat="48.28397" lon="3.20981">
        <ele>61</ele>
        <time>2012-04-12T15:58:45.000Z</time>
      </trkpt>
      <trkpt lat="48.28401" lon="3.20974">
        <ele>61</ele>
        <time>2012-04-12T15:58:46.000Z</time>
      </trkpt>
      <trkpt lat="48.28405" lon="3.20968">
        <ele>61</ele>
        <time>2012-04-12T15:58:47.000Z</time>
      </trkpt>
      <trkpt lat="48.2841" lon="3.20962">
        <ele>61</ele>
        <time>2012-04-12T15:58:48.000Z</time>
      </trkpt>
      <trkpt lat="48.28413" lon="3.20955">
        <ele>61</ele>
        <time>2012-04-12T15:58:49.000Z</time>
      </trkpt>
      <trkpt lat="48.28417" lon="3.20947">
        <ele>62</ele>
        <time>2012-04-12T15:58:50.000Z</time>
      </trkpt>
      <trkpt lat="48.2842" lon="3.2094">
        <ele>62</ele>
        <time>2012-04-12T15:58:51.000Z</time>
      </trkpt>
      <trkpt lat="48.28425" lon="3.20934">
        <ele>62</ele>
        <time>2012-04-12T15:58:52.000Z</time>
      </trkpt>
      <trkpt lat="48.28428" lon="3.20927">
        <ele>62</ele>
        <time>2012-04-12T15:58:53.000Z</time>
      </trkpt>
      <trkpt lat="48.28431" lon="3.20921">
        <ele>62</ele>
        <time>2012-04-12T15:58:54.000Z</time>
      </trkpt>
      <trkpt lat="48.28435" lon="3.20914">
        <ele>62</ele>
        <time>2012-04-12T15:58:55.000Z</time>
      </trkpt>
      <trkpt lat="48.2844" lon="3.20908">
        <ele>62</ele>
        <time>2012-04-12T15:58:56.000Z</time>
      </trkpt>
      <trkpt lat="48.28443" lon="3.20902">
        <ele>62</ele>
        <time>2012-04-12T15:58:57.000Z</time>
      </trkpt>
      <trkpt lat="48.28447" lon="3.20895">
        <ele>62</ele>
        <time>2012-04-12T15:58:58.000Z</time>
      </trkpt>
      <trkpt lat="48.28452" lon="3.20891">
        <ele>62</ele>
        <time>2012-04-12T15:58:59.000Z</time>
      </trkpt>
      <trkpt lat="48.28457" lon="3.20884">
        <ele>62</ele>
        <time>2012-04-12T15:59:00.000Z</time>
      </trkpt>
      <trkpt lat="48.28464" lon="3.20874">
        <ele>62</ele>
        <time>2012-04-12T15:59:02.000Z</time>
      </trkpt>
      <trkpt lat="48.28469" lon="3.20869">
        <ele>62</ele>
        <time>2012-04-12T15:59:03.000Z</time>
      </trkpt>
      <trkpt lat="48.28473" lon="3.20863">
        <ele>62</ele>
        <time>2012-04-12T15:59:04.000Z</time>
      </trkpt>
      <trkpt lat="48.28477" lon="3.20859">
        <ele>62</ele>
        <time>2012-04-12T15:59:05.000Z</time>
      </trkpt>
      <trkpt lat="48.28483" lon="3.20852">
        <ele>62</ele>
        <time>2012-04-12T15:59:06.000Z</time>
      </trkpt>
      <trkpt lat="48.28487" lon="3.20848">
        <ele>63</ele>
        <time>2012-04-12T15:59:07.000Z</time>
      </trkpt>
      <trkpt lat="48.28491" lon="3.20842">
        <ele>63</ele>
        <time>2012-04-12T15:59:08.000Z</time>
      </trkpt>
      <trkpt lat="48.28496" lon="3.20837">
        <ele>63</ele>
        <time>2012-04-12T15:59:09.000Z</time>
      </trkpt>
      <trkpt lat="48.28501" lon="3.20833">
        <ele>63</ele>
        <time>2012-04-12T15:59:10.000Z</time>
      </trkpt>
      <trkpt lat="48.28506" lon="3.20829">
        <ele>63</ele>
        <time>2012-04-12T15:59:11.000Z</time>
      </trkpt>
      <trkpt lat="48.2851" lon="3.20824">
        <ele>64</ele>
        <time>2012-04-12T15:59:12.000Z</time>
      </trkpt>
      <trkpt lat="48.28516" lon="3.2082">
        <ele>64</ele>
        <time>2012-04-12T15:59:13.000Z</time>
      </trkpt>
      <trkpt lat="48.2852" lon="3.20816">
        <ele>64</ele>
        <time>2012-04-12T15:59:14.000Z</time>
      </trkpt>
      <trkpt lat="48.28526" lon="3.20812">
        <ele>64</ele>
        <time>2012-04-12T15:59:15.000Z</time>
      </trkpt>
      <trkpt lat="48.2853" lon="3.20809">
        <ele>64</ele>
        <time>2012-04-12T15:59:16.000Z</time>
      </trkpt>
      <trkpt lat="48.28535" lon="3.20805">
        <ele>64</ele>
        <time>2012-04-12T15:59:17.000Z</time>
      </trkpt>
      <trkpt lat="48.28539" lon="3.20801">
        <ele>64</ele>
        <time>2012-04-12T15:59:18.000Z</time>
      </trkpt>
      <trkpt lat="48.28545" lon="3.20799">
        <ele>64</ele>
        <time>2012-04-12T15:59:19.000Z</time>
      </trkpt>
      <trkpt lat="48.28549" lon="3.20794">
        <ele>64</ele>
        <time>2012-04-12T15:59:20.000Z</time>
      </trkpt>
      <trkpt lat="48.28553" lon="3.2079">
        <ele>64</ele>
        <time>2012-04-12T15:59:21.000Z</time>
      </trkpt>
      <trkpt lat="48.28558" lon="3.20788">
        <ele>64</ele>
        <time>2012-04-12T15:59:22.000Z</time>
      </trkpt>
      <trkpt lat="48.28562" lon="3.20784">
        <ele>65</ele>
        <time>2012-04-12T15:59:23.000Z</time>
      </trkpt>
      <trkpt lat="48.28566" lon="3.20779">
        <ele>65</ele>
        <time>2012-04-12T15:59:24.000Z</time>
      </trkpt>
      <trkpt lat="48.28574" lon="3.20773">
        <ele>65</ele>
        <time>2012-04-12T15:59:26.000Z</time>
      </trkpt>
      <trkpt lat="48.28581" lon="3.20766">
        <ele>65</ele>
        <time>2012-04-12T15:59:28.000Z</time>
      </trkpt>
      <trkpt lat="48.28586" lon="3.20764">
        <ele>65</ele>
        <time>2012-04-12T15:59:29.000Z</time>
      </trkpt>
      <trkpt lat="48.28592" lon="3.2076">
        <ele>65</ele>
        <time>2012-04-12T15:59:31.000Z</time>
      </trkpt>
      <trkpt lat="48.28601" lon="3.20754">
        <ele>65</ele>
        <time>2012-04-12T15:59:34.000Z</time>
      </trkpt>
      <trkpt lat="48.28607" lon="3.20747">
        <ele>65</ele>
        <time>2012-04-12T15:59:36.000Z</time>
      </trkpt>
      <trkpt lat="48.28616" lon="3.20743">
        <ele>65</ele>
        <time>2012-04-12T15:59:38.000Z</time>
      </trkpt>
      <trkpt lat="48.28621" lon="3.20738">
        <ele>65</ele>
        <time>2012-04-12T15:59:39.000Z</time>
      </trkpt>
      <trkpt lat="48.28626" lon="3.20734">
        <ele>65</ele>
        <time>2012-04-12T15:59:40.000Z</time>
      </trkpt>
      <trkpt lat="48.28632" lon="3.2073">
        <ele>65</ele>
        <time>2012-04-12T15:59:41.000Z</time>
      </trkpt>
      <trkpt lat="48.28637" lon="3.20728">
        <ele>65</ele>
        <time>2012-04-12T15:59:42.000Z</time>
      </trkpt>
      <trkpt lat="48.28641" lon="3.20726">
        <ele>65</ele>
        <time>2012-04-12T15:59:43.000Z</time>
      </trkpt>
      <trkpt lat="48.28647" lon="3.20724">
        <ele>65</ele>
        <time>2012-04-12T15:59:44.000Z</time>
      </trkpt>
      <trkpt lat="48.28652" lon="3.20721">
        <ele>65</ele>
        <time>2012-04-12T15:59:45.000Z</time>
      </trkpt>
      <trkpt lat="48.28658" lon="3.20719">
        <ele>65</ele>
        <time>2012-04-12T15:59:46.000Z</time>
      </trkpt>
      <trkpt lat="48.28662" lon="3.20717">
        <ele>65</ele>
        <time>2012-04-12T15:59:47.000Z</time>
      </trkpt>
      <trkpt lat="48.2867" lon="3.20715">
        <ele>63</ele>
        <time>2012-04-12T15:59:49.000Z</time>
      </trkpt>
      <trkpt lat="48.28679" lon="3.20713">
        <ele>63</ele>
        <time>2012-04-12T15:59:51.000Z</time>
      </trkpt>
      <trkpt lat="48.28685" lon="3.20706">
        <ele>63</ele>
        <time>2012-04-12T15:59:53.000Z</time>
      </trkpt>
      <trkpt lat="48.28691" lon="3.207">
        <ele>63</ele>
        <time>2012-04-12T15:59:55.000Z</time>
      </trkpt>
      <trkpt lat="48.28696" lon="3.20693">
        <ele>63</ele>
        <time>2012-04-12T15:59:57.000Z</time>
      </trkpt>
      <trkpt lat="48.28704" lon="3.20687">
        <ele>62</ele>
        <time>2012-04-12T15:59:59.000Z</time>
      </trkpt>
      <trkpt lat="48.2871" lon="3.20678">
        <ele>62</ele>
        <time>2012-04-12T16:00:01.000Z</time>
      </trkpt>
      <trkpt lat="48.28715" lon="3.2067">
        <ele>62</ele>
        <time>2012-04-12T16:00:03.000Z</time>
      </trkpt>
      <trkpt lat="48.28722" lon="3.20663">
        <ele>60</ele>
        <time>2012-04-12T16:00:05.000Z</time>
      </trkpt>
      <trkpt lat="48.28727" lon="3.20655">
        <ele>60</ele>
        <time>2012-04-12T16:00:07.000Z</time>
      </trkpt>
      <trkpt lat="48.28733" lon="3.20646">
        <ele>60</ele>
        <time>2012-04-12T16:00:09.000Z</time>
      </trkpt>
      <trkpt lat="48.28736" lon="3.2064">
        <ele>60</ele>
        <time>2012-04-12T16:00:10.000Z</time>
      </trkpt>
      <trkpt lat="48.28742" lon="3.20631">
        <ele>60</ele>
        <time>2012-04-12T16:00:12.000Z</time>
      </trkpt>
      <trkpt lat="48.28748" lon="3.20623">
        <ele>60</ele>
        <time>2012-04-12T16:00:14.000Z</time>
      </trkpt>
      <trkpt lat="48.28753" lon="3.20614">
        <ele>59</ele>
        <time>2012-04-12T16:00:16.000Z</time>
      </trkpt>
      <trkpt lat="48.28758" lon="3.20608">
        <ele>59</ele>
        <time>2012-04-12T16:00:18.000Z</time>
      </trkpt>
      <trkpt lat="48.28764" lon="3.20599">
        <ele>59</ele>
        <time>2012-04-12T16:00:20.000Z</time>
      </trkpt>
      <trkpt lat="48.28769" lon="3.2059">
        <ele>59</ele>
        <time>2012-04-12T16:00:22.000Z</time>
      </trkpt>
      <trkpt lat="48.28773" lon="3.20582">
        <ele>61</ele>
        <time>2012-04-12T16:00:24.000Z</time>
      </trkpt>
      <trkpt lat="48.28779" lon="3.20573">
        <ele>61</ele>
        <time>2012-04-12T16:00:26.000Z</time>
      </trkpt>
      <trkpt lat="48.28782" lon="3.20567">
        <ele>61</ele>
        <time>2012-04-12T16:00:27.000Z</time>
      </trkpt>
      <trkpt lat="48.28787" lon="3.20558">
        <ele>61</ele>
        <time>2012-04-12T16:00:29.000Z</time>
      </trkpt>
      <trkpt lat="48.28793" lon="3.20548">
        <ele>61</ele>
        <time>2012-04-12T16:00:31.000Z</time>
      </trkpt>
      <trkpt lat="48.28798" lon="3.20539">
        <ele>62</ele>
        <time>2012-04-12T16:00:33.000Z</time>
      </trkpt>
      <trkpt lat="48.28803" lon="3.2053">
        <ele>62</ele>
        <time>2012-04-12T16:00:35.000Z</time>
      </trkpt>
      <trkpt lat="48.28807" lon="3.20524">
        <ele>62</ele>
        <time>2012-04-12T16:00:37.000Z</time>
      </trkpt>
      <trkpt lat="48.28807" lon="3.20524">
        <ele>62</ele>
        <time>2012-04-12T16:00:37.000Z</time>
      </trkpt>
      <trkpt lat="48.28807" lon="3.20524">
        <ele>62</ele>
        <time>2012-04-12T16:00:39.000Z</time>
      </trkpt>
      <trkpt lat="48.28811" lon="3.20518">
        <ele>62</ele>
        <time>2012-04-12T16:00:40.000Z</time>
      </trkpt>
      <trkpt lat="48.28811" lon="3.20518">
        <ele>62</ele>
        <time>2012-04-12T16:00:40.000Z</time>
      </trkpt>
      <trkpt lat="48.28811" lon="3.20518">
        <ele>62</ele>
        <time>2012-04-12T16:00:42.000Z</time>
      </trkpt>
      <trkpt lat="48.28813" lon="3.20509">
        <ele>62</ele>
        <time>2012-04-12T16:00:43.000Z</time>
      </trkpt>
      <trkpt lat="48.28813" lon="3.20509">
        <ele>62</ele>
        <time>2012-04-12T16:00:43.000Z</time>
      </trkpt>
      <trkpt lat="48.28813" lon="3.20509">
        <ele>62</ele>
        <time>2012-04-12T16:00:44.000Z</time>
      </trkpt>
      <trkpt lat="48.28811" lon="3.205">
        <ele>62</ele>
        <time>2012-04-12T16:00:45.000Z</time>
      </trkpt>
      <trkpt lat="48.28802" lon="3.205">
        <ele>62</ele>
        <time>2012-04-12T16:00:47.000Z</time>
      </trkpt>
      <trkpt lat="48.28794" lon="3.20505">
        <ele>62</ele>
        <time>2012-04-12T16:00:49.000Z</time>
      </trkpt>
      <trkpt lat="48.28785" lon="3.20507">
        <ele>63</ele>
        <time>2012-04-12T16:00:51.000Z</time>
      </trkpt>
      <trkpt lat="48.28776" lon="3.20507">
        <ele>63</ele>
        <time>2012-04-12T16:00:53.000Z</time>
      </trkpt>
      <trkpt lat="48.28768" lon="3.20507">
        <ele>63</ele>
        <time>2012-04-12T16:00:55.000Z</time>
      </trkpt>
      <trkpt lat="48.28759" lon="3.20505">
        <ele>64</ele>
        <time>2012-04-12T16:00:57.000Z</time>
      </trkpt>
      <trkpt lat="48.28752" lon="3.20505">
        <ele>64</ele>
        <time>2012-04-12T16:00:59.000Z</time>
      </trkpt>
      <trkpt lat="48.28744" lon="3.20505">
        <ele>64</ele>
        <time>2012-04-12T16:01:01.000Z</time>
      </trkpt>
      <trkpt lat="48.28737" lon="3.20507">
        <ele>64</ele>
        <time>2012-04-12T16:01:03.000Z</time>
      </trkpt>
      <trkpt lat="48.2873" lon="3.20513">
        <ele>64</ele>
        <time>2012-04-12T16:01:05.000Z</time>
      </trkpt>
      <trkpt lat="48.2873" lon="3.20513">
        <ele>64</ele>
        <time>2012-04-12T16:01:05.000Z</time>
      </trkpt>
      <trkpt lat="48.2873" lon="3.20513">
        <ele>64</ele>
        <time>2012-04-12T16:01:08.000Z</time>
      </trkpt>
      <trkpt lat="48.28724" lon="3.2052">
        <ele>64</ele>
        <time>2012-04-12T16:01:09.000Z</time>
      </trkpt>
      <trkpt lat="48.2872" lon="3.20522">
        <ele>64</ele>
        <time>2012-04-12T16:01:10.000Z</time>
      </trkpt>
      <trkpt lat="48.28715" lon="3.20524">
        <ele>64</ele>
        <time>2012-04-12T16:01:11.000Z</time>
      </trkpt>
      <trkpt lat="48.28711" lon="3.20526">
        <ele>64</ele>
        <time>2012-04-12T16:01:12.000Z</time>
      </trkpt>
      <trkpt lat="48.28706" lon="3.20526">
        <ele>64</ele>
        <time>2012-04-12T16:01:13.000Z</time>
      </trkpt>
      <trkpt lat="48.28696" lon="3.2053">
        <ele>64</ele>
        <time>2012-04-12T16:01:15.000Z</time>
      </trkpt>
      <trkpt lat="48.2869" lon="3.20532">
        <ele>64</ele>
        <time>2012-04-12T16:01:16.000Z</time>
      </trkpt>
      <trkpt lat="48.28684" lon="3.20535">
        <ele>64</ele>
        <time>2012-04-12T16:01:17.000Z</time>
      </trkpt>
      <trkpt lat="48.28678" lon="3.20537">
        <ele>64</ele>
        <time>2012-04-12T16:01:18.000Z</time>
      </trkpt>
      <trkpt lat="48.28671" lon="3.20539">
        <ele>64</ele>
        <time>2012-04-12T16:01:19.000Z</time>
      </trkpt>
      <trkpt lat="48.28664" lon="3.20541">
        <ele>64</ele>
        <time>2012-04-12T16:01:20.000Z</time>
      </trkpt>
      <trkpt lat="48.28658" lon="3.20543">
        <ele>64</ele>
        <time>2012-04-12T16:01:21.000Z</time>
      </trkpt>
      <trkpt lat="48.28651" lon="3.20548">
        <ele>64</ele>
        <time>2012-04-12T16:01:22.000Z</time>
      </trkpt>
      <trkpt lat="48.28644" lon="3.2055">
        <ele>64</ele>
        <time>2012-04-12T16:01:23.000Z</time>
      </trkpt>
      <trkpt lat="48.28637" lon="3.20552">
        <ele>64</ele>
        <time>2012-04-12T16:01:24.000Z</time>
      </trkpt>
      <trkpt lat="48.28631" lon="3.20556">
        <ele>64</ele>
        <time>2012-04-12T16:01:25.000Z</time>
      </trkpt>
      <trkpt lat="48.28624" lon="3.20558">
        <ele>64</ele>
        <time>2012-04-12T16:01:26.000Z</time>
      </trkpt>
      <trkpt lat="48.28618" lon="3.2056">
        <ele>64</ele>
        <time>2012-04-12T16:01:27.000Z</time>
      </trkpt>
      <trkpt lat="48.28611" lon="3.20563">
        <ele>64</ele>
        <time>2012-04-12T16:01:28.000Z</time>
      </trkpt>
      <trkpt lat="48.28606" lon="3.20567">
        <ele>64</ele>
        <time>2012-04-12T16:01:29.000Z</time>
      </trkpt>
      <trkpt lat="48.28601" lon="3.20569">
        <ele>64</ele>
        <time>2012-04-12T16:01:30.000Z</time>
      </trkpt>
      <trkpt lat="48.28595" lon="3.20571">
        <ele>64</ele>
        <time>2012-04-12T16:01:31.000Z</time>
      </trkpt>
      <trkpt lat="48.2859" lon="3.20573">
        <ele>64</ele>
        <time>2012-04-12T16:01:32.000Z</time>
      </trkpt>
      <trkpt lat="48.28584" lon="3.20578">
        <ele>64</ele>
        <time>2012-04-12T16:01:33.000Z</time>
      </trkpt>
      <trkpt lat="48.28579" lon="3.2058">
        <ele>64</ele>
        <time>2012-04-12T16:01:34.000Z</time>
      </trkpt>
      <trkpt lat="48.28574" lon="3.20582">
        <ele>64</ele>
        <time>2012-04-12T16:01:35.000Z</time>
      </trkpt>
      <trkpt lat="48.28568" lon="3.20584">
        <ele>64</ele>
        <time>2012-04-12T16:01:36.000Z</time>
      </trkpt>
      <trkpt lat="48.28563" lon="3.20586">
        <ele>64</ele>
        <time>2012-04-12T16:01:37.000Z</time>
      </trkpt>
      <trkpt lat="48.28558" lon="3.20588">
        <ele>64</ele>
        <time>2012-04-12T16:01:38.000Z</time>
      </trkpt>
      <trkpt lat="48.28552" lon="3.2059">
        <ele>64</ele>
        <time>2012-04-12T16:01:39.000Z</time>
      </trkpt>
      <trkpt lat="48.28547" lon="3.20593">
        <ele>64</ele>
        <time>2012-04-12T16:01:40.000Z</time>
      </trkpt>
      <trkpt lat="48.28542" lon="3.20597">
        <ele>64</ele>
        <time>2012-04-12T16:01:41.000Z</time>
      </trkpt>
      <trkpt lat="48.28536" lon="3.20599">
        <ele>64</ele>
        <time>2012-04-12T16:01:42.000Z</time>
      </trkpt>
      <trkpt lat="48.28531" lon="3.20601">
        <ele>64</ele>
        <time>2012-04-12T16:01:43.000Z</time>
      </trkpt>
      <trkpt lat="48.28526" lon="3.20606">
        <ele>64</ele>
        <time>2012-04-12T16:01:44.000Z</time>
      </trkpt>
      <trkpt lat="48.2852" lon="3.20608">
        <ele>64</ele>
        <time>2012-04-12T16:01:45.000Z</time>
      </trkpt>
      <trkpt lat="48.28514" lon="3.20612">
        <ele>63</ele>
        <time>2012-04-12T16:01:46.000Z</time>
      </trkpt>
      <trkpt lat="48.28508" lon="3.20614">
        <ele>63</ele>
        <time>2012-04-12T16:01:47.000Z</time>
      </trkpt>
      <trkpt lat="48.28504" lon="3.20618">
        <ele>63</ele>
        <time>2012-04-12T16:01:48.000Z</time>
      </trkpt>
      <trkpt lat="48.28499" lon="3.20618">
        <ele>64</ele>
        <time>2012-04-12T16:01:49.000Z</time>
      </trkpt>
      <trkpt lat="48.28493" lon="3.20616">
        <ele>64</ele>
        <time>2012-04-12T16:01:50.000Z</time>
      </trkpt>
      <trkpt lat="48.28485" lon="3.20614">
        <ele>64</ele>
        <time>2012-04-12T16:01:52.000Z</time>
      </trkpt>
      <trkpt lat="48.28477" lon="3.2061">
        <ele>64</ele>
        <time>2012-04-12T16:01:54.000Z</time>
      </trkpt>
      <trkpt lat="48.28472" lon="3.20601">
        <ele>64</ele>
        <time>2012-04-12T16:01:56.000Z</time>
      </trkpt>
      <trkpt lat="48.28466" lon="3.20593">
        <ele>65</ele>
        <time>2012-04-12T16:01:58.000Z</time>
      </trkpt>
      <trkpt lat="48.28461" lon="3.20584">
        <ele>65</ele>
        <time>2012-04-12T16:02:00.000Z</time>
      </trkpt>
      <trkpt lat="48.28457" lon="3.20578">
        <ele>67</ele>
        <time>2012-04-12T16:02:02.000Z</time>
      </trkpt>
      <trkpt lat="48.28454" lon="3.20569">
        <ele>68</ele>
        <time>2012-04-12T16:02:04.000Z</time>
      </trkpt>
      <trkpt lat="48.2845" lon="3.2056">
        <ele>68</ele>
        <time>2012-04-12T16:02:06.000Z</time>
      </trkpt>
      <trkpt lat="48.28446" lon="3.2055">
        <ele>68</ele>
        <time>2012-04-12T16:02:09.000Z</time>
      </trkpt>
      <trkpt lat="48.28443" lon="3.20543">
        <ele>68</ele>
        <time>2012-04-12T16:02:11.000Z</time>
      </trkpt>
      <trkpt lat="48.2844" lon="3.20535">
        <ele>69</ele>
        <time>2012-04-12T16:02:13.000Z</time>
      </trkpt>
      <trkpt lat="48.28436" lon="3.20524">
        <ele>69</ele>
        <time>2012-04-12T16:02:15.000Z</time>
      </trkpt>
      <trkpt lat="48.28433" lon="3.20513">
        <ele>70</ele>
        <time>2012-04-12T16:02:17.000Z</time>
      </trkpt>
      <trkpt lat="48.2843" lon="3.20502">
        <ele>71</ele>
        <time>2012-04-12T16:02:19.000Z</time>
      </trkpt>
      <trkpt lat="48.28426" lon="3.20492">
        <ele>72</ele>
        <time>2012-04-12T16:02:21.000Z</time>
      </trkpt>
      <trkpt lat="48.28422" lon="3.20483">
        <ele>72</ele>
        <time>2012-04-12T16:02:23.000Z</time>
      </trkpt>
      <trkpt lat="48.28419" lon="3.20472">
        <ele>72</ele>
        <time>2012-04-12T16:02:25.000Z</time>
      </trkpt>
      <trkpt lat="48.28416" lon="3.20462">
        <ele>74</ele>
        <time>2012-04-12T16:02:27.000Z</time>
      </trkpt>
      <trkpt lat="48.28413" lon="3.20451">
        <ele>74</ele>
        <time>2012-04-12T16:02:29.000Z</time>
      </trkpt>
      <trkpt lat="48.2841" lon="3.20442">
        <ele>74</ele>
        <time>2012-04-12T16:02:31.000Z</time>
      </trkpt>
      <trkpt lat="48.28406" lon="3.20432">
        <ele>74</ele>
        <time>2012-04-12T16:02:33.000Z</time>
      </trkpt>
      <trkpt lat="48.28403" lon="3.20421">
        <ele>74</ele>
        <time>2012-04-12T16:02:35.000Z</time>
      </trkpt>
      <trkpt lat="48.284" lon="3.2041">
        <ele>75</ele>
        <time>2012-04-12T16:02:37.000Z</time>
      </trkpt>
      <trkpt lat="48.28397" lon="3.204">
        <ele>75</ele>
        <time>2012-04-12T16:02:39.000Z</time>
      </trkpt>
      <trkpt lat="48.28394" lon="3.20389">
        <ele>75</ele>
        <time>2012-04-12T16:02:41.000Z</time>
      </trkpt>
      <trkpt lat="48.2839" lon="3.2038">
        <ele>75</ele>
        <time>2012-04-12T16:02:43.000Z</time>
      </trkpt>
      <trkpt lat="48.28387" lon="3.20369">
        <ele>76</ele>
        <time>2012-04-12T16:02:45.000Z</time>
      </trkpt>
      <trkpt lat="48.28384" lon="3.20359">
        <ele>76</ele>
        <time>2012-04-12T16:02:47.000Z</time>
      </trkpt>
      <trkpt lat="48.28382" lon="3.2035">
        <ele>76</ele>
        <time>2012-04-12T16:02:49.000Z</time>
      </trkpt>
      <trkpt lat="48.2838" lon="3.20344">
        <ele>76</ele>
        <time>2012-04-12T16:02:50.000Z</time>
      </trkpt>
      <trkpt lat="48.28377" lon="3.20335">
        <ele>76</ele>
        <time>2012-04-12T16:02:52.000Z</time>
      </trkpt>
      <trkpt lat="48.28374" lon="3.20324">
        <ele>77</ele>
        <time>2012-04-12T16:02:54.000Z</time>
      </trkpt>
      <trkpt lat="48.28372" lon="3.20318">
        <ele>77</ele>
        <time>2012-04-12T16:02:56.000Z</time>
      </trkpt>
      <trkpt lat="48.28372" lon="3.20318">
        <ele>77</ele>
        <time>2012-04-12T16:02:56.000Z</time>
      </trkpt>
      <trkpt lat="48.28372" lon="3.20318">
        <ele>77</ele>
        <time>2012-04-12T16:02:57.000Z</time>
      </trkpt>
      <trkpt lat="48.28368" lon="3.20312">
        <ele>77</ele>
        <time>2012-04-12T16:02:59.000Z</time>
      </trkpt>
      <trkpt lat="48.2836" lon="3.20309">
        <ele>77</ele>
        <time>2012-04-12T16:03:02.000Z</time>
      </trkpt>
      <trkpt lat="48.28355" lon="3.20312">
        <ele>77</ele>
        <time>2012-04-12T16:03:04.000Z</time>
      </trkpt>
      <trkpt lat="48.28351" lon="3.20316">
        <ele>77</ele>
        <time>2012-04-12T16:03:06.000Z</time>
      </trkpt>
      <trkpt lat="48.28346" lon="3.20322">
        <ele>78</ele>
        <time>2012-04-12T16:03:09.000Z</time>
      </trkpt>
      <trkpt lat="48.28342" lon="3.20326">
        <ele>78</ele>
        <time>2012-04-12T16:03:11.000Z</time>
      </trkpt>
      <trkpt lat="48.28338" lon="3.20335">
        <ele>78</ele>
        <time>2012-04-12T16:03:14.000Z</time>
      </trkpt>
      <trkpt lat="48.28333" lon="3.20339">
        <ele>78</ele>
        <time>2012-04-12T16:03:16.000Z</time>
      </trkpt>
      <trkpt lat="48.28327" lon="3.20344">
        <ele>79</ele>
        <time>2012-04-12T16:03:19.000Z</time>
      </trkpt>
      <trkpt lat="48.28323" lon="3.20348">
        <ele>79</ele>
        <time>2012-04-12T16:03:21.000Z</time>
      </trkpt>
      <trkpt lat="48.28317" lon="3.20352">
        <ele>79</ele>
        <time>2012-04-12T16:03:23.000Z</time>
      </trkpt>
      <trkpt lat="48.28312" lon="3.20354">
        <ele>79</ele>
        <time>2012-04-12T16:03:25.000Z</time>
      </trkpt>
      <trkpt lat="48.28307" lon="3.20357">
        <ele>79</ele>
        <time>2012-04-12T16:03:27.000Z</time>
      </trkpt>
      <trkpt lat="48.283" lon="3.20359">
        <ele>80</ele>
        <time>2012-04-12T16:03:29.000Z</time>
      </trkpt>
      <trkpt lat="48.28294" lon="3.20361">
        <ele>80</ele>
        <time>2012-04-12T16:03:31.000Z</time>
      </trkpt>
      <trkpt lat="48.28286" lon="3.20363">
        <ele>80</ele>
        <time>2012-04-12T16:03:33.000Z</time>
      </trkpt>
      <trkpt lat="48.28279" lon="3.20363">
        <ele>80</ele>
        <time>2012-04-12T16:03:35.000Z</time>
      </trkpt>
      <trkpt lat="48.2827" lon="3.20363">
        <ele>81</ele>
        <time>2012-04-12T16:03:37.000Z</time>
      </trkpt>
      <trkpt lat="48.28263" lon="3.20363">
        <ele>81</ele>
        <time>2012-04-12T16:03:39.000Z</time>
      </trkpt>
      <trkpt lat="48.28255" lon="3.20363">
        <ele>81</ele>
        <time>2012-04-12T16:03:41.000Z</time>
      </trkpt>
      <trkpt lat="48.28248" lon="3.20365">
        <ele>85</ele>
        <time>2012-04-12T16:03:43.000Z</time>
      </trkpt>
      <trkpt lat="48.28241" lon="3.20365">
        <ele>85</ele>
        <time>2012-04-12T16:03:45.000Z</time>
      </trkpt>
      <trkpt lat="48.28234" lon="3.20365">
        <ele>85</ele>
        <time>2012-04-12T16:03:47.000Z</time>
      </trkpt>
      <trkpt lat="48.28227" lon="3.20367">
        <ele>85</ele>
        <time>2012-04-12T16:03:49.000Z</time>
      </trkpt>
      <trkpt lat="48.28221" lon="3.20367">
        <ele>86</ele>
        <time>2012-04-12T16:03:51.000Z</time>
      </trkpt>
      <trkpt lat="48.28213" lon="3.20367">
        <ele>86</ele>
        <time>2012-04-12T16:03:53.000Z</time>
      </trkpt>
      <trkpt lat="48.28207" lon="3.20369">
        <ele>86</ele>
        <time>2012-04-12T16:03:55.000Z</time>
      </trkpt>
      <trkpt lat="48.28199" lon="3.20369">
        <ele>86</ele>
        <time>2012-04-12T16:03:57.000Z</time>
      </trkpt>
      <trkpt lat="48.28193" lon="3.20369">
        <ele>87</ele>
        <time>2012-04-12T16:03:59.000Z</time>
      </trkpt>
      <trkpt lat="48.28185" lon="3.20369">
        <ele>87</ele>
        <time>2012-04-12T16:04:01.000Z</time>
      </trkpt>
      <trkpt lat="48.2818" lon="3.20369">
        <ele>87</ele>
        <time>2012-04-12T16:04:03.000Z</time>
      </trkpt>
      <trkpt lat="48.28174" lon="3.20369">
        <ele>87</ele>
        <time>2012-04-12T16:04:05.000Z</time>
      </trkpt>
      <trkpt lat="48.28168" lon="3.20369">
        <ele>87</ele>
        <time>2012-04-12T16:04:07.000Z</time>
      </trkpt>
      <trkpt lat="48.28163" lon="3.20369">
        <ele>92</ele>
        <time>2012-04-12T16:04:09.000Z</time>
      </trkpt>
      <trkpt lat="48.28156" lon="3.20367">
        <ele>92</ele>
        <time>2012-04-12T16:04:11.000Z</time>
      </trkpt>
      <trkpt lat="48.28151" lon="3.20367">
        <ele>92</ele>
        <time>2012-04-12T16:04:13.000Z</time>
      </trkpt>
      <trkpt lat="48.28146" lon="3.20367">
        <ele>93</ele>
        <time>2012-04-12T16:04:15.000Z</time>
      </trkpt>
      <trkpt lat="48.2814" lon="3.20365">
        <ele>93</ele>
        <time>2012-04-12T16:04:17.000Z</time>
      </trkpt>
      <trkpt lat="48.28133" lon="3.20365">
        <ele>93</ele>
        <time>2012-04-12T16:04:20.000Z</time>
      </trkpt>
      <trkpt lat="48.28126" lon="3.20365">
        <ele>94</ele>
        <time>2012-04-12T16:04:23.000Z</time>
      </trkpt>
      <trkpt lat="48.28119" lon="3.20363">
        <ele>94</ele>
        <time>2012-04-12T16:04:26.000Z</time>
      </trkpt>
      <trkpt lat="48.28112" lon="3.20363">
        <ele>94</ele>
        <time>2012-04-12T16:04:29.000Z</time>
      </trkpt>
      <trkpt lat="48.28105" lon="3.20361">
        <ele>95</ele>
        <time>2012-04-12T16:04:32.000Z</time>
      </trkpt>
      <trkpt lat="48.28105" lon="3.20361">
        <ele>95</ele>
        <time>2012-04-12T16:04:32.000Z</time>
      </trkpt>
      <trkpt lat="48.28105" lon="3.20361">
        <ele>95</ele>
        <time>2012-04-12T16:04:35.000Z</time>
      </trkpt>
      <trkpt lat="48.28096" lon="3.20359">
        <ele>95</ele>
        <time>2012-04-12T16:04:36.000Z</time>
      </trkpt>
      <trkpt lat="48.28096" lon="3.20359">
        <ele>95</ele>
        <time>2012-04-12T16:04:36.000Z</time>
      </trkpt>
      <trkpt lat="48.28096" lon="3.20359">
        <ele>95</ele>
        <time>2012-04-12T16:04:38.000Z</time>
      </trkpt>
      <trkpt lat="48.28089" lon="3.20359">
        <ele>95</ele>
        <time>2012-04-12T16:04:39.000Z</time>
      </trkpt>
      <trkpt lat="48.28089" lon="3.20359">
        <ele>95</ele>
        <time>2012-04-12T16:04:39.000Z</time>
      </trkpt>
      <trkpt lat="48.28089" lon="3.20359">
        <ele>95</ele>
        <time>2012-04-12T16:04:43.000Z</time>
      </trkpt>
      <trkpt lat="48.2808" lon="3.20352">
        <ele>100</ele>
        <time>2012-04-12T16:04:44.000Z</time>
      </trkpt>
      <trkpt lat="48.2808" lon="3.20352">
        <ele>100</ele>
        <time>2012-04-12T16:04:44.000Z</time>
      </trkpt>
      <trkpt lat="48.2808" lon="3.20352">
        <ele>100</ele>
        <time>2012-04-12T16:04:48.000Z</time>
      </trkpt>
      <trkpt lat="48.28073" lon="3.2035">
        <ele>100</ele>
        <time>2012-04-12T16:04:49.000Z</time>
      </trkpt>
      <trkpt lat="48.28073" lon="3.2035">
        <ele>100</ele>
        <time>2012-04-12T16:04:49.000Z</time>
      </trkpt>
      <trkpt lat="48.28073" lon="3.2035">
        <ele>100</ele>
        <time>2012-04-12T16:04:51.000Z</time>
      </trkpt>
      <trkpt lat="48.28067" lon="3.2035">
        <ele>101</ele>
        <time>2012-04-12T16:04:52.000Z</time>
      </trkpt>
      <trkpt lat="48.28062" lon="3.2035">
        <ele>101</ele>
        <time>2012-04-12T16:04:54.000Z</time>
      </trkpt>
      <trkpt lat="48.28056" lon="3.20348">
        <ele>101</ele>
        <time>2012-04-12T16:04:57.000Z</time>
      </trkpt>
      <trkpt lat="48.2805" lon="3.20344">
        <ele>102</ele>
        <time>2012-04-12T16:05:00.000Z</time>
      </trkpt>
      <trkpt lat="48.28044" lon="3.20342">
        <ele>102</ele>
        <time>2012-04-12T16:05:04.000Z</time>
      </trkpt>
      <trkpt lat="48.28038" lon="3.20339">
        <ele>103</ele>
        <time>2012-04-12T16:05:07.000Z</time>
      </trkpt>
      <trkpt lat="48.28033" lon="3.20335">
        <ele>103</ele>
        <time>2012-04-12T16:05:10.000Z</time>
      </trkpt>
      <trkpt lat="48.28027" lon="3.20331">
        <ele>105</ele>
        <time>2012-04-12T16:05:13.000Z</time>
      </trkpt>
      <trkpt lat="48.2802" lon="3.20329">
        <ele>106</ele>
        <time>2012-04-12T16:05:16.000Z</time>
      </trkpt>
      <trkpt lat="48.28016" lon="3.20326">
        <ele>106</ele>
        <time>2012-04-12T16:05:18.000Z</time>
      </trkpt>
      <trkpt lat="48.2801" lon="3.20324">
        <ele>107</ele>
        <time>2012-04-12T16:05:21.000Z</time>
      </trkpt>
      <trkpt lat="48.28004" lon="3.20324">
        <ele>107</ele>
        <time>2012-04-12T16:05:24.000Z</time>
      </trkpt>
      <trkpt lat="48.27999" lon="3.20324">
        <ele>111</ele>
        <time>2012-04-12T16:05:26.000Z</time>
      </trkpt>
      <trkpt lat="48.27992" lon="3.20324">
        <ele>111</ele>
        <time>2012-04-12T16:05:29.000Z</time>
      </trkpt>
      <trkpt lat="48.27986" lon="3.20326">
        <ele>112</ele>
        <time>2012-04-12T16:05:32.000Z</time>
      </trkpt>
      <trkpt lat="48.27979" lon="3.20326">
        <ele>113</ele>
        <time>2012-04-12T16:05:35.000Z</time>
      </trkpt>
      <trkpt lat="48.27973" lon="3.20326">
        <ele>113</ele>
        <time>2012-04-12T16:05:38.000Z</time>
      </trkpt>
      <trkpt lat="48.27968" lon="3.20326">
        <ele>114</ele>
        <time>2012-04-12T16:05:41.000Z</time>
      </trkpt>
      <trkpt lat="48.27962" lon="3.20326">
        <ele>114</ele>
        <time>2012-04-12T16:05:44.000Z</time>
      </trkpt>
      <trkpt lat="48.27956" lon="3.20324">
        <ele>115</ele>
        <time>2012-04-12T16:05:47.000Z</time>
      </trkpt>
      <trkpt lat="48.27949" lon="3.20324">
        <ele>116</ele>
        <time>2012-04-12T16:05:50.000Z</time>
      </trkpt>
      <trkpt lat="48.27943" lon="3.20324">
        <ele>116</ele>
        <time>2012-04-12T16:05:53.000Z</time>
      </trkpt>
      <trkpt lat="48.27936" lon="3.20324">
        <ele>117</ele>
        <time>2012-04-12T16:05:56.000Z</time>
      </trkpt>
      <trkpt lat="48.2793" lon="3.20324">
        <ele>117</ele>
        <time>2012-04-12T16:05:59.000Z</time>
      </trkpt>
      <trkpt lat="48.27924" lon="3.20322">
        <ele>118</ele>
        <time>2012-04-12T16:06:02.000Z</time>
      </trkpt>
      <trkpt lat="48.27917" lon="3.2032">
        <ele>118</ele>
        <time>2012-04-12T16:06:05.000Z</time>
      </trkpt>
      <trkpt lat="48.27912" lon="3.20318">
        <ele>122</ele>
        <time>2012-04-12T16:06:08.000Z</time>
      </trkpt>
      <trkpt lat="48.27906" lon="3.20314">
        <ele>122</ele>
        <time>2012-04-12T16:06:11.000Z</time>
      </trkpt>
      <trkpt lat="48.27902" lon="3.20309">
        <ele>123</ele>
        <time>2012-04-12T16:06:14.000Z</time>
      </trkpt>
      <trkpt lat="48.27897" lon="3.20307">
        <ele>123</ele>
        <time>2012-04-12T16:06:17.000Z</time>
      </trkpt>
      <trkpt lat="48.27892" lon="3.20303">
        <ele>123</ele>
        <time>2012-04-12T16:06:19.000Z</time>
      </trkpt>
      <trkpt lat="48.27887" lon="3.20301">
        <ele>124</ele>
        <time>2012-04-12T16:06:22.000Z</time>
      </trkpt>
      <trkpt lat="48.27882" lon="3.20299">
        <ele>124</ele>
        <time>2012-04-12T16:06:25.000Z</time>
      </trkpt>
      <trkpt lat="48.27878" lon="3.20296">
        <ele>124</ele>
        <time>2012-04-12T16:06:27.000Z</time>
      </trkpt>
      <trkpt lat="48.27871" lon="3.20296">
        <ele>124</ele>
        <time>2012-04-12T16:06:30.000Z</time>
      </trkpt>
      <trkpt lat="48.27866" lon="3.20294">
        <ele>125</ele>
        <time>2012-04-12T16:06:33.000Z</time>
      </trkpt>
      <trkpt lat="48.27859" lon="3.20292">
        <ele>125</ele>
        <time>2012-04-12T16:06:36.000Z</time>
      </trkpt>
      <trkpt lat="48.27854" lon="3.2029">
        <ele>125</ele>
        <time>2012-04-12T16:06:39.000Z</time>
      </trkpt>
      <trkpt lat="48.27847" lon="3.20288">
        <ele>126</ele>
        <time>2012-04-12T16:06:42.000Z</time>
      </trkpt>
      <trkpt lat="48.27841" lon="3.20286">
        <ele>126</ele>
        <time>2012-04-12T16:06:45.000Z</time>
      </trkpt>
      <trkpt lat="48.27834" lon="3.20284">
        <ele>126</ele>
        <time>2012-04-12T16:06:48.000Z</time>
      </trkpt>
      <trkpt lat="48.27827" lon="3.20284">
        <ele>131</ele>
        <time>2012-04-12T16:06:51.000Z</time>
      </trkpt>
      <trkpt lat="48.2782" lon="3.20284">
        <ele>131</ele>
        <time>2012-04-12T16:06:54.000Z</time>
      </trkpt>
      <trkpt lat="48.27812" lon="3.20284">
        <ele>131</ele>
        <time>2012-04-12T16:06:57.000Z</time>
      </trkpt>
      <trkpt lat="48.27804" lon="3.20286">
        <ele>131</ele>
        <time>2012-04-12T16:07:00.000Z</time>
      </trkpt>
      <trkpt lat="48.27798" lon="3.2029">
        <ele>132</ele>
        <time>2012-04-12T16:07:03.000Z</time>
      </trkpt>
      <trkpt lat="48.27794" lon="3.20292">
        <ele>132</ele>
        <time>2012-04-12T16:07:05.000Z</time>
      </trkpt>
      <trkpt lat="48.2779" lon="3.20294">
        <ele>132</ele>
        <time>2012-04-12T16:07:07.000Z</time>
      </trkpt>
      <trkpt lat="48.27785" lon="3.20299">
        <ele>132</ele>
        <time>2012-04-12T16:07:09.000Z</time>
      </trkpt>
      <trkpt lat="48.2778" lon="3.20303">
        <ele>132</ele>
        <time>2012-04-12T16:07:12.000Z</time>
      </trkpt>
      <trkpt lat="48.27776" lon="3.20307">
        <ele>132</ele>
        <time>2012-04-12T16:07:14.000Z</time>
      </trkpt>
      <trkpt lat="48.27771" lon="3.20312">
        <ele>132</ele>
        <time>2012-04-12T16:07:16.000Z</time>
      </trkpt>
      <trkpt lat="48.27767" lon="3.20316">
        <ele>132</ele>
        <time>2012-04-12T16:07:18.000Z</time>
      </trkpt>
      <trkpt lat="48.27763" lon="3.2032">
        <ele>132</ele>
        <time>2012-04-12T16:07:20.000Z</time>
      </trkpt>
      <trkpt lat="48.27758" lon="3.20324">
        <ele>132</ele>
        <time>2012-04-12T16:07:22.000Z</time>
      </trkpt>
      <trkpt lat="48.27754" lon="3.20331">
        <ele>132</ele>
        <time>2012-04-12T16:07:24.000Z</time>
      </trkpt>
      <trkpt lat="48.27749" lon="3.20337">
        <ele>132</ele>
        <time>2012-04-12T16:07:26.000Z</time>
      </trkpt>
      <trkpt lat="48.27742" lon="3.20344">
        <ele>131</ele>
        <time>2012-04-12T16:07:28.000Z</time>
      </trkpt>
      <trkpt lat="48.27738" lon="3.20348">
        <ele>131</ele>
        <time>2012-04-12T16:07:29.000Z</time>
      </trkpt>
      <trkpt lat="48.27732" lon="3.20357">
        <ele>131</ele>
        <time>2012-04-12T16:07:31.000Z</time>
      </trkpt>
      <trkpt lat="48.27727" lon="3.20361">
        <ele>131</ele>
        <time>2012-04-12T16:07:32.000Z</time>
      </trkpt>
      <trkpt lat="48.27723" lon="3.20363">
        <ele>131</ele>
        <time>2012-04-12T16:07:33.000Z</time>
      </trkpt>
      <trkpt lat="48.27716" lon="3.20374">
        <ele>130</ele>
        <time>2012-04-12T16:07:35.000Z</time>
      </trkpt>
      <trkpt lat="48.27711" lon="3.20378">
        <ele>130</ele>
        <time>2012-04-12T16:07:36.000Z</time>
      </trkpt>
      <trkpt lat="48.27706" lon="3.20382">
        <ele>130</ele>
        <time>2012-04-12T16:07:37.000Z</time>
      </trkpt>
      <trkpt lat="48.27702" lon="3.20387">
        <ele>130</ele>
        <time>2012-04-12T16:07:38.000Z</time>
      </trkpt>
      <trkpt lat="48.27697" lon="3.20393">
        <ele>130</ele>
        <time>2012-04-12T16:07:39.000Z</time>
      </trkpt>
      <trkpt lat="48.27692" lon="3.20397">
        <ele>130</ele>
        <time>2012-04-12T16:07:40.000Z</time>
      </trkpt>
      <trkpt lat="48.27688" lon="3.20402">
        <ele>129</ele>
        <time>2012-04-12T16:07:41.000Z</time>
      </trkpt>
      <trkpt lat="48.27682" lon="3.20406">
        <ele>129</ele>
        <time>2012-04-12T16:07:42.000Z</time>
      </trkpt>
      <trkpt lat="48.27678" lon="3.20412">
        <ele>128</ele>
        <time>2012-04-12T16:07:43.000Z</time>
      </trkpt>
      <trkpt lat="48.27673" lon="3.20417">
        <ele>127</ele>
        <time>2012-04-12T16:07:44.000Z</time>
      </trkpt>
      <trkpt lat="48.27668" lon="3.20423">
        <ele>127</ele>
        <time>2012-04-12T16:07:45.000Z</time>
      </trkpt>
      <trkpt lat="48.27663" lon="3.20427">
        <ele>126</ele>
        <time>2012-04-12T16:07:46.000Z</time>
      </trkpt>
      <trkpt lat="48.27659" lon="3.20434">
        <ele>126</ele>
        <time>2012-04-12T16:07:47.000Z</time>
      </trkpt>
      <trkpt lat="48.27654" lon="3.2044">
        <ele>126</ele>
        <time>2012-04-12T16:07:48.000Z</time>
      </trkpt>
      <trkpt lat="48.2765" lon="3.20447">
        <ele>126</ele>
        <time>2012-04-12T16:07:49.000Z</time>
      </trkpt>
      <trkpt lat="48.27646" lon="3.20451">
        <ele>126</ele>
        <time>2012-04-12T16:07:50.000Z</time>
      </trkpt>
      <trkpt lat="48.27641" lon="3.20457">
        <ele>126</ele>
        <time>2012-04-12T16:07:51.000Z</time>
      </trkpt>
      <trkpt lat="48.27636" lon="3.20464">
        <ele>125</ele>
        <time>2012-04-12T16:07:52.000Z</time>
      </trkpt>
      <trkpt lat="48.27632" lon="3.20468">
        <ele>125</ele>
        <time>2012-04-12T16:07:53.000Z</time>
      </trkpt>
      <trkpt lat="48.27628" lon="3.20472">
        <ele>125</ele>
        <time>2012-04-12T16:07:54.000Z</time>
      </trkpt>
      <trkpt lat="48.27622" lon="3.20479">
        <ele>125</ele>
        <time>2012-04-12T16:07:55.000Z</time>
      </trkpt>
      <trkpt lat="48.27618" lon="3.20483">
        <ele>125</ele>
        <time>2012-04-12T16:07:56.000Z</time>
      </trkpt>
      <trkpt lat="48.27612" lon="3.20487">
        <ele>125</ele>
        <time>2012-04-12T16:07:57.000Z</time>
      </trkpt>
      <trkpt lat="48.27608" lon="3.20492">
        <ele>125</ele>
        <time>2012-04-12T16:07:58.000Z</time>
      </trkpt>
      <trkpt lat="48.27603" lon="3.20496">
        <ele>125</ele>
        <time>2012-04-12T16:07:59.000Z</time>
      </trkpt>
      <trkpt lat="48.27597" lon="3.20502">
        <ele>123</ele>
        <time>2012-04-12T16:08:00.000Z</time>
      </trkpt>
      <trkpt lat="48.27593" lon="3.20507">
        <ele>123</ele>
        <time>2012-04-12T16:08:01.000Z</time>
      </trkpt>
      <trkpt lat="48.27588" lon="3.20511">
        <ele>123</ele>
        <time>2012-04-12T16:08:02.000Z</time>
      </trkpt>
      <trkpt lat="48.27584" lon="3.20515">
        <ele>123</ele>
        <time>2012-04-12T16:08:03.000Z</time>
      </trkpt>
      <trkpt lat="48.27578" lon="3.20522">
        <ele>121</ele>
        <time>2012-04-12T16:08:04.000Z</time>
      </trkpt>
      <trkpt lat="48.27573" lon="3.20526">
        <ele>121</ele>
        <time>2012-04-12T16:08:05.000Z</time>
      </trkpt>
      <trkpt lat="48.27567" lon="3.20532">
        <ele>120</ele>
        <time>2012-04-12T16:08:06.000Z</time>
      </trkpt>
      <trkpt lat="48.27562" lon="3.20537">
        <ele>120</ele>
        <time>2012-04-12T16:08:07.000Z</time>
      </trkpt>
      <trkpt lat="48.27557" lon="3.20541">
        <ele>120</ele>
        <time>2012-04-12T16:08:08.000Z</time>
      </trkpt>
      <trkpt lat="48.27551" lon="3.20545">
        <ele>119</ele>
        <time>2012-04-12T16:08:09.000Z</time>
      </trkpt>
      <trkpt lat="48.27547" lon="3.2055">
        <ele>119</ele>
        <time>2012-04-12T16:08:10.000Z</time>
      </trkpt>
      <trkpt lat="48.27542" lon="3.20554">
        <ele>119</ele>
        <time>2012-04-12T16:08:11.000Z</time>
      </trkpt>
      <trkpt lat="48.27536" lon="3.2056">
        <ele>118</ele>
        <time>2012-04-12T16:08:12.000Z</time>
      </trkpt>
      <trkpt lat="48.27531" lon="3.20565">
        <ele>118</ele>
        <time>2012-04-12T16:08:13.000Z</time>
      </trkpt>
      <trkpt lat="48.27526" lon="3.20571">
        <ele>117</ele>
        <time>2012-04-12T16:08:14.000Z</time>
      </trkpt>
      <trkpt lat="48.27519" lon="3.20575">
        <ele>117</ele>
        <time>2012-04-12T16:08:15.000Z</time>
      </trkpt>
      <trkpt lat="48.27514" lon="3.20582">
        <ele>116</ele>
        <time>2012-04-12T16:08:16.000Z</time>
      </trkpt>
      <trkpt lat="48.27508" lon="3.20588">
        <ele>115</ele>
        <time>2012-04-12T16:08:17.000Z</time>
      </trkpt>
      <trkpt lat="48.27503" lon="3.20593">
        <ele>115</ele>
        <time>2012-04-12T16:08:18.000Z</time>
      </trkpt>
      <trkpt lat="48.27498" lon="3.20599">
        <ele>112</ele>
        <time>2012-04-12T16:08:19.000Z</time>
      </trkpt>
      <trkpt lat="48.27492" lon="3.20603">
        <ele>112</ele>
        <time>2012-04-12T16:08:20.000Z</time>
      </trkpt>
      <trkpt lat="48.27487" lon="3.2061">
        <ele>111</ele>
        <time>2012-04-12T16:08:21.000Z</time>
      </trkpt>
      <trkpt lat="48.27477" lon="3.20616">
        <ele>111</ele>
        <time>2012-04-12T16:08:23.000Z</time>
      </trkpt>
      <trkpt lat="48.27469" lon="3.20618">
        <ele>111</ele>
        <time>2012-04-12T16:08:25.000Z</time>
      </trkpt>
      <trkpt lat="48.27463" lon="3.2062">
        <ele>111</ele>
        <time>2012-04-12T16:08:26.000Z</time>
      </trkpt>
      <trkpt lat="48.27455" lon="3.20627">
        <ele>110</ele>
        <time>2012-04-12T16:08:28.000Z</time>
      </trkpt>
      <trkpt lat="48.2745" lon="3.20631">
        <ele>110</ele>
        <time>2012-04-12T16:08:29.000Z</time>
      </trkpt>
      <trkpt lat="48.27446" lon="3.20636">
        <ele>110</ele>
        <time>2012-04-12T16:08:30.000Z</time>
      </trkpt>
      <trkpt lat="48.27441" lon="3.20642">
        <ele>109</ele>
        <time>2012-04-12T16:08:31.000Z</time>
      </trkpt>
      <trkpt lat="48.27435" lon="3.20646">
        <ele>109</ele>
        <time>2012-04-12T16:08:32.000Z</time>
      </trkpt>
      <trkpt lat="48.27429" lon="3.20653">
        <ele>108</ele>
        <time>2012-04-12T16:08:33.000Z</time>
      </trkpt>
      <trkpt lat="48.27423" lon="3.20659">
        <ele>107</ele>
        <time>2012-04-12T16:08:34.000Z</time>
      </trkpt>
      <trkpt lat="48.27415" lon="3.20666">
        <ele>105</ele>
        <time>2012-04-12T16:08:35.000Z</time>
      </trkpt>
      <trkpt lat="48.27409" lon="3.20672">
        <ele>105</ele>
        <time>2012-04-12T16:08:36.000Z</time>
      </trkpt>
      <trkpt lat="48.27401" lon="3.20681">
        <ele>104</ele>
        <time>2012-04-12T16:08:37.000Z</time>
      </trkpt>
      <trkpt lat="48.27395" lon="3.20687">
        <ele>104</ele>
        <time>2012-04-12T16:08:38.000Z</time>
      </trkpt>
      <trkpt lat="48.27388" lon="3.20696">
        <ele>104</ele>
        <time>2012-04-12T16:08:39.000Z</time>
      </trkpt>
      <trkpt lat="48.27381" lon="3.20704">
        <ele>104</ele>
        <time>2012-04-12T16:08:40.000Z</time>
      </trkpt>
      <trkpt lat="48.27374" lon="3.20713">
        <ele>104</ele>
        <time>2012-04-12T16:08:41.000Z</time>
      </trkpt>
      <trkpt lat="48.27369" lon="3.20721">
        <ele>104</ele>
        <time>2012-04-12T16:08:42.000Z</time>
      </trkpt>
      <trkpt lat="48.27362" lon="3.20732">
        <ele>103</ele>
        <time>2012-04-12T16:08:43.000Z</time>
      </trkpt>
      <trkpt lat="48.27357" lon="3.20741">
        <ele>103</ele>
        <time>2012-04-12T16:08:44.000Z</time>
      </trkpt>
      <trkpt lat="48.27352" lon="3.20751">
        <ele>102</ele>
        <time>2012-04-12T16:08:45.000Z</time>
      </trkpt>
      <trkpt lat="48.27348" lon="3.20762">
        <ele>101</ele>
        <time>2012-04-12T16:08:46.000Z</time>
      </trkpt>
      <trkpt lat="48.27342" lon="3.20771">
        <ele>101</ele>
        <time>2012-04-12T16:08:47.000Z</time>
      </trkpt>
      <trkpt lat="48.27337" lon="3.20781">
        <ele>101</ele>
        <time>2012-04-12T16:08:48.000Z</time>
      </trkpt>
      <trkpt lat="48.27331" lon="3.2079">
        <ele>102</ele>
        <time>2012-04-12T16:08:49.000Z</time>
      </trkpt>
      <trkpt lat="48.27325" lon="3.20799">
        <ele>101</ele>
        <time>2012-04-12T16:08:50.000Z</time>
      </trkpt>
      <trkpt lat="48.27318" lon="3.20805">
        <ele>101</ele>
        <time>2012-04-12T16:08:51.000Z</time>
      </trkpt>
      <trkpt lat="48.27312" lon="3.20809">
        <ele>101</ele>
        <time>2012-04-12T16:08:52.000Z</time>
      </trkpt>
      <trkpt lat="48.27306" lon="3.20816">
        <ele>101</ele>
        <time>2012-04-12T16:08:53.000Z</time>
      </trkpt>
      <trkpt lat="48.27299" lon="3.20822">
        <ele>102</ele>
        <time>2012-04-12T16:08:54.000Z</time>
      </trkpt>
      <trkpt lat="48.27293" lon="3.20826">
        <ele>102</ele>
        <time>2012-04-12T16:08:55.000Z</time>
      </trkpt>
      <trkpt lat="48.27287" lon="3.20833">
        <ele>102</ele>
        <time>2012-04-12T16:08:56.000Z</time>
      </trkpt>
      <trkpt lat="48.27281" lon="3.20837">
        <ele>100</ele>
        <time>2012-04-12T16:08:57.000Z</time>
      </trkpt>
      <trkpt lat="48.27277" lon="3.20844">
        <ele>100</ele>
        <time>2012-04-12T16:08:58.000Z</time>
      </trkpt>
      <trkpt lat="48.27271" lon="3.20848">
        <ele>100</ele>
        <time>2012-04-12T16:08:59.000Z</time>
      </trkpt>
      <trkpt lat="48.27266" lon="3.20854">
        <ele>100</ele>
        <time>2012-04-12T16:09:00.000Z</time>
      </trkpt>
      <trkpt lat="48.27262" lon="3.20859">
        <ele>100</ele>
        <time>2012-04-12T16:09:01.000Z</time>
      </trkpt>
      <trkpt lat="48.27256" lon="3.20865">
        <ele>100</ele>
        <time>2012-04-12T16:09:02.000Z</time>
      </trkpt>
      <trkpt lat="48.27252" lon="3.20869">
        <ele>100</ele>
        <time>2012-04-12T16:09:03.000Z</time>
      </trkpt>
      <trkpt lat="48.27248" lon="3.20874">
        <ele>102</ele>
        <time>2012-04-12T16:09:04.000Z</time>
      </trkpt>
      <trkpt lat="48.27242" lon="3.20878">
        <ele>102</ele>
        <time>2012-04-12T16:09:05.000Z</time>
      </trkpt>
      <trkpt lat="48.27238" lon="3.20882">
        <ele>102</ele>
        <time>2012-04-12T16:09:06.000Z</time>
      </trkpt>
      <trkpt lat="48.27233" lon="3.20882">
        <ele>102</ele>
        <time>2012-04-12T16:09:07.000Z</time>
      </trkpt>
      <trkpt lat="48.27228" lon="3.20884">
        <ele>102</ele>
        <time>2012-04-12T16:09:08.000Z</time>
      </trkpt>
      <trkpt lat="48.27223" lon="3.20887">
        <ele>102</ele>
        <time>2012-04-12T16:09:09.000Z</time>
      </trkpt>
      <trkpt lat="48.27214" lon="3.20889">
        <ele>102</ele>
        <time>2012-04-12T16:09:11.000Z</time>
      </trkpt>
      <trkpt lat="48.27206" lon="3.20891">
        <ele>103</ele>
        <time>2012-04-12T16:09:13.000Z</time>
      </trkpt>
      <trkpt lat="48.27198" lon="3.20893">
        <ele>103</ele>
        <time>2012-04-12T16:09:15.000Z</time>
      </trkpt>
      <trkpt lat="48.27191" lon="3.20895">
        <ele>103</ele>
        <time>2012-04-12T16:09:17.000Z</time>
      </trkpt>
      <trkpt lat="48.27186" lon="3.20895">
        <ele>103</ele>
        <time>2012-04-12T16:09:19.000Z</time>
      </trkpt>
      <trkpt lat="48.2718" lon="3.20897">
        <ele>103</ele>
        <time>2012-04-12T16:09:21.000Z</time>
      </trkpt>
      <trkpt lat="48.27175" lon="3.20899">
        <ele>103</ele>
        <time>2012-04-12T16:09:23.000Z</time>
      </trkpt>
      <trkpt lat="48.27169" lon="3.20906">
        <ele>102</ele>
        <time>2012-04-12T16:09:25.000Z</time>
      </trkpt>
      <trkpt lat="48.27164" lon="3.20912">
        <ele>102</ele>
        <time>2012-04-12T16:09:27.000Z</time>
      </trkpt>
      <trkpt lat="48.27161" lon="3.20919">
        <ele>100</ele>
        <time>2012-04-12T16:09:28.000Z</time>
      </trkpt>
      <trkpt lat="48.27153" lon="3.20927">
        <ele>98</ele>
        <time>2012-04-12T16:09:30.000Z</time>
      </trkpt>
      <trkpt lat="48.27149" lon="3.20934">
        <ele>96</ele>
        <time>2012-04-12T16:09:31.000Z</time>
      </trkpt>
      <trkpt lat="48.27145" lon="3.20938">
        <ele>96</ele>
        <time>2012-04-12T16:09:32.000Z</time>
      </trkpt>
      <trkpt lat="48.2714" lon="3.20942">
        <ele>95</ele>
        <time>2012-04-12T16:09:33.000Z</time>
      </trkpt>
      <trkpt lat="48.27136" lon="3.20947">
        <ele>94</ele>
        <time>2012-04-12T16:09:34.000Z</time>
      </trkpt>
      <trkpt lat="48.27129" lon="3.20953">
        <ele>94</ele>
        <time>2012-04-12T16:09:36.000Z</time>
      </trkpt>
      <trkpt lat="48.27124" lon="3.20957">
        <ele>93</ele>
        <time>2012-04-12T16:09:37.000Z</time>
      </trkpt>
      <trkpt lat="48.27121" lon="3.20964">
        <ele>92</ele>
        <time>2012-04-12T16:09:38.000Z</time>
      </trkpt>
      <trkpt lat="48.27118" lon="3.20974">
        <ele>92</ele>
        <time>2012-04-12T16:09:40.000Z</time>
      </trkpt>
      <trkpt lat="48.27121" lon="3.20983">
        <ele>91</ele>
        <time>2012-04-12T16:09:42.000Z</time>
      </trkpt>
      <trkpt lat="48.27119" lon="3.20996">
        <ele>91</ele>
        <time>2012-04-12T16:09:44.000Z</time>
      </trkpt>
      <trkpt lat="48.27115" lon="3.21">
        <ele>90</ele>
        <time>2012-04-12T16:09:45.000Z</time>
      </trkpt>
      <trkpt lat="48.27109" lon="3.21007">
        <ele>86</ele>
        <time>2012-04-12T16:09:46.000Z</time>
      </trkpt>
      <trkpt lat="48.27103" lon="3.21013">
        <ele>85</ele>
        <time>2012-04-12T16:09:47.000Z</time>
      </trkpt>
      <trkpt lat="48.27096" lon="3.2102">
        <ele>85</ele>
        <time>2012-04-12T16:09:48.000Z</time>
      </trkpt>
      <trkpt lat="48.2709" lon="3.21026">
        <ele>85</ele>
        <time>2012-04-12T16:09:49.000Z</time>
      </trkpt>
      <trkpt lat="48.27082" lon="3.21032">
        <ele>80</ele>
        <time>2012-04-12T16:09:50.000Z</time>
      </trkpt>
      <trkpt lat="48.27075" lon="3.21041">
        <ele>80</ele>
        <time>2012-04-12T16:09:51.000Z</time>
      </trkpt>
      <trkpt lat="48.27067" lon="3.2105">
        <ele>79</ele>
        <time>2012-04-12T16:09:52.000Z</time>
      </trkpt>
      <trkpt lat="48.27059" lon="3.21058">
        <ele>79</ele>
        <time>2012-04-12T16:09:53.000Z</time>
      </trkpt>
      <trkpt lat="48.2705" lon="3.21067">
        <ele>78</ele>
        <time>2012-04-12T16:09:54.000Z</time>
      </trkpt>
      <trkpt lat="48.27042" lon="3.21075">
        <ele>78</ele>
        <time>2012-04-12T16:09:55.000Z</time>
      </trkpt>
      <trkpt lat="48.27032" lon="3.21084">
        <ele>76</ele>
        <time>2012-04-12T16:09:56.000Z</time>
      </trkpt>
      <trkpt lat="48.27024" lon="3.2109">
        <ele>76</ele>
        <time>2012-04-12T16:09:57.000Z</time>
      </trkpt>
      <trkpt lat="48.27015" lon="3.21097">
        <ele>76</ele>
        <time>2012-04-12T16:09:58.000Z</time>
      </trkpt>
      <trkpt lat="48.27007" lon="3.21105">
        <ele>76</ele>
        <time>2012-04-12T16:09:59.000Z</time>
      </trkpt>
      <trkpt lat="48.27" lon="3.21112">
        <ele>76</ele>
        <time>2012-04-12T16:10:00.000Z</time>
      </trkpt>
      <trkpt lat="48.26993" lon="3.21118">
        <ele>77</ele>
        <time>2012-04-12T16:10:01.000Z</time>
      </trkpt>
      <trkpt lat="48.26987" lon="3.21125">
        <ele>77</ele>
        <time>2012-04-12T16:10:02.000Z</time>
      </trkpt>
      <trkpt lat="48.26982" lon="3.21129">
        <ele>77</ele>
        <time>2012-04-12T16:10:03.000Z</time>
      </trkpt>
      <trkpt lat="48.26976" lon="3.21136">
        <ele>77</ele>
        <time>2012-04-12T16:10:04.000Z</time>
      </trkpt>
      <trkpt lat="48.26968" lon="3.21142">
        <ele>77</ele>
        <time>2012-04-12T16:10:06.000Z</time>
      </trkpt>
      <trkpt lat="48.26963" lon="3.21146">
        <ele>78</ele>
        <time>2012-04-12T16:10:07.000Z</time>
      </trkpt>
      <trkpt lat="48.26958" lon="3.2115">
        <ele>78</ele>
        <time>2012-04-12T16:10:09.000Z</time>
      </trkpt>
      <trkpt lat="48.26954" lon="3.21155">
        <ele>78</ele>
        <time>2012-04-12T16:10:11.000Z</time>
      </trkpt>
      <trkpt lat="48.26949" lon="3.21159">
        <ele>79</ele>
        <time>2012-04-12T16:10:13.000Z</time>
      </trkpt>
      <trkpt lat="48.26945" lon="3.21163">
        <ele>79</ele>
        <time>2012-04-12T16:10:15.000Z</time>
      </trkpt>
      <trkpt lat="48.2694" lon="3.21168">
        <ele>80</ele>
        <time>2012-04-12T16:10:18.000Z</time>
      </trkpt>
      <trkpt lat="48.26931" lon="3.21176">
        <ele>81</ele>
        <time>2012-04-12T16:10:22.000Z</time>
      </trkpt>
      <trkpt lat="48.26927" lon="3.21178">
        <ele>81</ele>
        <time>2012-04-12T16:10:24.000Z</time>
      </trkpt>
      <trkpt lat="48.26923" lon="3.21183">
        <ele>81</ele>
        <time>2012-04-12T16:10:26.000Z</time>
      </trkpt>
      <trkpt lat="48.26917" lon="3.21189">
        <ele>81</ele>
        <time>2012-04-12T16:10:29.000Z</time>
      </trkpt>
      <trkpt lat="48.26911" lon="3.21193">
        <ele>85</ele>
        <time>2012-04-12T16:10:32.000Z</time>
      </trkpt>
      <trkpt lat="48.26905" lon="3.21198">
        <ele>86</ele>
        <time>2012-04-12T16:10:35.000Z</time>
      </trkpt>
      <trkpt lat="48.26898" lon="3.21206">
        <ele>86</ele>
        <time>2012-04-12T16:10:39.000Z</time>
      </trkpt>
      <trkpt lat="48.26898" lon="3.21206">
        <ele>86</ele>
        <time>2012-04-12T16:10:39.000Z</time>
      </trkpt>
      <trkpt lat="48.26898" lon="3.21206">
        <ele>86</ele>
        <time>2012-04-12T16:10:41.000Z</time>
      </trkpt>
      <trkpt lat="48.26893" lon="3.21211">
        <ele>87</ele>
        <time>2012-04-12T16:10:42.000Z</time>
      </trkpt>
      <trkpt lat="48.26893" lon="3.21211">
        <ele>87</ele>
        <time>2012-04-12T16:10:42.000Z</time>
      </trkpt>
      <trkpt lat="48.26893" lon="3.21211">
        <ele>87</ele>
        <time>2012-04-12T16:10:46.000Z</time>
      </trkpt>
      <trkpt lat="48.26884" lon="3.21219">
        <ele>87</ele>
        <time>2012-04-12T16:10:47.000Z</time>
      </trkpt>
      <trkpt lat="48.26884" lon="3.21219">
        <ele>87</ele>
        <time>2012-04-12T16:10:47.000Z</time>
      </trkpt>
      <trkpt lat="48.26884" lon="3.21219">
        <ele>87</ele>
        <time>2012-04-12T16:10:49.000Z</time>
      </trkpt>
      <trkpt lat="48.26879" lon="3.21223">
        <ele>88</ele>
        <time>2012-04-12T16:10:50.000Z</time>
      </trkpt>
      <trkpt lat="48.26879" lon="3.21223">
        <ele>88</ele>
        <time>2012-04-12T16:10:50.000Z</time>
      </trkpt>
      <trkpt lat="48.26879" lon="3.21223">
        <ele>88</ele>
        <time>2012-04-12T16:10:52.000Z</time>
      </trkpt>
      <trkpt lat="48.26874" lon="3.21228">
        <ele>88</ele>
        <time>2012-04-12T16:10:53.000Z</time>
      </trkpt>
      <trkpt lat="48.26874" lon="3.21228">
        <ele>88</ele>
        <time>2012-04-12T16:10:53.000Z</time>
      </trkpt>
      <trkpt lat="48.26874" lon="3.21228">
        <ele>88</ele>
        <time>2012-04-12T16:10:55.000Z</time>
      </trkpt>
      <trkpt lat="48.2687" lon="3.21232">
        <ele>88</ele>
        <time>2012-04-12T16:10:56.000Z</time>
      </trkpt>
      <trkpt lat="48.2687" lon="3.21232">
        <ele>88</ele>
        <time>2012-04-12T16:10:56.000Z</time>
      </trkpt>
      <trkpt lat="48.2687" lon="3.21232">
        <ele>88</ele>
        <time>2012-04-12T16:10:58.000Z</time>
      </trkpt>
      <trkpt lat="48.26866" lon="3.21236">
        <ele>89</ele>
        <time>2012-04-12T16:10:59.000Z</time>
      </trkpt>
      <trkpt lat="48.26857" lon="3.21243">
        <ele>90</ele>
        <time>2012-04-12T16:11:04.000Z</time>
      </trkpt>
      <trkpt lat="48.2685" lon="3.21249">
        <ele>91</ele>
        <time>2012-04-12T16:11:08.000Z</time>
      </trkpt>
      <trkpt lat="48.2685" lon="3.21249">
        <ele>91</ele>
        <time>2012-04-12T16:11:08.000Z</time>
      </trkpt>
      <trkpt lat="48.2685" lon="3.21249">
        <ele>91</ele>
        <time>2012-04-12T16:11:10.000Z</time>
      </trkpt>
      <trkpt lat="48.26845" lon="3.21254">
        <ele>93</ele>
        <time>2012-04-12T16:11:11.000Z</time>
      </trkpt>
      <trkpt lat="48.26845" lon="3.21254">
        <ele>93</ele>
        <time>2012-04-12T16:11:11.000Z</time>
      </trkpt>
      <trkpt lat="48.26845" lon="3.21254">
        <ele>93</ele>
        <time>2012-04-12T16:11:13.000Z</time>
      </trkpt>
      <trkpt lat="48.2684" lon="3.21258">
        <ele>93</ele>
        <time>2012-04-12T16:11:14.000Z</time>
      </trkpt>
      <trkpt lat="48.26835" lon="3.21262">
        <ele>93</ele>
        <time>2012-04-12T16:11:18.000Z</time>
      </trkpt>
      <trkpt lat="48.26835" lon="3.21262">
        <ele>93</ele>
        <time>2012-04-12T16:11:18.000Z</time>
      </trkpt>
      <trkpt lat="48.26835" lon="3.21262">
        <ele>93</ele>
        <time>2012-04-12T16:11:20.000Z</time>
      </trkpt>
      <trkpt lat="48.26829" lon="3.21266">
        <ele>97</ele>
        <time>2012-04-12T16:11:21.000Z</time>
      </trkpt>
      <trkpt lat="48.26829" lon="3.21266">
        <ele>97</ele>
        <time>2012-04-12T16:11:21.000Z</time>
      </trkpt>
      <trkpt lat="48.26829" lon="3.21266">
        <ele>97</ele>
        <time>2012-04-12T16:11:23.000Z</time>
      </trkpt>
      <trkpt lat="48.26824" lon="3.21268">
        <ele>97</ele>
        <time>2012-04-12T16:11:24.000Z</time>
      </trkpt>
      <trkpt lat="48.26824" lon="3.21268">
        <ele>97</ele>
        <time>2012-04-12T16:11:24.000Z</time>
      </trkpt>
      <trkpt lat="48.26824" lon="3.21268">
        <ele>97</ele>
        <time>2012-04-12T16:11:26.000Z</time>
      </trkpt>
      <trkpt lat="48.2682" lon="3.21273">
        <ele>98</ele>
        <time>2012-04-12T16:11:27.000Z</time>
      </trkpt>
      <trkpt lat="48.2682" lon="3.21273">
        <ele>98</ele>
        <time>2012-04-12T16:11:27.000Z</time>
      </trkpt>
      <trkpt lat="48.2682" lon="3.21273">
        <ele>98</ele>
        <time>2012-04-12T16:11:29.000Z</time>
      </trkpt>
      <trkpt lat="48.26815" lon="3.21277">
        <ele>98</ele>
        <time>2012-04-12T16:11:30.000Z</time>
      </trkpt>
      <trkpt lat="48.26815" lon="3.21277">
        <ele>98</ele>
        <time>2012-04-12T16:11:30.000Z</time>
      </trkpt>
      <trkpt lat="48.26815" lon="3.21277">
        <ele>98</ele>
        <time>2012-04-12T16:11:32.000Z</time>
      </trkpt>
      <trkpt lat="48.2681" lon="3.21281">
        <ele>99</ele>
        <time>2012-04-12T16:11:33.000Z</time>
      </trkpt>
      <trkpt lat="48.2681" lon="3.21281">
        <ele>99</ele>
        <time>2012-04-12T16:11:33.000Z</time>
      </trkpt>
      <trkpt lat="48.2681" lon="3.21281">
        <ele>99</ele>
        <time>2012-04-12T16:11:35.000Z</time>
      </trkpt>
      <trkpt lat="48.26806" lon="3.21286">
        <ele>99</ele>
        <time>2012-04-12T16:11:36.000Z</time>
      </trkpt>
      <trkpt lat="48.26801" lon="3.2129">
        <ele>99</ele>
        <time>2012-04-12T16:11:39.000Z</time>
      </trkpt>
      <trkpt lat="48.26795" lon="3.21296">
        <ele>100</ele>
        <time>2012-04-12T16:11:43.000Z</time>
      </trkpt>
      <trkpt lat="48.26795" lon="3.21296">
        <ele>100</ele>
        <time>2012-04-12T16:11:43.000Z</time>
      </trkpt>
      <trkpt lat="48.26795" lon="3.21296">
        <ele>100</ele>
        <time>2012-04-12T16:11:45.000Z</time>
      </trkpt>
      <trkpt lat="48.26792" lon="3.21303">
        <ele>100</ele>
        <time>2012-04-12T16:11:46.000Z</time>
      </trkpt>
      <trkpt lat="48.26792" lon="3.21303">
        <ele>100</ele>
        <time>2012-04-12T16:11:46.000Z</time>
      </trkpt>
      <trkpt lat="48.26792" lon="3.21303">
        <ele>100</ele>
        <time>2012-04-12T16:11:49.000Z</time>
      </trkpt>
      <trkpt lat="48.2679" lon="3.21309">
        <ele>100</ele>
        <time>2012-04-12T16:11:50.000Z</time>
      </trkpt>
      <trkpt lat="48.2679" lon="3.21309">
        <ele>100</ele>
        <time>2012-04-12T16:11:50.000Z</time>
      </trkpt>
      <trkpt lat="48.2679" lon="3.21309">
        <ele>100</ele>
        <time>2012-04-12T16:11:52.000Z</time>
      </trkpt>
      <trkpt lat="48.26788" lon="3.21324">
        <ele>100</ele>
        <time>2012-04-12T16:11:56.000Z</time>
      </trkpt>
      <trkpt lat="48.26788" lon="3.21324">
        <ele>100</ele>
        <time>2012-04-12T16:11:56.000Z</time>
      </trkpt>
      <trkpt lat="48.26788" lon="3.21324">
        <ele>100</ele>
        <time>2012-04-12T16:11:58.000Z</time>
      </trkpt>
      <trkpt lat="48.2679" lon="3.21333">
        <ele>100</ele>
        <time>2012-04-12T16:11:59.000Z</time>
      </trkpt>
      <trkpt lat="48.2679" lon="3.21333">
        <ele>100</ele>
        <time>2012-04-12T16:11:59.000Z</time>
      </trkpt>
      <trkpt lat="48.2679" lon="3.21333">
        <ele>100</ele>
        <time>2012-04-12T16:12:01.000Z</time>
      </trkpt>
      <trkpt lat="48.26791" lon="3.21342">
        <ele>101</ele>
        <time>2012-04-12T16:12:02.000Z</time>
      </trkpt>
      <trkpt lat="48.26791" lon="3.21342">
        <ele>101</ele>
        <time>2012-04-12T16:12:02.000Z</time>
      </trkpt>
      <trkpt lat="48.26791" lon="3.21342">
        <ele>101</ele>
        <time>2012-04-12T16:12:04.000Z</time>
      </trkpt>
      <trkpt lat="48.26793" lon="3.2135">
        <ele>100</ele>
        <time>2012-04-12T16:12:05.000Z</time>
      </trkpt>
      <trkpt lat="48.26793" lon="3.2135">
        <ele>100</ele>
        <time>2012-04-12T16:12:05.000Z</time>
      </trkpt>
      <trkpt lat="48.26793" lon="3.2135">
        <ele>100</ele>
        <time>2012-04-12T16:12:09.000Z</time>
      </trkpt>
      <trkpt lat="48.26794" lon="3.21365">
        <ele>100</ele>
        <time>2012-04-12T16:12:10.000Z</time>
      </trkpt>
      <trkpt lat="48.26794" lon="3.21376">
        <ele>100</ele>
        <time>2012-04-12T16:12:13.000Z</time>
      </trkpt>
      <trkpt lat="48.26794" lon="3.21384">
        <ele>100</ele>
        <time>2012-04-12T16:12:15.000Z</time>
      </trkpt>
      <trkpt lat="48.26792" lon="3.21391">
        <ele>100</ele>
        <time>2012-04-12T16:12:17.000Z</time>
      </trkpt>
      <trkpt lat="48.2679" lon="3.21399">
        <ele>101</ele>
        <time>2012-04-12T16:12:19.000Z</time>
      </trkpt>
      <trkpt lat="48.2679" lon="3.21399">
        <ele>101</ele>
        <time>2012-04-12T16:12:19.000Z</time>
      </trkpt>
      <trkpt lat="48.2679" lon="3.21399">
        <ele>101</ele>
        <time>2012-04-12T16:12:20.000Z</time>
      </trkpt>
      <trkpt lat="48.26785" lon="3.21404">
        <ele>101</ele>
        <time>2012-04-12T16:12:21.000Z</time>
      </trkpt>
      <trkpt lat="48.26785" lon="3.21404">
        <ele>101</ele>
        <time>2012-04-12T16:12:21.000Z</time>
      </trkpt>
      <trkpt lat="48.26785" lon="3.21404">
        <ele>101</ele>
        <time>2012-04-12T16:12:22.000Z</time>
      </trkpt>
      <trkpt lat="48.26781" lon="3.21406">
        <ele>101</ele>
        <time>2012-04-12T16:12:23.000Z</time>
      </trkpt>
      <trkpt lat="48.26777" lon="3.2141">
        <ele>101</ele>
        <time>2012-04-12T16:12:25.000Z</time>
      </trkpt>
      <trkpt lat="48.26772" lon="3.21414">
        <ele>102</ele>
        <time>2012-04-12T16:12:27.000Z</time>
      </trkpt>
      <trkpt lat="48.26767" lon="3.21419">
        <ele>102</ele>
        <time>2012-04-12T16:12:29.000Z</time>
      </trkpt>
      <trkpt lat="48.26763" lon="3.21423">
        <ele>102</ele>
        <time>2012-04-12T16:12:31.000Z</time>
      </trkpt>
      <trkpt lat="48.26758" lon="3.21427">
        <ele>102</ele>
        <time>2012-04-12T16:12:33.000Z</time>
      </trkpt>
      <trkpt lat="48.26754" lon="3.21429">
        <ele>102</ele>
        <time>2012-04-12T16:12:35.000Z</time>
      </trkpt>
      <trkpt lat="48.26749" lon="3.21434">
        <ele>106</ele>
        <time>2012-04-12T16:12:37.000Z</time>
      </trkpt>
      <trkpt lat="48.26744" lon="3.21436">
        <ele>107</ele>
        <time>2012-04-12T16:12:39.000Z</time>
      </trkpt>
      <trkpt lat="48.26738" lon="3.2144">
        <ele>107</ele>
        <time>2012-04-12T16:12:42.000Z</time>
      </trkpt>
      <trkpt lat="48.26734" lon="3.21442">
        <ele>107</ele>
        <time>2012-04-12T16:12:44.000Z</time>
      </trkpt>
      <trkpt lat="48.2673" lon="3.21447">
        <ele>108</ele>
        <time>2012-04-12T16:12:46.000Z</time>
      </trkpt>
      <trkpt lat="48.26724" lon="3.21449">
        <ele>108</ele>
        <time>2012-04-12T16:12:48.000Z</time>
      </trkpt>
      <trkpt lat="48.2672" lon="3.21453">
        <ele>108</ele>
        <time>2012-04-12T16:12:50.000Z</time>
      </trkpt>
      <trkpt lat="48.26714" lon="3.21455">
        <ele>109</ele>
        <time>2012-04-12T16:12:52.000Z</time>
      </trkpt>
      <trkpt lat="48.26709" lon="3.21457">
        <ele>109</ele>
        <time>2012-04-12T16:12:54.000Z</time>
      </trkpt>
      <trkpt lat="48.26702" lon="3.21462">
        <ele>110</ele>
        <time>2012-04-12T16:12:57.000Z</time>
      </trkpt>
      <trkpt lat="48.26696" lon="3.21464">
        <ele>110</ele>
        <time>2012-04-12T16:12:59.000Z</time>
      </trkpt>
      <trkpt lat="48.2669" lon="3.21466">
        <ele>111</ele>
        <time>2012-04-12T16:13:02.000Z</time>
      </trkpt>
      <trkpt lat="48.2669" lon="3.21466">
        <ele>111</ele>
        <time>2012-04-12T16:13:02.000Z</time>
      </trkpt>
      <trkpt lat="48.2669" lon="3.21466">
        <ele>111</ele>
        <time>2012-04-12T16:13:04.000Z</time>
      </trkpt>
      <trkpt lat="48.26684" lon="3.21468">
        <ele>111</ele>
        <time>2012-04-12T16:13:05.000Z</time>
      </trkpt>
      <trkpt lat="48.26684" lon="3.21468">
        <ele>111</ele>
        <time>2012-04-12T16:13:05.000Z</time>
      </trkpt>
      <trkpt lat="48.26684" lon="3.21468">
        <ele>111</ele>
        <time>2012-04-12T16:13:07.000Z</time>
      </trkpt>
      <trkpt lat="48.26678" lon="3.21468">
        <ele>111</ele>
        <time>2012-04-12T16:13:09.000Z</time>
      </trkpt>
      <trkpt lat="48.26673" lon="3.21468">
        <ele>112</ele>
        <time>2012-04-12T16:13:12.000Z</time>
      </trkpt>
      <trkpt lat="48.26667" lon="3.21466">
        <ele>112</ele>
        <time>2012-04-12T16:13:15.000Z</time>
      </trkpt>
      <trkpt lat="48.26661" lon="3.21466">
        <ele>119</ele>
        <time>2012-04-12T16:13:19.000Z</time>
      </trkpt>
      <trkpt lat="48.26656" lon="3.21466">
        <ele>119</ele>
        <time>2012-04-12T16:13:23.000Z</time>
      </trkpt>
      <trkpt lat="48.2665" lon="3.21466">
        <ele>119</ele>
        <time>2012-04-12T16:13:26.000Z</time>
      </trkpt>
      <trkpt lat="48.26644" lon="3.21466">
        <ele>120</ele>
        <time>2012-04-12T16:13:30.000Z</time>
      </trkpt>
      <trkpt lat="48.26639" lon="3.21468">
        <ele>120</ele>
        <time>2012-04-12T16:13:33.000Z</time>
      </trkpt>
      <trkpt lat="48.26634" lon="3.2147">
        <ele>120</ele>
        <time>2012-04-12T16:13:37.000Z</time>
      </trkpt>
      <trkpt lat="48.26629" lon="3.21472">
        <ele>121</ele>
        <time>2012-04-12T16:13:41.000Z</time>
      </trkpt>
      <trkpt lat="48.26623" lon="3.21474">
        <ele>121</ele>
        <time>2012-04-12T16:13:46.000Z</time>
      </trkpt>
      <trkpt lat="48.26619" lon="3.21477">
        <ele>122</ele>
        <time>2012-04-12T16:13:49.000Z</time>
      </trkpt>
      <trkpt lat="48.26615" lon="3.21479">
        <ele>122</ele>
        <time>2012-04-12T16:13:52.000Z</time>
      </trkpt>
      <trkpt lat="48.2661" lon="3.21481">
        <ele>123</ele>
        <time>2012-04-12T16:13:55.000Z</time>
      </trkpt>
      <trkpt lat="48.26606" lon="3.21483">
        <ele>124</ele>
        <time>2012-04-12T16:13:58.000Z</time>
      </trkpt>
      <trkpt lat="48.26601" lon="3.21483">
        <ele>124</ele>
        <time>2012-04-12T16:14:02.000Z</time>
      </trkpt>
      <trkpt lat="48.26596" lon="3.21479">
        <ele>124</ele>
        <time>2012-04-12T16:14:06.000Z</time>
      </trkpt>
      <trkpt lat="48.26593" lon="3.21472">
        <ele>124</ele>
        <time>2012-04-12T16:14:10.000Z</time>
      </trkpt>
      <trkpt lat="48.26591" lon="3.21466">
        <ele>123</ele>
        <time>2012-04-12T16:14:14.000Z</time>
      </trkpt>
      <trkpt lat="48.26588" lon="3.2146">
        <ele>123</ele>
        <time>2012-04-12T16:14:19.000Z</time>
      </trkpt>
      <trkpt lat="48.26586" lon="3.21453">
        <ele>123</ele>
        <time>2012-04-12T16:14:23.000Z</time>
      </trkpt>
      <trkpt lat="48.26585" lon="3.21444">
        <ele>123</ele>
        <time>2012-04-12T16:14:27.000Z</time>
      </trkpt>
      <trkpt lat="48.26582" lon="3.21438">
        <ele>129</ele>
        <time>2012-04-12T16:14:31.000Z</time>
      </trkpt>
      <trkpt lat="48.26579" lon="3.21432">
        <ele>128</ele>
        <time>2012-04-12T16:14:34.000Z</time>
      </trkpt>
      <trkpt lat="48.26577" lon="3.21425">
        <ele>127</ele>
        <time>2012-04-12T16:14:37.000Z</time>
      </trkpt>
      <trkpt lat="48.26575" lon="3.21419">
        <ele>127</ele>
        <time>2012-04-12T16:14:40.000Z</time>
      </trkpt>
      <trkpt lat="48.26573" lon="3.2141">
        <ele>126</ele>
        <time>2012-04-12T16:14:43.000Z</time>
      </trkpt>
      <trkpt lat="48.26571" lon="3.21404">
        <ele>126</ele>
        <time>2012-04-12T16:14:46.000Z</time>
      </trkpt>
      <trkpt lat="48.26568" lon="3.21397">
        <ele>126</ele>
        <time>2012-04-12T16:14:49.000Z</time>
      </trkpt>
      <trkpt lat="48.26563" lon="3.21391">
        <ele>127</ele>
        <time>2012-04-12T16:14:52.000Z</time>
      </trkpt>
      <trkpt lat="48.26558" lon="3.21386">
        <ele>127</ele>
        <time>2012-04-12T16:14:55.000Z</time>
      </trkpt>
      <trkpt lat="48.26552" lon="3.21386">
        <ele>128</ele>
        <time>2012-04-12T16:14:58.000Z</time>
      </trkpt>
      <trkpt lat="48.26546" lon="3.21386">
        <ele>128</ele>
        <time>2012-04-12T16:15:01.000Z</time>
      </trkpt>
      <trkpt lat="48.2654" lon="3.21391">
        <ele>129</ele>
        <time>2012-04-12T16:15:04.000Z</time>
      </trkpt>
      <trkpt lat="48.26534" lon="3.21393">
        <ele>129</ele>
        <time>2012-04-12T16:15:06.000Z</time>
      </trkpt>
      <trkpt lat="48.26528" lon="3.21395">
        <ele>130</ele>
        <time>2012-04-12T16:15:09.000Z</time>
      </trkpt>
      <trkpt lat="48.26524" lon="3.21397">
        <ele>130</ele>
        <time>2012-04-12T16:15:11.000Z</time>
      </trkpt>
      <trkpt lat="48.26518" lon="3.21402">
        <ele>131</ele>
        <time>2012-04-12T16:15:13.000Z</time>
      </trkpt>
      <trkpt lat="48.26512" lon="3.21406">
        <ele>132</ele>
        <time>2012-04-12T16:15:16.000Z</time>
      </trkpt>
      <trkpt lat="48.26506" lon="3.21408">
        <ele>133</ele>
        <time>2012-04-12T16:15:18.000Z</time>
      </trkpt>
      <trkpt lat="48.26501" lon="3.2141">
        <ele>134</ele>
        <time>2012-04-12T16:15:20.000Z</time>
      </trkpt>
      <trkpt lat="48.26497" lon="3.21412">
        <ele>136</ele>
        <time>2012-04-12T16:15:22.000Z</time>
      </trkpt>
      <trkpt lat="48.26491" lon="3.21417">
        <ele>137</ele>
        <time>2012-04-12T16:15:24.000Z</time>
      </trkpt>
      <trkpt lat="48.26485" lon="3.21421">
        <ele>138</ele>
        <time>2012-04-12T16:15:27.000Z</time>
      </trkpt>
      <trkpt lat="48.2648" lon="3.21423">
        <ele>138</ele>
        <time>2012-04-12T16:15:29.000Z</time>
      </trkpt>
      <trkpt lat="48.26474" lon="3.21425">
        <ele>139</ele>
        <time>2012-04-12T16:15:31.000Z</time>
      </trkpt>
      <trkpt lat="48.26469" lon="3.21429">
        <ele>139</ele>
        <time>2012-04-12T16:15:33.000Z</time>
      </trkpt>
      <trkpt lat="48.26464" lon="3.21432">
        <ele>139</ele>
        <time>2012-04-12T16:15:35.000Z</time>
      </trkpt>
      <trkpt lat="48.26459" lon="3.21436">
        <ele>140</ele>
        <time>2012-04-12T16:15:37.000Z</time>
      </trkpt>
      <trkpt lat="48.26455" lon="3.2144">
        <ele>140</ele>
        <time>2012-04-12T16:15:39.000Z</time>
      </trkpt>
      <trkpt lat="48.2645" lon="3.21442">
        <ele>140</ele>
        <time>2012-04-12T16:15:41.000Z</time>
      </trkpt>
      <trkpt lat="48.26445" lon="3.21447">
        <ele>140</ele>
        <time>2012-04-12T16:15:43.000Z</time>
      </trkpt>
      <trkpt lat="48.2644" lon="3.21449">
        <ele>140</ele>
        <time>2012-04-12T16:15:45.000Z</time>
      </trkpt>
      <trkpt lat="48.26436" lon="3.21453">
        <ele>141</ele>
        <time>2012-04-12T16:15:47.000Z</time>
      </trkpt>
      <trkpt lat="48.2643" lon="3.21457">
        <ele>141</ele>
        <time>2012-04-12T16:15:50.000Z</time>
      </trkpt>
      <trkpt lat="48.26426" lon="3.2146">
        <ele>141</ele>
        <time>2012-04-12T16:15:52.000Z</time>
      </trkpt>
      <trkpt lat="48.26422" lon="3.21464">
        <ele>141</ele>
        <time>2012-04-12T16:15:55.000Z</time>
      </trkpt>
      <trkpt lat="48.26417" lon="3.21468">
        <ele>142</ele>
        <time>2012-04-12T16:15:59.000Z</time>
      </trkpt>
      <trkpt lat="48.26413" lon="3.21472">
        <ele>143</ele>
        <time>2012-04-12T16:16:03.000Z</time>
      </trkpt>
      <trkpt lat="48.26409" lon="3.21477">
        <ele>143</ele>
        <time>2012-04-12T16:16:07.000Z</time>
      </trkpt>
      <trkpt lat="48.26404" lon="3.21481">
        <ele>144</ele>
        <time>2012-04-12T16:16:11.000Z</time>
      </trkpt>
      <trkpt lat="48.264" lon="3.21487">
        <ele>144</ele>
        <time>2012-04-12T16:16:15.000Z</time>
      </trkpt>
      <trkpt lat="48.26395" lon="3.21492">
        <ele>144</ele>
        <time>2012-04-12T16:16:19.000Z</time>
      </trkpt>
      <trkpt lat="48.26389" lon="3.21496">
        <ele>144</ele>
        <time>2012-04-12T16:16:23.000Z</time>
      </trkpt>
      <trkpt lat="48.26385" lon="3.215">
        <ele>144</ele>
        <time>2012-04-12T16:16:26.000Z</time>
      </trkpt>
      <trkpt lat="48.26379" lon="3.21504">
        <ele>146</ele>
        <time>2012-04-12T16:16:30.000Z</time>
      </trkpt>
      <trkpt lat="48.26374" lon="3.21509">
        <ele>146</ele>
        <time>2012-04-12T16:16:33.000Z</time>
      </trkpt>
      <trkpt lat="48.2637" lon="3.21513">
        <ele>147</ele>
        <time>2012-04-12T16:16:36.000Z</time>
      </trkpt>
      <trkpt lat="48.26365" lon="3.21517">
        <ele>147</ele>
        <time>2012-04-12T16:16:39.000Z</time>
      </trkpt>
      <trkpt lat="48.2636" lon="3.21522">
        <ele>147</ele>
        <time>2012-04-12T16:16:42.000Z</time>
      </trkpt>
      <trkpt lat="48.26355" lon="3.21528">
        <ele>147</ele>
        <time>2012-04-12T16:16:45.000Z</time>
      </trkpt>
      <trkpt lat="48.26352" lon="3.21535">
        <ele>147</ele>
        <time>2012-04-12T16:16:48.000Z</time>
      </trkpt>
      <trkpt lat="48.2635" lon="3.21541">
        <ele>147</ele>
        <time>2012-04-12T16:16:50.000Z</time>
      </trkpt>
      <trkpt lat="48.2635" lon="3.2155">
        <ele>147</ele>
        <time>2012-04-12T16:16:53.000Z</time>
      </trkpt>
      <trkpt lat="48.26352" lon="3.21558">
        <ele>147</ele>
        <time>2012-04-12T16:16:56.000Z</time>
      </trkpt>
      <trkpt lat="48.26354" lon="3.21565">
        <ele>147</ele>
        <time>2012-04-12T16:16:58.000Z</time>
      </trkpt>
      <trkpt lat="48.26356" lon="3.21571">
        <ele>147</ele>
        <time>2012-04-12T16:17:00.000Z</time>
      </trkpt>
      <trkpt lat="48.26358" lon="3.21578">
        <ele>147</ele>
        <time>2012-04-12T16:17:02.000Z</time>
      </trkpt>
      <trkpt lat="48.2636" lon="3.21584">
        <ele>149</ele>
        <time>2012-04-12T16:17:04.000Z</time>
      </trkpt>
      <trkpt lat="48.26363" lon="3.2159">
        <ele>150</ele>
        <time>2012-04-12T16:17:06.000Z</time>
      </trkpt>
      <trkpt lat="48.26365" lon="3.21597">
        <ele>150</ele>
        <time>2012-04-12T16:17:08.000Z</time>
      </trkpt>
      <trkpt lat="48.26367" lon="3.21603">
        <ele>150</ele>
        <time>2012-04-12T16:17:10.000Z</time>
      </trkpt>
      <trkpt lat="48.2637" lon="3.2161">
        <ele>150</ele>
        <time>2012-04-12T16:17:12.000Z</time>
      </trkpt>
      <trkpt lat="48.26373" lon="3.21618">
        <ele>151</ele>
        <time>2012-04-12T16:17:15.000Z</time>
      </trkpt>
      <trkpt lat="48.26376" lon="3.21625">
        <ele>151</ele>
        <time>2012-04-12T16:17:17.000Z</time>
      </trkpt>
      <trkpt lat="48.2638" lon="3.21633">
        <ele>151</ele>
        <time>2012-04-12T16:17:20.000Z</time>
      </trkpt>
      <trkpt lat="48.26382" lon="3.21642">
        <ele>151</ele>
        <time>2012-04-12T16:17:23.000Z</time>
      </trkpt>
      <trkpt lat="48.2638" lon="3.2165">
        <ele>151</ele>
        <time>2012-04-12T16:17:26.000Z</time>
      </trkpt>
      <trkpt lat="48.26375" lon="3.21657">
        <ele>151</ele>
        <time>2012-04-12T16:17:29.000Z</time>
      </trkpt>
      <trkpt lat="48.2637" lon="3.21663">
        <ele>151</ele>
        <time>2012-04-12T16:17:31.000Z</time>
      </trkpt>
      <trkpt lat="48.26366" lon="3.21666">
        <ele>151</ele>
        <time>2012-04-12T16:17:32.000Z</time>
      </trkpt>
      <trkpt lat="48.26362" lon="3.2167">
        <ele>152</ele>
        <time>2012-04-12T16:17:33.000Z</time>
      </trkpt>
      <trkpt lat="48.26353" lon="3.21676">
        <ele>152</ele>
        <time>2012-04-12T16:17:35.000Z</time>
      </trkpt>
      <trkpt lat="48.26348" lon="3.21676">
        <ele>151</ele>
        <time>2012-04-12T16:17:36.000Z</time>
      </trkpt>
      <trkpt lat="48.26342" lon="3.21678">
        <ele>151</ele>
        <time>2012-04-12T16:17:37.000Z</time>
      </trkpt>
      <trkpt lat="48.26337" lon="3.2168">
        <ele>151</ele>
        <time>2012-04-12T16:17:38.000Z</time>
      </trkpt>
      <trkpt lat="48.26331" lon="3.21685">
        <ele>147</ele>
        <time>2012-04-12T16:17:39.000Z</time>
      </trkpt>
      <trkpt lat="48.26325" lon="3.21689">
        <ele>146</ele>
        <time>2012-04-12T16:17:40.000Z</time>
      </trkpt>
      <trkpt lat="48.26319" lon="3.21693">
        <ele>146</ele>
        <time>2012-04-12T16:17:41.000Z</time>
      </trkpt>
      <trkpt lat="48.26312" lon="3.21698">
        <ele>146</ele>
        <time>2012-04-12T16:17:42.000Z</time>
      </trkpt>
      <trkpt lat="48.26305" lon="3.21704">
        <ele>145</ele>
        <time>2012-04-12T16:17:43.000Z</time>
      </trkpt>
      <trkpt lat="48.26296" lon="3.21708">
        <ele>145</ele>
        <time>2012-04-12T16:17:44.000Z</time>
      </trkpt>
      <trkpt lat="48.26288" lon="3.21715">
        <ele>144</ele>
        <time>2012-04-12T16:17:45.000Z</time>
      </trkpt>
      <trkpt lat="48.26278" lon="3.21719">
        <ele>144</ele>
        <time>2012-04-12T16:17:46.000Z</time>
      </trkpt>
      <trkpt lat="48.26267" lon="3.21723">
        <ele>143</ele>
        <time>2012-04-12T16:17:47.000Z</time>
      </trkpt>
      <trkpt lat="48.26257" lon="3.2173">
        <ele>142</ele>
        <time>2012-04-12T16:17:48.000Z</time>
      </trkpt>
      <trkpt lat="48.26247" lon="3.21736">
        <ele>136</ele>
        <time>2012-04-12T16:17:49.000Z</time>
      </trkpt>
      <trkpt lat="48.26236" lon="3.21743">
        <ele>136</ele>
        <time>2012-04-12T16:17:50.000Z</time>
      </trkpt>
      <trkpt lat="48.26225" lon="3.21749">
        <ele>134</ele>
        <time>2012-04-12T16:17:51.000Z</time>
      </trkpt>
      <trkpt lat="48.26214" lon="3.21758">
        <ele>132</ele>
        <time>2012-04-12T16:17:52.000Z</time>
      </trkpt>
      <trkpt lat="48.26206" lon="3.21764">
        <ele>131</ele>
        <time>2012-04-12T16:17:53.000Z</time>
      </trkpt>
      <trkpt lat="48.26198" lon="3.21771">
        <ele>130</ele>
        <time>2012-04-12T16:17:54.000Z</time>
      </trkpt>
      <trkpt lat="48.26191" lon="3.21777">
        <ele>129</ele>
        <time>2012-04-12T16:17:55.000Z</time>
      </trkpt>
      <trkpt lat="48.26184" lon="3.21784">
        <ele>129</ele>
        <time>2012-04-12T16:17:56.000Z</time>
      </trkpt>
      <trkpt lat="48.26178" lon="3.2179">
        <ele>128</ele>
        <time>2012-04-12T16:17:57.000Z</time>
      </trkpt>
      <trkpt lat="48.26172" lon="3.21794">
        <ele>128</ele>
        <time>2012-04-12T16:17:58.000Z</time>
      </trkpt>
      <trkpt lat="48.26165" lon="3.21798">
        <ele>118</ele>
        <time>2012-04-12T16:17:59.000Z</time>
      </trkpt>
      <trkpt lat="48.26159" lon="3.21803">
        <ele>118</ele>
        <time>2012-04-12T16:18:00.000Z</time>
      </trkpt>
      <trkpt lat="48.26152" lon="3.21807">
        <ele>118</ele>
        <time>2012-04-12T16:18:01.000Z</time>
      </trkpt>
      <trkpt lat="48.26148" lon="3.21809">
        <ele>118</ele>
        <time>2012-04-12T16:18:02.000Z</time>
      </trkpt>
      <trkpt lat="48.26144" lon="3.21814">
        <ele>117</ele>
        <time>2012-04-12T16:18:03.000Z</time>
      </trkpt>
      <trkpt lat="48.2614" lon="3.2182">
        <ele>117</ele>
        <time>2012-04-12T16:18:04.000Z</time>
      </trkpt>
      <trkpt lat="48.26136" lon="3.21824">
        <ele>117</ele>
        <time>2012-04-12T16:18:05.000Z</time>
      </trkpt>
      <trkpt lat="48.26131" lon="3.21835">
        <ele>114</ele>
        <time>2012-04-12T16:18:07.000Z</time>
      </trkpt>
      <trkpt lat="48.26129" lon="3.21841">
        <ele>114</ele>
        <time>2012-04-12T16:18:08.000Z</time>
      </trkpt>
      <trkpt lat="48.26126" lon="3.21854">
        <ele>113</ele>
        <time>2012-04-12T16:18:10.000Z</time>
      </trkpt>
      <trkpt lat="48.26126" lon="3.21863">
        <ele>113</ele>
        <time>2012-04-12T16:18:11.000Z</time>
      </trkpt>
      <trkpt lat="48.26126" lon="3.21872">
        <ele>113</ele>
        <time>2012-04-12T16:18:12.000Z</time>
      </trkpt>
      <trkpt lat="48.26126" lon="3.2188">
        <ele>113</ele>
        <time>2012-04-12T16:18:13.000Z</time>
      </trkpt>
      <trkpt lat="48.26126" lon="3.21889">
        <ele>113</ele>
        <time>2012-04-12T16:18:14.000Z</time>
      </trkpt>
      <trkpt lat="48.26126" lon="3.21897">
        <ele>113</ele>
        <time>2012-04-12T16:18:15.000Z</time>
      </trkpt>
      <trkpt lat="48.26128" lon="3.21906">
        <ele>113</ele>
        <time>2012-04-12T16:18:16.000Z</time>
      </trkpt>
      <trkpt lat="48.26128" lon="3.21914">
        <ele>113</ele>
        <time>2012-04-12T16:18:17.000Z</time>
      </trkpt>
      <trkpt lat="48.26129" lon="3.21923">
        <ele>110</ele>
        <time>2012-04-12T16:18:18.000Z</time>
      </trkpt>
      <trkpt lat="48.26129" lon="3.21934">
        <ele>110</ele>
        <time>2012-04-12T16:18:19.000Z</time>
      </trkpt>
      <trkpt lat="48.2613" lon="3.21942">
        <ele>110</ele>
        <time>2012-04-12T16:18:20.000Z</time>
      </trkpt>
      <trkpt lat="48.26132" lon="3.21953">
        <ele>110</ele>
        <time>2012-04-12T16:18:21.000Z</time>
      </trkpt>
      <trkpt lat="48.26134" lon="3.21962">
        <ele>109</ele>
        <time>2012-04-12T16:18:22.000Z</time>
      </trkpt>
      <trkpt lat="48.26135" lon="3.21972">
        <ele>109</ele>
        <time>2012-04-12T16:18:23.000Z</time>
      </trkpt>
      <trkpt lat="48.26137" lon="3.21983">
        <ele>109</ele>
        <time>2012-04-12T16:18:24.000Z</time>
      </trkpt>
      <trkpt lat="48.26139" lon="3.21994">
        <ele>109</ele>
        <time>2012-04-12T16:18:25.000Z</time>
      </trkpt>
      <trkpt lat="48.2614" lon="3.22004">
        <ele>106</ele>
        <time>2012-04-12T16:18:26.000Z</time>
      </trkpt>
      <trkpt lat="48.26142" lon="3.22015">
        <ele>106</ele>
        <time>2012-04-12T16:18:27.000Z</time>
      </trkpt>
      <trkpt lat="48.26144" lon="3.22026">
        <ele>106</ele>
        <time>2012-04-12T16:18:28.000Z</time>
      </trkpt>
      <trkpt lat="48.26146" lon="3.22039">
        <ele>105</ele>
        <time>2012-04-12T16:18:29.000Z</time>
      </trkpt>
      <trkpt lat="48.26148" lon="3.2205">
        <ele>105</ele>
        <time>2012-04-12T16:18:30.000Z</time>
      </trkpt>
      <trkpt lat="48.26149" lon="3.2206">
        <ele>105</ele>
        <time>2012-04-12T16:18:31.000Z</time>
      </trkpt>
      <trkpt lat="48.26151" lon="3.22073">
        <ele>105</ele>
        <time>2012-04-12T16:18:32.000Z</time>
      </trkpt>
      <trkpt lat="48.26152" lon="3.22084">
        <ele>103</ele>
        <time>2012-04-12T16:18:33.000Z</time>
      </trkpt>
      <trkpt lat="48.26153" lon="3.22097">
        <ele>102</ele>
        <time>2012-04-12T16:18:34.000Z</time>
      </trkpt>
      <trkpt lat="48.26154" lon="3.2211">
        <ele>101</ele>
        <time>2012-04-12T16:18:35.000Z</time>
      </trkpt>
      <trkpt lat="48.26156" lon="3.22122">
        <ele>100</ele>
        <time>2012-04-12T16:18:36.000Z</time>
      </trkpt>
      <trkpt lat="48.26156" lon="3.22135">
        <ele>99</ele>
        <time>2012-04-12T16:18:37.000Z</time>
      </trkpt>
      <trkpt lat="48.26157" lon="3.22148">
        <ele>99</ele>
        <time>2012-04-12T16:18:38.000Z</time>
      </trkpt>
      <trkpt lat="48.26157" lon="3.22161">
        <ele>99</ele>
        <time>2012-04-12T16:18:39.000Z</time>
      </trkpt>
      <trkpt lat="48.26156" lon="3.22174">
        <ele>97</ele>
        <time>2012-04-12T16:18:40.000Z</time>
      </trkpt>
      <trkpt lat="48.26156" lon="3.22189">
        <ele>96</ele>
        <time>2012-04-12T16:18:41.000Z</time>
      </trkpt>
      <trkpt lat="48.26154" lon="3.22202">
        <ele>95</ele>
        <time>2012-04-12T16:18:42.000Z</time>
      </trkpt>
      <trkpt lat="48.26154" lon="3.22217">
        <ele>95</ele>
        <time>2012-04-12T16:18:43.000Z</time>
      </trkpt>
      <trkpt lat="48.26153" lon="3.22232">
        <ele>95</ele>
        <time>2012-04-12T16:18:44.000Z</time>
      </trkpt>
      <trkpt lat="48.26153" lon="3.22245">
        <ele>95</ele>
        <time>2012-04-12T16:18:45.000Z</time>
      </trkpt>
      <trkpt lat="48.26152" lon="3.2226">
        <ele>93</ele>
        <time>2012-04-12T16:18:46.000Z</time>
      </trkpt>
      <trkpt lat="48.26152" lon="3.22273">
        <ele>92</ele>
        <time>2012-04-12T16:18:47.000Z</time>
      </trkpt>
      <trkpt lat="48.26151" lon="3.22288">
        <ele>91</ele>
        <time>2012-04-12T16:18:48.000Z</time>
      </trkpt>
      <trkpt lat="48.2615" lon="3.22303">
        <ele>91</ele>
        <time>2012-04-12T16:18:49.000Z</time>
      </trkpt>
      <trkpt lat="48.26149" lon="3.22318">
        <ele>91</ele>
        <time>2012-04-12T16:18:50.000Z</time>
      </trkpt>
      <trkpt lat="48.26148" lon="3.22328">
        <ele>91</ele>
        <time>2012-04-12T16:18:51.000Z</time>
      </trkpt>
      <trkpt lat="48.26147" lon="3.22337">
        <ele>89</ele>
        <time>2012-04-12T16:18:52.000Z</time>
      </trkpt>
      <trkpt lat="48.26146" lon="3.22348">
        <ele>88</ele>
        <time>2012-04-12T16:18:54.000Z</time>
      </trkpt>
      <trkpt lat="48.26146" lon="3.22359">
        <ele>88</ele>
        <time>2012-04-12T16:18:56.000Z</time>
      </trkpt>
      <trkpt lat="48.26145" lon="3.22369">
        <ele>87</ele>
        <time>2012-04-12T16:18:58.000Z</time>
      </trkpt>
      <trkpt lat="48.26145" lon="3.22378">
        <ele>87</ele>
        <time>2012-04-12T16:18:59.000Z</time>
      </trkpt>
      <trkpt lat="48.26147" lon="3.22391">
        <ele>87</ele>
        <time>2012-04-12T16:19:01.000Z</time>
      </trkpt>
      <trkpt lat="48.26148" lon="3.22399">
        <ele>87</ele>
        <time>2012-04-12T16:19:02.000Z</time>
      </trkpt>
      <trkpt lat="48.2615" lon="3.22412">
        <ele>87</ele>
        <time>2012-04-12T16:19:04.000Z</time>
      </trkpt>
      <trkpt lat="48.26151" lon="3.22425">
        <ele>85</ele>
        <time>2012-04-12T16:19:06.000Z</time>
      </trkpt>
      <trkpt lat="48.26152" lon="3.22434">
        <ele>85</ele>
        <time>2012-04-12T16:19:07.000Z</time>
      </trkpt>
      <trkpt lat="48.26153" lon="3.22444">
        <ele>84</ele>
        <time>2012-04-12T16:19:09.000Z</time>
      </trkpt>
      <trkpt lat="48.26157" lon="3.22438">
        <ele>85</ele>
        <time>2012-04-12T16:19:15.000Z</time>
      </trkpt>
      <trkpt lat="48.26157" lon="3.22438">
        <ele>85</ele>
        <time>2012-04-12T16:19:15.000Z</time>
      </trkpt>
      <trkpt lat="48.26157" lon="3.22438">
        <ele>85</ele>
        <time>2012-04-12T16:19:16.000Z</time>
      </trkpt>
      <trkpt lat="48.26154" lon="3.22429">
        <ele>85</ele>
        <time>2012-04-12T16:19:17.000Z</time>
      </trkpt>
      <trkpt lat="48.26152" lon="3.22419">
        <ele>86</ele>
        <time>2012-04-12T16:19:19.000Z</time>
      </trkpt>
      <trkpt lat="48.2615" lon="3.2241">
        <ele>87</ele>
        <time>2012-04-12T16:19:21.000Z</time>
      </trkpt>
      <trkpt lat="48.26149" lon="3.22402">
        <ele>87</ele>
        <time>2012-04-12T16:19:23.000Z</time>
      </trkpt>
      <trkpt lat="48.26148" lon="3.22391">
        <ele>87</ele>
        <time>2012-04-12T16:19:25.000Z</time>
      </trkpt>
      <trkpt lat="48.26146" lon="3.22382">
        <ele>87</ele>
        <time>2012-04-12T16:19:27.000Z</time>
      </trkpt>
      <trkpt lat="48.26144" lon="3.22374">
        <ele>87</ele>
        <time>2012-04-12T16:19:29.000Z</time>
      </trkpt>
      <trkpt lat="48.26142" lon="3.22365">
        <ele>87</ele>
        <time>2012-04-12T16:19:31.000Z</time>
      </trkpt>
      <trkpt lat="48.26139" lon="3.22356">
        <ele>87</ele>
        <time>2012-04-12T16:19:33.000Z</time>
      </trkpt>
      <trkpt lat="48.26137" lon="3.22348">
        <ele>88</ele>
        <time>2012-04-12T16:19:35.000Z</time>
      </trkpt>
      <trkpt lat="48.26134" lon="3.22339">
        <ele>88</ele>
        <time>2012-04-12T16:19:37.000Z</time>
      </trkpt>
      <trkpt lat="48.26131" lon="3.22331">
        <ele>90</ele>
        <time>2012-04-12T16:19:39.000Z</time>
      </trkpt>
      <trkpt lat="48.26129" lon="3.22324">
        <ele>89</ele>
        <time>2012-04-12T16:19:40.000Z</time>
      </trkpt>
      <trkpt lat="48.26126" lon="3.22316">
        <ele>89</ele>
        <time>2012-04-12T16:19:42.000Z</time>
      </trkpt>
      <trkpt lat="48.26122" lon="3.22309">
        <ele>89</ele>
        <time>2012-04-12T16:19:44.000Z</time>
      </trkpt>
      <trkpt lat="48.26119" lon="3.22301">
        <ele>89</ele>
        <time>2012-04-12T16:19:46.000Z</time>
      </trkpt>
      <trkpt lat="48.26116" lon="3.22292">
        <ele>89</ele>
        <time>2012-04-12T16:19:48.000Z</time>
      </trkpt>
      <trkpt lat="48.26113" lon="3.22284">
        <ele>89</ele>
        <time>2012-04-12T16:19:50.000Z</time>
      </trkpt>
      <trkpt lat="48.2611" lon="3.22273">
        <ele>89</ele>
        <time>2012-04-12T16:19:52.000Z</time>
      </trkpt>
      <trkpt lat="48.26107" lon="3.22264">
        <ele>89</ele>
        <time>2012-04-12T16:19:54.000Z</time>
      </trkpt>
      <trkpt lat="48.26104" lon="3.22253">
        <ele>89</ele>
        <time>2012-04-12T16:19:56.000Z</time>
      </trkpt>
      <trkpt lat="48.26101" lon="3.22245">
        <ele>90</ele>
        <time>2012-04-12T16:19:58.000Z</time>
      </trkpt>
      <trkpt lat="48.26098" lon="3.22236">
        <ele>91</ele>
        <time>2012-04-12T16:20:00.000Z</time>
      </trkpt>
      <trkpt lat="48.26095" lon="3.22228">
        <ele>91</ele>
        <time>2012-04-12T16:20:02.000Z</time>
      </trkpt>
      <trkpt lat="48.26092" lon="3.22217">
        <ele>92</ele>
        <time>2012-04-12T16:20:04.000Z</time>
      </trkpt>
      <trkpt lat="48.26089" lon="3.22208">
        <ele>92</ele>
        <time>2012-04-12T16:20:06.000Z</time>
      </trkpt>
      <trkpt lat="48.26086" lon="3.22198">
        <ele>92</ele>
        <time>2012-04-12T16:20:08.000Z</time>
      </trkpt>
      <trkpt lat="48.26082" lon="3.22187">
        <ele>90</ele>
        <time>2012-04-12T16:20:10.000Z</time>
      </trkpt>
      <trkpt lat="48.26077" lon="3.22178">
        <ele>91</ele>
        <time>2012-04-12T16:20:12.000Z</time>
      </trkpt>
      <trkpt lat="48.26072" lon="3.2217">
        <ele>91</ele>
        <time>2012-04-12T16:20:14.000Z</time>
      </trkpt>
      <trkpt lat="48.26065" lon="3.22161">
        <ele>92</ele>
        <time>2012-04-12T16:20:16.000Z</time>
      </trkpt>
      <trkpt lat="48.26058" lon="3.22155">
        <ele>93</ele>
        <time>2012-04-12T16:20:18.000Z</time>
      </trkpt>
      <trkpt lat="48.26054" lon="3.2215">
        <ele>93</ele>
        <time>2012-04-12T16:20:19.000Z</time>
      </trkpt>
      <trkpt lat="48.26046" lon="3.22144">
        <ele>93</ele>
        <time>2012-04-12T16:20:21.000Z</time>
      </trkpt>
      <trkpt lat="48.26042" lon="3.22142">
        <ele>93</ele>
        <time>2012-04-12T16:20:22.000Z</time>
      </trkpt>
      <trkpt lat="48.26034" lon="3.22135">
        <ele>93</ele>
        <time>2012-04-12T16:20:24.000Z</time>
      </trkpt>
      <trkpt lat="48.26027" lon="3.22129">
        <ele>94</ele>
        <time>2012-04-12T16:20:26.000Z</time>
      </trkpt>
      <trkpt lat="48.26019" lon="3.22125">
        <ele>94</ele>
        <time>2012-04-12T16:20:28.000Z</time>
      </trkpt>
      <trkpt lat="48.26013" lon="3.2212">
        <ele>94</ele>
        <time>2012-04-12T16:20:30.000Z</time>
      </trkpt>
      <trkpt lat="48.26005" lon="3.22118">
        <ele>94</ele>
        <time>2012-04-12T16:20:32.000Z</time>
      </trkpt>
      <trkpt lat="48.25998" lon="3.22116">
        <ele>95</ele>
        <time>2012-04-12T16:20:34.000Z</time>
      </trkpt>
      <trkpt lat="48.25991" lon="3.22114">
        <ele>95</ele>
        <time>2012-04-12T16:20:36.000Z</time>
      </trkpt>
      <trkpt lat="48.25985" lon="3.22114">
        <ele>95</ele>
        <time>2012-04-12T16:20:38.000Z</time>
      </trkpt>
      <trkpt lat="48.25978" lon="3.22114">
        <ele>95</ele>
        <time>2012-04-12T16:20:40.000Z</time>
      </trkpt>
      <trkpt lat="48.25972" lon="3.22114">
        <ele>95</ele>
        <time>2012-04-12T16:20:42.000Z</time>
      </trkpt>
      <trkpt lat="48.25967" lon="3.22114">
        <ele>95</ele>
        <time>2012-04-12T16:20:44.000Z</time>
      </trkpt>
      <trkpt lat="48.25961" lon="3.22116">
        <ele>95</ele>
        <time>2012-04-12T16:20:46.000Z</time>
      </trkpt>
      <trkpt lat="48.25955" lon="3.22118">
        <ele>95</ele>
        <time>2012-04-12T16:20:48.000Z</time>
      </trkpt>
      <trkpt lat="48.2595" lon="3.2212">
        <ele>95</ele>
        <time>2012-04-12T16:20:50.000Z</time>
      </trkpt>
      <trkpt lat="48.25943" lon="3.22122">
        <ele>96</ele>
        <time>2012-04-12T16:20:52.000Z</time>
      </trkpt>
      <trkpt lat="48.25938" lon="3.22125">
        <ele>96</ele>
        <time>2012-04-12T16:20:54.000Z</time>
      </trkpt>
      <trkpt lat="48.2593" lon="3.22127">
        <ele>96</ele>
        <time>2012-04-12T16:20:56.000Z</time>
      </trkpt>
      <trkpt lat="48.25923" lon="3.22131">
        <ele>95</ele>
        <time>2012-04-12T16:20:58.000Z</time>
      </trkpt>
      <trkpt lat="48.25915" lon="3.22133">
        <ele>95</ele>
        <time>2012-04-12T16:21:00.000Z</time>
      </trkpt>
      <trkpt lat="48.25911" lon="3.22135">
        <ele>95</ele>
        <time>2012-04-12T16:21:01.000Z</time>
      </trkpt>
      <trkpt lat="48.25907" lon="3.22138">
        <ele>95</ele>
        <time>2012-04-12T16:21:02.000Z</time>
      </trkpt>
      <trkpt lat="48.25902" lon="3.2214">
        <ele>95</ele>
        <time>2012-04-12T16:21:03.000Z</time>
      </trkpt>
      <trkpt lat="48.25895" lon="3.22142">
        <ele>95</ele>
        <time>2012-04-12T16:21:05.000Z</time>
      </trkpt>
      <trkpt lat="48.2589" lon="3.22144">
        <ele>95</ele>
        <time>2012-04-12T16:21:06.000Z</time>
      </trkpt>
      <trkpt lat="48.25883" lon="3.22148">
        <ele>94</ele>
        <time>2012-04-12T16:21:08.000Z</time>
      </trkpt>
      <trkpt lat="48.25876" lon="3.22148">
        <ele>94</ele>
        <time>2012-04-12T16:21:10.000Z</time>
      </trkpt>
      <trkpt lat="48.25871" lon="3.22144">
        <ele>94</ele>
        <time>2012-04-12T16:21:12.000Z</time>
      </trkpt>
      <trkpt lat="48.25865" lon="3.22138">
        <ele>94</ele>
        <time>2012-04-12T16:21:14.000Z</time>
      </trkpt>
      <trkpt lat="48.25858" lon="3.22129">
        <ele>94</ele>
        <time>2012-04-12T16:21:16.000Z</time>
      </trkpt>
      <trkpt lat="48.25853" lon="3.2212">
        <ele>94</ele>
        <time>2012-04-12T16:21:18.000Z</time>
      </trkpt>
      <trkpt lat="48.25846" lon="3.22112">
        <ele>95</ele>
        <time>2012-04-12T16:21:20.000Z</time>
      </trkpt>
      <trkpt lat="48.2584" lon="3.22103">
        <ele>95</ele>
        <time>2012-04-12T16:21:22.000Z</time>
      </trkpt>
      <trkpt lat="48.25834" lon="3.22097">
        <ele>95</ele>
        <time>2012-04-12T16:21:24.000Z</time>
      </trkpt>
      <trkpt lat="48.25829" lon="3.22092">
        <ele>94</ele>
        <time>2012-04-12T16:21:25.000Z</time>
      </trkpt>
      <trkpt lat="48.25823" lon="3.22086">
        <ele>93</ele>
        <time>2012-04-12T16:21:27.000Z</time>
      </trkpt>
      <trkpt lat="48.25819" lon="3.22082">
        <ele>95</ele>
        <time>2012-04-12T16:21:28.000Z</time>
      </trkpt>
      <trkpt lat="48.25812" lon="3.22073">
        <ele>95</ele>
        <time>2012-04-12T16:21:30.000Z</time>
      </trkpt>
      <trkpt lat="48.25808" lon="3.22069">
        <ele>94</ele>
        <time>2012-04-12T16:21:31.000Z</time>
      </trkpt>
      <trkpt lat="48.258" lon="3.2206">
        <ele>94</ele>
        <time>2012-04-12T16:21:33.000Z</time>
      </trkpt>
      <trkpt lat="48.25794" lon="3.22054">
        <ele>94</ele>
        <time>2012-04-12T16:21:35.000Z</time>
      </trkpt>
      <trkpt lat="48.2579" lon="3.2205">
        <ele>94</ele>
        <time>2012-04-12T16:21:36.000Z</time>
      </trkpt>
      <trkpt lat="48.25783" lon="3.22039">
        <ele>94</ele>
        <time>2012-04-12T16:21:38.000Z</time>
      </trkpt>
      <trkpt lat="48.25779" lon="3.22034">
        <ele>94</ele>
        <time>2012-04-12T16:21:39.000Z</time>
      </trkpt>
      <trkpt lat="48.25771" lon="3.22026">
        <ele>94</ele>
        <time>2012-04-12T16:21:41.000Z</time>
      </trkpt>
      <trkpt lat="48.25764" lon="3.22015">
        <ele>94</ele>
        <time>2012-04-12T16:21:43.000Z</time>
      </trkpt>
      <trkpt lat="48.25758" lon="3.22004">
        <ele>94</ele>
        <time>2012-04-12T16:21:45.000Z</time>
      </trkpt>
      <trkpt lat="48.25753" lon="3.21998">
        <ele>94</ele>
        <time>2012-04-12T16:21:46.000Z</time>
      </trkpt>
      <trkpt lat="48.25749" lon="3.21994">
        <ele>93</ele>
        <time>2012-04-12T16:21:47.000Z</time>
      </trkpt>
      <trkpt lat="48.25746" lon="3.21987">
        <ele>93</ele>
        <time>2012-04-12T16:21:48.000Z</time>
      </trkpt>
      <trkpt lat="48.25741" lon="3.21981">
        <ele>94</ele>
        <time>2012-04-12T16:21:49.000Z</time>
      </trkpt>
      <trkpt lat="48.25737" lon="3.21977">
        <ele>94</ele>
        <time>2012-04-12T16:21:50.000Z</time>
      </trkpt>
      <trkpt lat="48.25733" lon="3.2197">
        <ele>94</ele>
        <time>2012-04-12T16:21:51.000Z</time>
      </trkpt>
      <trkpt lat="48.25728" lon="3.21966">
        <ele>94</ele>
        <time>2012-04-12T16:21:52.000Z</time>
      </trkpt>
      <trkpt lat="48.25724" lon="3.21959">
        <ele>94</ele>
        <time>2012-04-12T16:21:53.000Z</time>
      </trkpt>
      <trkpt lat="48.25717" lon="3.21949">
        <ele>94</ele>
        <time>2012-04-12T16:21:55.000Z</time>
      </trkpt>
      <trkpt lat="48.25712" lon="3.21944">
        <ele>94</ele>
        <time>2012-04-12T16:21:56.000Z</time>
      </trkpt>
      <trkpt lat="48.25708" lon="3.21938">
        <ele>94</ele>
        <time>2012-04-12T16:21:57.000Z</time>
      </trkpt>
      <trkpt lat="48.25704" lon="3.21934">
        <ele>94</ele>
        <time>2012-04-12T16:21:58.000Z</time>
      </trkpt>
      <trkpt lat="48.257" lon="3.21927">
        <ele>94</ele>
        <time>2012-04-12T16:21:59.000Z</time>
      </trkpt>
      <trkpt lat="48.25695" lon="3.21923">
        <ele>93</ele>
        <time>2012-04-12T16:22:00.000Z</time>
      </trkpt>
      <trkpt lat="48.25692" lon="3.21916">
        <ele>96</ele>
        <time>2012-04-12T16:22:01.000Z</time>
      </trkpt>
      <trkpt lat="48.25688" lon="3.2191">
        <ele>96</ele>
        <time>2012-04-12T16:22:02.000Z</time>
      </trkpt>
      <trkpt lat="48.25683" lon="3.21906">
        <ele>96</ele>
        <time>2012-04-12T16:22:03.000Z</time>
      </trkpt>
      <trkpt lat="48.25678" lon="3.21899">
        <ele>96</ele>
        <time>2012-04-12T16:22:04.000Z</time>
      </trkpt>
      <trkpt lat="48.25674" lon="3.21893">
        <ele>96</ele>
        <time>2012-04-12T16:22:05.000Z</time>
      </trkpt>
      <trkpt lat="48.2567" lon="3.21886">
        <ele>97</ele>
        <time>2012-04-12T16:22:06.000Z</time>
      </trkpt>
      <trkpt lat="48.25665" lon="3.21882">
        <ele>94</ele>
        <time>2012-04-12T16:22:07.000Z</time>
      </trkpt>
      <trkpt lat="48.25661" lon="3.21876">
        <ele>94</ele>
        <time>2012-04-12T16:22:08.000Z</time>
      </trkpt>
      <trkpt lat="48.25656" lon="3.21869">
        <ele>94</ele>
        <time>2012-04-12T16:22:09.000Z</time>
      </trkpt>
      <trkpt lat="48.25651" lon="3.21865">
        <ele>95</ele>
        <time>2012-04-12T16:22:10.000Z</time>
      </trkpt>
      <trkpt lat="48.25647" lon="3.21859">
        <ele>95</ele>
        <time>2012-04-12T16:22:11.000Z</time>
      </trkpt>
      <trkpt lat="48.25643" lon="3.21852">
        <ele>95</ele>
        <time>2012-04-12T16:22:12.000Z</time>
      </trkpt>
      <trkpt lat="48.25638" lon="3.21848">
        <ele>95</ele>
        <time>2012-04-12T16:22:13.000Z</time>
      </trkpt>
      <trkpt lat="48.25635" lon="3.21841">
        <ele>95</ele>
        <time>2012-04-12T16:22:14.000Z</time>
      </trkpt>
      <trkpt lat="48.25631" lon="3.21835">
        <ele>95</ele>
        <time>2012-04-12T16:22:15.000Z</time>
      </trkpt>
      <trkpt lat="48.25627" lon="3.21831">
        <ele>97</ele>
        <time>2012-04-12T16:22:16.000Z</time>
      </trkpt>
      <trkpt lat="48.25622" lon="3.21824">
        <ele>97</ele>
        <time>2012-04-12T16:22:17.000Z</time>
      </trkpt>
      <trkpt lat="48.25618" lon="3.21818">
        <ele>97</ele>
        <time>2012-04-12T16:22:18.000Z</time>
      </trkpt>
      <trkpt lat="48.2561" lon="3.21807">
        <ele>97</ele>
        <time>2012-04-12T16:22:20.000Z</time>
      </trkpt>
      <trkpt lat="48.25606" lon="3.21803">
        <ele>97</ele>
        <time>2012-04-12T16:22:21.000Z</time>
      </trkpt>
      <trkpt lat="48.25603" lon="3.21796">
        <ele>97</ele>
        <time>2012-04-12T16:22:22.000Z</time>
      </trkpt>
      <trkpt lat="48.25599" lon="3.21792">
        <ele>97</ele>
        <time>2012-04-12T16:22:23.000Z</time>
      </trkpt>
      <trkpt lat="48.25594" lon="3.21786">
        <ele>97</ele>
        <time>2012-04-12T16:22:24.000Z</time>
      </trkpt>
      <trkpt lat="48.25587" lon="3.21775">
        <ele>97</ele>
        <time>2012-04-12T16:22:26.000Z</time>
      </trkpt>
      <trkpt lat="48.25583" lon="3.21771">
        <ele>99</ele>
        <time>2012-04-12T16:22:27.000Z</time>
      </trkpt>
      <trkpt lat="48.25575" lon="3.2176">
        <ele>99</ele>
        <time>2012-04-12T16:22:29.000Z</time>
      </trkpt>
      <trkpt lat="48.25571" lon="3.21756">
        <ele>99</ele>
        <time>2012-04-12T16:22:30.000Z</time>
      </trkpt>
      <trkpt lat="48.25568" lon="3.21749">
        <ele>100</ele>
        <time>2012-04-12T16:22:31.000Z</time>
      </trkpt>
      <trkpt lat="48.25563" lon="3.21745">
        <ele>101</ele>
        <time>2012-04-12T16:22:32.000Z</time>
      </trkpt>
      <trkpt lat="48.25559" lon="3.21738">
        <ele>101</ele>
        <time>2012-04-12T16:22:33.000Z</time>
      </trkpt>
      <trkpt lat="48.25552" lon="3.21728">
        <ele>102</ele>
        <time>2012-04-12T16:22:35.000Z</time>
      </trkpt>
      <trkpt lat="48.25544" lon="3.21719">
        <ele>103</ele>
        <time>2012-04-12T16:22:37.000Z</time>
      </trkpt>
      <trkpt lat="48.2554" lon="3.21713">
        <ele>103</ele>
        <time>2012-04-12T16:22:38.000Z</time>
      </trkpt>
      <trkpt lat="48.25532" lon="3.21702">
        <ele>103</ele>
        <time>2012-04-12T16:22:40.000Z</time>
      </trkpt>
      <trkpt lat="48.25525" lon="3.21691">
        <ele>104</ele>
        <time>2012-04-12T16:22:42.000Z</time>
      </trkpt>
      <trkpt lat="48.2552" lon="3.21687">
        <ele>104</ele>
        <time>2012-04-12T16:22:43.000Z</time>
      </trkpt>
      <trkpt lat="48.25516" lon="3.2168">
        <ele>104</ele>
        <time>2012-04-12T16:22:44.000Z</time>
      </trkpt>
      <trkpt lat="48.25508" lon="3.2167">
        <ele>105</ele>
        <time>2012-04-12T16:22:46.000Z</time>
      </trkpt>
      <trkpt lat="48.25504" lon="3.21666">
        <ele>106</ele>
        <time>2012-04-12T16:22:47.000Z</time>
      </trkpt>
      <trkpt lat="48.255" lon="3.21659">
        <ele>105</ele>
        <time>2012-04-12T16:22:48.000Z</time>
      </trkpt>
      <trkpt lat="48.25496" lon="3.21655">
        <ele>107</ele>
        <time>2012-04-12T16:22:49.000Z</time>
      </trkpt>
      <trkpt lat="48.25491" lon="3.21648">
        <ele>107</ele>
        <time>2012-04-12T16:22:50.000Z</time>
      </trkpt>
      <trkpt lat="48.25484" lon="3.21638">
        <ele>108</ele>
        <time>2012-04-12T16:22:52.000Z</time>
      </trkpt>
      <trkpt lat="48.2548" lon="3.21633">
        <ele>108</ele>
        <time>2012-04-12T16:22:53.000Z</time>
      </trkpt>
      <trkpt lat="48.25475" lon="3.21627">
        <ele>108</ele>
        <time>2012-04-12T16:22:54.000Z</time>
      </trkpt>
      <trkpt lat="48.25471" lon="3.21623">
        <ele>108</ele>
        <time>2012-04-12T16:22:55.000Z</time>
      </trkpt>
      <trkpt lat="48.25467" lon="3.21616">
        <ele>108</ele>
        <time>2012-04-12T16:22:56.000Z</time>
      </trkpt>
      <trkpt lat="48.25459" lon="3.21605">
        <ele>108</ele>
        <time>2012-04-12T16:22:58.000Z</time>
      </trkpt>
      <trkpt lat="48.25455" lon="3.21601">
        <ele>108</ele>
        <time>2012-04-12T16:22:59.000Z</time>
      </trkpt>
      <trkpt lat="48.25452" lon="3.21595">
        <ele>108</ele>
        <time>2012-04-12T16:23:00.000Z</time>
      </trkpt>
      <trkpt lat="48.25447" lon="3.2159">
        <ele>109</ele>
        <time>2012-04-12T16:23:01.000Z</time>
      </trkpt>
      <trkpt lat="48.25443" lon="3.21584">
        <ele>109</ele>
        <time>2012-04-12T16:23:02.000Z</time>
      </trkpt>
      <trkpt lat="48.25436" lon="3.21573">
        <ele>107</ele>
        <time>2012-04-12T16:23:04.000Z</time>
      </trkpt>
      <trkpt lat="48.25431" lon="3.21567">
        <ele>107</ele>
        <time>2012-04-12T16:23:05.000Z</time>
      </trkpt>
      <trkpt lat="48.25424" lon="3.21558">
        <ele>107</ele>
        <time>2012-04-12T16:23:07.000Z</time>
      </trkpt>
      <trkpt lat="48.2542" lon="3.21552">
        <ele>107</ele>
        <time>2012-04-12T16:23:08.000Z</time>
      </trkpt>
      <trkpt lat="48.25415" lon="3.21548">
        <ele>111</ele>
        <time>2012-04-12T16:23:09.000Z</time>
      </trkpt>
      <trkpt lat="48.25408" lon="3.21539">
        <ele>111</ele>
        <time>2012-04-12T16:23:11.000Z</time>
      </trkpt>
      <trkpt lat="48.25404" lon="3.21532">
        <ele>111</ele>
        <time>2012-04-12T16:23:12.000Z</time>
      </trkpt>
      <trkpt lat="48.25398" lon="3.21524">
        <ele>111</ele>
        <time>2012-04-12T16:23:14.000Z</time>
      </trkpt>
      <trkpt lat="48.25395" lon="3.21517">
        <ele>111</ele>
        <time>2012-04-12T16:23:15.000Z</time>
      </trkpt>
      <trkpt lat="48.2539" lon="3.21513">
        <ele>111</ele>
        <time>2012-04-12T16:23:16.000Z</time>
      </trkpt>
      <trkpt lat="48.25384" lon="3.21504">
        <ele>112</ele>
        <time>2012-04-12T16:23:18.000Z</time>
      </trkpt>
      <trkpt lat="48.25379" lon="3.21498">
        <ele>113</ele>
        <time>2012-04-12T16:23:21.000Z</time>
      </trkpt>
      <trkpt lat="48.25379" lon="3.21498">
        <ele>113</ele>
        <time>2012-04-12T16:23:21.000Z</time>
      </trkpt>
      <trkpt lat="48.25379" lon="3.21498">
        <ele>113</ele>
        <time>2012-04-12T16:23:31.000Z</time>
      </trkpt>
      <trkpt lat="48.25381" lon="3.21511">
        <ele>112</ele>
        <time>2012-04-12T16:23:32.000Z</time>
      </trkpt>
      <trkpt lat="48.25381" lon="3.21511">
        <ele>112</ele>
        <time>2012-04-12T16:23:32.000Z</time>
      </trkpt>
      <trkpt lat="48.25381" lon="3.21511">
        <ele>112</ele>
        <time>2012-04-12T16:23:47.000Z</time>
      </trkpt>
      <trkpt lat="48.2538" lon="3.2152">
        <ele>112</ele>
        <time>2012-04-12T16:23:48.000Z</time>
      </trkpt>
      <trkpt lat="48.2538" lon="3.2152">
        <ele>112</ele>
        <time>2012-04-12T16:23:48.000Z</time>
      </trkpt>
      <trkpt lat="48.2538" lon="3.2152">
        <ele>112</ele>
        <time>2012-04-12T16:23:51.000Z</time>
      </trkpt>
      <trkpt lat="48.25378" lon="3.2153">
        <ele>113</ele>
        <time>2012-04-12T16:23:52.000Z</time>
      </trkpt>
      <trkpt lat="48.25378" lon="3.2153">
        <ele>113</ele>
        <time>2012-04-12T16:23:52.000Z</time>
      </trkpt>
      <trkpt lat="48.25378" lon="3.2153">
        <ele>113</ele>
        <time>2012-04-12T16:23:56.000Z</time>
      </trkpt>
      <trkpt lat="48.25376" lon="3.21543">
        <ele>113</ele>
        <time>2012-04-12T16:23:57.000Z</time>
      </trkpt>
      <trkpt lat="48.25376" lon="3.21543">
        <ele>113</ele>
        <time>2012-04-12T16:23:57.000Z</time>
      </trkpt>
      <trkpt lat="48.25376" lon="3.21543">
        <ele>113</ele>
        <time>2012-04-12T16:24:02.000Z</time>
      </trkpt>
      <trkpt lat="48.25372" lon="3.21556">
        <ele>114</ele>
        <time>2012-04-12T16:24:03.000Z</time>
      </trkpt>
      <trkpt lat="48.25372" lon="3.21556">
        <ele>114</ele>
        <time>2012-04-12T16:24:03.000Z</time>
      </trkpt>
      <trkpt lat="48.25372" lon="3.21556">
        <ele>114</ele>
        <time>2012-04-12T16:24:29.000Z</time>
      </trkpt>
      <trkpt lat="48.25377" lon="3.21552">
        <ele>113</ele>
        <time>2012-04-12T16:24:30.000Z</time>
      </trkpt>
      <trkpt lat="48.25377" lon="3.21552">
        <ele>113</ele>
        <time>2012-04-12T16:24:30.000Z</time>
      </trkpt>
      <trkpt lat="48.25377" lon="3.21552">
        <ele>113</ele>
        <time>2012-04-12T16:24:31.000Z</time>
      </trkpt>
      <trkpt lat="48.25381" lon="3.21545">
        <ele>113</ele>
        <time>2012-04-12T16:24:32.000Z</time>
      </trkpt>
      <trkpt lat="48.25381" lon="3.21545">
        <ele>113</ele>
        <time>2012-04-12T16:24:32.000Z</time>
      </trkpt>
      <trkpt lat="48.25381" lon="3.21545">
        <ele>113</ele>
        <time>2012-04-12T16:24:33.000Z</time>
      </trkpt>
      <trkpt lat="48.25385" lon="3.21524">
        <ele>112</ele>
        <time>2012-04-12T16:24:39.000Z</time>
      </trkpt>
      <trkpt lat="48.25385" lon="3.21524">
        <ele>112</ele>
        <time>2012-04-12T16:24:39.000Z</time>
      </trkpt>
      <trkpt lat="48.25385" lon="3.21524">
        <ele>112</ele>
        <time>2012-04-12T16:24:44.000Z</time>
      </trkpt>
      <trkpt lat="48.25387" lon="3.21515">
        <ele>112</ele>
        <time>2012-04-12T16:24:45.000Z</time>
      </trkpt>
      <trkpt lat="48.25387" lon="3.21515">
        <ele>112</ele>
        <time>2012-04-12T16:24:45.000Z</time>
      </trkpt>
      <trkpt lat="48.25387" lon="3.21515">
        <ele>112</ele>
        <time>2012-04-12T16:24:50.000Z</time>
      </trkpt>
      <trkpt lat="48.25381" lon="3.21504">
        <ele>112</ele>
        <time>2012-04-12T16:24:51.000Z</time>
      </trkpt>
      <trkpt lat="48.25381" lon="3.21504">
        <ele>112</ele>
        <time>2012-04-12T16:24:51.000Z</time>
      </trkpt>
      <trkpt lat="48.25381" lon="3.21504">
        <ele>112</ele>
        <time>2012-04-12T16:24:52.000Z</time>
      </trkpt>
      <trkpt lat="48.25377" lon="3.21498">
        <ele>113</ele>
        <time>2012-04-12T16:24:53.000Z</time>
      </trkpt>
      <trkpt lat="48.25372" lon="3.21492">
        <ele>113</ele>
        <time>2012-04-12T16:24:55.000Z</time>
      </trkpt>
      <trkpt lat="48.25367" lon="3.21483">
        <ele>114</ele>
        <time>2012-04-12T16:24:59.000Z</time>
      </trkpt>
      <trkpt lat="48.25367" lon="3.21483">
        <ele>114</ele>
        <time>2012-04-12T16:24:59.000Z</time>
      </trkpt>
      <trkpt lat="48.25367" lon="3.21483">
        <ele>114</ele>
        <time>2012-04-12T16:25:01.000Z</time>
      </trkpt>
      <trkpt lat="48.25362" lon="3.21479">
        <ele>114</ele>
        <time>2012-04-12T16:25:02.000Z</time>
      </trkpt>
      <trkpt lat="48.25362" lon="3.21479">
        <ele>114</ele>
        <time>2012-04-12T16:25:02.000Z</time>
      </trkpt>
      <trkpt lat="48.25362" lon="3.21479">
        <ele>114</ele>
        <time>2012-04-12T16:25:06.000Z</time>
      </trkpt>
      <trkpt lat="48.25352" lon="3.2147">
        <ele>115</ele>
        <time>2012-04-12T16:25:07.000Z</time>
      </trkpt>
      <trkpt lat="48.25352" lon="3.2147">
        <ele>115</ele>
        <time>2012-04-12T16:25:07.000Z</time>
      </trkpt>
      <trkpt lat="48.25352" lon="3.2147">
        <ele>115</ele>
        <time>2012-04-12T16:25:10.000Z</time>
      </trkpt>
      <trkpt lat="48.25346" lon="3.21462">
        <ele>115</ele>
        <time>2012-04-12T16:25:11.000Z</time>
      </trkpt>
      <trkpt lat="48.25346" lon="3.21462">
        <ele>115</ele>
        <time>2012-04-12T16:25:11.000Z</time>
      </trkpt>
      <trkpt lat="48.25346" lon="3.21462">
        <ele>115</ele>
        <time>2012-04-12T16:25:14.000Z</time>
      </trkpt>
      <trkpt lat="48.25338" lon="3.21453">
        <ele>116</ele>
        <time>2012-04-12T16:25:15.000Z</time>
      </trkpt>
      <trkpt lat="48.25338" lon="3.21453">
        <ele>116</ele>
        <time>2012-04-12T16:25:15.000Z</time>
      </trkpt>
      <trkpt lat="48.25338" lon="3.21453">
        <ele>116</ele>
        <time>2012-04-12T16:25:18.000Z</time>
      </trkpt>
      <trkpt lat="48.2533" lon="3.21442">
        <ele>121</ele>
        <time>2012-04-12T16:25:19.000Z</time>
      </trkpt>
      <trkpt lat="48.25326" lon="3.21436">
        <ele>121</ele>
        <time>2012-04-12T16:25:21.000Z</time>
      </trkpt>
      <trkpt lat="48.25322" lon="3.21427">
        <ele>121</ele>
        <time>2012-04-12T16:25:23.000Z</time>
      </trkpt>
      <trkpt lat="48.25319" lon="3.21421">
        <ele>121</ele>
        <time>2012-04-12T16:25:25.000Z</time>
      </trkpt>
      <trkpt lat="48.25315" lon="3.21412">
        <ele>121</ele>
        <time>2012-04-12T16:25:27.000Z</time>
      </trkpt>
      <trkpt lat="48.25311" lon="3.21406">
        <ele>122</ele>
        <time>2012-04-12T16:25:29.000Z</time>
      </trkpt>
      <trkpt lat="48.25309" lon="3.21397">
        <ele>122</ele>
        <time>2012-04-12T16:25:31.000Z</time>
      </trkpt>
      <trkpt lat="48.25307" lon="3.21384">
        <ele>123</ele>
        <time>2012-04-12T16:25:33.000Z</time>
      </trkpt>
      <trkpt lat="48.25306" lon="3.21372">
        <ele>123</ele>
        <time>2012-04-12T16:25:35.000Z</time>
      </trkpt>
      <trkpt lat="48.25304" lon="3.21361">
        <ele>123</ele>
        <time>2012-04-12T16:25:37.000Z</time>
      </trkpt>
      <trkpt lat="48.25303" lon="3.21352">
        <ele>123</ele>
        <time>2012-04-12T16:25:38.000Z</time>
      </trkpt>
      <trkpt lat="48.25302" lon="3.21339">
        <ele>123</ele>
        <time>2012-04-12T16:25:40.000Z</time>
      </trkpt>
      <trkpt lat="48.25299" lon="3.21326">
        <ele>124</ele>
        <time>2012-04-12T16:25:42.000Z</time>
      </trkpt>
      <trkpt lat="48.25298" lon="3.21316">
        <ele>125</ele>
        <time>2012-04-12T16:25:44.000Z</time>
      </trkpt>
      <trkpt lat="48.25297" lon="3.21305">
        <ele>125</ele>
        <time>2012-04-12T16:25:46.000Z</time>
      </trkpt>
      <trkpt lat="48.25296" lon="3.21296">
        <ele>125</ele>
        <time>2012-04-12T16:25:48.000Z</time>
      </trkpt>
      <trkpt lat="48.25295" lon="3.21286">
        <ele>125</ele>
        <time>2012-04-12T16:25:50.000Z</time>
      </trkpt>
      <trkpt lat="48.25294" lon="3.21277">
        <ele>126</ele>
        <time>2012-04-12T16:25:52.000Z</time>
      </trkpt>
      <trkpt lat="48.25292" lon="3.21266">
        <ele>126</ele>
        <time>2012-04-12T16:25:55.000Z</time>
      </trkpt>
      <trkpt lat="48.2529" lon="3.21256">
        <ele>126</ele>
        <time>2012-04-12T16:25:58.000Z</time>
      </trkpt>
      <trkpt lat="48.25288" lon="3.21249">
        <ele>128</ele>
        <time>2012-04-12T16:26:00.000Z</time>
      </trkpt>
      <trkpt lat="48.25285" lon="3.21243">
        <ele>128</ele>
        <time>2012-04-12T16:26:02.000Z</time>
      </trkpt>
      <trkpt lat="48.25283" lon="3.21236">
        <ele>128</ele>
        <time>2012-04-12T16:26:04.000Z</time>
      </trkpt>
      <trkpt lat="48.25278" lon="3.21221">
        <ele>129</ele>
        <time>2012-04-12T16:26:09.000Z</time>
      </trkpt>
      <trkpt lat="48.25278" lon="3.21221">
        <ele>129</ele>
        <time>2012-04-12T16:26:09.000Z</time>
      </trkpt>
      <trkpt lat="48.25278" lon="3.21221">
        <ele>129</ele>
        <time>2012-04-12T16:26:12.000Z</time>
      </trkpt>
      <trkpt lat="48.25275" lon="3.21208">
        <ele>129</ele>
        <time>2012-04-12T16:26:13.000Z</time>
      </trkpt>
      <trkpt lat="48.25275" lon="3.21208">
        <ele>129</ele>
        <time>2012-04-12T16:26:13.000Z</time>
      </trkpt>
      <trkpt lat="48.25275" lon="3.21208">
        <ele>129</ele>
        <time>2012-04-12T16:26:16.000Z</time>
      </trkpt>
      <trkpt lat="48.25268" lon="3.21193">
        <ele>129</ele>
        <time>2012-04-12T16:26:17.000Z</time>
      </trkpt>
      <trkpt lat="48.25268" lon="3.21193">
        <ele>129</ele>
        <time>2012-04-12T16:26:17.000Z</time>
      </trkpt>
      <trkpt lat="48.25268" lon="3.21193">
        <ele>129</ele>
        <time>2012-04-12T16:26:18.000Z</time>
      </trkpt>
      <trkpt lat="48.25266" lon="3.21187">
        <ele>129</ele>
        <time>2012-04-12T16:26:19.000Z</time>
      </trkpt>
      <trkpt lat="48.25264" lon="3.21178">
        <ele>129</ele>
        <time>2012-04-12T16:26:21.000Z</time>
      </trkpt>
      <trkpt lat="48.25261" lon="3.21168">
        <ele>129</ele>
        <time>2012-04-12T16:26:23.000Z</time>
      </trkpt>
      <trkpt lat="48.25255" lon="3.21157">
        <ele>130</ele>
        <time>2012-04-12T16:26:25.000Z</time>
      </trkpt>
      <trkpt lat="48.25252" lon="3.21148">
        <ele>131</ele>
        <time>2012-04-12T16:26:27.000Z</time>
      </trkpt>
      <trkpt lat="48.2525" lon="3.21142">
        <ele>134</ele>
        <time>2012-04-12T16:26:28.000Z</time>
      </trkpt>
      <trkpt lat="48.25248" lon="3.21131">
        <ele>134</ele>
        <time>2012-04-12T16:26:30.000Z</time>
      </trkpt>
      <trkpt lat="48.25247" lon="3.21118">
        <ele>134</ele>
        <time>2012-04-12T16:26:32.000Z</time>
      </trkpt>
      <trkpt lat="48.25246" lon="3.21103">
        <ele>133</ele>
        <time>2012-04-12T16:26:34.000Z</time>
      </trkpt>
      <trkpt lat="48.25245" lon="3.21088">
        <ele>132</ele>
        <time>2012-04-12T16:26:36.000Z</time>
      </trkpt>
      <trkpt lat="48.25245" lon="3.2108">
        <ele>132</ele>
        <time>2012-04-12T16:26:37.000Z</time>
      </trkpt>
      <trkpt lat="48.25245" lon="3.21071">
        <ele>134</ele>
        <time>2012-04-12T16:26:38.000Z</time>
      </trkpt>
      <trkpt lat="48.25245" lon="3.21062">
        <ele>135</ele>
        <time>2012-04-12T16:26:39.000Z</time>
      </trkpt>
      <trkpt lat="48.25246" lon="3.21054">
        <ele>136</ele>
        <time>2012-04-12T16:26:40.000Z</time>
      </trkpt>
      <trkpt lat="48.25246" lon="3.21039">
        <ele>137</ele>
        <time>2012-04-12T16:26:42.000Z</time>
      </trkpt>
      <trkpt lat="48.25245" lon="3.21026">
        <ele>137</ele>
        <time>2012-04-12T16:26:44.000Z</time>
      </trkpt>
      <trkpt lat="48.25245" lon="3.21018">
        <ele>137</ele>
        <time>2012-04-12T16:26:45.000Z</time>
      </trkpt>
      <trkpt lat="48.25244" lon="3.21002">
        <ele>137</ele>
        <time>2012-04-12T16:26:47.000Z</time>
      </trkpt>
      <trkpt lat="48.25241" lon="3.20987">
        <ele>138</ele>
        <time>2012-04-12T16:26:49.000Z</time>
      </trkpt>
      <trkpt lat="48.2524" lon="3.20974">
        <ele>139</ele>
        <time>2012-04-12T16:26:51.000Z</time>
      </trkpt>
      <trkpt lat="48.25238" lon="3.20962">
        <ele>139</ele>
        <time>2012-04-12T16:26:53.000Z</time>
      </trkpt>
      <trkpt lat="48.25236" lon="3.20949">
        <ele>139</ele>
        <time>2012-04-12T16:26:55.000Z</time>
      </trkpt>
      <trkpt lat="48.25234" lon="3.20936">
        <ele>139</ele>
        <time>2012-04-12T16:26:57.000Z</time>
      </trkpt>
      <trkpt lat="48.25231" lon="3.20925">
        <ele>139</ele>
        <time>2012-04-12T16:26:59.000Z</time>
      </trkpt>
      <trkpt lat="48.25227" lon="3.20914">
        <ele>139</ele>
        <time>2012-04-12T16:27:01.000Z</time>
      </trkpt>
      <trkpt lat="48.25223" lon="3.20906">
        <ele>139</ele>
        <time>2012-04-12T16:27:03.000Z</time>
      </trkpt>
      <trkpt lat="48.25221" lon="3.20899">
        <ele>140</ele>
        <time>2012-04-12T16:27:04.000Z</time>
      </trkpt>
      <trkpt lat="48.25217" lon="3.20891">
        <ele>140</ele>
        <time>2012-04-12T16:27:06.000Z</time>
      </trkpt>
      <trkpt lat="48.25211" lon="3.20882">
        <ele>140</ele>
        <time>2012-04-12T16:27:08.000Z</time>
      </trkpt>
      <trkpt lat="48.25206" lon="3.20876">
        <ele>140</ele>
        <time>2012-04-12T16:27:10.000Z</time>
      </trkpt>
      <trkpt lat="48.25202" lon="3.20869">
        <ele>140</ele>
        <time>2012-04-12T16:27:12.000Z</time>
      </trkpt>
      <trkpt lat="48.25192" lon="3.20856">
        <ele>140</ele>
        <time>2012-04-12T16:27:16.000Z</time>
      </trkpt>
      <trkpt lat="48.25192" lon="3.20856">
        <ele>140</ele>
        <time>2012-04-12T16:27:16.000Z</time>
      </trkpt>
      <trkpt lat="48.25192" lon="3.20856">
        <ele>140</ele>
        <time>2012-04-12T16:27:18.000Z</time>
      </trkpt>
      <trkpt lat="48.25184" lon="3.20848">
        <ele>139</ele>
        <time>2012-04-12T16:27:19.000Z</time>
      </trkpt>
      <trkpt lat="48.25175" lon="3.20837">
        <ele>139</ele>
        <time>2012-04-12T16:27:22.000Z</time>
      </trkpt>
      <trkpt lat="48.25165" lon="3.20829">
        <ele>137</ele>
        <time>2012-04-12T16:27:24.000Z</time>
      </trkpt>
      <trkpt lat="48.2516" lon="3.20824">
        <ele>137</ele>
        <time>2012-04-12T16:27:25.000Z</time>
      </trkpt>
      <trkpt lat="48.25154" lon="3.20818">
        <ele>136</ele>
        <time>2012-04-12T16:27:26.000Z</time>
      </trkpt>
      <trkpt lat="48.25149" lon="3.20812">
        <ele>136</ele>
        <time>2012-04-12T16:27:27.000Z</time>
      </trkpt>
      <trkpt lat="48.25144" lon="3.20807">
        <ele>136</ele>
        <time>2012-04-12T16:27:28.000Z</time>
      </trkpt>
      <trkpt lat="48.25138" lon="3.20801">
        <ele>135</ele>
        <time>2012-04-12T16:27:29.000Z</time>
      </trkpt>
      <trkpt lat="48.25134" lon="3.20794">
        <ele>135</ele>
        <time>2012-04-12T16:27:30.000Z</time>
      </trkpt>
      <trkpt lat="48.2513" lon="3.20788">
        <ele>135</ele>
        <time>2012-04-12T16:27:31.000Z</time>
      </trkpt>
      <trkpt lat="48.25126" lon="3.20784">
        <ele>135</ele>
        <time>2012-04-12T16:27:32.000Z</time>
      </trkpt>
      <trkpt lat="48.25122" lon="3.20777">
        <ele>135</ele>
        <time>2012-04-12T16:27:33.000Z</time>
      </trkpt>
      <trkpt lat="48.25118" lon="3.20773">
        <ele>134</ele>
        <time>2012-04-12T16:27:34.000Z</time>
      </trkpt>
      <trkpt lat="48.25113" lon="3.20764">
        <ele>134</ele>
        <time>2012-04-12T16:27:36.000Z</time>
      </trkpt>
      <trkpt lat="48.25106" lon="3.20754">
        <ele>134</ele>
        <time>2012-04-12T16:27:38.000Z</time>
      </trkpt>
      <trkpt lat="48.25102" lon="3.20745">
        <ele>133</ele>
        <time>2012-04-12T16:27:40.000Z</time>
      </trkpt>
      <trkpt lat="48.25097" lon="3.20736">
        <ele>134</ele>
        <time>2012-04-12T16:27:42.000Z</time>
      </trkpt>
      <trkpt lat="48.25091" lon="3.2073">
        <ele>134</ele>
        <time>2012-04-12T16:27:44.000Z</time>
      </trkpt>
      <trkpt lat="48.25087" lon="3.20721">
        <ele>134</ele>
        <time>2012-04-12T16:27:46.000Z</time>
      </trkpt>
      <trkpt lat="48.25082" lon="3.20715">
        <ele>135</ele>
        <time>2012-04-12T16:27:48.000Z</time>
      </trkpt>
      <trkpt lat="48.25076" lon="3.20708">
        <ele>136</ele>
        <time>2012-04-12T16:27:50.000Z</time>
      </trkpt>
      <trkpt lat="48.25071" lon="3.207">
        <ele>136</ele>
        <time>2012-04-12T16:27:52.000Z</time>
      </trkpt>
      <trkpt lat="48.25065" lon="3.20693">
        <ele>136</ele>
        <time>2012-04-12T16:27:54.000Z</time>
      </trkpt>
      <trkpt lat="48.25059" lon="3.20687">
        <ele>137</ele>
        <time>2012-04-12T16:27:56.000Z</time>
      </trkpt>
      <trkpt lat="48.25054" lon="3.20681">
        <ele>137</ele>
        <time>2012-04-12T16:27:58.000Z</time>
      </trkpt>
      <trkpt lat="48.25048" lon="3.20676">
        <ele>137</ele>
        <time>2012-04-12T16:28:00.000Z</time>
      </trkpt>
      <trkpt lat="48.25042" lon="3.2067">
        <ele>137</ele>
        <time>2012-04-12T16:28:02.000Z</time>
      </trkpt>
      <trkpt lat="48.25036" lon="3.20663">
        <ele>142</ele>
        <time>2012-04-12T16:28:04.000Z</time>
      </trkpt>
      <trkpt lat="48.2503" lon="3.20655">
        <ele>142</ele>
        <time>2012-04-12T16:28:06.000Z</time>
      </trkpt>
      <trkpt lat="48.25025" lon="3.2065">
        <ele>143</ele>
        <time>2012-04-12T16:28:08.000Z</time>
      </trkpt>
      <trkpt lat="48.25019" lon="3.20644">
        <ele>143</ele>
        <time>2012-04-12T16:28:10.000Z</time>
      </trkpt>
      <trkpt lat="48.25014" lon="3.2064">
        <ele>143</ele>
        <time>2012-04-12T16:28:12.000Z</time>
      </trkpt>
      <trkpt lat="48.25008" lon="3.20633">
        <ele>144</ele>
        <time>2012-04-12T16:28:14.000Z</time>
      </trkpt>
      <trkpt lat="48.25001" lon="3.20627">
        <ele>144</ele>
        <time>2012-04-12T16:28:16.000Z</time>
      </trkpt>
      <trkpt lat="48.24995" lon="3.20623">
        <ele>146</ele>
        <time>2012-04-12T16:28:18.000Z</time>
      </trkpt>
      <trkpt lat="48.24988" lon="3.20616">
        <ele>146</ele>
        <time>2012-04-12T16:28:20.000Z</time>
      </trkpt>
      <trkpt lat="48.24982" lon="3.2061">
        <ele>147</ele>
        <time>2012-04-12T16:28:22.000Z</time>
      </trkpt>
      <trkpt lat="48.24976" lon="3.20606">
        <ele>147</ele>
        <time>2012-04-12T16:28:24.000Z</time>
      </trkpt>
      <trkpt lat="48.2497" lon="3.20599">
        <ele>147</ele>
        <time>2012-04-12T16:28:26.000Z</time>
      </trkpt>
      <trkpt lat="48.24965" lon="3.20593">
        <ele>147</ele>
        <time>2012-04-12T16:28:28.000Z</time>
      </trkpt>
      <trkpt lat="48.24959" lon="3.20586">
        <ele>147</ele>
        <time>2012-04-12T16:28:30.000Z</time>
      </trkpt>
      <trkpt lat="48.24954" lon="3.2058">
        <ele>150</ele>
        <time>2012-04-12T16:28:32.000Z</time>
      </trkpt>
      <trkpt lat="48.2495" lon="3.20571">
        <ele>150</ele>
        <time>2012-04-12T16:28:34.000Z</time>
      </trkpt>
      <trkpt lat="48.24945" lon="3.20565">
        <ele>150</ele>
        <time>2012-04-12T16:28:36.000Z</time>
      </trkpt>
      <trkpt lat="48.24941" lon="3.20558">
        <ele>150</ele>
        <time>2012-04-12T16:28:38.000Z</time>
      </trkpt>
      <trkpt lat="48.24937" lon="3.20552">
        <ele>150</ele>
        <time>2012-04-12T16:28:40.000Z</time>
      </trkpt>
      <trkpt lat="48.24932" lon="3.20545">
        <ele>150</ele>
        <time>2012-04-12T16:28:42.000Z</time>
      </trkpt>
      <trkpt lat="48.24929" lon="3.20539">
        <ele>150</ele>
        <time>2012-04-12T16:28:44.000Z</time>
      </trkpt>
      <trkpt lat="48.24925" lon="3.20532">
        <ele>150</ele>
        <time>2012-04-12T16:28:46.000Z</time>
      </trkpt>
      <trkpt lat="48.24921" lon="3.20526">
        <ele>150</ele>
        <time>2012-04-12T16:28:48.000Z</time>
      </trkpt>
      <trkpt lat="48.24916" lon="3.20518">
        <ele>151</ele>
        <time>2012-04-12T16:28:50.000Z</time>
      </trkpt>
      <trkpt lat="48.24912" lon="3.20511">
        <ele>150</ele>
        <time>2012-04-12T16:28:52.000Z</time>
      </trkpt>
      <trkpt lat="48.24907" lon="3.20502">
        <ele>150</ele>
        <time>2012-04-12T16:28:54.000Z</time>
      </trkpt>
      <trkpt lat="48.24902" lon="3.20494">
        <ele>151</ele>
        <time>2012-04-12T16:28:56.000Z</time>
      </trkpt>
      <trkpt lat="48.24897" lon="3.20485">
        <ele>152</ele>
        <time>2012-04-12T16:28:58.000Z</time>
      </trkpt>
      <trkpt lat="48.24893" lon="3.20477">
        <ele>153</ele>
        <time>2012-04-12T16:29:00.000Z</time>
      </trkpt>
      <trkpt lat="48.24888" lon="3.20468">
        <ele>153</ele>
        <time>2012-04-12T16:29:02.000Z</time>
      </trkpt>
      <trkpt lat="48.24884" lon="3.2046">
        <ele>154</ele>
        <time>2012-04-12T16:29:04.000Z</time>
      </trkpt>
      <trkpt lat="48.2488" lon="3.20451">
        <ele>154</ele>
        <time>2012-04-12T16:29:06.000Z</time>
      </trkpt>
      <trkpt lat="48.24874" lon="3.20442">
        <ele>154</ele>
        <time>2012-04-12T16:29:08.000Z</time>
      </trkpt>
      <trkpt lat="48.2487" lon="3.20432">
        <ele>155</ele>
        <time>2012-04-12T16:29:10.000Z</time>
      </trkpt>
      <trkpt lat="48.24867" lon="3.20423">
        <ele>155</ele>
        <time>2012-04-12T16:29:12.000Z</time>
      </trkpt>
      <trkpt lat="48.24865" lon="3.20417">
        <ele>155</ele>
        <time>2012-04-12T16:29:13.000Z</time>
      </trkpt>
      <trkpt lat="48.2486" lon="3.20408">
        <ele>156</ele>
        <time>2012-04-12T16:29:15.000Z</time>
      </trkpt>
      <trkpt lat="48.24858" lon="3.20402">
        <ele>157</ele>
        <time>2012-04-12T16:29:16.000Z</time>
      </trkpt>
      <trkpt lat="48.24854" lon="3.20393">
        <ele>157</ele>
        <time>2012-04-12T16:29:18.000Z</time>
      </trkpt>
      <trkpt lat="48.24851" lon="3.20382">
        <ele>157</ele>
        <time>2012-04-12T16:29:20.000Z</time>
      </trkpt>
      <trkpt lat="48.24849" lon="3.20376">
        <ele>157</ele>
        <time>2012-04-12T16:29:21.000Z</time>
      </trkpt>
      <trkpt lat="48.24844" lon="3.20367">
        <ele>157</ele>
        <time>2012-04-12T16:29:23.000Z</time>
      </trkpt>
      <trkpt lat="48.24841" lon="3.20357">
        <ele>157</ele>
        <time>2012-04-12T16:29:25.000Z</time>
      </trkpt>
      <trkpt lat="48.24837" lon="3.20348">
        <ele>157</ele>
        <time>2012-04-12T16:29:27.000Z</time>
      </trkpt>
      <trkpt lat="48.24834" lon="3.20337">
        <ele>157</ele>
        <time>2012-04-12T16:29:29.000Z</time>
      </trkpt>
      <trkpt lat="48.2483" lon="3.20329">
        <ele>158</ele>
        <time>2012-04-12T16:29:31.000Z</time>
      </trkpt>
      <trkpt lat="48.24827" lon="3.2032">
        <ele>159</ele>
        <time>2012-04-12T16:29:33.000Z</time>
      </trkpt>
      <trkpt lat="48.24824" lon="3.20312">
        <ele>160</ele>
        <time>2012-04-12T16:29:35.000Z</time>
      </trkpt>
      <trkpt lat="48.24821" lon="3.20303">
        <ele>161</ele>
        <time>2012-04-12T16:29:37.000Z</time>
      </trkpt>
      <trkpt lat="48.24818" lon="3.20294">
        <ele>161</ele>
        <time>2012-04-12T16:29:39.000Z</time>
      </trkpt>
      <trkpt lat="48.24814" lon="3.20286">
        <ele>161</ele>
        <time>2012-04-12T16:29:41.000Z</time>
      </trkpt>
      <trkpt lat="48.24812" lon="3.20279">
        <ele>161</ele>
        <time>2012-04-12T16:29:42.000Z</time>
      </trkpt>
      <trkpt lat="48.2481" lon="3.20271">
        <ele>161</ele>
        <time>2012-04-12T16:29:44.000Z</time>
      </trkpt>
      <trkpt lat="48.24807" lon="3.20262">
        <ele>162</ele>
        <time>2012-04-12T16:29:46.000Z</time>
      </trkpt>
      <trkpt lat="48.24804" lon="3.20254">
        <ele>162</ele>
        <time>2012-04-12T16:29:48.000Z</time>
      </trkpt>
      <trkpt lat="48.24802" lon="3.20243">
        <ele>163</ele>
        <time>2012-04-12T16:29:50.000Z</time>
      </trkpt>
      <trkpt lat="48.24798" lon="3.20234">
        <ele>163</ele>
        <time>2012-04-12T16:29:52.000Z</time>
      </trkpt>
      <trkpt lat="48.24796" lon="3.20228">
        <ele>163</ele>
        <time>2012-04-12T16:29:53.000Z</time>
      </trkpt>
      <trkpt lat="48.24793" lon="3.20217">
        <ele>164</ele>
        <time>2012-04-12T16:29:55.000Z</time>
      </trkpt>
      <trkpt lat="48.24791" lon="3.20206">
        <ele>164</ele>
        <time>2012-04-12T16:29:57.000Z</time>
      </trkpt>
      <trkpt lat="48.24788" lon="3.20198">
        <ele>164</ele>
        <time>2012-04-12T16:29:59.000Z</time>
      </trkpt>
      <trkpt lat="48.24785" lon="3.20187">
        <ele>164</ele>
        <time>2012-04-12T16:30:01.000Z</time>
      </trkpt>
      <trkpt lat="48.24782" lon="3.20178">
        <ele>164</ele>
        <time>2012-04-12T16:30:03.000Z</time>
      </trkpt>
      <trkpt lat="48.2478" lon="3.20168">
        <ele>164</ele>
        <time>2012-04-12T16:30:05.000Z</time>
      </trkpt>
      <trkpt lat="48.24777" lon="3.20159">
        <ele>166</ele>
        <time>2012-04-12T16:30:07.000Z</time>
      </trkpt>
      <trkpt lat="48.24775" lon="3.20148">
        <ele>166</ele>
        <time>2012-04-12T16:30:09.000Z</time>
      </trkpt>
      <trkpt lat="48.24772" lon="3.2014">
        <ele>166</ele>
        <time>2012-04-12T16:30:11.000Z</time>
      </trkpt>
      <trkpt lat="48.24769" lon="3.20129">
        <ele>166</ele>
        <time>2012-04-12T16:30:13.000Z</time>
      </trkpt>
      <trkpt lat="48.24767" lon="3.2012">
        <ele>166</ele>
        <time>2012-04-12T16:30:15.000Z</time>
      </trkpt>
      <trkpt lat="48.24765" lon="3.20112">
        <ele>166</ele>
        <time>2012-04-12T16:30:17.000Z</time>
      </trkpt>
      <trkpt lat="48.24763" lon="3.20103">
        <ele>166</ele>
        <time>2012-04-12T16:30:19.000Z</time>
      </trkpt>
      <trkpt lat="48.24762" lon="3.20095">
        <ele>166</ele>
        <time>2012-04-12T16:30:21.000Z</time>
      </trkpt>
      <trkpt lat="48.24761" lon="3.20084">
        <ele>166</ele>
        <time>2012-04-12T16:30:24.000Z</time>
      </trkpt>
      <trkpt lat="48.24761" lon="3.20073">
        <ele>167</ele>
        <time>2012-04-12T16:30:27.000Z</time>
      </trkpt>
      <trkpt lat="48.24762" lon="3.20065">
        <ele>167</ele>
        <time>2012-04-12T16:30:29.000Z</time>
      </trkpt>
      <trkpt lat="48.24762" lon="3.20065">
        <ele>167</ele>
        <time>2012-04-12T16:30:29.000Z</time>
      </trkpt>
      <trkpt lat="48.24762" lon="3.20065">
        <ele>167</ele>
        <time>2012-04-12T16:30:37.000Z</time>
      </trkpt>
      <trkpt lat="48.24759" lon="3.20071">
        <ele>167</ele>
        <time>2012-04-12T16:30:40.000Z</time>
      </trkpt>
      <trkpt lat="48.24759" lon="3.2008">
        <ele>167</ele>
        <time>2012-04-12T16:30:42.000Z</time>
      </trkpt>
      <trkpt lat="48.24759" lon="3.2009">
        <ele>166</ele>
        <time>2012-04-12T16:30:44.000Z</time>
      </trkpt>
      <trkpt lat="48.24758" lon="3.20099">
        <ele>166</ele>
        <time>2012-04-12T16:30:46.000Z</time>
      </trkpt>
      <trkpt lat="48.24754" lon="3.20106">
        <ele>166</ele>
        <time>2012-04-12T16:30:48.000Z</time>
      </trkpt>
      <trkpt lat="48.24749" lon="3.20112">
        <ele>166</ele>
        <time>2012-04-12T16:30:50.000Z</time>
      </trkpt>
      <trkpt lat="48.24742" lon="3.20116">
        <ele>166</ele>
        <time>2012-04-12T16:30:52.000Z</time>
      </trkpt>
      <trkpt lat="48.24737" lon="3.20118">
        <ele>166</ele>
        <time>2012-04-12T16:30:54.000Z</time>
      </trkpt>
      <trkpt lat="48.24731" lon="3.20118">
        <ele>166</ele>
        <time>2012-04-12T16:30:56.000Z</time>
      </trkpt>
      <trkpt lat="48.24723" lon="3.20114">
        <ele>166</ele>
        <time>2012-04-12T16:30:58.000Z</time>
      </trkpt>
      <trkpt lat="48.24715" lon="3.20108">
        <ele>166</ele>
        <time>2012-04-12T16:31:00.000Z</time>
      </trkpt>
      <trkpt lat="48.24707" lon="3.20101">
        <ele>166</ele>
        <time>2012-04-12T16:31:02.000Z</time>
      </trkpt>
      <trkpt lat="48.24701" lon="3.20095">
        <ele>166</ele>
        <time>2012-04-12T16:31:04.000Z</time>
      </trkpt>
      <trkpt lat="48.24695" lon="3.20086">
        <ele>166</ele>
        <time>2012-04-12T16:31:06.000Z</time>
      </trkpt>
      <trkpt lat="48.24693" lon="3.2008">
        <ele>166</ele>
        <time>2012-04-12T16:31:07.000Z</time>
      </trkpt>
      <trkpt lat="48.24688" lon="3.20069">
        <ele>166</ele>
        <time>2012-04-12T16:31:09.000Z</time>
      </trkpt>
      <trkpt lat="48.24681" lon="3.20063">
        <ele>166</ele>
        <time>2012-04-12T16:31:11.000Z</time>
      </trkpt>
      <trkpt lat="48.24675" lon="3.20058">
        <ele>166</ele>
        <time>2012-04-12T16:31:13.000Z</time>
      </trkpt>
      <trkpt lat="48.24667" lon="3.20056">
        <ele>166</ele>
        <time>2012-04-12T16:31:15.000Z</time>
      </trkpt>
      <trkpt lat="48.24659" lon="3.20054">
        <ele>165</ele>
        <time>2012-04-12T16:31:17.000Z</time>
      </trkpt>
      <trkpt lat="48.2465" lon="3.20048">
        <ele>164</ele>
        <time>2012-04-12T16:31:19.000Z</time>
      </trkpt>
      <trkpt lat="48.24644" lon="3.20043">
        <ele>164</ele>
        <time>2012-04-12T16:31:21.000Z</time>
      </trkpt>
      <trkpt lat="48.2464" lon="3.20039">
        <ele>164</ele>
        <time>2012-04-12T16:31:23.000Z</time>
      </trkpt>
      <trkpt lat="48.24635" lon="3.2003">
        <ele>164</ele>
        <time>2012-04-12T16:31:25.000Z</time>
      </trkpt>
      <trkpt lat="48.24634" lon="3.2002">
        <ele>164</ele>
        <time>2012-04-12T16:31:28.000Z</time>
      </trkpt>
      <trkpt lat="48.24635" lon="3.20011">
        <ele>164</ele>
        <time>2012-04-12T16:31:31.000Z</time>
      </trkpt>
      <trkpt lat="48.24636" lon="3.2">
        <ele>164</ele>
        <time>2012-04-12T16:31:35.000Z</time>
      </trkpt>
      <trkpt lat="48.24637" lon="3.1999">
        <ele>165</ele>
        <time>2012-04-12T16:31:38.000Z</time>
      </trkpt>
      <trkpt lat="48.24637" lon="3.1999">
        <ele>165</ele>
        <time>2012-04-12T16:31:38.000Z</time>
      </trkpt>
      <trkpt lat="48.24637" lon="3.1999">
        <ele>165</ele>
        <time>2012-04-12T16:31:42.000Z</time>
      </trkpt>
      <trkpt lat="48.24634" lon="3.19998">
        <ele>165</ele>
        <time>2012-04-12T16:31:48.000Z</time>
      </trkpt>
      <trkpt lat="48.24633" lon="3.20007">
        <ele>164</ele>
        <time>2012-04-12T16:31:50.000Z</time>
      </trkpt>
      <trkpt lat="48.2463" lon="3.20018">
        <ele>164</ele>
        <time>2012-04-12T16:31:52.000Z</time>
      </trkpt>
      <trkpt lat="48.24628" lon="3.20024">
        <ele>164</ele>
        <time>2012-04-12T16:31:53.000Z</time>
      </trkpt>
      <trkpt lat="48.24624" lon="3.2003">
        <ele>164</ele>
        <time>2012-04-12T16:31:54.000Z</time>
      </trkpt>
      <trkpt lat="48.24621" lon="3.20037">
        <ele>164</ele>
        <time>2012-04-12T16:31:55.000Z</time>
      </trkpt>
      <trkpt lat="48.24614" lon="3.20048">
        <ele>163</ele>
        <time>2012-04-12T16:31:57.000Z</time>
      </trkpt>
      <trkpt lat="48.2461" lon="3.20054">
        <ele>163</ele>
        <time>2012-04-12T16:31:58.000Z</time>
      </trkpt>
      <trkpt lat="48.24605" lon="3.20058">
        <ele>163</ele>
        <time>2012-04-12T16:31:59.000Z</time>
      </trkpt>
      <trkpt lat="48.24601" lon="3.20065">
        <ele>163</ele>
        <time>2012-04-12T16:32:00.000Z</time>
      </trkpt>
      <trkpt lat="48.24596" lon="3.20071">
        <ele>162</ele>
        <time>2012-04-12T16:32:01.000Z</time>
      </trkpt>
      <trkpt lat="48.2459" lon="3.2008">
        <ele>162</ele>
        <time>2012-04-12T16:32:02.000Z</time>
      </trkpt>
      <trkpt lat="48.24585" lon="3.20086">
        <ele>161</ele>
        <time>2012-04-12T16:32:03.000Z</time>
      </trkpt>
      <trkpt lat="48.2458" lon="3.20093">
        <ele>159</ele>
        <time>2012-04-12T16:32:04.000Z</time>
      </trkpt>
      <trkpt lat="48.24575" lon="3.20101">
        <ele>157</ele>
        <time>2012-04-12T16:32:05.000Z</time>
      </trkpt>
      <trkpt lat="48.24571" lon="3.20108">
        <ele>156</ele>
        <time>2012-04-12T16:32:06.000Z</time>
      </trkpt>
      <trkpt lat="48.24567" lon="3.20114">
        <ele>156</ele>
        <time>2012-04-12T16:32:07.000Z</time>
      </trkpt>
      <trkpt lat="48.24563" lon="3.2012">
        <ele>155</ele>
        <time>2012-04-12T16:32:08.000Z</time>
      </trkpt>
      <trkpt lat="48.24559" lon="3.20127">
        <ele>155</ele>
        <time>2012-04-12T16:32:09.000Z</time>
      </trkpt>
      <trkpt lat="48.24556" lon="3.20133">
        <ele>155</ele>
        <time>2012-04-12T16:32:10.000Z</time>
      </trkpt>
      <trkpt lat="48.24553" lon="3.2014">
        <ele>155</ele>
        <time>2012-04-12T16:32:11.000Z</time>
      </trkpt>
      <trkpt lat="48.24549" lon="3.20146">
        <ele>154</ele>
        <time>2012-04-12T16:32:12.000Z</time>
      </trkpt>
      <trkpt lat="48.24544" lon="3.20157">
        <ele>154</ele>
        <time>2012-04-12T16:32:14.000Z</time>
      </trkpt>
      <trkpt lat="48.2454" lon="3.20168">
        <ele>153</ele>
        <time>2012-04-12T16:32:16.000Z</time>
      </trkpt>
      <trkpt lat="48.24538" lon="3.20174">
        <ele>152</ele>
        <time>2012-04-12T16:32:18.000Z</time>
      </trkpt>
      <trkpt lat="48.24538" lon="3.20174">
        <ele>152</ele>
        <time>2012-04-12T16:32:18.000Z</time>
      </trkpt>
      <trkpt lat="48.24538" lon="3.20174">
        <ele>152</ele>
        <time>2012-04-12T16:32:20.000Z</time>
      </trkpt>
      <trkpt lat="48.24534" lon="3.20183">
        <ele>152</ele>
        <time>2012-04-12T16:32:21.000Z</time>
      </trkpt>
      <trkpt lat="48.24534" lon="3.20183">
        <ele>152</ele>
        <time>2012-04-12T16:32:21.000Z</time>
      </trkpt>
      <trkpt lat="48.24534" lon="3.20183">
        <ele>152</ele>
        <time>2012-04-12T16:32:23.000Z</time>
      </trkpt>
      <trkpt lat="48.24532" lon="3.20191">
        <ele>152</ele>
        <time>2012-04-12T16:32:24.000Z</time>
      </trkpt>
      <trkpt lat="48.24532" lon="3.20191">
        <ele>152</ele>
        <time>2012-04-12T16:32:24.000Z</time>
      </trkpt>
      <trkpt lat="48.24532" lon="3.20191">
        <ele>152</ele>
        <time>2012-04-12T16:32:26.000Z</time>
      </trkpt>
      <trkpt lat="48.2453" lon="3.20198">
        <ele>152</ele>
        <time>2012-04-12T16:32:27.000Z</time>
      </trkpt>
      <trkpt lat="48.2453" lon="3.20198">
        <ele>152</ele>
        <time>2012-04-12T16:32:27.000Z</time>
      </trkpt>
      <trkpt lat="48.2453" lon="3.20198">
        <ele>152</ele>
        <time>2012-04-12T16:32:29.000Z</time>
      </trkpt>
      <trkpt lat="48.24528" lon="3.20211">
        <ele>151</ele>
        <time>2012-04-12T16:32:34.000Z</time>
      </trkpt>
      <trkpt lat="48.24528" lon="3.20211">
        <ele>151</ele>
        <time>2012-04-12T16:32:34.000Z</time>
      </trkpt>
      <trkpt lat="48.24528" lon="3.20211">
        <ele>151</ele>
        <time>2012-04-12T16:32:36.000Z</time>
      </trkpt>
      <trkpt lat="48.2453" lon="3.20202">
        <ele>152</ele>
        <time>2012-04-12T16:32:38.000Z</time>
      </trkpt>
      <trkpt lat="48.24531" lon="3.20194">
        <ele>152</ele>
        <time>2012-04-12T16:32:40.000Z</time>
      </trkpt>
      <trkpt lat="48.24532" lon="3.20185">
        <ele>152</ele>
        <time>2012-04-12T16:32:42.000Z</time>
      </trkpt>
      <trkpt lat="48.24534" lon="3.20176">
        <ele>152</ele>
        <time>2012-04-12T16:32:44.000Z</time>
      </trkpt>
      <trkpt lat="48.24535" lon="3.20168">
        <ele>152</ele>
        <time>2012-04-12T16:32:46.000Z</time>
      </trkpt>
      <trkpt lat="48.24538" lon="3.20159">
        <ele>153</ele>
        <time>2012-04-12T16:32:48.000Z</time>
      </trkpt>
      <trkpt lat="48.24541" lon="3.20151">
        <ele>154</ele>
        <time>2012-04-12T16:32:50.000Z</time>
      </trkpt>
      <trkpt lat="48.24544" lon="3.20142">
        <ele>154</ele>
        <time>2012-04-12T16:32:52.000Z</time>
      </trkpt>
      <trkpt lat="48.24549" lon="3.20136">
        <ele>154</ele>
        <time>2012-04-12T16:32:54.000Z</time>
      </trkpt>
      <trkpt lat="48.24553" lon="3.20129">
        <ele>155</ele>
        <time>2012-04-12T16:32:56.000Z</time>
      </trkpt>
      <trkpt lat="48.24557" lon="3.20123">
        <ele>155</ele>
        <time>2012-04-12T16:32:58.000Z</time>
      </trkpt>
      <trkpt lat="48.24561" lon="3.20116">
        <ele>155</ele>
        <time>2012-04-12T16:33:00.000Z</time>
      </trkpt>
      <trkpt lat="48.24566" lon="3.2011">
        <ele>156</ele>
        <time>2012-04-12T16:33:02.000Z</time>
      </trkpt>
      <trkpt lat="48.2457" lon="3.20103">
        <ele>157</ele>
        <time>2012-04-12T16:33:04.000Z</time>
      </trkpt>
      <trkpt lat="48.24574" lon="3.20097">
        <ele>158</ele>
        <time>2012-04-12T16:33:06.000Z</time>
      </trkpt>
      <trkpt lat="48.24577" lon="3.2009">
        <ele>159</ele>
        <time>2012-04-12T16:33:08.000Z</time>
      </trkpt>
      <trkpt lat="48.24583" lon="3.20086">
        <ele>160</ele>
        <time>2012-04-12T16:33:10.000Z</time>
      </trkpt>
      <trkpt lat="48.24587" lon="3.2008">
        <ele>162</ele>
        <time>2012-04-12T16:33:12.000Z</time>
      </trkpt>
      <trkpt lat="48.24591" lon="3.20076">
        <ele>162</ele>
        <time>2012-04-12T16:33:14.000Z</time>
      </trkpt>
      <trkpt lat="48.24596" lon="3.20069">
        <ele>162</ele>
        <time>2012-04-12T16:33:16.000Z</time>
      </trkpt>
      <trkpt lat="48.24601" lon="3.2006">
        <ele>163</ele>
        <time>2012-04-12T16:33:19.000Z</time>
      </trkpt>
      <trkpt lat="48.24606" lon="3.20054">
        <ele>163</ele>
        <time>2012-04-12T16:33:22.000Z</time>
      </trkpt>
      <trkpt lat="48.2461" lon="3.20045">
        <ele>163</ele>
        <time>2012-04-12T16:33:25.000Z</time>
      </trkpt>
      <trkpt lat="48.24615" lon="3.20041">
        <ele>163</ele>
        <time>2012-04-12T16:33:27.000Z</time>
      </trkpt>
      <trkpt lat="48.24619" lon="3.20035">
        <ele>164</ele>
        <time>2012-04-12T16:33:30.000Z</time>
      </trkpt>
      <trkpt lat="48.24622" lon="3.20028">
        <ele>164</ele>
        <time>2012-04-12T16:33:32.000Z</time>
      </trkpt>
      <trkpt lat="48.24627" lon="3.20022">
        <ele>164</ele>
        <time>2012-04-12T16:33:35.000Z</time>
      </trkpt>
      <trkpt lat="48.24627" lon="3.20022">
        <ele>164</ele>
        <time>2012-04-12T16:33:35.000Z</time>
      </trkpt>
      <trkpt lat="48.24627" lon="3.20022">
        <ele>164</ele>
        <time>2012-04-12T16:33:38.000Z</time>
      </trkpt>
      <trkpt lat="48.24629" lon="3.20009">
        <ele>164</ele>
        <time>2012-04-12T16:33:39.000Z</time>
      </trkpt>
      <trkpt lat="48.2463" lon="3.2">
        <ele>164</ele>
        <time>2012-04-12T16:33:41.000Z</time>
      </trkpt>
      <trkpt lat="48.24632" lon="3.1999">
        <ele>165</ele>
        <time>2012-04-12T16:33:44.000Z</time>
      </trkpt>
      <trkpt lat="48.24633" lon="3.19979">
        <ele>165</ele>
        <time>2012-04-12T16:33:47.000Z</time>
      </trkpt>
      <trkpt lat="48.24633" lon="3.1997">
        <ele>166</ele>
        <time>2012-04-12T16:33:49.000Z</time>
      </trkpt>
      <trkpt lat="48.24634" lon="3.19962">
        <ele>166</ele>
        <time>2012-04-12T16:33:51.000Z</time>
      </trkpt>
      <trkpt lat="48.24635" lon="3.19942">
        <ele>166</ele>
        <time>2012-04-12T16:33:55.000Z</time>
      </trkpt>
      <trkpt lat="48.24636" lon="3.19934">
        <ele>166</ele>
        <time>2012-04-12T16:33:57.000Z</time>
      </trkpt>
      <trkpt lat="48.24636" lon="3.19925">
        <ele>167</ele>
        <time>2012-04-12T16:33:59.000Z</time>
      </trkpt>
      <trkpt lat="48.24637" lon="3.19917">
        <ele>167</ele>
        <time>2012-04-12T16:34:01.000Z</time>
      </trkpt>
      <trkpt lat="48.24637" lon="3.19908">
        <ele>168</ele>
        <time>2012-04-12T16:34:03.000Z</time>
      </trkpt>
      <trkpt lat="48.2464" lon="3.19902">
        <ele>168</ele>
        <time>2012-04-12T16:34:05.000Z</time>
      </trkpt>
      <trkpt lat="48.24644" lon="3.19897">
        <ele>168</ele>
        <time>2012-04-12T16:34:07.000Z</time>
      </trkpt>
      <trkpt lat="48.24648" lon="3.19895">
        <ele>168</ele>
        <time>2012-04-12T16:34:09.000Z</time>
      </trkpt>
      <trkpt lat="48.24652" lon="3.19893">
        <ele>169</ele>
        <time>2012-04-12T16:34:11.000Z</time>
      </trkpt>
      <trkpt lat="48.24657" lon="3.19891">
        <ele>169</ele>
        <time>2012-04-12T16:34:13.000Z</time>
      </trkpt>
      <trkpt lat="48.24667" lon="3.19891">
        <ele>170</ele>
        <time>2012-04-12T16:34:18.000Z</time>
      </trkpt>
      <trkpt lat="48.24667" lon="3.19891">
        <ele>170</ele>
        <time>2012-04-12T16:34:18.000Z</time>
      </trkpt>
      <trkpt lat="48.24667" lon="3.19891">
        <ele>170</ele>
        <time>2012-04-12T16:34:19.000Z</time>
      </trkpt>
      <trkpt lat="48.24673" lon="3.19893">
        <ele>170</ele>
        <time>2012-04-12T16:34:21.000Z</time>
      </trkpt>
      <trkpt lat="48.24678" lon="3.19893">
        <ele>170</ele>
        <time>2012-04-12T16:34:23.000Z</time>
      </trkpt>
      <trkpt lat="48.24684" lon="3.19893">
        <ele>170</ele>
        <time>2012-04-12T16:34:25.000Z</time>
      </trkpt>
      <trkpt lat="48.24689" lon="3.19891">
        <ele>170</ele>
        <time>2012-04-12T16:34:27.000Z</time>
      </trkpt>
      <trkpt lat="48.24694" lon="3.19887">
        <ele>170</ele>
        <time>2012-04-12T16:34:29.000Z</time>
      </trkpt>
      <trkpt lat="48.247" lon="3.19882">
        <ele>170</ele>
        <time>2012-04-12T16:34:31.000Z</time>
      </trkpt>
      <trkpt lat="48.24705" lon="3.19876">
        <ele>170</ele>
        <time>2012-04-12T16:34:33.000Z</time>
      </trkpt>
      <trkpt lat="48.2471" lon="3.19867">
        <ele>170</ele>
        <time>2012-04-12T16:34:35.000Z</time>
      </trkpt>
      <trkpt lat="48.24712" lon="3.19861">
        <ele>170</ele>
        <time>2012-04-12T16:34:37.000Z</time>
      </trkpt>
      <trkpt lat="48.2471" lon="3.1985">
        <ele>170</ele>
        <time>2012-04-12T16:34:39.000Z</time>
      </trkpt>
      <trkpt lat="48.24708" lon="3.19844">
        <ele>170</ele>
        <time>2012-04-12T16:34:40.000Z</time>
      </trkpt>
      <trkpt lat="48.24703" lon="3.19835">
        <ele>170</ele>
        <time>2012-04-12T16:34:42.000Z</time>
      </trkpt>
      <trkpt lat="48.24697" lon="3.19827">
        <ele>171</ele>
        <time>2012-04-12T16:34:44.000Z</time>
      </trkpt>
      <trkpt lat="48.24692" lon="3.19816">
        <ele>171</ele>
        <time>2012-04-12T16:34:46.000Z</time>
      </trkpt>
      <trkpt lat="48.24688" lon="3.19807">
        <ele>171</ele>
        <time>2012-04-12T16:34:48.000Z</time>
      </trkpt>
      <trkpt lat="48.24682" lon="3.19799">
        <ele>171</ele>
        <time>2012-04-12T16:34:50.000Z</time>
      </trkpt>
      <trkpt lat="48.24677" lon="3.1979">
        <ele>171</ele>
        <time>2012-04-12T16:34:52.000Z</time>
      </trkpt>
      <trkpt lat="48.24671" lon="3.19782">
        <ele>171</ele>
        <time>2012-04-12T16:34:54.000Z</time>
      </trkpt>
      <trkpt lat="48.24665" lon="3.19773">
        <ele>171</ele>
        <time>2012-04-12T16:34:56.000Z</time>
      </trkpt>
      <trkpt lat="48.2466" lon="3.19764">
        <ele>171</ele>
        <time>2012-04-12T16:34:58.000Z</time>
      </trkpt>
      <trkpt lat="48.24656" lon="3.19756">
        <ele>171</ele>
        <time>2012-04-12T16:35:00.000Z</time>
      </trkpt>
      <trkpt lat="48.24651" lon="3.19747">
        <ele>173</ele>
        <time>2012-04-12T16:35:02.000Z</time>
      </trkpt>
      <trkpt lat="48.24649" lon="3.19741">
        <ele>173</ele>
        <time>2012-04-12T16:35:03.000Z</time>
      </trkpt>
      <trkpt lat="48.24646" lon="3.1973">
        <ele>173</ele>
        <time>2012-04-12T16:35:05.000Z</time>
      </trkpt>
      <trkpt lat="48.24644" lon="3.19717">
        <ele>174</ele>
        <time>2012-04-12T16:35:07.000Z</time>
      </trkpt>
      <trkpt lat="48.2464" lon="3.19706">
        <ele>174</ele>
        <time>2012-04-12T16:35:09.000Z</time>
      </trkpt>
      <trkpt lat="48.24636" lon="3.19694">
        <ele>174</ele>
        <time>2012-04-12T16:35:11.000Z</time>
      </trkpt>
      <trkpt lat="48.24634" lon="3.19681">
        <ele>174</ele>
        <time>2012-04-12T16:35:13.000Z</time>
      </trkpt>
      <trkpt lat="48.24633" lon="3.19668">
        <ele>175</ele>
        <time>2012-04-12T16:35:15.000Z</time>
      </trkpt>
      <trkpt lat="48.24633" lon="3.19655">
        <ele>177</ele>
        <time>2012-04-12T16:35:17.000Z</time>
      </trkpt>
      <trkpt lat="48.24634" lon="3.19646">
        <ele>178</ele>
        <time>2012-04-12T16:35:18.000Z</time>
      </trkpt>
      <trkpt lat="48.24636" lon="3.1964">
        <ele>178</ele>
        <time>2012-04-12T16:35:19.000Z</time>
      </trkpt>
      <trkpt lat="48.24638" lon="3.19629">
        <ele>178</ele>
        <time>2012-04-12T16:35:21.000Z</time>
      </trkpt>
      <trkpt lat="48.24641" lon="3.19616">
        <ele>178</ele>
        <time>2012-04-12T16:35:23.000Z</time>
      </trkpt>
      <trkpt lat="48.24642" lon="3.19606">
        <ele>178</ele>
        <time>2012-04-12T16:35:25.000Z</time>
      </trkpt>
      <trkpt lat="48.24644" lon="3.19595">
        <ele>179</ele>
        <time>2012-04-12T16:35:27.000Z</time>
      </trkpt>
      <trkpt lat="48.24646" lon="3.19584">
        <ele>179</ele>
        <time>2012-04-12T16:35:29.000Z</time>
      </trkpt>
      <trkpt lat="48.24647" lon="3.19573">
        <ele>180</ele>
        <time>2012-04-12T16:35:31.000Z</time>
      </trkpt>
      <trkpt lat="48.24648" lon="3.19565">
        <ele>180</ele>
        <time>2012-04-12T16:35:33.000Z</time>
      </trkpt>
      <trkpt lat="48.24649" lon="3.19554">
        <ele>180</ele>
        <time>2012-04-12T16:35:35.000Z</time>
      </trkpt>
      <trkpt lat="48.24649" lon="3.19546">
        <ele>180</ele>
        <time>2012-04-12T16:35:37.000Z</time>
      </trkpt>
      <trkpt lat="48.24648" lon="3.19535">
        <ele>181</ele>
        <time>2012-04-12T16:35:39.000Z</time>
      </trkpt>
      <trkpt lat="48.24648" lon="3.19522">
        <ele>181</ele>
        <time>2012-04-12T16:35:41.000Z</time>
      </trkpt>
      <trkpt lat="48.24646" lon="3.19511">
        <ele>181</ele>
        <time>2012-04-12T16:35:43.000Z</time>
      </trkpt>
      <trkpt lat="48.24644" lon="3.195">
        <ele>181</ele>
        <time>2012-04-12T16:35:45.000Z</time>
      </trkpt>
      <trkpt lat="48.24642" lon="3.1949">
        <ele>181</ele>
        <time>2012-04-12T16:35:47.000Z</time>
      </trkpt>
      <trkpt lat="48.2464" lon="3.19477">
        <ele>181</ele>
        <time>2012-04-12T16:35:49.000Z</time>
      </trkpt>
      <trkpt lat="48.24637" lon="3.19466">
        <ele>181</ele>
        <time>2012-04-12T16:35:51.000Z</time>
      </trkpt>
      <trkpt lat="48.24635" lon="3.19455">
        <ele>181</ele>
        <time>2012-04-12T16:35:53.000Z</time>
      </trkpt>
      <trkpt lat="48.24634" lon="3.19445">
        <ele>181</ele>
        <time>2012-04-12T16:35:55.000Z</time>
      </trkpt>
      <trkpt lat="48.24633" lon="3.19434">
        <ele>181</ele>
        <time>2012-04-12T16:35:57.000Z</time>
      </trkpt>
      <trkpt lat="48.24632" lon="3.19423">
        <ele>181</ele>
        <time>2012-04-12T16:35:59.000Z</time>
      </trkpt>
      <trkpt lat="48.24632" lon="3.19412">
        <ele>181</ele>
        <time>2012-04-12T16:36:01.000Z</time>
      </trkpt>
      <trkpt lat="48.24632" lon="3.19402">
        <ele>181</ele>
        <time>2012-04-12T16:36:03.000Z</time>
      </trkpt>
      <trkpt lat="48.24632" lon="3.19389">
        <ele>181</ele>
        <time>2012-04-12T16:36:05.000Z</time>
      </trkpt>
      <trkpt lat="48.24632" lon="3.19378">
        <ele>181</ele>
        <time>2012-04-12T16:36:07.000Z</time>
      </trkpt>
      <trkpt lat="48.24631" lon="3.19367">
        <ele>181</ele>
        <time>2012-04-12T16:36:09.000Z</time>
      </trkpt>
      <trkpt lat="48.24631" lon="3.19354">
        <ele>181</ele>
        <time>2012-04-12T16:36:11.000Z</time>
      </trkpt>
      <trkpt lat="48.24632" lon="3.19342">
        <ele>181</ele>
        <time>2012-04-12T16:36:13.000Z</time>
      </trkpt>
      <trkpt lat="48.24633" lon="3.19329">
        <ele>181</ele>
        <time>2012-04-12T16:36:15.000Z</time>
      </trkpt>
      <trkpt lat="48.24634" lon="3.19316">
        <ele>181</ele>
        <time>2012-04-12T16:36:17.000Z</time>
      </trkpt>
      <trkpt lat="48.24636" lon="3.19303">
        <ele>181</ele>
        <time>2012-04-12T16:36:19.000Z</time>
      </trkpt>
      <trkpt lat="48.24638" lon="3.19294">
        <ele>181</ele>
        <time>2012-04-12T16:36:20.000Z</time>
      </trkpt>
      <trkpt lat="48.24642" lon="3.19279">
        <ele>182</ele>
        <time>2012-04-12T16:36:22.000Z</time>
      </trkpt>
      <trkpt lat="48.24645" lon="3.19266">
        <ele>182</ele>
        <time>2012-04-12T16:36:24.000Z</time>
      </trkpt>
      <trkpt lat="48.24647" lon="3.19258">
        <ele>183</ele>
        <time>2012-04-12T16:36:25.000Z</time>
      </trkpt>
      <trkpt lat="48.2465" lon="3.19245">
        <ele>183</ele>
        <time>2012-04-12T16:36:27.000Z</time>
      </trkpt>
      <trkpt lat="48.24652" lon="3.19232">
        <ele>183</ele>
        <time>2012-04-12T16:36:29.000Z</time>
      </trkpt>
      <trkpt lat="48.24654" lon="3.19219">
        <ele>183</ele>
        <time>2012-04-12T16:36:31.000Z</time>
      </trkpt>
      <trkpt lat="48.24656" lon="3.19211">
        <ele>183</ele>
        <time>2012-04-12T16:36:32.000Z</time>
      </trkpt>
      <trkpt lat="48.24658" lon="3.19198">
        <ele>183</ele>
        <time>2012-04-12T16:36:34.000Z</time>
      </trkpt>
      <trkpt lat="48.24659" lon="3.19183">
        <ele>183</ele>
        <time>2012-04-12T16:36:36.000Z</time>
      </trkpt>
      <trkpt lat="48.24661" lon="3.19168">
        <ele>184</ele>
        <time>2012-04-12T16:36:38.000Z</time>
      </trkpt>
      <trkpt lat="48.24662" lon="3.19153">
        <ele>184</ele>
        <time>2012-04-12T16:36:40.000Z</time>
      </trkpt>
      <trkpt lat="48.24663" lon="3.19144">
        <ele>183</ele>
        <time>2012-04-12T16:36:41.000Z</time>
      </trkpt>
      <trkpt lat="48.24664" lon="3.19136">
        <ele>183</ele>
        <time>2012-04-12T16:36:42.000Z</time>
      </trkpt>
      <trkpt lat="48.24665" lon="3.19127">
        <ele>183</ele>
        <time>2012-04-12T16:36:43.000Z</time>
      </trkpt>
      <trkpt lat="48.24665" lon="3.19118">
        <ele>183</ele>
        <time>2012-04-12T16:36:44.000Z</time>
      </trkpt>
      <trkpt lat="48.24666" lon="3.1911">
        <ele>183</ele>
        <time>2012-04-12T16:36:45.000Z</time>
      </trkpt>
      <trkpt lat="48.24667" lon="3.19101">
        <ele>186</ele>
        <time>2012-04-12T16:36:46.000Z</time>
      </trkpt>
      <trkpt lat="48.24667" lon="3.19093">
        <ele>186</ele>
        <time>2012-04-12T16:36:47.000Z</time>
      </trkpt>
      <trkpt lat="48.24668" lon="3.19084">
        <ele>185</ele>
        <time>2012-04-12T16:36:48.000Z</time>
      </trkpt>
      <trkpt lat="48.2467" lon="3.19076">
        <ele>185</ele>
        <time>2012-04-12T16:36:49.000Z</time>
      </trkpt>
      <trkpt lat="48.24671" lon="3.19067">
        <ele>186</ele>
        <time>2012-04-12T16:36:50.000Z</time>
      </trkpt>
      <trkpt lat="48.24671" lon="3.19058">
        <ele>186</ele>
        <time>2012-04-12T16:36:51.000Z</time>
      </trkpt>
      <trkpt lat="48.24671" lon="3.1905">
        <ele>186</ele>
        <time>2012-04-12T16:36:52.000Z</time>
      </trkpt>
      <trkpt lat="48.24671" lon="3.19041">
        <ele>186</ele>
        <time>2012-04-12T16:36:53.000Z</time>
      </trkpt>
      <trkpt lat="48.24671" lon="3.19033">
        <ele>186</ele>
        <time>2012-04-12T16:36:54.000Z</time>
      </trkpt>
      <trkpt lat="48.24671" lon="3.19018">
        <ele>186</ele>
        <time>2012-04-12T16:36:56.000Z</time>
      </trkpt>
      <trkpt lat="48.2467" lon="3.19009">
        <ele>186</ele>
        <time>2012-04-12T16:36:57.000Z</time>
      </trkpt>
      <trkpt lat="48.24668" lon="3.19">
        <ele>185</ele>
        <time>2012-04-12T16:36:58.000Z</time>
      </trkpt>
      <trkpt lat="48.24666" lon="3.18985">
        <ele>185</ele>
        <time>2012-04-12T16:37:00.000Z</time>
      </trkpt>
      <trkpt lat="48.24665" lon="3.18977">
        <ele>185</ele>
        <time>2012-04-12T16:37:01.000Z</time>
      </trkpt>
      <trkpt lat="48.24664" lon="3.18968">
        <ele>185</ele>
        <time>2012-04-12T16:37:02.000Z</time>
      </trkpt>
      <trkpt lat="48.24663" lon="3.18953">
        <ele>185</ele>
        <time>2012-04-12T16:37:04.000Z</time>
      </trkpt>
      <trkpt lat="48.24662" lon="3.18945">
        <ele>186</ele>
        <time>2012-04-12T16:37:05.000Z</time>
      </trkpt>
      <trkpt lat="48.24661" lon="3.1893">
        <ele>186</ele>
        <time>2012-04-12T16:37:07.000Z</time>
      </trkpt>
      <trkpt lat="48.2466" lon="3.18921">
        <ele>187</ele>
        <time>2012-04-12T16:37:08.000Z</time>
      </trkpt>
      <trkpt lat="48.2466" lon="3.18912">
        <ele>188</ele>
        <time>2012-04-12T16:37:09.000Z</time>
      </trkpt>
      <trkpt lat="48.2466" lon="3.18904">
        <ele>187</ele>
        <time>2012-04-12T16:37:10.000Z</time>
      </trkpt>
      <trkpt lat="48.24659" lon="3.18889">
        <ele>187</ele>
        <time>2012-04-12T16:37:12.000Z</time>
      </trkpt>
      <trkpt lat="48.24659" lon="3.1888">
        <ele>187</ele>
        <time>2012-04-12T16:37:13.000Z</time>
      </trkpt>
      <trkpt lat="48.24659" lon="3.18872">
        <ele>187</ele>
        <time>2012-04-12T16:37:14.000Z</time>
      </trkpt>
      <trkpt lat="48.24658" lon="3.18863">
        <ele>187</ele>
        <time>2012-04-12T16:37:15.000Z</time>
      </trkpt>
      <trkpt lat="48.24658" lon="3.18854">
        <ele>188</ele>
        <time>2012-04-12T16:37:16.000Z</time>
      </trkpt>
      <trkpt lat="48.24658" lon="3.1884">
        <ele>189</ele>
        <time>2012-04-12T16:37:18.000Z</time>
      </trkpt>
      <trkpt lat="48.24658" lon="3.18831">
        <ele>189</ele>
        <time>2012-04-12T16:37:19.000Z</time>
      </trkpt>
      <trkpt lat="48.24658" lon="3.18822">
        <ele>189</ele>
        <time>2012-04-12T16:37:20.000Z</time>
      </trkpt>
      <trkpt lat="48.24657" lon="3.18814">
        <ele>188</ele>
        <time>2012-04-12T16:37:21.000Z</time>
      </trkpt>
      <trkpt lat="48.24657" lon="3.18799">
        <ele>188</ele>
        <time>2012-04-12T16:37:23.000Z</time>
      </trkpt>
      <trkpt lat="48.24657" lon="3.1879">
        <ele>187</ele>
        <time>2012-04-12T16:37:24.000Z</time>
      </trkpt>
      <trkpt lat="48.24657" lon="3.18782">
        <ele>187</ele>
        <time>2012-04-12T16:37:25.000Z</time>
      </trkpt>
      <trkpt lat="48.24657" lon="3.18773">
        <ele>187</ele>
        <time>2012-04-12T16:37:26.000Z</time>
      </trkpt>
      <trkpt lat="48.24657" lon="3.18764">
        <ele>187</ele>
        <time>2012-04-12T16:37:27.000Z</time>
      </trkpt>
      <trkpt lat="48.24657" lon="3.18756">
        <ele>188</ele>
        <time>2012-04-12T16:37:28.000Z</time>
      </trkpt>
      <trkpt lat="48.24657" lon="3.18747">
        <ele>187</ele>
        <time>2012-04-12T16:37:29.000Z</time>
      </trkpt>
      <trkpt lat="48.24657" lon="3.18739">
        <ele>187</ele>
        <time>2012-04-12T16:37:30.000Z</time>
      </trkpt>
      <trkpt lat="48.24657" lon="3.1873">
        <ele>187</ele>
        <time>2012-04-12T16:37:31.000Z</time>
      </trkpt>
      <trkpt lat="48.24657" lon="3.18722">
        <ele>187</ele>
        <time>2012-04-12T16:37:32.000Z</time>
      </trkpt>
      <trkpt lat="48.24657" lon="3.18713">
        <ele>187</ele>
        <time>2012-04-12T16:37:33.000Z</time>
      </trkpt>
      <trkpt lat="48.24658" lon="3.18704">
        <ele>187</ele>
        <time>2012-04-12T16:37:34.000Z</time>
      </trkpt>
      <trkpt lat="48.24658" lon="3.18696">
        <ele>187</ele>
        <time>2012-04-12T16:37:35.000Z</time>
      </trkpt>
      <trkpt lat="48.24658" lon="3.18687">
        <ele>187</ele>
        <time>2012-04-12T16:37:36.000Z</time>
      </trkpt>
      <trkpt lat="48.24658" lon="3.18679">
        <ele>187</ele>
        <time>2012-04-12T16:37:37.000Z</time>
      </trkpt>
      <trkpt lat="48.24658" lon="3.1867">
        <ele>187</ele>
        <time>2012-04-12T16:37:38.000Z</time>
      </trkpt>
      <trkpt lat="48.24658" lon="3.18661">
        <ele>187</ele>
        <time>2012-04-12T16:37:39.000Z</time>
      </trkpt>
      <trkpt lat="48.24659" lon="3.18653">
        <ele>187</ele>
        <time>2012-04-12T16:37:40.000Z</time>
      </trkpt>
      <trkpt lat="48.24659" lon="3.18644">
        <ele>187</ele>
        <time>2012-04-12T16:37:41.000Z</time>
      </trkpt>
      <trkpt lat="48.24659" lon="3.18636">
        <ele>187</ele>
        <time>2012-04-12T16:37:42.000Z</time>
      </trkpt>
      <trkpt lat="48.24659" lon="3.18627">
        <ele>187</ele>
        <time>2012-04-12T16:37:43.000Z</time>
      </trkpt>
      <trkpt lat="48.24659" lon="3.18618">
        <ele>187</ele>
        <time>2012-04-12T16:37:44.000Z</time>
      </trkpt>
      <trkpt lat="48.24658" lon="3.18604">
        <ele>187</ele>
        <time>2012-04-12T16:37:46.000Z</time>
      </trkpt>
      <trkpt lat="48.24658" lon="3.18595">
        <ele>187</ele>
        <time>2012-04-12T16:37:47.000Z</time>
      </trkpt>
      <trkpt lat="48.24657" lon="3.18586">
        <ele>187</ele>
        <time>2012-04-12T16:37:48.000Z</time>
      </trkpt>
      <trkpt lat="48.24657" lon="3.18578">
        <ele>187</ele>
        <time>2012-04-12T16:37:49.000Z</time>
      </trkpt>
      <trkpt lat="48.24654" lon="3.18563">
        <ele>187</ele>
        <time>2012-04-12T16:37:51.000Z</time>
      </trkpt>
      <trkpt lat="48.24654" lon="3.18554">
        <ele>187</ele>
        <time>2012-04-12T16:37:52.000Z</time>
      </trkpt>
      <trkpt lat="48.24652" lon="3.18546">
        <ele>187</ele>
        <time>2012-04-12T16:37:53.000Z</time>
      </trkpt>
      <trkpt lat="48.2465" lon="3.18537">
        <ele>187</ele>
        <time>2012-04-12T16:37:54.000Z</time>
      </trkpt>
      <trkpt lat="48.24649" lon="3.18528">
        <ele>187</ele>
        <time>2012-04-12T16:37:55.000Z</time>
      </trkpt>
      <trkpt lat="48.24647" lon="3.1852">
        <ele>187</ele>
        <time>2012-04-12T16:37:56.000Z</time>
      </trkpt>
      <trkpt lat="48.24645" lon="3.18511">
        <ele>187</ele>
        <time>2012-04-12T16:37:57.000Z</time>
      </trkpt>
      <trkpt lat="48.24643" lon="3.18503">
        <ele>187</ele>
        <time>2012-04-12T16:37:58.000Z</time>
      </trkpt>
      <trkpt lat="48.24641" lon="3.18494">
        <ele>186</ele>
        <time>2012-04-12T16:37:59.000Z</time>
      </trkpt>
      <trkpt lat="48.24638" lon="3.18485">
        <ele>186</ele>
        <time>2012-04-12T16:38:00.000Z</time>
      </trkpt>
      <trkpt lat="48.24635" lon="3.18479">
        <ele>186</ele>
        <time>2012-04-12T16:38:01.000Z</time>
      </trkpt>
      <trkpt lat="48.24633" lon="3.1847">
        <ele>186</ele>
        <time>2012-04-12T16:38:02.000Z</time>
      </trkpt>
      <trkpt lat="48.24631" lon="3.18462">
        <ele>186</ele>
        <time>2012-04-12T16:38:03.000Z</time>
      </trkpt>
      <trkpt lat="48.24628" lon="3.18453">
        <ele>186</ele>
        <time>2012-04-12T16:38:04.000Z</time>
      </trkpt>
      <trkpt lat="48.24624" lon="3.18447">
        <ele>186</ele>
        <time>2012-04-12T16:38:05.000Z</time>
      </trkpt>
      <trkpt lat="48.24621" lon="3.18438">
        <ele>186</ele>
        <time>2012-04-12T16:38:06.000Z</time>
      </trkpt>
      <trkpt lat="48.24619" lon="3.1843">
        <ele>186</ele>
        <time>2012-04-12T16:38:07.000Z</time>
      </trkpt>
      <trkpt lat="48.24616" lon="3.18421">
        <ele>186</ele>
        <time>2012-04-12T16:38:08.000Z</time>
      </trkpt>
      <trkpt lat="48.24614" lon="3.18412">
        <ele>186</ele>
        <time>2012-04-12T16:38:09.000Z</time>
      </trkpt>
      <trkpt lat="48.2461" lon="3.18406">
        <ele>186</ele>
        <time>2012-04-12T16:38:10.000Z</time>
      </trkpt>
      <trkpt lat="48.24608" lon="3.18398">
        <ele>186</ele>
        <time>2012-04-12T16:38:11.000Z</time>
      </trkpt>
      <trkpt lat="48.24606" lon="3.18391">
        <ele>186</ele>
        <time>2012-04-12T16:38:12.000Z</time>
      </trkpt>
      <trkpt lat="48.24603" lon="3.18385">
        <ele>186</ele>
        <time>2012-04-12T16:38:13.000Z</time>
      </trkpt>
      <trkpt lat="48.24601" lon="3.18378">
        <ele>186</ele>
        <time>2012-04-12T16:38:14.000Z</time>
      </trkpt>
      <trkpt lat="48.24599" lon="3.1837">
        <ele>186</ele>
        <time>2012-04-12T16:38:15.000Z</time>
      </trkpt>
      <trkpt lat="48.24596" lon="3.18363">
        <ele>186</ele>
        <time>2012-04-12T16:38:16.000Z</time>
      </trkpt>
      <trkpt lat="48.24593" lon="3.18355">
        <ele>186</ele>
        <time>2012-04-12T16:38:17.000Z</time>
      </trkpt>
      <trkpt lat="48.2459" lon="3.18348">
        <ele>186</ele>
        <time>2012-04-12T16:38:18.000Z</time>
      </trkpt>
      <trkpt lat="48.24588" lon="3.1834">
        <ele>186</ele>
        <time>2012-04-12T16:38:19.000Z</time>
      </trkpt>
      <trkpt lat="48.24586" lon="3.18333">
        <ele>186</ele>
        <time>2012-04-12T16:38:20.000Z</time>
      </trkpt>
      <trkpt lat="48.24584" lon="3.18324">
        <ele>186</ele>
        <time>2012-04-12T16:38:21.000Z</time>
      </trkpt>
      <trkpt lat="48.24582" lon="3.18316">
        <ele>185</ele>
        <time>2012-04-12T16:38:22.000Z</time>
      </trkpt>
      <trkpt lat="48.24578" lon="3.18301">
        <ele>185</ele>
        <time>2012-04-12T16:38:24.000Z</time>
      </trkpt>
      <trkpt lat="48.24577" lon="3.18292">
        <ele>185</ele>
        <time>2012-04-12T16:38:25.000Z</time>
      </trkpt>
      <trkpt lat="48.24576" lon="3.18284">
        <ele>185</ele>
        <time>2012-04-12T16:38:26.000Z</time>
      </trkpt>
      <trkpt lat="48.24574" lon="3.18275">
        <ele>184</ele>
        <time>2012-04-12T16:38:27.000Z</time>
      </trkpt>
      <trkpt lat="48.24573" lon="3.18267">
        <ele>184</ele>
        <time>2012-04-12T16:38:28.000Z</time>
      </trkpt>
      <trkpt lat="48.24573" lon="3.18258">
        <ele>184</ele>
        <time>2012-04-12T16:38:29.000Z</time>
      </trkpt>
      <trkpt lat="48.24572" lon="3.18247">
        <ele>185</ele>
        <time>2012-04-12T16:38:30.000Z</time>
      </trkpt>
      <trkpt lat="48.24571" lon="3.18239">
        <ele>185</ele>
        <time>2012-04-12T16:38:31.000Z</time>
      </trkpt>
      <trkpt lat="48.24571" lon="3.1823">
        <ele>186</ele>
        <time>2012-04-12T16:38:32.000Z</time>
      </trkpt>
      <trkpt lat="48.2457" lon="3.18219">
        <ele>186</ele>
        <time>2012-04-12T16:38:33.000Z</time>
      </trkpt>
      <trkpt lat="48.2457" lon="3.18211">
        <ele>186</ele>
        <time>2012-04-12T16:38:34.000Z</time>
      </trkpt>
      <trkpt lat="48.2457" lon="3.18202">
        <ele>187</ele>
        <time>2012-04-12T16:38:35.000Z</time>
      </trkpt>
      <trkpt lat="48.2457" lon="3.18192">
        <ele>187</ele>
        <time>2012-04-12T16:38:36.000Z</time>
      </trkpt>
      <trkpt lat="48.2457" lon="3.18183">
        <ele>187</ele>
        <time>2012-04-12T16:38:37.000Z</time>
      </trkpt>
      <trkpt lat="48.2457" lon="3.18174">
        <ele>187</ele>
        <time>2012-04-12T16:38:38.000Z</time>
      </trkpt>
      <trkpt lat="48.2457" lon="3.18164">
        <ele>189</ele>
        <time>2012-04-12T16:38:39.000Z</time>
      </trkpt>
      <trkpt lat="48.24569" lon="3.18155">
        <ele>189</ele>
        <time>2012-04-12T16:38:40.000Z</time>
      </trkpt>
      <trkpt lat="48.24567" lon="3.18146">
        <ele>190</ele>
        <time>2012-04-12T16:38:41.000Z</time>
      </trkpt>
      <trkpt lat="48.24564" lon="3.18138">
        <ele>190</ele>
        <time>2012-04-12T16:38:42.000Z</time>
      </trkpt>
      <trkpt lat="48.24561" lon="3.18129">
        <ele>190</ele>
        <time>2012-04-12T16:38:43.000Z</time>
      </trkpt>
      <trkpt lat="48.24559" lon="3.18121">
        <ele>191</ele>
        <time>2012-04-12T16:38:44.000Z</time>
      </trkpt>
      <trkpt lat="48.24555" lon="3.18112">
        <ele>191</ele>
        <time>2012-04-12T16:38:45.000Z</time>
      </trkpt>
      <trkpt lat="48.24552" lon="3.18104">
        <ele>191</ele>
        <time>2012-04-12T16:38:46.000Z</time>
      </trkpt>
      <trkpt lat="48.24547" lon="3.18097">
        <ele>191</ele>
        <time>2012-04-12T16:38:47.000Z</time>
      </trkpt>
      <trkpt lat="48.24544" lon="3.18088">
        <ele>191</ele>
        <time>2012-04-12T16:38:48.000Z</time>
      </trkpt>
      <trkpt lat="48.24541" lon="3.18082">
        <ele>193</ele>
        <time>2012-04-12T16:38:49.000Z</time>
      </trkpt>
      <trkpt lat="48.24536" lon="3.18074">
        <ele>193</ele>
        <time>2012-04-12T16:38:50.000Z</time>
      </trkpt>
      <trkpt lat="48.24533" lon="3.18067">
        <ele>193</ele>
        <time>2012-04-12T16:38:51.000Z</time>
      </trkpt>
      <trkpt lat="48.24529" lon="3.18061">
        <ele>193</ele>
        <time>2012-04-12T16:38:52.000Z</time>
      </trkpt>
      <trkpt lat="48.24525" lon="3.18054">
        <ele>194</ele>
        <time>2012-04-12T16:38:53.000Z</time>
      </trkpt>
      <trkpt lat="48.2452" lon="3.18048">
        <ele>194</ele>
        <time>2012-04-12T16:38:54.000Z</time>
      </trkpt>
      <trkpt lat="48.24516" lon="3.18043">
        <ele>194</ele>
        <time>2012-04-12T16:38:55.000Z</time>
      </trkpt>
      <trkpt lat="48.2451" lon="3.18039">
        <ele>194</ele>
        <time>2012-04-12T16:38:56.000Z</time>
      </trkpt>
      <trkpt lat="48.24503" lon="3.18035">
        <ele>194</ele>
        <time>2012-04-12T16:38:57.000Z</time>
      </trkpt>
      <trkpt lat="48.24495" lon="3.18033">
        <ele>191</ele>
        <time>2012-04-12T16:38:58.000Z</time>
      </trkpt>
      <trkpt lat="48.24487" lon="3.1803">
        <ele>191</ele>
        <time>2012-04-12T16:38:59.000Z</time>
      </trkpt>
      <trkpt lat="48.24479" lon="3.18026">
        <ele>190</ele>
        <time>2012-04-12T16:39:00.000Z</time>
      </trkpt>
      <trkpt lat="48.24471" lon="3.18024">
        <ele>190</ele>
        <time>2012-04-12T16:39:01.000Z</time>
      </trkpt>
      <trkpt lat="48.24462" lon="3.18022">
        <ele>190</ele>
        <time>2012-04-12T16:39:02.000Z</time>
      </trkpt>
      <trkpt lat="48.24454" lon="3.1802">
        <ele>189</ele>
        <time>2012-04-12T16:39:03.000Z</time>
      </trkpt>
      <trkpt lat="48.24445" lon="3.18018">
        <ele>189</ele>
        <time>2012-04-12T16:39:04.000Z</time>
      </trkpt>
      <trkpt lat="48.24437" lon="3.18018">
        <ele>189</ele>
        <time>2012-04-12T16:39:05.000Z</time>
      </trkpt>
      <trkpt lat="48.24429" lon="3.18016">
        <ele>188</ele>
        <time>2012-04-12T16:39:06.000Z</time>
      </trkpt>
      <trkpt lat="48.24421" lon="3.18011">
        <ele>188</ele>
        <time>2012-04-12T16:39:07.000Z</time>
      </trkpt>
      <trkpt lat="48.24412" lon="3.18009">
        <ele>186</ele>
        <time>2012-04-12T16:39:08.000Z</time>
      </trkpt>
      <trkpt lat="48.24404" lon="3.18007">
        <ele>185</ele>
        <time>2012-04-12T16:39:09.000Z</time>
      </trkpt>
      <trkpt lat="48.24397" lon="3.18003">
        <ele>185</ele>
        <time>2012-04-12T16:39:10.000Z</time>
      </trkpt>
      <trkpt lat="48.2439" lon="3.18">
        <ele>185</ele>
        <time>2012-04-12T16:39:11.000Z</time>
      </trkpt>
      <trkpt lat="48.24381" lon="3.17996">
        <ele>187</ele>
        <time>2012-04-12T16:39:12.000Z</time>
      </trkpt>
      <trkpt lat="48.24373" lon="3.17992">
        <ele>187</ele>
        <time>2012-04-12T16:39:13.000Z</time>
      </trkpt>
      <trkpt lat="48.24366" lon="3.1799">
        <ele>187</ele>
        <time>2012-04-12T16:39:14.000Z</time>
      </trkpt>
      <trkpt lat="48.24358" lon="3.17986">
        <ele>186</ele>
        <time>2012-04-12T16:39:15.000Z</time>
      </trkpt>
      <trkpt lat="48.24351" lon="3.17983">
        <ele>186</ele>
        <time>2012-04-12T16:39:16.000Z</time>
      </trkpt>
      <trkpt lat="48.24343" lon="3.17981">
        <ele>186</ele>
        <time>2012-04-12T16:39:17.000Z</time>
      </trkpt>
      <trkpt lat="48.24335" lon="3.17981">
        <ele>186</ele>
        <time>2012-04-12T16:39:18.000Z</time>
      </trkpt>
      <trkpt lat="48.24326" lon="3.17981">
        <ele>186</ele>
        <time>2012-04-12T16:39:19.000Z</time>
      </trkpt>
      <trkpt lat="48.24319" lon="3.17979">
        <ele>187</ele>
        <time>2012-04-12T16:39:20.000Z</time>
      </trkpt>
      <trkpt lat="48.24311" lon="3.17979">
        <ele>187</ele>
        <time>2012-04-12T16:39:21.000Z</time>
      </trkpt>
      <trkpt lat="48.24304" lon="3.17979">
        <ele>187</ele>
        <time>2012-04-12T16:39:22.000Z</time>
      </trkpt>
      <trkpt lat="48.24296" lon="3.17979">
        <ele>188</ele>
        <time>2012-04-12T16:39:23.000Z</time>
      </trkpt>
      <trkpt lat="48.2429" lon="3.17977">
        <ele>188</ele>
        <time>2012-04-12T16:39:24.000Z</time>
      </trkpt>
      <trkpt lat="48.24283" lon="3.17977">
        <ele>188</ele>
        <time>2012-04-12T16:39:25.000Z</time>
      </trkpt>
      <trkpt lat="48.24277" lon="3.17975">
        <ele>188</ele>
        <time>2012-04-12T16:39:26.000Z</time>
      </trkpt>
      <trkpt lat="48.24269" lon="3.17975">
        <ele>188</ele>
        <time>2012-04-12T16:39:27.000Z</time>
      </trkpt>
      <trkpt lat="48.24264" lon="3.17973">
        <ele>189</ele>
        <time>2012-04-12T16:39:28.000Z</time>
      </trkpt>
      <trkpt lat="48.24258" lon="3.17973">
        <ele>189</ele>
        <time>2012-04-12T16:39:29.000Z</time>
      </trkpt>
      <trkpt lat="48.24251" lon="3.1797">
        <ele>189</ele>
        <time>2012-04-12T16:39:30.000Z</time>
      </trkpt>
      <trkpt lat="48.24246" lon="3.1797">
        <ele>191</ele>
        <time>2012-04-12T16:39:31.000Z</time>
      </trkpt>
      <trkpt lat="48.2424" lon="3.17968">
        <ele>191</ele>
        <time>2012-04-12T16:39:32.000Z</time>
      </trkpt>
      <trkpt lat="48.24235" lon="3.17966">
        <ele>191</ele>
        <time>2012-04-12T16:39:33.000Z</time>
      </trkpt>
      <trkpt lat="48.24228" lon="3.17964">
        <ele>191</ele>
        <time>2012-04-12T16:39:35.000Z</time>
      </trkpt>
      <trkpt lat="48.2422" lon="3.17962">
        <ele>191</ele>
        <time>2012-04-12T16:39:37.000Z</time>
      </trkpt>
      <trkpt lat="48.24215" lon="3.1796">
        <ele>191</ele>
        <time>2012-04-12T16:39:39.000Z</time>
      </trkpt>
      <trkpt lat="48.24208" lon="3.1796">
        <ele>191</ele>
        <time>2012-04-12T16:39:41.000Z</time>
      </trkpt>
      <trkpt lat="48.24201" lon="3.17958">
        <ele>192</ele>
        <time>2012-04-12T16:39:43.000Z</time>
      </trkpt>
      <trkpt lat="48.24194" lon="3.17958">
        <ele>192</ele>
        <time>2012-04-12T16:39:45.000Z</time>
      </trkpt>
      <trkpt lat="48.24188" lon="3.17958">
        <ele>192</ele>
        <time>2012-04-12T16:39:47.000Z</time>
      </trkpt>
      <trkpt lat="48.24182" lon="3.17962">
        <ele>192</ele>
        <time>2012-04-12T16:39:49.000Z</time>
      </trkpt>
      <trkpt lat="48.24176" lon="3.17968">
        <ele>191</ele>
        <time>2012-04-12T16:39:51.000Z</time>
      </trkpt>
      <trkpt lat="48.24172" lon="3.17973">
        <ele>191</ele>
        <time>2012-04-12T16:39:52.000Z</time>
      </trkpt>
      <trkpt lat="48.24167" lon="3.17979">
        <ele>191</ele>
        <time>2012-04-12T16:39:53.000Z</time>
      </trkpt>
      <trkpt lat="48.24162" lon="3.17986">
        <ele>190</ele>
        <time>2012-04-12T16:39:54.000Z</time>
      </trkpt>
      <trkpt lat="48.24158" lon="3.1799">
        <ele>190</ele>
        <time>2012-04-12T16:39:55.000Z</time>
      </trkpt>
      <trkpt lat="48.24155" lon="3.17996">
        <ele>190</ele>
        <time>2012-04-12T16:39:56.000Z</time>
      </trkpt>
      <trkpt lat="48.2415" lon="3.18005">
        <ele>187</ele>
        <time>2012-04-12T16:39:57.000Z</time>
      </trkpt>
      <trkpt lat="48.24147" lon="3.18011">
        <ele>187</ele>
        <time>2012-04-12T16:39:58.000Z</time>
      </trkpt>
      <trkpt lat="48.24144" lon="3.18018">
        <ele>186</ele>
        <time>2012-04-12T16:39:59.000Z</time>
      </trkpt>
      <trkpt lat="48.2414" lon="3.18026">
        <ele>186</ele>
        <time>2012-04-12T16:40:00.000Z</time>
      </trkpt>
      <trkpt lat="48.24136" lon="3.18035">
        <ele>186</ele>
        <time>2012-04-12T16:40:01.000Z</time>
      </trkpt>
      <trkpt lat="48.24133" lon="3.18041">
        <ele>186</ele>
        <time>2012-04-12T16:40:02.000Z</time>
      </trkpt>
      <trkpt lat="48.2413" lon="3.1805">
        <ele>185</ele>
        <time>2012-04-12T16:40:03.000Z</time>
      </trkpt>
      <trkpt lat="48.24127" lon="3.18056">
        <ele>185</ele>
        <time>2012-04-12T16:40:04.000Z</time>
      </trkpt>
      <trkpt lat="48.24124" lon="3.18065">
        <ele>185</ele>
        <time>2012-04-12T16:40:05.000Z</time>
      </trkpt>
      <trkpt lat="48.24121" lon="3.18071">
        <ele>185</ele>
        <time>2012-04-12T16:40:06.000Z</time>
      </trkpt>
      <trkpt lat="48.24118" lon="3.1808">
        <ele>185</ele>
        <time>2012-04-12T16:40:07.000Z</time>
      </trkpt>
      <trkpt lat="48.24116" lon="3.18088">
        <ele>184</ele>
        <time>2012-04-12T16:40:08.000Z</time>
      </trkpt>
      <trkpt lat="48.24113" lon="3.18097">
        <ele>184</ele>
        <time>2012-04-12T16:40:09.000Z</time>
      </trkpt>
      <trkpt lat="48.2411" lon="3.18106">
        <ele>184</ele>
        <time>2012-04-12T16:40:10.000Z</time>
      </trkpt>
      <trkpt lat="48.24106" lon="3.18114">
        <ele>184</ele>
        <time>2012-04-12T16:40:11.000Z</time>
      </trkpt>
      <trkpt lat="48.24103" lon="3.18123">
        <ele>184</ele>
        <time>2012-04-12T16:40:12.000Z</time>
      </trkpt>
      <trkpt lat="48.24101" lon="3.18134">
        <ele>184</ele>
        <time>2012-04-12T16:40:13.000Z</time>
      </trkpt>
      <trkpt lat="48.24098" lon="3.18142">
        <ele>184</ele>
        <time>2012-04-12T16:40:14.000Z</time>
      </trkpt>
      <trkpt lat="48.24096" lon="3.18151">
        <ele>184</ele>
        <time>2012-04-12T16:40:15.000Z</time>
      </trkpt>
      <trkpt lat="48.24093" lon="3.18159">
        <ele>184</ele>
        <time>2012-04-12T16:40:16.000Z</time>
      </trkpt>
      <trkpt lat="48.24091" lon="3.1817">
        <ele>185</ele>
        <time>2012-04-12T16:40:17.000Z</time>
      </trkpt>
      <trkpt lat="48.24089" lon="3.18179">
        <ele>184</ele>
        <time>2012-04-12T16:40:18.000Z</time>
      </trkpt>
      <trkpt lat="48.24088" lon="3.18187">
        <ele>184</ele>
        <time>2012-04-12T16:40:19.000Z</time>
      </trkpt>
      <trkpt lat="48.24086" lon="3.18196">
        <ele>184</ele>
        <time>2012-04-12T16:40:20.000Z</time>
      </trkpt>
      <trkpt lat="48.24085" lon="3.18204">
        <ele>184</ele>
        <time>2012-04-12T16:40:21.000Z</time>
      </trkpt>
      <trkpt lat="48.24084" lon="3.18215">
        <ele>184</ele>
        <time>2012-04-12T16:40:22.000Z</time>
      </trkpt>
      <trkpt lat="48.24083" lon="3.18224">
        <ele>185</ele>
        <time>2012-04-12T16:40:23.000Z</time>
      </trkpt>
      <trkpt lat="48.24082" lon="3.18232">
        <ele>185</ele>
        <time>2012-04-12T16:40:24.000Z</time>
      </trkpt>
      <trkpt lat="48.2408" lon="3.18241">
        <ele>185</ele>
        <time>2012-04-12T16:40:25.000Z</time>
      </trkpt>
      <trkpt lat="48.2408" lon="3.18252">
        <ele>185</ele>
        <time>2012-04-12T16:40:26.000Z</time>
      </trkpt>
      <trkpt lat="48.24078" lon="3.1826">
        <ele>185</ele>
        <time>2012-04-12T16:40:27.000Z</time>
      </trkpt>
      <trkpt lat="48.24077" lon="3.18269">
        <ele>185</ele>
        <time>2012-04-12T16:40:28.000Z</time>
      </trkpt>
      <trkpt lat="48.24076" lon="3.1828">
        <ele>185</ele>
        <time>2012-04-12T16:40:29.000Z</time>
      </trkpt>
      <trkpt lat="48.24076" lon="3.18288">
        <ele>185</ele>
        <time>2012-04-12T16:40:30.000Z</time>
      </trkpt>
      <trkpt lat="48.24075" lon="3.18299">
        <ele>185</ele>
        <time>2012-04-12T16:40:31.000Z</time>
      </trkpt>
      <trkpt lat="48.24074" lon="3.18307">
        <ele>185</ele>
        <time>2012-04-12T16:40:32.000Z</time>
      </trkpt>
      <trkpt lat="48.24073" lon="3.18318">
        <ele>185</ele>
        <time>2012-04-12T16:40:33.000Z</time>
      </trkpt>
      <trkpt lat="48.24072" lon="3.18329">
        <ele>184</ele>
        <time>2012-04-12T16:40:34.000Z</time>
      </trkpt>
      <trkpt lat="48.24071" lon="3.1834">
        <ele>184</ele>
        <time>2012-04-12T16:40:35.000Z</time>
      </trkpt>
      <trkpt lat="48.2407" lon="3.1835">
        <ele>185</ele>
        <time>2012-04-12T16:40:36.000Z</time>
      </trkpt>
      <trkpt lat="48.24069" lon="3.18361">
        <ele>185</ele>
        <time>2012-04-12T16:40:37.000Z</time>
      </trkpt>
      <trkpt lat="48.24069" lon="3.18372">
        <ele>185</ele>
        <time>2012-04-12T16:40:38.000Z</time>
      </trkpt>
      <trkpt lat="48.24068" lon="3.18382">
        <ele>185</ele>
        <time>2012-04-12T16:40:39.000Z</time>
      </trkpt>
      <trkpt lat="48.24067" lon="3.18395">
        <ele>185</ele>
        <time>2012-04-12T16:40:40.000Z</time>
      </trkpt>
      <trkpt lat="48.24066" lon="3.18406">
        <ele>185</ele>
        <time>2012-04-12T16:40:41.000Z</time>
      </trkpt>
      <trkpt lat="48.24064" lon="3.18417">
        <ele>184</ele>
        <time>2012-04-12T16:40:42.000Z</time>
      </trkpt>
      <trkpt lat="48.24063" lon="3.1843">
        <ele>184</ele>
        <time>2012-04-12T16:40:43.000Z</time>
      </trkpt>
      <trkpt lat="48.24063" lon="3.1844">
        <ele>184</ele>
        <time>2012-04-12T16:40:44.000Z</time>
      </trkpt>
      <trkpt lat="48.24062" lon="3.18451">
        <ele>184</ele>
        <time>2012-04-12T16:40:45.000Z</time>
      </trkpt>
      <trkpt lat="48.2406" lon="3.18462">
        <ele>183</ele>
        <time>2012-04-12T16:40:46.000Z</time>
      </trkpt>
      <trkpt lat="48.24059" lon="3.18475">
        <ele>183</ele>
        <time>2012-04-12T16:40:47.000Z</time>
      </trkpt>
      <trkpt lat="48.24057" lon="3.18485">
        <ele>183</ele>
        <time>2012-04-12T16:40:48.000Z</time>
      </trkpt>
      <trkpt lat="48.24055" lon="3.18496">
        <ele>183</ele>
        <time>2012-04-12T16:40:49.000Z</time>
      </trkpt>
      <trkpt lat="48.24053" lon="3.18507">
        <ele>181</ele>
        <time>2012-04-12T16:40:50.000Z</time>
      </trkpt>
      <trkpt lat="48.24049" lon="3.18518">
        <ele>181</ele>
        <time>2012-04-12T16:40:51.000Z</time>
      </trkpt>
      <trkpt lat="48.24045" lon="3.18528">
        <ele>181</ele>
        <time>2012-04-12T16:40:52.000Z</time>
      </trkpt>
      <trkpt lat="48.24041" lon="3.18537">
        <ele>181</ele>
        <time>2012-04-12T16:40:53.000Z</time>
      </trkpt>
      <trkpt lat="48.24036" lon="3.18546">
        <ele>181</ele>
        <time>2012-04-12T16:40:54.000Z</time>
      </trkpt>
      <trkpt lat="48.24031" lon="3.18556">
        <ele>181</ele>
        <time>2012-04-12T16:40:55.000Z</time>
      </trkpt>
      <trkpt lat="48.24026" lon="3.18565">
        <ele>181</ele>
        <time>2012-04-12T16:40:56.000Z</time>
      </trkpt>
      <trkpt lat="48.2402" lon="3.18571">
        <ele>180</ele>
        <time>2012-04-12T16:40:57.000Z</time>
      </trkpt>
      <trkpt lat="48.24015" lon="3.1858">
        <ele>180</ele>
        <time>2012-04-12T16:40:58.000Z</time>
      </trkpt>
      <trkpt lat="48.24009" lon="3.18586">
        <ele>180</ele>
        <time>2012-04-12T16:40:59.000Z</time>
      </trkpt>
      <trkpt lat="48.24002" lon="3.18593">
        <ele>180</ele>
        <time>2012-04-12T16:41:00.000Z</time>
      </trkpt>
      <trkpt lat="48.23996" lon="3.18599">
        <ele>180</ele>
        <time>2012-04-12T16:41:01.000Z</time>
      </trkpt>
      <trkpt lat="48.23989" lon="3.18604">
        <ele>181</ele>
        <time>2012-04-12T16:41:02.000Z</time>
      </trkpt>
      <trkpt lat="48.23983" lon="3.1861">
        <ele>181</ele>
        <time>2012-04-12T16:41:03.000Z</time>
      </trkpt>
      <trkpt lat="48.23975" lon="3.18614">
        <ele>181</ele>
        <time>2012-04-12T16:41:04.000Z</time>
      </trkpt>
      <trkpt lat="48.23969" lon="3.18621">
        <ele>181</ele>
        <time>2012-04-12T16:41:05.000Z</time>
      </trkpt>
      <trkpt lat="48.23961" lon="3.18625">
        <ele>181</ele>
        <time>2012-04-12T16:41:06.000Z</time>
      </trkpt>
      <trkpt lat="48.23954" lon="3.18629">
        <ele>181</ele>
        <time>2012-04-12T16:41:07.000Z</time>
      </trkpt>
      <trkpt lat="48.23946" lon="3.18631">
        <ele>181</ele>
        <time>2012-04-12T16:41:08.000Z</time>
      </trkpt>
      <trkpt lat="48.23938" lon="3.18636">
        <ele>181</ele>
        <time>2012-04-12T16:41:09.000Z</time>
      </trkpt>
      <trkpt lat="48.2393" lon="3.18638">
        <ele>182</ele>
        <time>2012-04-12T16:41:10.000Z</time>
      </trkpt>
      <trkpt lat="48.23923" lon="3.18642">
        <ele>182</ele>
        <time>2012-04-12T16:41:11.000Z</time>
      </trkpt>
      <trkpt lat="48.23915" lon="3.18646">
        <ele>183</ele>
        <time>2012-04-12T16:41:12.000Z</time>
      </trkpt>
      <trkpt lat="48.23909" lon="3.18653">
        <ele>183</ele>
        <time>2012-04-12T16:41:13.000Z</time>
      </trkpt>
      <trkpt lat="48.23902" lon="3.18659">
        <ele>183</ele>
        <time>2012-04-12T16:41:14.000Z</time>
      </trkpt>
      <trkpt lat="48.23897" lon="3.18668">
        <ele>183</ele>
        <time>2012-04-12T16:41:15.000Z</time>
      </trkpt>
      <trkpt lat="48.23892" lon="3.18676">
        <ele>183</ele>
        <time>2012-04-12T16:41:16.000Z</time>
      </trkpt>
      <trkpt lat="48.23886" lon="3.18685">
        <ele>183</ele>
        <time>2012-04-12T16:41:17.000Z</time>
      </trkpt>
      <trkpt lat="48.23883" lon="3.18696">
        <ele>183</ele>
        <time>2012-04-12T16:41:18.000Z</time>
      </trkpt>
      <trkpt lat="48.23879" lon="3.18704">
        <ele>183</ele>
        <time>2012-04-12T16:41:19.000Z</time>
      </trkpt>
      <trkpt lat="48.23874" lon="3.18715">
        <ele>182</ele>
        <time>2012-04-12T16:41:20.000Z</time>
      </trkpt>
      <trkpt lat="48.23871" lon="3.18724">
        <ele>182</ele>
        <time>2012-04-12T16:41:21.000Z</time>
      </trkpt>
      <trkpt lat="48.23869" lon="3.18734">
        <ele>182</ele>
        <time>2012-04-12T16:41:22.000Z</time>
      </trkpt>
      <trkpt lat="48.23867" lon="3.18745">
        <ele>182</ele>
        <time>2012-04-12T16:41:23.000Z</time>
      </trkpt>
      <trkpt lat="48.23865" lon="3.18756">
        <ele>183</ele>
        <time>2012-04-12T16:41:24.000Z</time>
      </trkpt>
      <trkpt lat="48.23864" lon="3.18766">
        <ele>183</ele>
        <time>2012-04-12T16:41:25.000Z</time>
      </trkpt>
      <trkpt lat="48.23863" lon="3.18779">
        <ele>183</ele>
        <time>2012-04-12T16:41:26.000Z</time>
      </trkpt>
      <trkpt lat="48.23862" lon="3.1879">
        <ele>183</ele>
        <time>2012-04-12T16:41:27.000Z</time>
      </trkpt>
      <trkpt lat="48.23862" lon="3.18803">
        <ele>183</ele>
        <time>2012-04-12T16:41:28.000Z</time>
      </trkpt>
      <trkpt lat="48.23862" lon="3.18818">
        <ele>183</ele>
        <time>2012-04-12T16:41:29.000Z</time>
      </trkpt>
      <trkpt lat="48.23863" lon="3.18831">
        <ele>183</ele>
        <time>2012-04-12T16:41:30.000Z</time>
      </trkpt>
      <trkpt lat="48.23864" lon="3.18846">
        <ele>183</ele>
        <time>2012-04-12T16:41:31.000Z</time>
      </trkpt>
      <trkpt lat="48.23864" lon="3.18859">
        <ele>183</ele>
        <time>2012-04-12T16:41:32.000Z</time>
      </trkpt>
      <trkpt lat="48.23863" lon="3.1887">
        <ele>183</ele>
        <time>2012-04-12T16:41:33.000Z</time>
      </trkpt>
      <trkpt lat="48.23861" lon="3.18878">
        <ele>183</ele>
        <time>2012-04-12T16:41:34.000Z</time>
      </trkpt>
      <trkpt lat="48.23857" lon="3.18891">
        <ele>183</ele>
        <time>2012-04-12T16:41:36.000Z</time>
      </trkpt>
      <trkpt lat="48.23854" lon="3.189">
        <ele>183</ele>
        <time>2012-04-12T16:41:37.000Z</time>
      </trkpt>
      <trkpt lat="48.23851" lon="3.18906">
        <ele>183</ele>
        <time>2012-04-12T16:41:38.000Z</time>
      </trkpt>
      <trkpt lat="48.23847" lon="3.18915">
        <ele>183</ele>
        <time>2012-04-12T16:41:39.000Z</time>
      </trkpt>
      <trkpt lat="48.23842" lon="3.18923">
        <ele>183</ele>
        <time>2012-04-12T16:41:40.000Z</time>
      </trkpt>
      <trkpt lat="48.23839" lon="3.18932">
        <ele>183</ele>
        <time>2012-04-12T16:41:41.000Z</time>
      </trkpt>
      <trkpt lat="48.23836" lon="3.18938">
        <ele>182</ele>
        <time>2012-04-12T16:41:42.000Z</time>
      </trkpt>
      <trkpt lat="48.23832" lon="3.18945">
        <ele>182</ele>
        <time>2012-04-12T16:41:43.000Z</time>
      </trkpt>
      <trkpt lat="48.23827" lon="3.18953">
        <ele>181</ele>
        <time>2012-04-12T16:41:44.000Z</time>
      </trkpt>
      <trkpt lat="48.23821" lon="3.1896">
        <ele>181</ele>
        <time>2012-04-12T16:41:45.000Z</time>
      </trkpt>
      <trkpt lat="48.23816" lon="3.18968">
        <ele>181</ele>
        <time>2012-04-12T16:41:46.000Z</time>
      </trkpt>
      <trkpt lat="48.23809" lon="3.18975">
        <ele>181</ele>
        <time>2012-04-12T16:41:47.000Z</time>
      </trkpt>
      <trkpt lat="48.23804" lon="3.18983">
        <ele>181</ele>
        <time>2012-04-12T16:41:48.000Z</time>
      </trkpt>
      <trkpt lat="48.23797" lon="3.18992">
        <ele>180</ele>
        <time>2012-04-12T16:41:49.000Z</time>
      </trkpt>
      <trkpt lat="48.23791" lon="3.19">
        <ele>180</ele>
        <time>2012-04-12T16:41:50.000Z</time>
      </trkpt>
      <trkpt lat="48.23784" lon="3.19011">
        <ele>179</ele>
        <time>2012-04-12T16:41:51.000Z</time>
      </trkpt>
      <trkpt lat="48.23778" lon="3.19022">
        <ele>178</ele>
        <time>2012-04-12T16:41:52.000Z</time>
      </trkpt>
      <trkpt lat="48.23772" lon="3.1903">
        <ele>178</ele>
        <time>2012-04-12T16:41:53.000Z</time>
      </trkpt>
      <trkpt lat="48.23765" lon="3.19041">
        <ele>178</ele>
        <time>2012-04-12T16:41:54.000Z</time>
      </trkpt>
      <trkpt lat="48.23759" lon="3.19052">
        <ele>177</ele>
        <time>2012-04-12T16:41:55.000Z</time>
      </trkpt>
      <trkpt lat="48.23752" lon="3.1906">
        <ele>177</ele>
        <time>2012-04-12T16:41:56.000Z</time>
      </trkpt>
      <trkpt lat="48.23746" lon="3.19071">
        <ele>175</ele>
        <time>2012-04-12T16:41:57.000Z</time>
      </trkpt>
      <trkpt lat="48.23739" lon="3.19082">
        <ele>175</ele>
        <time>2012-04-12T16:41:58.000Z</time>
      </trkpt>
      <trkpt lat="48.23733" lon="3.19091">
        <ele>174</ele>
        <time>2012-04-12T16:41:59.000Z</time>
      </trkpt>
      <trkpt lat="48.23726" lon="3.19101">
        <ele>174</ele>
        <time>2012-04-12T16:42:00.000Z</time>
      </trkpt>
      <trkpt lat="48.2372" lon="3.1911">
        <ele>174</ele>
        <time>2012-04-12T16:42:01.000Z</time>
      </trkpt>
      <trkpt lat="48.23715" lon="3.19121">
        <ele>174</ele>
        <time>2012-04-12T16:42:02.000Z</time>
      </trkpt>
      <trkpt lat="48.23709" lon="3.19131">
        <ele>173</ele>
        <time>2012-04-12T16:42:03.000Z</time>
      </trkpt>
      <trkpt lat="48.23706" lon="3.19144">
        <ele>173</ele>
        <time>2012-04-12T16:42:04.000Z</time>
      </trkpt>
      <trkpt lat="48.23704" lon="3.19155">
        <ele>173</ele>
        <time>2012-04-12T16:42:05.000Z</time>
      </trkpt>
      <trkpt lat="48.23704" lon="3.1917">
        <ele>171</ele>
        <time>2012-04-12T16:42:06.000Z</time>
      </trkpt>
      <trkpt lat="48.23704" lon="3.19181">
        <ele>171</ele>
        <time>2012-04-12T16:42:07.000Z</time>
      </trkpt>
      <trkpt lat="48.23704" lon="3.19194">
        <ele>171</ele>
        <time>2012-04-12T16:42:08.000Z</time>
      </trkpt>
      <trkpt lat="48.23704" lon="3.19206">
        <ele>171</ele>
        <time>2012-04-12T16:42:09.000Z</time>
      </trkpt>
      <trkpt lat="48.23703" lon="3.19219">
        <ele>170</ele>
        <time>2012-04-12T16:42:10.000Z</time>
      </trkpt>
      <trkpt lat="48.23702" lon="3.1923">
        <ele>170</ele>
        <time>2012-04-12T16:42:11.000Z</time>
      </trkpt>
      <trkpt lat="48.23699" lon="3.19241">
        <ele>170</ele>
        <time>2012-04-12T16:42:12.000Z</time>
      </trkpt>
      <trkpt lat="48.23695" lon="3.19252">
        <ele>169</ele>
        <time>2012-04-12T16:42:13.000Z</time>
      </trkpt>
      <trkpt lat="48.23692" lon="3.1926">
        <ele>169</ele>
        <time>2012-04-12T16:42:14.000Z</time>
      </trkpt>
      <trkpt lat="48.2369" lon="3.19271">
        <ele>169</ele>
        <time>2012-04-12T16:42:15.000Z</time>
      </trkpt>
      <trkpt lat="48.23687" lon="3.19282">
        <ele>169</ele>
        <time>2012-04-12T16:42:16.000Z</time>
      </trkpt>
      <trkpt lat="48.23684" lon="3.19292">
        <ele>169</ele>
        <time>2012-04-12T16:42:17.000Z</time>
      </trkpt>
      <trkpt lat="48.2368" lon="3.19301">
        <ele>169</ele>
        <time>2012-04-12T16:42:18.000Z</time>
      </trkpt>
      <trkpt lat="48.23676" lon="3.19309">
        <ele>170</ele>
        <time>2012-04-12T16:42:19.000Z</time>
      </trkpt>
      <trkpt lat="48.23673" lon="3.1932">
        <ele>170</ele>
        <time>2012-04-12T16:42:20.000Z</time>
      </trkpt>
      <trkpt lat="48.23668" lon="3.19329">
        <ele>171</ele>
        <time>2012-04-12T16:42:21.000Z</time>
      </trkpt>
      <trkpt lat="48.23664" lon="3.19335">
        <ele>172</ele>
        <time>2012-04-12T16:42:22.000Z</time>
      </trkpt>
      <trkpt lat="48.2366" lon="3.19344">
        <ele>173</ele>
        <time>2012-04-12T16:42:23.000Z</time>
      </trkpt>
      <trkpt lat="48.23656" lon="3.1935">
        <ele>173</ele>
        <time>2012-04-12T16:42:24.000Z</time>
      </trkpt>
      <trkpt lat="48.23651" lon="3.19354">
        <ele>174</ele>
        <time>2012-04-12T16:42:25.000Z</time>
      </trkpt>
      <trkpt lat="48.23646" lon="3.19361">
        <ele>174</ele>
        <time>2012-04-12T16:42:26.000Z</time>
      </trkpt>
      <trkpt lat="48.23642" lon="3.19365">
        <ele>174</ele>
        <time>2012-04-12T16:42:27.000Z</time>
      </trkpt>
      <trkpt lat="48.23637" lon="3.19372">
        <ele>174</ele>
        <time>2012-04-12T16:42:28.000Z</time>
      </trkpt>
      <trkpt lat="48.23632" lon="3.19376">
        <ele>175</ele>
        <time>2012-04-12T16:42:29.000Z</time>
      </trkpt>
      <trkpt lat="48.23628" lon="3.1938">
        <ele>175</ele>
        <time>2012-04-12T16:42:30.000Z</time>
      </trkpt>
      <trkpt lat="48.23624" lon="3.19384">
        <ele>175</ele>
        <time>2012-04-12T16:42:31.000Z</time>
      </trkpt>
      <trkpt lat="48.23619" lon="3.19389">
        <ele>175</ele>
        <time>2012-04-12T16:42:32.000Z</time>
      </trkpt>
      <trkpt lat="48.23615" lon="3.19393">
        <ele>175</ele>
        <time>2012-04-12T16:42:33.000Z</time>
      </trkpt>
      <trkpt lat="48.23611" lon="3.19397">
        <ele>175</ele>
        <time>2012-04-12T16:42:34.000Z</time>
      </trkpt>
      <trkpt lat="48.23606" lon="3.19402">
        <ele>176</ele>
        <time>2012-04-12T16:42:35.000Z</time>
      </trkpt>
      <trkpt lat="48.23599" lon="3.1941">
        <ele>176</ele>
        <time>2012-04-12T16:42:37.000Z</time>
      </trkpt>
      <trkpt lat="48.23594" lon="3.19415">
        <ele>177</ele>
        <time>2012-04-12T16:42:38.000Z</time>
      </trkpt>
      <trkpt lat="48.23588" lon="3.19421">
        <ele>177</ele>
        <time>2012-04-12T16:42:40.000Z</time>
      </trkpt>
      <trkpt lat="48.23583" lon="3.19425">
        <ele>178</ele>
        <time>2012-04-12T16:42:42.000Z</time>
      </trkpt>
      <trkpt lat="48.23576" lon="3.19432">
        <ele>178</ele>
        <time>2012-04-12T16:42:44.000Z</time>
      </trkpt>
      <trkpt lat="48.2357" lon="3.19438">
        <ele>178</ele>
        <time>2012-04-12T16:42:46.000Z</time>
      </trkpt>
      <trkpt lat="48.23564" lon="3.19447">
        <ele>178</ele>
        <time>2012-04-12T16:42:48.000Z</time>
      </trkpt>
      <trkpt lat="48.23557" lon="3.19453">
        <ele>179</ele>
        <time>2012-04-12T16:42:50.000Z</time>
      </trkpt>
      <trkpt lat="48.2355" lon="3.19462">
        <ele>179</ele>
        <time>2012-04-12T16:42:52.000Z</time>
      </trkpt>
      <trkpt lat="48.23544" lon="3.1947">
        <ele>179</ele>
        <time>2012-04-12T16:42:54.000Z</time>
      </trkpt>
      <trkpt lat="48.2354" lon="3.19475">
        <ele>179</ele>
        <time>2012-04-12T16:42:55.000Z</time>
      </trkpt>
      <trkpt lat="48.23533" lon="3.19481">
        <ele>179</ele>
        <time>2012-04-12T16:42:57.000Z</time>
      </trkpt>
      <trkpt lat="48.23526" lon="3.1949">
        <ele>179</ele>
        <time>2012-04-12T16:42:59.000Z</time>
      </trkpt>
      <trkpt lat="48.2352" lon="3.19494">
        <ele>179</ele>
        <time>2012-04-12T16:43:01.000Z</time>
      </trkpt>
      <trkpt lat="48.23515" lon="3.195">
        <ele>179</ele>
        <time>2012-04-12T16:43:03.000Z</time>
      </trkpt>
      <trkpt lat="48.2351" lon="3.19507">
        <ele>180</ele>
        <time>2012-04-12T16:43:05.000Z</time>
      </trkpt>
      <trkpt lat="48.23504" lon="3.19513">
        <ele>180</ele>
        <time>2012-04-12T16:43:07.000Z</time>
      </trkpt>
      <trkpt lat="48.23498" lon="3.1952">
        <ele>182</ele>
        <time>2012-04-12T16:43:09.000Z</time>
      </trkpt>
      <trkpt lat="48.23492" lon="3.19528">
        <ele>182</ele>
        <time>2012-04-12T16:43:11.000Z</time>
      </trkpt>
      <trkpt lat="48.23485" lon="3.19535">
        <ele>182</ele>
        <time>2012-04-12T16:43:13.000Z</time>
      </trkpt>
      <trkpt lat="48.2348" lon="3.19543">
        <ele>183</ele>
        <time>2012-04-12T16:43:15.000Z</time>
      </trkpt>
      <trkpt lat="48.23474" lon="3.1955">
        <ele>183</ele>
        <time>2012-04-12T16:43:17.000Z</time>
      </trkpt>
      <trkpt lat="48.23468" lon="3.19556">
        <ele>183</ele>
        <time>2012-04-12T16:43:19.000Z</time>
      </trkpt>
      <trkpt lat="48.23463" lon="3.19565">
        <ele>183</ele>
        <time>2012-04-12T16:43:21.000Z</time>
      </trkpt>
      <trkpt lat="48.23457" lon="3.19571">
        <ele>183</ele>
        <time>2012-04-12T16:43:23.000Z</time>
      </trkpt>
      <trkpt lat="48.23451" lon="3.19578">
        <ele>184</ele>
        <time>2012-04-12T16:43:25.000Z</time>
      </trkpt>
      <trkpt lat="48.23445" lon="3.19586">
        <ele>184</ele>
        <time>2012-04-12T16:43:27.000Z</time>
      </trkpt>
      <trkpt lat="48.23442" lon="3.19593">
        <ele>184</ele>
        <time>2012-04-12T16:43:28.000Z</time>
      </trkpt>
      <trkpt lat="48.23438" lon="3.19601">
        <ele>184</ele>
        <time>2012-04-12T16:43:30.000Z</time>
      </trkpt>
      <trkpt lat="48.23434" lon="3.19612">
        <ele>184</ele>
        <time>2012-04-12T16:43:32.000Z</time>
      </trkpt>
      <trkpt lat="48.23429" lon="3.19623">
        <ele>184</ele>
        <time>2012-04-12T16:43:34.000Z</time>
      </trkpt>
      <trkpt lat="48.23426" lon="3.19633">
        <ele>184</ele>
        <time>2012-04-12T16:43:36.000Z</time>
      </trkpt>
      <trkpt lat="48.23424" lon="3.19644">
        <ele>184</ele>
        <time>2012-04-12T16:43:38.000Z</time>
      </trkpt>
      <trkpt lat="48.23422" lon="3.19655">
        <ele>184</ele>
        <time>2012-04-12T16:43:40.000Z</time>
      </trkpt>
      <trkpt lat="48.2342" lon="3.19668">
        <ele>184</ele>
        <time>2012-04-12T16:43:42.000Z</time>
      </trkpt>
      <trkpt lat="48.23419" lon="3.19681">
        <ele>184</ele>
        <time>2012-04-12T16:43:44.000Z</time>
      </trkpt>
      <trkpt lat="48.23416" lon="3.19694">
        <ele>185</ele>
        <time>2012-04-12T16:43:46.000Z</time>
      </trkpt>
      <trkpt lat="48.23414" lon="3.19706">
        <ele>185</ele>
        <time>2012-04-12T16:43:48.000Z</time>
      </trkpt>
      <trkpt lat="48.23413" lon="3.19715">
        <ele>185</ele>
        <time>2012-04-12T16:43:49.000Z</time>
      </trkpt>
      <trkpt lat="48.23411" lon="3.19728">
        <ele>185</ele>
        <time>2012-04-12T16:43:51.000Z</time>
      </trkpt>
      <trkpt lat="48.2341" lon="3.19736">
        <ele>185</ele>
        <time>2012-04-12T16:43:52.000Z</time>
      </trkpt>
      <trkpt lat="48.23409" lon="3.19745">
        <ele>185</ele>
        <time>2012-04-12T16:43:53.000Z</time>
      </trkpt>
      <trkpt lat="48.23407" lon="3.1976">
        <ele>185</ele>
        <time>2012-04-12T16:43:55.000Z</time>
      </trkpt>
      <trkpt lat="48.23405" lon="3.19766">
        <ele>185</ele>
        <time>2012-04-12T16:43:56.000Z</time>
      </trkpt>
      <trkpt lat="48.23404" lon="3.19775">
        <ele>185</ele>
        <time>2012-04-12T16:43:57.000Z</time>
      </trkpt>
      <trkpt lat="48.23401" lon="3.19784">
        <ele>185</ele>
        <time>2012-04-12T16:43:58.000Z</time>
      </trkpt>
      <trkpt lat="48.23399" lon="3.19799">
        <ele>185</ele>
        <time>2012-04-12T16:44:00.000Z</time>
      </trkpt>
      <trkpt lat="48.23397" lon="3.19807">
        <ele>185</ele>
        <time>2012-04-12T16:44:01.000Z</time>
      </trkpt>
      <trkpt lat="48.23395" lon="3.19814">
        <ele>184</ele>
        <time>2012-04-12T16:44:02.000Z</time>
      </trkpt>
      <trkpt lat="48.23394" lon="3.19822">
        <ele>184</ele>
        <time>2012-04-12T16:44:03.000Z</time>
      </trkpt>
      <trkpt lat="48.23392" lon="3.19831">
        <ele>184</ele>
        <time>2012-04-12T16:44:04.000Z</time>
      </trkpt>
      <trkpt lat="48.23388" lon="3.19839">
        <ele>184</ele>
        <time>2012-04-12T16:44:05.000Z</time>
      </trkpt>
      <trkpt lat="48.23386" lon="3.19848">
        <ele>184</ele>
        <time>2012-04-12T16:44:06.000Z</time>
      </trkpt>
      <trkpt lat="48.23384" lon="3.19857">
        <ele>184</ele>
        <time>2012-04-12T16:44:07.000Z</time>
      </trkpt>
      <trkpt lat="48.23382" lon="3.19865">
        <ele>184</ele>
        <time>2012-04-12T16:44:08.000Z</time>
      </trkpt>
      <trkpt lat="48.23379" lon="3.19876">
        <ele>183</ele>
        <time>2012-04-12T16:44:09.000Z</time>
      </trkpt>
      <trkpt lat="48.23377" lon="3.19884">
        <ele>183</ele>
        <time>2012-04-12T16:44:10.000Z</time>
      </trkpt>
      <trkpt lat="48.23374" lon="3.19893">
        <ele>183</ele>
        <time>2012-04-12T16:44:11.000Z</time>
      </trkpt>
      <trkpt lat="48.2337" lon="3.19904">
        <ele>183</ele>
        <time>2012-04-12T16:44:12.000Z</time>
      </trkpt>
      <trkpt lat="48.23368" lon="3.19912">
        <ele>183</ele>
        <time>2012-04-12T16:44:13.000Z</time>
      </trkpt>
      <trkpt lat="48.23365" lon="3.19923">
        <ele>183</ele>
        <time>2012-04-12T16:44:14.000Z</time>
      </trkpt>
      <trkpt lat="48.23362" lon="3.19932">
        <ele>183</ele>
        <time>2012-04-12T16:44:15.000Z</time>
      </trkpt>
      <trkpt lat="48.23358" lon="3.1994">
        <ele>183</ele>
        <time>2012-04-12T16:44:16.000Z</time>
      </trkpt>
      <trkpt lat="48.23355" lon="3.19951">
        <ele>183</ele>
        <time>2012-04-12T16:44:17.000Z</time>
      </trkpt>
      <trkpt lat="48.23351" lon="3.1996">
        <ele>183</ele>
        <time>2012-04-12T16:44:18.000Z</time>
      </trkpt>
      <trkpt lat="48.23348" lon="3.19968">
        <ele>183</ele>
        <time>2012-04-12T16:44:19.000Z</time>
      </trkpt>
      <trkpt lat="48.23344" lon="3.19977">
        <ele>183</ele>
        <time>2012-04-12T16:44:20.000Z</time>
      </trkpt>
      <trkpt lat="48.2334" lon="3.19985">
        <ele>184</ele>
        <time>2012-04-12T16:44:21.000Z</time>
      </trkpt>
      <trkpt lat="48.23336" lon="3.19994">
        <ele>184</ele>
        <time>2012-04-12T16:44:22.000Z</time>
      </trkpt>
      <trkpt lat="48.23332" lon="3.20002">
        <ele>184</ele>
        <time>2012-04-12T16:44:23.000Z</time>
      </trkpt>
      <trkpt lat="48.23327" lon="3.20011">
        <ele>184</ele>
        <time>2012-04-12T16:44:24.000Z</time>
      </trkpt>
      <trkpt lat="48.23323" lon="3.2002">
        <ele>184</ele>
        <time>2012-04-12T16:44:25.000Z</time>
      </trkpt>
      <trkpt lat="48.23319" lon="3.20028">
        <ele>184</ele>
        <time>2012-04-12T16:44:26.000Z</time>
      </trkpt>
      <trkpt lat="48.23314" lon="3.20037">
        <ele>184</ele>
        <time>2012-04-12T16:44:27.000Z</time>
      </trkpt>
      <trkpt lat="48.23309" lon="3.20043">
        <ele>184</ele>
        <time>2012-04-12T16:44:28.000Z</time>
      </trkpt>
      <trkpt lat="48.23305" lon="3.20052">
        <ele>184</ele>
        <time>2012-04-12T16:44:29.000Z</time>
      </trkpt>
      <trkpt lat="48.233" lon="3.20058">
        <ele>184</ele>
        <time>2012-04-12T16:44:30.000Z</time>
      </trkpt>
      <trkpt lat="48.23294" lon="3.20065">
        <ele>184</ele>
        <time>2012-04-12T16:44:31.000Z</time>
      </trkpt>
      <trkpt lat="48.23289" lon="3.20071">
        <ele>184</ele>
        <time>2012-04-12T16:44:32.000Z</time>
      </trkpt>
      <trkpt lat="48.23283" lon="3.20078">
        <ele>185</ele>
        <time>2012-04-12T16:44:33.000Z</time>
      </trkpt>
      <trkpt lat="48.23278" lon="3.20084">
        <ele>184</ele>
        <time>2012-04-12T16:44:34.000Z</time>
      </trkpt>
      <trkpt lat="48.23273" lon="3.2009">
        <ele>184</ele>
        <time>2012-04-12T16:44:35.000Z</time>
      </trkpt>
      <trkpt lat="48.23267" lon="3.20097">
        <ele>184</ele>
        <time>2012-04-12T16:44:36.000Z</time>
      </trkpt>
      <trkpt lat="48.23263" lon="3.20101">
        <ele>184</ele>
        <time>2012-04-12T16:44:37.000Z</time>
      </trkpt>
      <trkpt lat="48.23258" lon="3.20108">
        <ele>184</ele>
        <time>2012-04-12T16:44:38.000Z</time>
      </trkpt>
      <trkpt lat="48.23252" lon="3.20114">
        <ele>184</ele>
        <time>2012-04-12T16:44:39.000Z</time>
      </trkpt>
      <trkpt lat="48.23247" lon="3.2012">
        <ele>186</ele>
        <time>2012-04-12T16:44:40.000Z</time>
      </trkpt>
      <trkpt lat="48.23242" lon="3.20127">
        <ele>185</ele>
        <time>2012-04-12T16:44:41.000Z</time>
      </trkpt>
      <trkpt lat="48.23236" lon="3.20133">
        <ele>185</ele>
        <time>2012-04-12T16:44:42.000Z</time>
      </trkpt>
      <trkpt lat="48.23231" lon="3.2014">
        <ele>185</ele>
        <time>2012-04-12T16:44:43.000Z</time>
      </trkpt>
      <trkpt lat="48.23225" lon="3.20146">
        <ele>185</ele>
        <time>2012-04-12T16:44:44.000Z</time>
      </trkpt>
      <trkpt lat="48.23221" lon="3.20153">
        <ele>185</ele>
        <time>2012-04-12T16:44:45.000Z</time>
      </trkpt>
      <trkpt lat="48.23216" lon="3.20161">
        <ele>185</ele>
        <time>2012-04-12T16:44:46.000Z</time>
      </trkpt>
      <trkpt lat="48.23212" lon="3.20168">
        <ele>185</ele>
        <time>2012-04-12T16:44:47.000Z</time>
      </trkpt>
      <trkpt lat="48.23207" lon="3.20176">
        <ele>185</ele>
        <time>2012-04-12T16:44:48.000Z</time>
      </trkpt>
      <trkpt lat="48.23203" lon="3.20183">
        <ele>185</ele>
        <time>2012-04-12T16:44:49.000Z</time>
      </trkpt>
      <trkpt lat="48.23199" lon="3.20191">
        <ele>185</ele>
        <time>2012-04-12T16:44:50.000Z</time>
      </trkpt>
      <trkpt lat="48.23194" lon="3.202">
        <ele>185</ele>
        <time>2012-04-12T16:44:51.000Z</time>
      </trkpt>
      <trkpt lat="48.23191" lon="3.20208">
        <ele>185</ele>
        <time>2012-04-12T16:44:52.000Z</time>
      </trkpt>
      <trkpt lat="48.23188" lon="3.20217">
        <ele>185</ele>
        <time>2012-04-12T16:44:53.000Z</time>
      </trkpt>
      <trkpt lat="48.23185" lon="3.20226">
        <ele>185</ele>
        <time>2012-04-12T16:44:54.000Z</time>
      </trkpt>
      <trkpt lat="48.23182" lon="3.20234">
        <ele>185</ele>
        <time>2012-04-12T16:44:55.000Z</time>
      </trkpt>
      <trkpt lat="48.23179" lon="3.20245">
        <ele>185</ele>
        <time>2012-04-12T16:44:56.000Z</time>
      </trkpt>
      <trkpt lat="48.23176" lon="3.20254">
        <ele>185</ele>
        <time>2012-04-12T16:44:57.000Z</time>
      </trkpt>
      <trkpt lat="48.23174" lon="3.20262">
        <ele>185</ele>
        <time>2012-04-12T16:44:58.000Z</time>
      </trkpt>
      <trkpt lat="48.23171" lon="3.20271">
        <ele>185</ele>
        <time>2012-04-12T16:44:59.000Z</time>
      </trkpt>
      <trkpt lat="48.23169" lon="3.20279">
        <ele>185</ele>
        <time>2012-04-12T16:45:00.000Z</time>
      </trkpt>
      <trkpt lat="48.23166" lon="3.20288">
        <ele>187</ele>
        <time>2012-04-12T16:45:01.000Z</time>
      </trkpt>
      <trkpt lat="48.23163" lon="3.20296">
        <ele>187</ele>
        <time>2012-04-12T16:45:02.000Z</time>
      </trkpt>
      <trkpt lat="48.23161" lon="3.20303">
        <ele>187</ele>
        <time>2012-04-12T16:45:03.000Z</time>
      </trkpt>
      <trkpt lat="48.23158" lon="3.20309">
        <ele>187</ele>
        <time>2012-04-12T16:45:04.000Z</time>
      </trkpt>
      <trkpt lat="48.23156" lon="3.20318">
        <ele>187</ele>
        <time>2012-04-12T16:45:05.000Z</time>
      </trkpt>
      <trkpt lat="48.23152" lon="3.20324">
        <ele>187</ele>
        <time>2012-04-12T16:45:06.000Z</time>
      </trkpt>
      <trkpt lat="48.23145" lon="3.20335">
        <ele>187</ele>
        <time>2012-04-12T16:45:08.000Z</time>
      </trkpt>
      <trkpt lat="48.23142" lon="3.20342">
        <ele>187</ele>
        <time>2012-04-12T16:45:09.000Z</time>
      </trkpt>
      <trkpt lat="48.23138" lon="3.20346">
        <ele>187</ele>
        <time>2012-04-12T16:45:10.000Z</time>
      </trkpt>
      <trkpt lat="48.2313" lon="3.20357">
        <ele>187</ele>
        <time>2012-04-12T16:45:12.000Z</time>
      </trkpt>
      <trkpt lat="48.23126" lon="3.20361">
        <ele>187</ele>
        <time>2012-04-12T16:45:13.000Z</time>
      </trkpt>
      <trkpt lat="48.23121" lon="3.20365">
        <ele>187</ele>
        <time>2012-04-12T16:45:14.000Z</time>
      </trkpt>
      <trkpt lat="48.23117" lon="3.20367">
        <ele>187</ele>
        <time>2012-04-12T16:45:15.000Z</time>
      </trkpt>
      <trkpt lat="48.23113" lon="3.20372">
        <ele>187</ele>
        <time>2012-04-12T16:45:16.000Z</time>
      </trkpt>
      <trkpt lat="48.23108" lon="3.20376">
        <ele>187</ele>
        <time>2012-04-12T16:45:17.000Z</time>
      </trkpt>
      <trkpt lat="48.23104" lon="3.2038">
        <ele>187</ele>
        <time>2012-04-12T16:45:18.000Z</time>
      </trkpt>
      <trkpt lat="48.23098" lon="3.20387">
        <ele>187</ele>
        <time>2012-04-12T16:45:20.000Z</time>
      </trkpt>
      <trkpt lat="48.23091" lon="3.20393">
        <ele>187</ele>
        <time>2012-04-12T16:45:22.000Z</time>
      </trkpt>
      <trkpt lat="48.23085" lon="3.20397">
        <ele>187</ele>
        <time>2012-04-12T16:45:24.000Z</time>
      </trkpt>
      <trkpt lat="48.2308" lon="3.20402">
        <ele>188</ele>
        <time>2012-04-12T16:45:26.000Z</time>
      </trkpt>
      <trkpt lat="48.23075" lon="3.20406">
        <ele>188</ele>
        <time>2012-04-12T16:45:28.000Z</time>
      </trkpt>
      <trkpt lat="48.2308" lon="3.20404">
        <ele>188</ele>
        <time>2012-04-12T16:45:34.000Z</time>
      </trkpt>
      <trkpt lat="48.23084" lon="3.20402">
        <ele>187</ele>
        <time>2012-04-12T16:45:36.000Z</time>
      </trkpt>
      <trkpt lat="48.23089" lon="3.20397">
        <ele>187</ele>
        <time>2012-04-12T16:45:38.000Z</time>
      </trkpt>
      <trkpt lat="48.23096" lon="3.20391">
        <ele>187</ele>
        <time>2012-04-12T16:45:40.000Z</time>
      </trkpt>
      <trkpt lat="48.23102" lon="3.20382">
        <ele>187</ele>
        <time>2012-04-12T16:45:42.000Z</time>
      </trkpt>
      <trkpt lat="48.23106" lon="3.20378">
        <ele>187</ele>
        <time>2012-04-12T16:45:43.000Z</time>
      </trkpt>
      <trkpt lat="48.23111" lon="3.20374">
        <ele>187</ele>
        <time>2012-04-12T16:45:44.000Z</time>
      </trkpt>
      <trkpt lat="48.23115" lon="3.20369">
        <ele>187</ele>
        <time>2012-04-12T16:45:45.000Z</time>
      </trkpt>
      <trkpt lat="48.23119" lon="3.20365">
        <ele>187</ele>
        <time>2012-04-12T16:45:46.000Z</time>
      </trkpt>
      <trkpt lat="48.23124" lon="3.20361">
        <ele>187</ele>
        <time>2012-04-12T16:45:47.000Z</time>
      </trkpt>
      <trkpt lat="48.23128" lon="3.20354">
        <ele>187</ele>
        <time>2012-04-12T16:45:48.000Z</time>
      </trkpt>
      <trkpt lat="48.23135" lon="3.20346">
        <ele>187</ele>
        <time>2012-04-12T16:45:50.000Z</time>
      </trkpt>
      <trkpt lat="48.23138" lon="3.20339">
        <ele>187</ele>
        <time>2012-04-12T16:45:51.000Z</time>
      </trkpt>
      <trkpt lat="48.23143" lon="3.20337">
        <ele>187</ele>
        <time>2012-04-12T16:45:52.000Z</time>
      </trkpt>
      <trkpt lat="48.2315" lon="3.20333">
        <ele>187</ele>
        <time>2012-04-12T16:45:54.000Z</time>
      </trkpt>
      <trkpt lat="48.23155" lon="3.20339">
        <ele>186</ele>
        <time>2012-04-12T16:45:55.000Z</time>
      </trkpt>
      <trkpt lat="48.2316" lon="3.20344">
        <ele>186</ele>
        <time>2012-04-12T16:45:56.000Z</time>
      </trkpt>
      <trkpt lat="48.23164" lon="3.2035">
        <ele>186</ele>
        <time>2012-04-12T16:45:57.000Z</time>
      </trkpt>
      <trkpt lat="48.2317" lon="3.20357">
        <ele>184</ele>
        <time>2012-04-12T16:45:58.000Z</time>
      </trkpt>
      <trkpt lat="48.23175" lon="3.20363">
        <ele>184</ele>
        <time>2012-04-12T16:45:59.000Z</time>
      </trkpt>
      <trkpt lat="48.23179" lon="3.20369">
        <ele>184</ele>
        <time>2012-04-12T16:46:00.000Z</time>
      </trkpt>
      <trkpt lat="48.23185" lon="3.20376">
        <ele>184</ele>
        <time>2012-04-12T16:46:01.000Z</time>
      </trkpt>
      <trkpt lat="48.2319" lon="3.20382">
        <ele>183</ele>
        <time>2012-04-12T16:46:02.000Z</time>
      </trkpt>
      <trkpt lat="48.23195" lon="3.20391">
        <ele>183</ele>
        <time>2012-04-12T16:46:03.000Z</time>
      </trkpt>
      <trkpt lat="48.232" lon="3.20397">
        <ele>183</ele>
        <time>2012-04-12T16:46:04.000Z</time>
      </trkpt>
      <trkpt lat="48.23205" lon="3.20404">
        <ele>183</ele>
        <time>2012-04-12T16:46:05.000Z</time>
      </trkpt>
      <trkpt lat="48.2321" lon="3.20412">
        <ele>183</ele>
        <time>2012-04-12T16:46:06.000Z</time>
      </trkpt>
      <trkpt lat="48.23215" lon="3.20419">
        <ele>182</ele>
        <time>2012-04-12T16:46:07.000Z</time>
      </trkpt>
      <trkpt lat="48.23219" lon="3.20425">
        <ele>182</ele>
        <time>2012-04-12T16:46:08.000Z</time>
      </trkpt>
      <trkpt lat="48.23223" lon="3.20432">
        <ele>182</ele>
        <time>2012-04-12T16:46:09.000Z</time>
      </trkpt>
      <trkpt lat="48.23225" lon="3.2044">
        <ele>182</ele>
        <time>2012-04-12T16:46:10.000Z</time>
      </trkpt>
      <trkpt lat="48.23221" lon="3.20453">
        <ele>182</ele>
        <time>2012-04-12T16:46:12.000Z</time>
      </trkpt>
      <trkpt lat="48.23217" lon="3.2046">
        <ele>182</ele>
        <time>2012-04-12T16:46:13.000Z</time>
      </trkpt>
      <trkpt lat="48.23214" lon="3.20466">
        <ele>182</ele>
        <time>2012-04-12T16:46:14.000Z</time>
      </trkpt>
      <trkpt lat="48.23207" lon="3.20477">
        <ele>182</ele>
        <time>2012-04-12T16:46:16.000Z</time>
      </trkpt>
      <trkpt lat="48.23204" lon="3.20483">
        <ele>182</ele>
        <time>2012-04-12T16:46:17.000Z</time>
      </trkpt>
      <trkpt lat="48.23201" lon="3.2049">
        <ele>182</ele>
        <time>2012-04-12T16:46:18.000Z</time>
      </trkpt>
      <trkpt lat="48.23198" lon="3.20496">
        <ele>183</ele>
        <time>2012-04-12T16:46:19.000Z</time>
      </trkpt>
      <trkpt lat="48.23191" lon="3.20507">
        <ele>183</ele>
        <time>2012-04-12T16:46:21.000Z</time>
      </trkpt>
      <trkpt lat="48.23187" lon="3.20513">
        <ele>183</ele>
        <time>2012-04-12T16:46:22.000Z</time>
      </trkpt>
      <trkpt lat="48.23184" lon="3.2052">
        <ele>183</ele>
        <time>2012-04-12T16:46:23.000Z</time>
      </trkpt>
      <trkpt lat="48.23176" lon="3.2053">
        <ele>183</ele>
        <time>2012-04-12T16:46:25.000Z</time>
      </trkpt>
      <trkpt lat="48.23173" lon="3.20537">
        <ele>183</ele>
        <time>2012-04-12T16:46:26.000Z</time>
      </trkpt>
      <trkpt lat="48.23169" lon="3.20541">
        <ele>183</ele>
        <time>2012-04-12T16:46:27.000Z</time>
      </trkpt>
      <trkpt lat="48.23165" lon="3.20548">
        <ele>184</ele>
        <time>2012-04-12T16:46:28.000Z</time>
      </trkpt>
      <trkpt lat="48.23162" lon="3.20554">
        <ele>184</ele>
        <time>2012-04-12T16:46:29.000Z</time>
      </trkpt>
      <trkpt lat="48.2316" lon="3.2056">
        <ele>184</ele>
        <time>2012-04-12T16:46:30.000Z</time>
      </trkpt>
      <trkpt lat="48.23158" lon="3.20569">
        <ele>184</ele>
        <time>2012-04-12T16:46:31.000Z</time>
      </trkpt>
      <trkpt lat="48.23158" lon="3.20578">
        <ele>184</ele>
        <time>2012-04-12T16:46:32.000Z</time>
      </trkpt>
      <trkpt lat="48.23158" lon="3.20586">
        <ele>184</ele>
        <time>2012-04-12T16:46:33.000Z</time>
      </trkpt>
      <trkpt lat="48.23157" lon="3.20595">
        <ele>183</ele>
        <time>2012-04-12T16:46:34.000Z</time>
      </trkpt>
      <trkpt lat="48.23157" lon="3.20603">
        <ele>183</ele>
        <time>2012-04-12T16:46:35.000Z</time>
      </trkpt>
      <trkpt lat="48.23157" lon="3.20612">
        <ele>183</ele>
        <time>2012-04-12T16:46:36.000Z</time>
      </trkpt>
      <trkpt lat="48.23157" lon="3.2062">
        <ele>183</ele>
        <time>2012-04-12T16:46:37.000Z</time>
      </trkpt>
      <trkpt lat="48.23156" lon="3.20629">
        <ele>183</ele>
        <time>2012-04-12T16:46:38.000Z</time>
      </trkpt>
      <trkpt lat="48.23156" lon="3.20638">
        <ele>183</ele>
        <time>2012-04-12T16:46:39.000Z</time>
      </trkpt>
      <trkpt lat="48.23157" lon="3.20646">
        <ele>183</ele>
        <time>2012-04-12T16:46:40.000Z</time>
      </trkpt>
      <trkpt lat="48.23158" lon="3.20655">
        <ele>183</ele>
        <time>2012-04-12T16:46:41.000Z</time>
      </trkpt>
      <trkpt lat="48.2316" lon="3.2067">
        <ele>183</ele>
        <time>2012-04-12T16:46:43.000Z</time>
      </trkpt>
      <trkpt lat="48.23161" lon="3.20678">
        <ele>182</ele>
        <time>2012-04-12T16:46:44.000Z</time>
      </trkpt>
      <trkpt lat="48.23163" lon="3.20687">
        <ele>182</ele>
        <time>2012-04-12T16:46:45.000Z</time>
      </trkpt>
      <trkpt lat="48.23164" lon="3.20696">
        <ele>182</ele>
        <time>2012-04-12T16:46:46.000Z</time>
      </trkpt>
      <trkpt lat="48.23166" lon="3.20704">
        <ele>182</ele>
        <time>2012-04-12T16:46:47.000Z</time>
      </trkpt>
      <trkpt lat="48.23168" lon="3.20713">
        <ele>182</ele>
        <time>2012-04-12T16:46:48.000Z</time>
      </trkpt>
      <trkpt lat="48.2317" lon="3.20721">
        <ele>182</ele>
        <time>2012-04-12T16:46:49.000Z</time>
      </trkpt>
      <trkpt lat="48.23171" lon="3.2073">
        <ele>182</ele>
        <time>2012-04-12T16:46:50.000Z</time>
      </trkpt>
      <trkpt lat="48.23173" lon="3.20738">
        <ele>182</ele>
        <time>2012-04-12T16:46:51.000Z</time>
      </trkpt>
      <trkpt lat="48.23174" lon="3.20747">
        <ele>182</ele>
        <time>2012-04-12T16:46:52.000Z</time>
      </trkpt>
      <trkpt lat="48.23176" lon="3.20756">
        <ele>182</ele>
        <time>2012-04-12T16:46:53.000Z</time>
      </trkpt>
      <trkpt lat="48.23177" lon="3.20766">
        <ele>182</ele>
        <time>2012-04-12T16:46:54.000Z</time>
      </trkpt>
      <trkpt lat="48.23179" lon="3.20775">
        <ele>181</ele>
        <time>2012-04-12T16:46:55.000Z</time>
      </trkpt>
      <trkpt lat="48.2318" lon="3.20784">
        <ele>181</ele>
        <time>2012-04-12T16:46:56.000Z</time>
      </trkpt>
      <trkpt lat="48.23182" lon="3.20794">
        <ele>181</ele>
        <time>2012-04-12T16:46:57.000Z</time>
      </trkpt>
      <trkpt lat="48.23182" lon="3.20805">
        <ele>181</ele>
        <time>2012-04-12T16:46:58.000Z</time>
      </trkpt>
      <trkpt lat="48.23184" lon="3.20814">
        <ele>181</ele>
        <time>2012-04-12T16:46:59.000Z</time>
      </trkpt>
      <trkpt lat="48.23185" lon="3.20824">
        <ele>181</ele>
        <time>2012-04-12T16:47:00.000Z</time>
      </trkpt>
      <trkpt lat="48.23186" lon="3.20835">
        <ele>180</ele>
        <time>2012-04-12T16:47:01.000Z</time>
      </trkpt>
      <trkpt lat="48.23187" lon="3.20846">
        <ele>180</ele>
        <time>2012-04-12T16:47:02.000Z</time>
      </trkpt>
      <trkpt lat="48.23187" lon="3.20854">
        <ele>180</ele>
        <time>2012-04-12T16:47:03.000Z</time>
      </trkpt>
      <trkpt lat="48.23187" lon="3.20865">
        <ele>179</ele>
        <time>2012-04-12T16:47:04.000Z</time>
      </trkpt>
      <trkpt lat="48.23187" lon="3.20876">
        <ele>179</ele>
        <time>2012-04-12T16:47:05.000Z</time>
      </trkpt>
      <trkpt lat="48.23187" lon="3.20887">
        <ele>179</ele>
        <time>2012-04-12T16:47:06.000Z</time>
      </trkpt>
      <trkpt lat="48.23187" lon="3.20897">
        <ele>179</ele>
        <time>2012-04-12T16:47:07.000Z</time>
      </trkpt>
      <trkpt lat="48.23187" lon="3.20908">
        <ele>178</ele>
        <time>2012-04-12T16:47:08.000Z</time>
      </trkpt>
      <trkpt lat="48.23187" lon="3.20919">
        <ele>177</ele>
        <time>2012-04-12T16:47:09.000Z</time>
      </trkpt>
      <trkpt lat="48.23187" lon="3.20927">
        <ele>177</ele>
        <time>2012-04-12T16:47:10.000Z</time>
      </trkpt>
      <trkpt lat="48.23188" lon="3.20938">
        <ele>177</ele>
        <time>2012-04-12T16:47:11.000Z</time>
      </trkpt>
      <trkpt lat="48.23188" lon="3.20947">
        <ele>177</ele>
        <time>2012-04-12T16:47:12.000Z</time>
      </trkpt>
      <trkpt lat="48.23188" lon="3.20957">
        <ele>177</ele>
        <time>2012-04-12T16:47:13.000Z</time>
      </trkpt>
      <trkpt lat="48.23188" lon="3.20966">
        <ele>176</ele>
        <time>2012-04-12T16:47:14.000Z</time>
      </trkpt>
      <trkpt lat="48.23188" lon="3.20977">
        <ele>176</ele>
        <time>2012-04-12T16:47:15.000Z</time>
      </trkpt>
      <trkpt lat="48.23186" lon="3.20985">
        <ele>176</ele>
        <time>2012-04-12T16:47:16.000Z</time>
      </trkpt>
      <trkpt lat="48.23184" lon="3.20992">
        <ele>177</ele>
        <time>2012-04-12T16:47:17.000Z</time>
      </trkpt>
      <trkpt lat="48.2318" lon="3.20998">
        <ele>177</ele>
        <time>2012-04-12T16:47:18.000Z</time>
      </trkpt>
      <trkpt lat="48.23176" lon="3.21005">
        <ele>176</ele>
        <time>2012-04-12T16:47:19.000Z</time>
      </trkpt>
      <trkpt lat="48.23173" lon="3.21011">
        <ele>176</ele>
        <time>2012-04-12T16:47:20.000Z</time>
      </trkpt>
      <trkpt lat="48.23169" lon="3.21018">
        <ele>176</ele>
        <time>2012-04-12T16:47:21.000Z</time>
      </trkpt>
      <trkpt lat="48.23165" lon="3.21024">
        <ele>177</ele>
        <time>2012-04-12T16:47:22.000Z</time>
      </trkpt>
      <trkpt lat="48.23161" lon="3.2103">
        <ele>177</ele>
        <time>2012-04-12T16:47:23.000Z</time>
      </trkpt>
      <trkpt lat="48.23156" lon="3.21037">
        <ele>177</ele>
        <time>2012-04-12T16:47:24.000Z</time>
      </trkpt>
      <trkpt lat="48.23151" lon="3.21043">
        <ele>177</ele>
        <time>2012-04-12T16:47:25.000Z</time>
      </trkpt>
      <trkpt lat="48.23147" lon="3.2105">
        <ele>177</ele>
        <time>2012-04-12T16:47:26.000Z</time>
      </trkpt>
      <trkpt lat="48.23142" lon="3.21056">
        <ele>177</ele>
        <time>2012-04-12T16:47:27.000Z</time>
      </trkpt>
      <trkpt lat="48.23138" lon="3.21065">
        <ele>177</ele>
        <time>2012-04-12T16:47:28.000Z</time>
      </trkpt>
      <trkpt lat="48.23133" lon="3.21071">
        <ele>177</ele>
        <time>2012-04-12T16:47:29.000Z</time>
      </trkpt>
      <trkpt lat="48.23129" lon="3.2108">
        <ele>177</ele>
        <time>2012-04-12T16:47:30.000Z</time>
      </trkpt>
      <trkpt lat="48.23125" lon="3.21086">
        <ele>177</ele>
        <time>2012-04-12T16:47:31.000Z</time>
      </trkpt>
      <trkpt lat="48.2312" lon="3.21093">
        <ele>178</ele>
        <time>2012-04-12T16:47:32.000Z</time>
      </trkpt>
      <trkpt lat="48.23117" lon="3.21099">
        <ele>178</ele>
        <time>2012-04-12T16:47:33.000Z</time>
      </trkpt>
      <trkpt lat="48.23113" lon="3.21105">
        <ele>178</ele>
        <time>2012-04-12T16:47:34.000Z</time>
      </trkpt>
      <trkpt lat="48.23108" lon="3.21112">
        <ele>178</ele>
        <time>2012-04-12T16:47:35.000Z</time>
      </trkpt>
      <trkpt lat="48.23104" lon="3.21118">
        <ele>178</ele>
        <time>2012-04-12T16:47:36.000Z</time>
      </trkpt>
      <trkpt lat="48.231" lon="3.21125">
        <ele>178</ele>
        <time>2012-04-12T16:47:37.000Z</time>
      </trkpt>
      <trkpt lat="48.23096" lon="3.21131">
        <ele>178</ele>
        <time>2012-04-12T16:47:38.000Z</time>
      </trkpt>
      <trkpt lat="48.23091" lon="3.21138">
        <ele>178</ele>
        <time>2012-04-12T16:47:39.000Z</time>
      </trkpt>
      <trkpt lat="48.23087" lon="3.21144">
        <ele>179</ele>
        <time>2012-04-12T16:47:40.000Z</time>
      </trkpt>
      <trkpt lat="48.23083" lon="3.2115">
        <ele>180</ele>
        <time>2012-04-12T16:47:41.000Z</time>
      </trkpt>
      <trkpt lat="48.23078" lon="3.21157">
        <ele>180</ele>
        <time>2012-04-12T16:47:42.000Z</time>
      </trkpt>
      <trkpt lat="48.23075" lon="3.21163">
        <ele>180</ele>
        <time>2012-04-12T16:47:43.000Z</time>
      </trkpt>
      <trkpt lat="48.23071" lon="3.2117">
        <ele>181</ele>
        <time>2012-04-12T16:47:44.000Z</time>
      </trkpt>
      <trkpt lat="48.23068" lon="3.21176">
        <ele>181</ele>
        <time>2012-04-12T16:47:45.000Z</time>
      </trkpt>
      <trkpt lat="48.23063" lon="3.21183">
        <ele>181</ele>
        <time>2012-04-12T16:47:46.000Z</time>
      </trkpt>
      <trkpt lat="48.2306" lon="3.21189">
        <ele>181</ele>
        <time>2012-04-12T16:47:47.000Z</time>
      </trkpt>
      <trkpt lat="48.23054" lon="3.212">
        <ele>181</ele>
        <time>2012-04-12T16:47:49.000Z</time>
      </trkpt>
      <trkpt lat="48.23047" lon="3.21208">
        <ele>182</ele>
        <time>2012-04-12T16:47:51.000Z</time>
      </trkpt>
      <trkpt lat="48.23042" lon="3.21217">
        <ele>182</ele>
        <time>2012-04-12T16:47:53.000Z</time>
      </trkpt>
      <trkpt lat="48.2304" lon="3.21223">
        <ele>182</ele>
        <time>2012-04-12T16:47:54.000Z</time>
      </trkpt>
      <trkpt lat="48.23036" lon="3.21232">
        <ele>182</ele>
        <time>2012-04-12T16:47:56.000Z</time>
      </trkpt>
      <trkpt lat="48.23031" lon="3.21241">
        <ele>182</ele>
        <time>2012-04-12T16:47:58.000Z</time>
      </trkpt>
      <trkpt lat="48.23026" lon="3.21249">
        <ele>183</ele>
        <time>2012-04-12T16:48:00.000Z</time>
      </trkpt>
      <trkpt lat="48.23022" lon="3.21258">
        <ele>183</ele>
        <time>2012-04-12T16:48:02.000Z</time>
      </trkpt>
      <trkpt lat="48.2302" lon="3.21264">
        <ele>183</ele>
        <time>2012-04-12T16:48:03.000Z</time>
      </trkpt>
      <trkpt lat="48.23015" lon="3.21273">
        <ele>183</ele>
        <time>2012-04-12T16:48:05.000Z</time>
      </trkpt>
      <trkpt lat="48.23012" lon="3.21284">
        <ele>183</ele>
        <time>2012-04-12T16:48:07.000Z</time>
      </trkpt>
      <trkpt lat="48.23008" lon="3.21292">
        <ele>183</ele>
        <time>2012-04-12T16:48:09.000Z</time>
      </trkpt>
      <trkpt lat="48.23003" lon="3.21301">
        <ele>183</ele>
        <time>2012-04-12T16:48:11.000Z</time>
      </trkpt>
      <trkpt lat="48.23001" lon="3.21307">
        <ele>183</ele>
        <time>2012-04-12T16:48:12.000Z</time>
      </trkpt>
      <trkpt lat="48.22997" lon="3.21316">
        <ele>184</ele>
        <time>2012-04-12T16:48:14.000Z</time>
      </trkpt>
      <trkpt lat="48.22994" lon="3.21326">
        <ele>184</ele>
        <time>2012-04-12T16:48:16.000Z</time>
      </trkpt>
      <trkpt lat="48.22989" lon="3.21335">
        <ele>184</ele>
        <time>2012-04-12T16:48:18.000Z</time>
      </trkpt>
      <trkpt lat="48.22985" lon="3.21344">
        <ele>185</ele>
        <time>2012-04-12T16:48:20.000Z</time>
      </trkpt>
      <trkpt lat="48.22982" lon="3.21354">
        <ele>185</ele>
        <time>2012-04-12T16:48:22.000Z</time>
      </trkpt>
      <trkpt lat="48.22978" lon="3.21365">
        <ele>185</ele>
        <time>2012-04-12T16:48:24.000Z</time>
      </trkpt>
      <trkpt lat="48.22974" lon="3.21374">
        <ele>185</ele>
        <time>2012-04-12T16:48:26.000Z</time>
      </trkpt>
      <trkpt lat="48.2297" lon="3.21382">
        <ele>185</ele>
        <time>2012-04-12T16:48:28.000Z</time>
      </trkpt>
      <trkpt lat="48.22968" lon="3.21389">
        <ele>185</ele>
        <time>2012-04-12T16:48:29.000Z</time>
      </trkpt>
      <trkpt lat="48.22964" lon="3.21395">
        <ele>185</ele>
        <time>2012-04-12T16:48:31.000Z</time>
      </trkpt>
      <trkpt lat="48.2296" lon="3.21404">
        <ele>185</ele>
        <time>2012-04-12T16:48:33.000Z</time>
      </trkpt>
      <trkpt lat="48.22957" lon="3.21412">
        <ele>186</ele>
        <time>2012-04-12T16:48:35.000Z</time>
      </trkpt>
      <trkpt lat="48.22953" lon="3.21421">
        <ele>186</ele>
        <time>2012-04-12T16:48:37.000Z</time>
      </trkpt>
      <trkpt lat="48.2295" lon="3.21429">
        <ele>185</ele>
        <time>2012-04-12T16:48:39.000Z</time>
      </trkpt>
      <trkpt lat="48.22945" lon="3.21438">
        <ele>185</ele>
        <time>2012-04-12T16:48:41.000Z</time>
      </trkpt>
      <trkpt lat="48.2294" lon="3.21449">
        <ele>185</ele>
        <time>2012-04-12T16:48:43.000Z</time>
      </trkpt>
      <trkpt lat="48.22936" lon="3.21457">
        <ele>185</ele>
        <time>2012-04-12T16:48:45.000Z</time>
      </trkpt>
      <trkpt lat="48.22934" lon="3.21466">
        <ele>185</ele>
        <time>2012-04-12T16:48:47.000Z</time>
      </trkpt>
      <trkpt lat="48.22932" lon="3.21474">
        <ele>185</ele>
        <time>2012-04-12T16:48:49.000Z</time>
      </trkpt>
      <trkpt lat="48.2293" lon="3.21485">
        <ele>185</ele>
        <time>2012-04-12T16:48:51.000Z</time>
      </trkpt>
      <trkpt lat="48.2293" lon="3.21494">
        <ele>185</ele>
        <time>2012-04-12T16:48:53.000Z</time>
      </trkpt>
      <trkpt lat="48.22933" lon="3.21507">
        <ele>184</ele>
        <time>2012-04-12T16:48:55.000Z</time>
      </trkpt>
      <trkpt lat="48.22936" lon="3.2152">
        <ele>185</ele>
        <time>2012-04-12T16:48:57.000Z</time>
      </trkpt>
      <trkpt lat="48.22939" lon="3.21532">
        <ele>185</ele>
        <time>2012-04-12T16:48:59.000Z</time>
      </trkpt>
      <trkpt lat="48.22942" lon="3.21543">
        <ele>185</ele>
        <time>2012-04-12T16:49:01.000Z</time>
      </trkpt>
      <trkpt lat="48.22943" lon="3.21552">
        <ele>185</ele>
        <time>2012-04-12T16:49:02.000Z</time>
      </trkpt>
      <trkpt lat="48.22946" lon="3.21558">
        <ele>185</ele>
        <time>2012-04-12T16:49:03.000Z</time>
      </trkpt>
      <trkpt lat="48.22949" lon="3.21565">
        <ele>185</ele>
        <time>2012-04-12T16:49:04.000Z</time>
      </trkpt>
      <trkpt lat="48.22951" lon="3.21573">
        <ele>185</ele>
        <time>2012-04-12T16:49:05.000Z</time>
      </trkpt>
      <trkpt lat="48.22954" lon="3.21582">
        <ele>185</ele>
        <time>2012-04-12T16:49:06.000Z</time>
      </trkpt>
      <trkpt lat="48.22956" lon="3.21588">
        <ele>184</ele>
        <time>2012-04-12T16:49:07.000Z</time>
      </trkpt>
      <trkpt lat="48.22959" lon="3.21597">
        <ele>184</ele>
        <time>2012-04-12T16:49:08.000Z</time>
      </trkpt>
      <trkpt lat="48.22962" lon="3.21603">
        <ele>184</ele>
        <time>2012-04-12T16:49:09.000Z</time>
      </trkpt>
      <trkpt lat="48.22964" lon="3.2161">
        <ele>184</ele>
        <time>2012-04-12T16:49:10.000Z</time>
      </trkpt>
      <trkpt lat="48.22967" lon="3.21618">
        <ele>184</ele>
        <time>2012-04-12T16:49:11.000Z</time>
      </trkpt>
      <trkpt lat="48.22969" lon="3.21625">
        <ele>184</ele>
        <time>2012-04-12T16:49:12.000Z</time>
      </trkpt>
      <trkpt lat="48.22971" lon="3.21633">
        <ele>183</ele>
        <time>2012-04-12T16:49:13.000Z</time>
      </trkpt>
      <trkpt lat="48.22973" lon="3.21642">
        <ele>183</ele>
        <time>2012-04-12T16:49:14.000Z</time>
      </trkpt>
      <trkpt lat="48.22976" lon="3.2165">
        <ele>183</ele>
        <time>2012-04-12T16:49:15.000Z</time>
      </trkpt>
      <trkpt lat="48.22978" lon="3.21659">
        <ele>183</ele>
        <time>2012-04-12T16:49:16.000Z</time>
      </trkpt>
      <trkpt lat="48.2298" lon="3.21668">
        <ele>182</ele>
        <time>2012-04-12T16:49:17.000Z</time>
      </trkpt>
      <trkpt lat="48.22982" lon="3.21676">
        <ele>182</ele>
        <time>2012-04-12T16:49:18.000Z</time>
      </trkpt>
      <trkpt lat="48.22983" lon="3.21685">
        <ele>182</ele>
        <time>2012-04-12T16:49:19.000Z</time>
      </trkpt>
      <trkpt lat="48.22985" lon="3.21693">
        <ele>181</ele>
        <time>2012-04-12T16:49:20.000Z</time>
      </trkpt>
      <trkpt lat="48.22987" lon="3.217">
        <ele>181</ele>
        <time>2012-04-12T16:49:21.000Z</time>
      </trkpt>
      <trkpt lat="48.22988" lon="3.21708">
        <ele>181</ele>
        <time>2012-04-12T16:49:22.000Z</time>
      </trkpt>
      <trkpt lat="48.2299" lon="3.21723">
        <ele>181</ele>
        <time>2012-04-12T16:49:24.000Z</time>
      </trkpt>
      <trkpt lat="48.22993" lon="3.21736">
        <ele>181</ele>
        <time>2012-04-12T16:49:26.000Z</time>
      </trkpt>
      <trkpt lat="48.22994" lon="3.21745">
        <ele>181</ele>
        <time>2012-04-12T16:49:27.000Z</time>
      </trkpt>
      <trkpt lat="48.22997" lon="3.21758">
        <ele>180</ele>
        <time>2012-04-12T16:49:29.000Z</time>
      </trkpt>
      <trkpt lat="48.22998" lon="3.21766">
        <ele>180</ele>
        <time>2012-04-12T16:49:30.000Z</time>
      </trkpt>
      <trkpt lat="48.23" lon="3.21779">
        <ele>179</ele>
        <time>2012-04-12T16:49:32.000Z</time>
      </trkpt>
      <trkpt lat="48.23001" lon="3.21788">
        <ele>181</ele>
        <time>2012-04-12T16:49:33.000Z</time>
      </trkpt>
      <trkpt lat="48.23003" lon="3.21801">
        <ele>181</ele>
        <time>2012-04-12T16:49:35.000Z</time>
      </trkpt>
      <trkpt lat="48.23006" lon="3.21814">
        <ele>181</ele>
        <time>2012-04-12T16:49:37.000Z</time>
      </trkpt>
      <trkpt lat="48.23008" lon="3.21822">
        <ele>181</ele>
        <time>2012-04-12T16:49:38.000Z</time>
      </trkpt>
      <trkpt lat="48.2301" lon="3.21837">
        <ele>180</ele>
        <time>2012-04-12T16:49:40.000Z</time>
      </trkpt>
      <trkpt lat="48.23011" lon="3.21846">
        <ele>180</ele>
        <time>2012-04-12T16:49:41.000Z</time>
      </trkpt>
      <trkpt lat="48.23012" lon="3.21854">
        <ele>180</ele>
        <time>2012-04-12T16:49:42.000Z</time>
      </trkpt>
      <trkpt lat="48.23013" lon="3.21863">
        <ele>180</ele>
        <time>2012-04-12T16:49:43.000Z</time>
      </trkpt>
      <trkpt lat="48.23015" lon="3.21872">
        <ele>179</ele>
        <time>2012-04-12T16:49:44.000Z</time>
      </trkpt>
      <trkpt lat="48.23016" lon="3.21882">
        <ele>179</ele>
        <time>2012-04-12T16:49:45.000Z</time>
      </trkpt>
      <trkpt lat="48.23017" lon="3.21891">
        <ele>179</ele>
        <time>2012-04-12T16:49:46.000Z</time>
      </trkpt>
      <trkpt lat="48.2302" lon="3.21899">
        <ele>179</ele>
        <time>2012-04-12T16:49:47.000Z</time>
      </trkpt>
      <trkpt lat="48.2302" lon="3.2191">
        <ele>178</ele>
        <time>2012-04-12T16:49:48.000Z</time>
      </trkpt>
      <trkpt lat="48.23022" lon="3.21919">
        <ele>177</ele>
        <time>2012-04-12T16:49:49.000Z</time>
      </trkpt>
      <trkpt lat="48.23023" lon="3.21929">
        <ele>178</ele>
        <time>2012-04-12T16:49:50.000Z</time>
      </trkpt>
      <trkpt lat="48.23024" lon="3.2194">
        <ele>178</ele>
        <time>2012-04-12T16:49:51.000Z</time>
      </trkpt>
      <trkpt lat="48.23025" lon="3.21949">
        <ele>178</ele>
        <time>2012-04-12T16:49:52.000Z</time>
      </trkpt>
      <trkpt lat="48.23027" lon="3.21959">
        <ele>178</ele>
        <time>2012-04-12T16:49:53.000Z</time>
      </trkpt>
      <trkpt lat="48.23029" lon="3.21968">
        <ele>178</ele>
        <time>2012-04-12T16:49:54.000Z</time>
      </trkpt>
      <trkpt lat="48.23031" lon="3.21977">
        <ele>178</ele>
        <time>2012-04-12T16:49:55.000Z</time>
      </trkpt>
      <trkpt lat="48.23033" lon="3.21987">
        <ele>178</ele>
        <time>2012-04-12T16:49:56.000Z</time>
      </trkpt>
      <trkpt lat="48.23036" lon="3.21996">
        <ele>178</ele>
        <time>2012-04-12T16:49:57.000Z</time>
      </trkpt>
      <trkpt lat="48.23038" lon="3.22007">
        <ele>177</ele>
        <time>2012-04-12T16:49:58.000Z</time>
      </trkpt>
      <trkpt lat="48.2304" lon="3.22015">
        <ele>177</ele>
        <time>2012-04-12T16:49:59.000Z</time>
      </trkpt>
      <trkpt lat="48.23041" lon="3.22026">
        <ele>177</ele>
        <time>2012-04-12T16:50:00.000Z</time>
      </trkpt>
      <trkpt lat="48.23042" lon="3.22034">
        <ele>177</ele>
        <time>2012-04-12T16:50:01.000Z</time>
      </trkpt>
      <trkpt lat="48.23043" lon="3.22045">
        <ele>177</ele>
        <time>2012-04-12T16:50:02.000Z</time>
      </trkpt>
      <trkpt lat="48.23044" lon="3.22054">
        <ele>177</ele>
        <time>2012-04-12T16:50:03.000Z</time>
      </trkpt>
      <trkpt lat="48.23045" lon="3.22065">
        <ele>177</ele>
        <time>2012-04-12T16:50:04.000Z</time>
      </trkpt>
      <trkpt lat="48.23046" lon="3.22075">
        <ele>177</ele>
        <time>2012-04-12T16:50:05.000Z</time>
      </trkpt>
      <trkpt lat="48.23047" lon="3.22084">
        <ele>176</ele>
        <time>2012-04-12T16:50:06.000Z</time>
      </trkpt>
      <trkpt lat="48.23048" lon="3.22095">
        <ele>176</ele>
        <time>2012-04-12T16:50:07.000Z</time>
      </trkpt>
      <trkpt lat="48.23048" lon="3.22103">
        <ele>175</ele>
        <time>2012-04-12T16:50:08.000Z</time>
      </trkpt>
      <trkpt lat="48.23047" lon="3.22114">
        <ele>175</ele>
        <time>2012-04-12T16:50:09.000Z</time>
      </trkpt>
      <trkpt lat="48.23046" lon="3.22122">
        <ele>175</ele>
        <time>2012-04-12T16:50:10.000Z</time>
      </trkpt>
      <trkpt lat="48.23045" lon="3.22133">
        <ele>175</ele>
        <time>2012-04-12T16:50:11.000Z</time>
      </trkpt>
      <trkpt lat="48.23044" lon="3.22144">
        <ele>175</ele>
        <time>2012-04-12T16:50:12.000Z</time>
      </trkpt>
      <trkpt lat="48.23043" lon="3.22153">
        <ele>175</ele>
        <time>2012-04-12T16:50:13.000Z</time>
      </trkpt>
      <trkpt lat="48.23041" lon="3.22163">
        <ele>175</ele>
        <time>2012-04-12T16:50:14.000Z</time>
      </trkpt>
      <trkpt lat="48.2304" lon="3.22174">
        <ele>173</ele>
        <time>2012-04-12T16:50:15.000Z</time>
      </trkpt>
      <trkpt lat="48.23039" lon="3.22185">
        <ele>173</ele>
        <time>2012-04-12T16:50:16.000Z</time>
      </trkpt>
      <trkpt lat="48.23039" lon="3.22196">
        <ele>173</ele>
        <time>2012-04-12T16:50:17.000Z</time>
      </trkpt>
      <trkpt lat="48.23039" lon="3.22206">
        <ele>173</ele>
        <time>2012-04-12T16:50:18.000Z</time>
      </trkpt>
      <trkpt lat="48.23039" lon="3.22217">
        <ele>173</ele>
        <time>2012-04-12T16:50:19.000Z</time>
      </trkpt>
      <trkpt lat="48.2304" lon="3.22228">
        <ele>173</ele>
        <time>2012-04-12T16:50:20.000Z</time>
      </trkpt>
      <trkpt lat="48.23041" lon="3.22238">
        <ele>173</ele>
        <time>2012-04-12T16:50:21.000Z</time>
      </trkpt>
      <trkpt lat="48.23041" lon="3.22249">
        <ele>173</ele>
        <time>2012-04-12T16:50:22.000Z</time>
      </trkpt>
      <trkpt lat="48.23042" lon="3.2226">
        <ele>172</ele>
        <time>2012-04-12T16:50:23.000Z</time>
      </trkpt>
      <trkpt lat="48.23043" lon="3.22268">
        <ele>172</ele>
        <time>2012-04-12T16:50:24.000Z</time>
      </trkpt>
      <trkpt lat="48.23044" lon="3.22279">
        <ele>172</ele>
        <time>2012-04-12T16:50:25.000Z</time>
      </trkpt>
      <trkpt lat="48.23044" lon="3.2229">
        <ele>172</ele>
        <time>2012-04-12T16:50:26.000Z</time>
      </trkpt>
      <trkpt lat="48.23045" lon="3.22298">
        <ele>172</ele>
        <time>2012-04-12T16:50:27.000Z</time>
      </trkpt>
      <trkpt lat="48.23046" lon="3.22309">
        <ele>172</ele>
        <time>2012-04-12T16:50:28.000Z</time>
      </trkpt>
      <trkpt lat="48.23047" lon="3.22318">
        <ele>172</ele>
        <time>2012-04-12T16:50:29.000Z</time>
      </trkpt>
      <trkpt lat="48.23047" lon="3.22328">
        <ele>172</ele>
        <time>2012-04-12T16:50:30.000Z</time>
      </trkpt>
      <trkpt lat="48.23048" lon="3.22337">
        <ele>171</ele>
        <time>2012-04-12T16:50:31.000Z</time>
      </trkpt>
      <trkpt lat="48.2305" lon="3.22346">
        <ele>171</ele>
        <time>2012-04-12T16:50:32.000Z</time>
      </trkpt>
      <trkpt lat="48.23051" lon="3.22356">
        <ele>170</ele>
        <time>2012-04-12T16:50:33.000Z</time>
      </trkpt>
      <trkpt lat="48.23052" lon="3.22365">
        <ele>170</ele>
        <time>2012-04-12T16:50:34.000Z</time>
      </trkpt>
      <trkpt lat="48.23054" lon="3.22376">
        <ele>170</ele>
        <time>2012-04-12T16:50:35.000Z</time>
      </trkpt>
      <trkpt lat="48.23055" lon="3.22384">
        <ele>170</ele>
        <time>2012-04-12T16:50:36.000Z</time>
      </trkpt>
      <trkpt lat="48.23056" lon="3.22395">
        <ele>170</ele>
        <time>2012-04-12T16:50:37.000Z</time>
      </trkpt>
      <trkpt lat="48.23058" lon="3.22406">
        <ele>170</ele>
        <time>2012-04-12T16:50:38.000Z</time>
      </trkpt>
      <trkpt lat="48.23059" lon="3.22414">
        <ele>170</ele>
        <time>2012-04-12T16:50:39.000Z</time>
      </trkpt>
      <trkpt lat="48.23061" lon="3.22425">
        <ele>169</ele>
        <time>2012-04-12T16:50:40.000Z</time>
      </trkpt>
      <trkpt lat="48.23063" lon="3.22436">
        <ele>168</ele>
        <time>2012-04-12T16:50:41.000Z</time>
      </trkpt>
      <trkpt lat="48.23064" lon="3.22446">
        <ele>168</ele>
        <time>2012-04-12T16:50:42.000Z</time>
      </trkpt>
      <trkpt lat="48.23067" lon="3.22457">
        <ele>168</ele>
        <time>2012-04-12T16:50:43.000Z</time>
      </trkpt>
      <trkpt lat="48.23069" lon="3.2247">
        <ele>168</ele>
        <time>2012-04-12T16:50:44.000Z</time>
      </trkpt>
      <trkpt lat="48.23071" lon="3.22481">
        <ele>168</ele>
        <time>2012-04-12T16:50:45.000Z</time>
      </trkpt>
      <trkpt lat="48.23073" lon="3.22492">
        <ele>168</ele>
        <time>2012-04-12T16:50:46.000Z</time>
      </trkpt>
      <trkpt lat="48.23074" lon="3.22502">
        <ele>167</ele>
        <time>2012-04-12T16:50:47.000Z</time>
      </trkpt>
      <trkpt lat="48.23075" lon="3.22513">
        <ele>166</ele>
        <time>2012-04-12T16:50:48.000Z</time>
      </trkpt>
      <trkpt lat="48.23077" lon="3.22524">
        <ele>166</ele>
        <time>2012-04-12T16:50:49.000Z</time>
      </trkpt>
      <trkpt lat="48.23078" lon="3.22534">
        <ele>166</ele>
        <time>2012-04-12T16:50:50.000Z</time>
      </trkpt>
      <trkpt lat="48.2308" lon="3.22543">
        <ele>165</ele>
        <time>2012-04-12T16:50:51.000Z</time>
      </trkpt>
      <trkpt lat="48.2308" lon="3.22554">
        <ele>165</ele>
        <time>2012-04-12T16:50:52.000Z</time>
      </trkpt>
      <trkpt lat="48.23081" lon="3.22565">
        <ele>165</ele>
        <time>2012-04-12T16:50:53.000Z</time>
      </trkpt>
      <trkpt lat="48.2308" lon="3.22575">
        <ele>166</ele>
        <time>2012-04-12T16:50:54.000Z</time>
      </trkpt>
      <trkpt lat="48.2308" lon="3.22586">
        <ele>166</ele>
        <time>2012-04-12T16:50:55.000Z</time>
      </trkpt>
      <trkpt lat="48.23078" lon="3.22597">
        <ele>165</ele>
        <time>2012-04-12T16:50:56.000Z</time>
      </trkpt>
      <trkpt lat="48.23075" lon="3.22608">
        <ele>164</ele>
        <time>2012-04-12T16:50:57.000Z</time>
      </trkpt>
      <trkpt lat="48.23072" lon="3.22618">
        <ele>164</ele>
        <time>2012-04-12T16:50:58.000Z</time>
      </trkpt>
      <trkpt lat="48.23069" lon="3.22629">
        <ele>164</ele>
        <time>2012-04-12T16:50:59.000Z</time>
      </trkpt>
      <trkpt lat="48.23066" lon="3.2264">
        <ele>164</ele>
        <time>2012-04-12T16:51:00.000Z</time>
      </trkpt>
      <trkpt lat="48.23061" lon="3.2265">
        <ele>164</ele>
        <time>2012-04-12T16:51:01.000Z</time>
      </trkpt>
      <trkpt lat="48.23058" lon="3.22661">
        <ele>164</ele>
        <time>2012-04-12T16:51:02.000Z</time>
      </trkpt>
      <trkpt lat="48.23054" lon="3.22672">
        <ele>163</ele>
        <time>2012-04-12T16:51:03.000Z</time>
      </trkpt>
      <trkpt lat="48.23051" lon="3.22683">
        <ele>163</ele>
        <time>2012-04-12T16:51:04.000Z</time>
      </trkpt>
      <trkpt lat="48.23047" lon="3.22693">
        <ele>163</ele>
        <time>2012-04-12T16:51:05.000Z</time>
      </trkpt>
      <trkpt lat="48.23043" lon="3.22704">
        <ele>163</ele>
        <time>2012-04-12T16:51:06.000Z</time>
      </trkpt>
      <trkpt lat="48.23041" lon="3.22715">
        <ele>163</ele>
        <time>2012-04-12T16:51:07.000Z</time>
      </trkpt>
      <trkpt lat="48.23038" lon="3.22726">
        <ele>163</ele>
        <time>2012-04-12T16:51:08.000Z</time>
      </trkpt>
      <trkpt lat="48.23034" lon="3.22738">
        <ele>163</ele>
        <time>2012-04-12T16:51:09.000Z</time>
      </trkpt>
      <trkpt lat="48.23031" lon="3.22749">
        <ele>163</ele>
        <time>2012-04-12T16:51:10.000Z</time>
      </trkpt>
      <trkpt lat="48.23028" lon="3.22762">
        <ele>163</ele>
        <time>2012-04-12T16:51:11.000Z</time>
      </trkpt>
      <trkpt lat="48.23025" lon="3.22773">
        <ele>163</ele>
        <time>2012-04-12T16:51:12.000Z</time>
      </trkpt>
      <trkpt lat="48.23022" lon="3.22786">
        <ele>162</ele>
        <time>2012-04-12T16:51:13.000Z</time>
      </trkpt>
      <trkpt lat="48.2302" lon="3.22798">
        <ele>162</ele>
        <time>2012-04-12T16:51:14.000Z</time>
      </trkpt>
      <trkpt lat="48.23016" lon="3.22809">
        <ele>162</ele>
        <time>2012-04-12T16:51:15.000Z</time>
      </trkpt>
      <trkpt lat="48.23015" lon="3.2282">
        <ele>162</ele>
        <time>2012-04-12T16:51:16.000Z</time>
      </trkpt>
      <trkpt lat="48.23014" lon="3.22831">
        <ele>161</ele>
        <time>2012-04-12T16:51:17.000Z</time>
      </trkpt>
      <trkpt lat="48.23014" lon="3.22839">
        <ele>161</ele>
        <time>2012-04-12T16:51:18.000Z</time>
      </trkpt>
      <trkpt lat="48.23014" lon="3.22848">
        <ele>162</ele>
        <time>2012-04-12T16:51:19.000Z</time>
      </trkpt>
      <trkpt lat="48.23016" lon="3.22858">
        <ele>162</ele>
        <time>2012-04-12T16:51:21.000Z</time>
      </trkpt>
      <trkpt lat="48.23016" lon="3.22867">
        <ele>162</ele>
        <time>2012-04-12T16:51:23.000Z</time>
      </trkpt>
      <trkpt lat="48.23017" lon="3.22876">
        <ele>163</ele>
        <time>2012-04-12T16:51:25.000Z</time>
      </trkpt>
      <trkpt lat="48.2302" lon="3.22882">
        <ele>163</ele>
        <time>2012-04-12T16:51:27.000Z</time>
      </trkpt>
      <trkpt lat="48.23023" lon="3.22889">
        <ele>163</ele>
        <time>2012-04-12T16:51:29.000Z</time>
      </trkpt>
      <trkpt lat="48.23026" lon="3.22897">
        <ele>163</ele>
        <time>2012-04-12T16:51:31.000Z</time>
      </trkpt>
      <trkpt lat="48.2303" lon="3.22906">
        <ele>163</ele>
        <time>2012-04-12T16:51:33.000Z</time>
      </trkpt>
      <trkpt lat="48.23034" lon="3.22914">
        <ele>163</ele>
        <time>2012-04-12T16:51:35.000Z</time>
      </trkpt>
      <trkpt lat="48.23039" lon="3.22925">
        <ele>164</ele>
        <time>2012-04-12T16:51:37.000Z</time>
      </trkpt>
      <trkpt lat="48.23043" lon="3.22934">
        <ele>164</ele>
        <time>2012-04-12T16:51:39.000Z</time>
      </trkpt>
      <trkpt lat="48.23047" lon="3.22944">
        <ele>164</ele>
        <time>2012-04-12T16:51:41.000Z</time>
      </trkpt>
      <trkpt lat="48.23052" lon="3.22953">
        <ele>164</ele>
        <time>2012-04-12T16:51:43.000Z</time>
      </trkpt>
      <trkpt lat="48.23057" lon="3.22962">
        <ele>164</ele>
        <time>2012-04-12T16:51:45.000Z</time>
      </trkpt>
      <trkpt lat="48.2306" lon="3.2297">
        <ele>164</ele>
        <time>2012-04-12T16:51:47.000Z</time>
      </trkpt>
      <trkpt lat="48.23067" lon="3.22979">
        <ele>165</ele>
        <time>2012-04-12T16:52:00.000Z</time>
      </trkpt>
      <trkpt lat="48.23067" lon="3.22979">
        <ele>165</ele>
        <time>2012-04-12T16:52:00.000Z</time>
      </trkpt>
      <trkpt lat="48.23067" lon="3.22979">
        <ele>165</ele>
        <time>2012-04-12T16:52:09.000Z</time>
      </trkpt>
      <trkpt lat="48.23075" lon="3.22987">
        <ele>165</ele>
        <time>2012-04-12T16:52:10.000Z</time>
      </trkpt>
      <trkpt lat="48.23075" lon="3.22987">
        <ele>165</ele>
        <time>2012-04-12T16:52:10.000Z</time>
      </trkpt>
      <trkpt lat="48.23075" lon="3.22987">
        <ele>165</ele>
        <time>2012-04-12T16:52:12.000Z</time>
      </trkpt>
      <trkpt lat="48.23083" lon="3.22994">
        <ele>166</ele>
        <time>2012-04-12T16:52:13.000Z</time>
      </trkpt>
      <trkpt lat="48.23088" lon="3.23">
        <ele>167</ele>
        <time>2012-04-12T16:52:15.000Z</time>
      </trkpt>
      <trkpt lat="48.23095" lon="3.23007">
        <ele>167</ele>
        <time>2012-04-12T16:52:17.000Z</time>
      </trkpt>
      <trkpt lat="48.231" lon="3.23015">
        <ele>168</ele>
        <time>2012-04-12T16:52:19.000Z</time>
      </trkpt>
      <trkpt lat="48.23104" lon="3.2302">
        <ele>168</ele>
        <time>2012-04-12T16:52:20.000Z</time>
      </trkpt>
      <trkpt lat="48.23108" lon="3.23024">
        <ele>168</ele>
        <time>2012-04-12T16:52:21.000Z</time>
      </trkpt>
      <trkpt lat="48.23113" lon="3.23028">
        <ele>168</ele>
        <time>2012-04-12T16:52:22.000Z</time>
      </trkpt>
      <trkpt lat="48.2312" lon="3.23039">
        <ele>168</ele>
        <time>2012-04-12T16:52:24.000Z</time>
      </trkpt>
      <trkpt lat="48.23125" lon="3.23043">
        <ele>168</ele>
        <time>2012-04-12T16:52:25.000Z</time>
      </trkpt>
      <trkpt lat="48.23132" lon="3.23052">
        <ele>169</ele>
        <time>2012-04-12T16:52:27.000Z</time>
      </trkpt>
      <trkpt lat="48.23136" lon="3.23056">
        <ele>169</ele>
        <time>2012-04-12T16:52:28.000Z</time>
      </trkpt>
      <trkpt lat="48.23144" lon="3.23064">
        <ele>169</ele>
        <time>2012-04-12T16:52:30.000Z</time>
      </trkpt>
      <trkpt lat="48.23148" lon="3.23069">
        <ele>169</ele>
        <time>2012-04-12T16:52:31.000Z</time>
      </trkpt>
      <trkpt lat="48.23152" lon="3.23071">
        <ele>169</ele>
        <time>2012-04-12T16:52:32.000Z</time>
      </trkpt>
      <trkpt lat="48.23157" lon="3.23075">
        <ele>169</ele>
        <time>2012-04-12T16:52:33.000Z</time>
      </trkpt>
      <trkpt lat="48.23161" lon="3.2308">
        <ele>170</ele>
        <time>2012-04-12T16:52:34.000Z</time>
      </trkpt>
      <trkpt lat="48.23166" lon="3.23084">
        <ele>170</ele>
        <time>2012-04-12T16:52:35.000Z</time>
      </trkpt>
      <trkpt lat="48.23172" lon="3.23088">
        <ele>170</ele>
        <time>2012-04-12T16:52:36.000Z</time>
      </trkpt>
      <trkpt lat="48.23176" lon="3.23092">
        <ele>170</ele>
        <time>2012-04-12T16:52:37.000Z</time>
      </trkpt>
      <trkpt lat="48.23182" lon="3.23097">
        <ele>169</ele>
        <time>2012-04-12T16:52:38.000Z</time>
      </trkpt>
      <trkpt lat="48.23187" lon="3.23101">
        <ele>169</ele>
        <time>2012-04-12T16:52:39.000Z</time>
      </trkpt>
      <trkpt lat="48.23193" lon="3.23107">
        <ele>169</ele>
        <time>2012-04-12T16:52:40.000Z</time>
      </trkpt>
      <trkpt lat="48.23199" lon="3.23112">
        <ele>169</ele>
        <time>2012-04-12T16:52:41.000Z</time>
      </trkpt>
      <trkpt lat="48.23204" lon="3.23116">
        <ele>169</ele>
        <time>2012-04-12T16:52:42.000Z</time>
      </trkpt>
      <trkpt lat="48.23209" lon="3.2312">
        <ele>169</ele>
        <time>2012-04-12T16:52:43.000Z</time>
      </trkpt>
      <trkpt lat="48.23215" lon="3.23127">
        <ele>169</ele>
        <time>2012-04-12T16:52:44.000Z</time>
      </trkpt>
      <trkpt lat="48.23219" lon="3.23131">
        <ele>169</ele>
        <time>2012-04-12T16:52:45.000Z</time>
      </trkpt>
      <trkpt lat="48.23224" lon="3.23135">
        <ele>169</ele>
        <time>2012-04-12T16:52:46.000Z</time>
      </trkpt>
      <trkpt lat="48.2323" lon="3.2314">
        <ele>168</ele>
        <time>2012-04-12T16:52:47.000Z</time>
      </trkpt>
      <trkpt lat="48.23234" lon="3.23144">
        <ele>168</ele>
        <time>2012-04-12T16:52:48.000Z</time>
      </trkpt>
      <trkpt lat="48.23239" lon="3.23148">
        <ele>168</ele>
        <time>2012-04-12T16:52:49.000Z</time>
      </trkpt>
      <trkpt lat="48.23245" lon="3.23152">
        <ele>168</ele>
        <time>2012-04-12T16:52:50.000Z</time>
      </trkpt>
      <trkpt lat="48.23249" lon="3.23157">
        <ele>168</ele>
        <time>2012-04-12T16:52:51.000Z</time>
      </trkpt>
      <trkpt lat="48.23254" lon="3.23161">
        <ele>168</ele>
        <time>2012-04-12T16:52:52.000Z</time>
      </trkpt>
      <trkpt lat="48.23259" lon="3.23165">
        <ele>169</ele>
        <time>2012-04-12T16:52:53.000Z</time>
      </trkpt>
      <trkpt lat="48.23264" lon="3.23168">
        <ele>168</ele>
        <time>2012-04-12T16:52:54.000Z</time>
      </trkpt>
      <trkpt lat="48.23268" lon="3.23172">
        <ele>169</ele>
        <time>2012-04-12T16:52:55.000Z</time>
      </trkpt>
      <trkpt lat="48.23274" lon="3.23176">
        <ele>169</ele>
        <time>2012-04-12T16:52:56.000Z</time>
      </trkpt>
      <trkpt lat="48.23278" lon="3.23178">
        <ele>169</ele>
        <time>2012-04-12T16:52:57.000Z</time>
      </trkpt>
      <trkpt lat="48.23283" lon="3.23182">
        <ele>169</ele>
        <time>2012-04-12T16:52:58.000Z</time>
      </trkpt>
      <trkpt lat="48.23288" lon="3.23185">
        <ele>170</ele>
        <time>2012-04-12T16:52:59.000Z</time>
      </trkpt>
      <trkpt lat="48.23293" lon="3.23189">
        <ele>170</ele>
        <time>2012-04-12T16:53:00.000Z</time>
      </trkpt>
      <trkpt lat="48.23297" lon="3.23191">
        <ele>170</ele>
        <time>2012-04-12T16:53:01.000Z</time>
      </trkpt>
      <trkpt lat="48.23303" lon="3.23195">
        <ele>170</ele>
        <time>2012-04-12T16:53:02.000Z</time>
      </trkpt>
      <trkpt lat="48.23307" lon="3.232">
        <ele>170</ele>
        <time>2012-04-12T16:53:03.000Z</time>
      </trkpt>
      <trkpt lat="48.23311" lon="3.23202">
        <ele>171</ele>
        <time>2012-04-12T16:53:04.000Z</time>
      </trkpt>
      <trkpt lat="48.23316" lon="3.23206">
        <ele>171</ele>
        <time>2012-04-12T16:53:05.000Z</time>
      </trkpt>
      <trkpt lat="48.2332" lon="3.23208">
        <ele>171</ele>
        <time>2012-04-12T16:53:06.000Z</time>
      </trkpt>
      <trkpt lat="48.23324" lon="3.23213">
        <ele>171</ele>
        <time>2012-04-12T16:53:07.000Z</time>
      </trkpt>
      <trkpt lat="48.23332" lon="3.23217">
        <ele>171</ele>
        <time>2012-04-12T16:53:09.000Z</time>
      </trkpt>
      <trkpt lat="48.23338" lon="3.23223">
        <ele>174</ele>
        <time>2012-04-12T16:53:11.000Z</time>
      </trkpt>
      <trkpt lat="48.23344" lon="3.23228">
        <ele>174</ele>
        <time>2012-04-12T16:53:13.000Z</time>
      </trkpt>
      <trkpt lat="48.23349" lon="3.2323">
        <ele>174</ele>
        <time>2012-04-12T16:53:14.000Z</time>
      </trkpt>
      <trkpt lat="48.23355" lon="3.23236">
        <ele>174</ele>
        <time>2012-04-12T16:53:16.000Z</time>
      </trkpt>
      <trkpt lat="48.23362" lon="3.23243">
        <ele>174</ele>
        <time>2012-04-12T16:53:18.000Z</time>
      </trkpt>
      <trkpt lat="48.23366" lon="3.23245">
        <ele>174</ele>
        <time>2012-04-12T16:53:19.000Z</time>
      </trkpt>
      <trkpt lat="48.23372" lon="3.23251">
        <ele>172</ele>
        <time>2012-04-12T16:53:21.000Z</time>
      </trkpt>
      <trkpt lat="48.23379" lon="3.23258">
        <ele>172</ele>
        <time>2012-04-12T16:53:23.000Z</time>
      </trkpt>
      <trkpt lat="48.23386" lon="3.23266">
        <ele>173</ele>
        <time>2012-04-12T16:53:25.000Z</time>
      </trkpt>
      <trkpt lat="48.23393" lon="3.23275">
        <ele>173</ele>
        <time>2012-04-12T16:53:27.000Z</time>
      </trkpt>
      <trkpt lat="48.23399" lon="3.23283">
        <ele>173</ele>
        <time>2012-04-12T16:53:29.000Z</time>
      </trkpt>
      <trkpt lat="48.23402" lon="3.2329">
        <ele>173</ele>
        <time>2012-04-12T16:53:30.000Z</time>
      </trkpt>
      <trkpt lat="48.23408" lon="3.23301">
        <ele>173</ele>
        <time>2012-04-12T16:53:32.000Z</time>
      </trkpt>
      <trkpt lat="48.2341" lon="3.23307">
        <ele>173</ele>
        <time>2012-04-12T16:53:33.000Z</time>
      </trkpt>
      <trkpt lat="48.23414" lon="3.23318">
        <ele>174</ele>
        <time>2012-04-12T16:53:35.000Z</time>
      </trkpt>
      <trkpt lat="48.23416" lon="3.23324">
        <ele>174</ele>
        <time>2012-04-12T16:53:36.000Z</time>
      </trkpt>
      <trkpt lat="48.23421" lon="3.23333">
        <ele>175</ele>
        <time>2012-04-12T16:53:38.000Z</time>
      </trkpt>
      <trkpt lat="48.23425" lon="3.23341">
        <ele>175</ele>
        <time>2012-04-12T16:53:40.000Z</time>
      </trkpt>
      <trkpt lat="48.23427" lon="3.23348">
        <ele>175</ele>
        <time>2012-04-12T16:53:41.000Z</time>
      </trkpt>
      <trkpt lat="48.23431" lon="3.23358">
        <ele>175</ele>
        <time>2012-04-12T16:53:43.000Z</time>
      </trkpt>
      <trkpt lat="48.23435" lon="3.23371">
        <ele>176</ele>
        <time>2012-04-12T16:53:45.000Z</time>
      </trkpt>
      <trkpt lat="48.23437" lon="3.23378">
        <ele>176</ele>
        <time>2012-04-12T16:53:46.000Z</time>
      </trkpt>
      <trkpt lat="48.23439" lon="3.23384">
        <ele>176</ele>
        <time>2012-04-12T16:53:47.000Z</time>
      </trkpt>
      <trkpt lat="48.23441" lon="3.23391">
        <ele>176</ele>
        <time>2012-04-12T16:53:48.000Z</time>
      </trkpt>
      <trkpt lat="48.23444" lon="3.23404">
        <ele>176</ele>
        <time>2012-04-12T16:53:50.000Z</time>
      </trkpt>
      <trkpt lat="48.23446" lon="3.2341">
        <ele>176</ele>
        <time>2012-04-12T16:53:51.000Z</time>
      </trkpt>
      <trkpt lat="48.23449" lon="3.23416">
        <ele>176</ele>
        <time>2012-04-12T16:53:52.000Z</time>
      </trkpt>
      <trkpt lat="48.23448" lon="3.23431">
        <ele>175</ele>
        <time>2012-04-12T16:53:54.000Z</time>
      </trkpt>
      <trkpt lat="48.23448" lon="3.23446">
        <ele>175</ele>
        <time>2012-04-12T16:53:56.000Z</time>
      </trkpt>
      <trkpt lat="48.23446" lon="3.23462">
        <ele>175</ele>
        <time>2012-04-12T16:53:58.000Z</time>
      </trkpt>
      <trkpt lat="48.23445" lon="3.23476">
        <ele>175</ele>
        <time>2012-04-12T16:54:00.000Z</time>
      </trkpt>
      <trkpt lat="48.23444" lon="3.23485">
        <ele>175</ele>
        <time>2012-04-12T16:54:01.000Z</time>
      </trkpt>
      <trkpt lat="48.23442" lon="3.235">
        <ele>175</ele>
        <time>2012-04-12T16:54:03.000Z</time>
      </trkpt>
      <trkpt lat="48.23442" lon="3.23509">
        <ele>173</ele>
        <time>2012-04-12T16:54:04.000Z</time>
      </trkpt>
      <trkpt lat="48.23442" lon="3.23524">
        <ele>173</ele>
        <time>2012-04-12T16:54:06.000Z</time>
      </trkpt>
      <trkpt lat="48.23442" lon="3.23532">
        <ele>173</ele>
        <time>2012-04-12T16:54:07.000Z</time>
      </trkpt>
      <trkpt lat="48.23443" lon="3.23547">
        <ele>172</ele>
        <time>2012-04-12T16:54:09.000Z</time>
      </trkpt>
      <trkpt lat="48.23443" lon="3.23556">
        <ele>172</ele>
        <time>2012-04-12T16:54:10.000Z</time>
      </trkpt>
      <trkpt lat="48.23444" lon="3.23564">
        <ele>172</ele>
        <time>2012-04-12T16:54:11.000Z</time>
      </trkpt>
      <trkpt lat="48.23444" lon="3.2358">
        <ele>171</ele>
        <time>2012-04-12T16:54:13.000Z</time>
      </trkpt>
      <trkpt lat="48.23448" lon="3.23594">
        <ele>170</ele>
        <time>2012-04-12T16:54:15.000Z</time>
      </trkpt>
      <trkpt lat="48.23449" lon="3.23601">
        <ele>170</ele>
        <time>2012-04-12T16:54:16.000Z</time>
      </trkpt>
      <trkpt lat="48.23451" lon="3.23607">
        <ele>170</ele>
        <time>2012-04-12T16:54:17.000Z</time>
      </trkpt>
      <trkpt lat="48.23453" lon="3.23614">
        <ele>170</ele>
        <time>2012-04-12T16:54:18.000Z</time>
      </trkpt>
      <trkpt lat="48.23455" lon="3.23622">
        <ele>171</ele>
        <time>2012-04-12T16:54:19.000Z</time>
      </trkpt>
      <trkpt lat="48.23457" lon="3.23629">
        <ele>171</ele>
        <time>2012-04-12T16:54:20.000Z</time>
      </trkpt>
      <trkpt lat="48.2346" lon="3.23637">
        <ele>171</ele>
        <time>2012-04-12T16:54:21.000Z</time>
      </trkpt>
      <trkpt lat="48.23463" lon="3.23646">
        <ele>171</ele>
        <time>2012-04-12T16:54:22.000Z</time>
      </trkpt>
      <trkpt lat="48.23466" lon="3.23655">
        <ele>171</ele>
        <time>2012-04-12T16:54:23.000Z</time>
      </trkpt>
      <trkpt lat="48.23469" lon="3.23663">
        <ele>172</ele>
        <time>2012-04-12T16:54:24.000Z</time>
      </trkpt>
      <trkpt lat="48.23472" lon="3.23672">
        <ele>171</ele>
        <time>2012-04-12T16:54:25.000Z</time>
      </trkpt>
      <trkpt lat="48.23475" lon="3.23678">
        <ele>172</ele>
        <time>2012-04-12T16:54:26.000Z</time>
      </trkpt>
      <trkpt lat="48.23479" lon="3.23687">
        <ele>172</ele>
        <time>2012-04-12T16:54:27.000Z</time>
      </trkpt>
      <trkpt lat="48.23481" lon="3.23695">
        <ele>172</ele>
        <time>2012-04-12T16:54:28.000Z</time>
      </trkpt>
      <trkpt lat="48.23483" lon="3.23706">
        <ele>171</ele>
        <time>2012-04-12T16:54:29.000Z</time>
      </trkpt>
      <trkpt lat="48.23486" lon="3.23715">
        <ele>171</ele>
        <time>2012-04-12T16:54:30.000Z</time>
      </trkpt>
      <trkpt lat="48.23488" lon="3.23725">
        <ele>172</ele>
        <time>2012-04-12T16:54:31.000Z</time>
      </trkpt>
      <trkpt lat="48.23489" lon="3.23734">
        <ele>172</ele>
        <time>2012-04-12T16:54:32.000Z</time>
      </trkpt>
      <trkpt lat="48.2349" lon="3.23745">
        <ele>173</ele>
        <time>2012-04-12T16:54:33.000Z</time>
      </trkpt>
      <trkpt lat="48.2349" lon="3.23756">
        <ele>172</ele>
        <time>2012-04-12T16:54:34.000Z</time>
      </trkpt>
      <trkpt lat="48.23492" lon="3.23766">
        <ele>171</ele>
        <time>2012-04-12T16:54:35.000Z</time>
      </trkpt>
      <trkpt lat="48.23493" lon="3.23777">
        <ele>170</ele>
        <time>2012-04-12T16:54:36.000Z</time>
      </trkpt>
      <trkpt lat="48.23493" lon="3.23788">
        <ele>170</ele>
        <time>2012-04-12T16:54:37.000Z</time>
      </trkpt>
      <trkpt lat="48.23494" lon="3.238">
        <ele>170</ele>
        <time>2012-04-12T16:54:38.000Z</time>
      </trkpt>
      <trkpt lat="48.23495" lon="3.23811">
        <ele>170</ele>
        <time>2012-04-12T16:54:39.000Z</time>
      </trkpt>
      <trkpt lat="48.23495" lon="3.23822">
        <ele>170</ele>
        <time>2012-04-12T16:54:40.000Z</time>
      </trkpt>
      <trkpt lat="48.23495" lon="3.23833">
        <ele>170</ele>
        <time>2012-04-12T16:54:41.000Z</time>
      </trkpt>
      <trkpt lat="48.23495" lon="3.23843">
        <ele>169</ele>
        <time>2012-04-12T16:54:42.000Z</time>
      </trkpt>
      <trkpt lat="48.23495" lon="3.23852">
        <ele>167</ele>
        <time>2012-04-12T16:54:43.000Z</time>
      </trkpt>
      <trkpt lat="48.23495" lon="3.23863">
        <ele>166</ele>
        <time>2012-04-12T16:54:44.000Z</time>
      </trkpt>
      <trkpt lat="48.23495" lon="3.23871">
        <ele>166</ele>
        <time>2012-04-12T16:54:45.000Z</time>
      </trkpt>
      <trkpt lat="48.23493" lon="3.23882">
        <ele>165</ele>
        <time>2012-04-12T16:54:46.000Z</time>
      </trkpt>
      <trkpt lat="48.2349" lon="3.23891">
        <ele>165</ele>
        <time>2012-04-12T16:54:47.000Z</time>
      </trkpt>
      <trkpt lat="48.23489" lon="3.23899">
        <ele>165</ele>
        <time>2012-04-12T16:54:48.000Z</time>
      </trkpt>
      <trkpt lat="48.23489" lon="3.2391">
        <ele>166</ele>
        <time>2012-04-12T16:54:49.000Z</time>
      </trkpt>
      <trkpt lat="48.23489" lon="3.23921">
        <ele>164</ele>
        <time>2012-04-12T16:54:50.000Z</time>
      </trkpt>
      <trkpt lat="48.23489" lon="3.23929">
        <ele>163</ele>
        <time>2012-04-12T16:54:51.000Z</time>
      </trkpt>
      <trkpt lat="48.23489" lon="3.2394">
        <ele>162</ele>
        <time>2012-04-12T16:54:52.000Z</time>
      </trkpt>
      <trkpt lat="48.23489" lon="3.23951">
        <ele>161</ele>
        <time>2012-04-12T16:54:53.000Z</time>
      </trkpt>
      <trkpt lat="48.23489" lon="3.23961">
        <ele>161</ele>
        <time>2012-04-12T16:54:54.000Z</time>
      </trkpt>
      <trkpt lat="48.23489" lon="3.23974">
        <ele>161</ele>
        <time>2012-04-12T16:54:55.000Z</time>
      </trkpt>
      <trkpt lat="48.23489" lon="3.23987">
        <ele>162</ele>
        <time>2012-04-12T16:54:56.000Z</time>
      </trkpt>
      <trkpt lat="48.2349" lon="3.24">
        <ele>161</ele>
        <time>2012-04-12T16:54:57.000Z</time>
      </trkpt>
      <trkpt lat="48.23492" lon="3.24015">
        <ele>159</ele>
        <time>2012-04-12T16:54:58.000Z</time>
      </trkpt>
      <trkpt lat="48.23492" lon="3.24028">
        <ele>157</ele>
        <time>2012-04-12T16:54:59.000Z</time>
      </trkpt>
      <trkpt lat="48.23492" lon="3.24041">
        <ele>156</ele>
        <time>2012-04-12T16:55:00.000Z</time>
      </trkpt>
      <trkpt lat="48.23492" lon="3.24056">
        <ele>155</ele>
        <time>2012-04-12T16:55:01.000Z</time>
      </trkpt>
      <trkpt lat="48.2349" lon="3.24069">
        <ele>156</ele>
        <time>2012-04-12T16:55:02.000Z</time>
      </trkpt>
      <trkpt lat="48.23489" lon="3.24082">
        <ele>156</ele>
        <time>2012-04-12T16:55:03.000Z</time>
      </trkpt>
      <trkpt lat="48.23489" lon="3.24094">
        <ele>153</ele>
        <time>2012-04-12T16:55:04.000Z</time>
      </trkpt>
      <trkpt lat="48.2349" lon="3.24107">
        <ele>152</ele>
        <time>2012-04-12T16:55:05.000Z</time>
      </trkpt>
      <trkpt lat="48.2349" lon="3.2412">
        <ele>151</ele>
        <time>2012-04-12T16:55:06.000Z</time>
      </trkpt>
      <trkpt lat="48.23492" lon="3.24133">
        <ele>151</ele>
        <time>2012-04-12T16:55:07.000Z</time>
      </trkpt>
      <trkpt lat="48.23493" lon="3.24144">
        <ele>151</ele>
        <time>2012-04-12T16:55:08.000Z</time>
      </trkpt>
      <trkpt lat="48.23495" lon="3.24157">
        <ele>153</ele>
        <time>2012-04-12T16:55:09.000Z</time>
      </trkpt>
      <trkpt lat="48.23497" lon="3.24167">
        <ele>154</ele>
        <time>2012-04-12T16:55:10.000Z</time>
      </trkpt>
      <trkpt lat="48.23499" lon="3.24178">
        <ele>152</ele>
        <time>2012-04-12T16:55:11.000Z</time>
      </trkpt>
      <trkpt lat="48.23501" lon="3.24189">
        <ele>158</ele>
        <time>2012-04-12T16:55:12.000Z</time>
      </trkpt>
      <trkpt lat="48.23503" lon="3.242">
        <ele>158</ele>
        <time>2012-04-12T16:55:13.000Z</time>
      </trkpt>
      <trkpt lat="48.23506" lon="3.2421">
        <ele>158</ele>
        <time>2012-04-12T16:55:14.000Z</time>
      </trkpt>
      <trkpt lat="48.23508" lon="3.24219">
        <ele>158</ele>
        <time>2012-04-12T16:55:15.000Z</time>
      </trkpt>
      <trkpt lat="48.23511" lon="3.2423">
        <ele>158</ele>
        <time>2012-04-12T16:55:16.000Z</time>
      </trkpt>
      <trkpt lat="48.23513" lon="3.24238">
        <ele>158</ele>
        <time>2012-04-12T16:55:17.000Z</time>
      </trkpt>
      <trkpt lat="48.23514" lon="3.24247">
        <ele>157</ele>
        <time>2012-04-12T16:55:18.000Z</time>
      </trkpt>
      <trkpt lat="48.23516" lon="3.24255">
        <ele>157</ele>
        <time>2012-04-12T16:55:19.000Z</time>
      </trkpt>
      <trkpt lat="48.23517" lon="3.24266">
        <ele>157</ele>
        <time>2012-04-12T16:55:20.000Z</time>
      </trkpt>
      <trkpt lat="48.23517" lon="3.24277">
        <ele>157</ele>
        <time>2012-04-12T16:55:21.000Z</time>
      </trkpt>
      <trkpt lat="48.23518" lon="3.24288">
        <ele>157</ele>
        <time>2012-04-12T16:55:22.000Z</time>
      </trkpt>
      <trkpt lat="48.23517" lon="3.24298">
        <ele>156</ele>
        <time>2012-04-12T16:55:23.000Z</time>
      </trkpt>
      <trkpt lat="48.23516" lon="3.24309">
        <ele>156</ele>
        <time>2012-04-12T16:55:24.000Z</time>
      </trkpt>
      <trkpt lat="48.23516" lon="3.24322">
        <ele>155</ele>
        <time>2012-04-12T16:55:25.000Z</time>
      </trkpt>
      <trkpt lat="48.23517" lon="3.24333">
        <ele>154</ele>
        <time>2012-04-12T16:55:26.000Z</time>
      </trkpt>
      <trkpt lat="48.23517" lon="3.24343">
        <ele>152</ele>
        <time>2012-04-12T16:55:27.000Z</time>
      </trkpt>
      <trkpt lat="48.23518" lon="3.24356">
        <ele>152</ele>
        <time>2012-04-12T16:55:28.000Z</time>
      </trkpt>
      <trkpt lat="48.23519" lon="3.24367">
        <ele>152</ele>
        <time>2012-04-12T16:55:29.000Z</time>
      </trkpt>
      <trkpt lat="48.23522" lon="3.24378">
        <ele>152</ele>
        <time>2012-04-12T16:55:30.000Z</time>
      </trkpt>
      <trkpt lat="48.23524" lon="3.24386">
        <ele>152</ele>
        <time>2012-04-12T16:55:31.000Z</time>
      </trkpt>
      <trkpt lat="48.23525" lon="3.24397">
        <ele>151</ele>
        <time>2012-04-12T16:55:32.000Z</time>
      </trkpt>
      <trkpt lat="48.23526" lon="3.24406">
        <ele>151</ele>
        <time>2012-04-12T16:55:33.000Z</time>
      </trkpt>
      <trkpt lat="48.23527" lon="3.24414">
        <ele>151</ele>
        <time>2012-04-12T16:55:34.000Z</time>
      </trkpt>
      <trkpt lat="48.23529" lon="3.24421">
        <ele>150</ele>
        <time>2012-04-12T16:55:35.000Z</time>
      </trkpt>
      <trkpt lat="48.2353" lon="3.24429">
        <ele>150</ele>
        <time>2012-04-12T16:55:36.000Z</time>
      </trkpt>
      <trkpt lat="48.23531" lon="3.24438">
        <ele>151</ele>
        <time>2012-04-12T16:55:37.000Z</time>
      </trkpt>
      <trkpt lat="48.23532" lon="3.24446">
        <ele>151</ele>
        <time>2012-04-12T16:55:38.000Z</time>
      </trkpt>
      <trkpt lat="48.23534" lon="3.24461">
        <ele>151</ele>
        <time>2012-04-12T16:55:40.000Z</time>
      </trkpt>
      <trkpt lat="48.23537" lon="3.24476">
        <ele>151</ele>
        <time>2012-04-12T16:55:42.000Z</time>
      </trkpt>
      <trkpt lat="48.23538" lon="3.24485">
        <ele>151</ele>
        <time>2012-04-12T16:55:43.000Z</time>
      </trkpt>
      <trkpt lat="48.23539" lon="3.24494">
        <ele>151</ele>
        <time>2012-04-12T16:55:44.000Z</time>
      </trkpt>
      <trkpt lat="48.23541" lon="3.24506">
        <ele>151</ele>
        <time>2012-04-12T16:55:46.000Z</time>
      </trkpt>
      <trkpt lat="48.23544" lon="3.24513">
        <ele>151</ele>
        <time>2012-04-12T16:55:47.000Z</time>
      </trkpt>
      <trkpt lat="48.2355" lon="3.24522">
        <ele>151</ele>
        <time>2012-04-12T16:55:49.000Z</time>
      </trkpt>
      <trkpt lat="48.2355" lon="3.24532">
        <ele>151</ele>
        <time>2012-04-12T16:55:51.000Z</time>
      </trkpt>
      <trkpt lat="48.23545" lon="3.24541">
        <ele>150</ele>
        <time>2012-04-12T16:55:53.000Z</time>
      </trkpt>
      <trkpt lat="48.23541" lon="3.24547">
        <ele>150</ele>
        <time>2012-04-12T16:55:55.000Z</time>
      </trkpt>
      <trkpt lat="48.23534" lon="3.24556">
        <ele>149</ele>
        <time>2012-04-12T16:55:57.000Z</time>
      </trkpt>
      <trkpt lat="48.2353" lon="3.2456">
        <ele>149</ele>
        <time>2012-04-12T16:55:58.000Z</time>
      </trkpt>
      <trkpt lat="48.23526" lon="3.24564">
        <ele>148</ele>
        <time>2012-04-12T16:55:59.000Z</time>
      </trkpt>
      <trkpt lat="48.23518" lon="3.24569">
        <ele>147</ele>
        <time>2012-04-12T16:56:00.000Z</time>
      </trkpt>
      <trkpt lat="48.23508" lon="3.24573">
        <ele>145</ele>
        <time>2012-04-12T16:56:01.000Z</time>
      </trkpt>
      <trkpt lat="48.23496" lon="3.24577">
        <ele>140</ele>
        <time>2012-04-12T16:56:02.000Z</time>
      </trkpt>
      <trkpt lat="48.23484" lon="3.24579">
        <ele>139</ele>
        <time>2012-04-12T16:56:03.000Z</time>
      </trkpt>
      <trkpt lat="48.23471" lon="3.24584">
        <ele>134</ele>
        <time>2012-04-12T16:56:04.000Z</time>
      </trkpt>
      <trkpt lat="48.23458" lon="3.2459">
        <ele>132</ele>
        <time>2012-04-12T16:56:05.000Z</time>
      </trkpt>
      <trkpt lat="48.23444" lon="3.24597">
        <ele>130</ele>
        <time>2012-04-12T16:56:06.000Z</time>
      </trkpt>
      <trkpt lat="48.2343" lon="3.24603">
        <ele>128</ele>
        <time>2012-04-12T16:56:07.000Z</time>
      </trkpt>
      <trkpt lat="48.23415" lon="3.24612">
        <ele>119</ele>
        <time>2012-04-12T16:56:08.000Z</time>
      </trkpt>
      <trkpt lat="48.234" lon="3.24618">
        <ele>118</ele>
        <time>2012-04-12T16:56:09.000Z</time>
      </trkpt>
      <trkpt lat="48.23384" lon="3.24627">
        <ele>117</ele>
        <time>2012-04-12T16:56:10.000Z</time>
      </trkpt>
      <trkpt lat="48.23369" lon="3.24633">
        <ele>116</ele>
        <time>2012-04-12T16:56:11.000Z</time>
      </trkpt>
      <trkpt lat="48.23352" lon="3.24642">
        <ele>114</ele>
        <time>2012-04-12T16:56:12.000Z</time>
      </trkpt>
      <trkpt lat="48.23335" lon="3.24644">
        <ele>113</ele>
        <time>2012-04-12T16:56:13.000Z</time>
      </trkpt>
      <trkpt lat="48.23318" lon="3.24644">
        <ele>106</ele>
        <time>2012-04-12T16:56:14.000Z</time>
      </trkpt>
      <trkpt lat="48.23303" lon="3.24637">
        <ele>105</ele>
        <time>2012-04-12T16:56:15.000Z</time>
      </trkpt>
      <trkpt lat="48.23289" lon="3.24629">
        <ele>104</ele>
        <time>2012-04-12T16:56:16.000Z</time>
      </trkpt>
      <trkpt lat="48.23278" lon="3.24614">
        <ele>103</ele>
        <time>2012-04-12T16:56:17.000Z</time>
      </trkpt>
      <trkpt lat="48.23266" lon="3.24601">
        <ele>102</ele>
        <time>2012-04-12T16:56:18.000Z</time>
      </trkpt>
      <trkpt lat="48.23256" lon="3.24584">
        <ele>99</ele>
        <time>2012-04-12T16:56:19.000Z</time>
      </trkpt>
      <trkpt lat="48.23245" lon="3.24569">
        <ele>97</ele>
        <time>2012-04-12T16:56:20.000Z</time>
      </trkpt>
      <trkpt lat="48.23234" lon="3.24554">
        <ele>97</ele>
        <time>2012-04-12T16:56:21.000Z</time>
      </trkpt>
      <trkpt lat="48.23221" lon="3.24543">
        <ele>97</ele>
        <time>2012-04-12T16:56:22.000Z</time>
      </trkpt>
      <trkpt lat="48.23208" lon="3.24532">
        <ele>96</ele>
        <time>2012-04-12T16:56:23.000Z</time>
      </trkpt>
      <trkpt lat="48.23195" lon="3.24522">
        <ele>96</ele>
        <time>2012-04-12T16:56:24.000Z</time>
      </trkpt>
      <trkpt lat="48.23184" lon="3.24511">
        <ele>95</ele>
        <time>2012-04-12T16:56:25.000Z</time>
      </trkpt>
      <trkpt lat="48.23174" lon="3.24502">
        <ele>94</ele>
        <time>2012-04-12T16:56:26.000Z</time>
      </trkpt>
      <trkpt lat="48.23164" lon="3.24492">
        <ele>94</ele>
        <time>2012-04-12T16:56:27.000Z</time>
      </trkpt>
      <trkpt lat="48.23156" lon="3.24483">
        <ele>95</ele>
        <time>2012-04-12T16:56:28.000Z</time>
      </trkpt>
      <trkpt lat="48.23146" lon="3.24476">
        <ele>95</ele>
        <time>2012-04-12T16:56:29.000Z</time>
      </trkpt>
      <trkpt lat="48.23138" lon="3.2447">
        <ele>95</ele>
        <time>2012-04-12T16:56:30.000Z</time>
      </trkpt>
      <trkpt lat="48.23131" lon="3.24466">
        <ele>96</ele>
        <time>2012-04-12T16:56:31.000Z</time>
      </trkpt>
      <trkpt lat="48.23125" lon="3.24461">
        <ele>96</ele>
        <time>2012-04-12T16:56:32.000Z</time>
      </trkpt>
      <trkpt lat="48.23119" lon="3.24457">
        <ele>96</ele>
        <time>2012-04-12T16:56:33.000Z</time>
      </trkpt>
      <trkpt lat="48.23115" lon="3.24453">
        <ele>96</ele>
        <time>2012-04-12T16:56:34.000Z</time>
      </trkpt>
      <trkpt lat="48.2311" lon="3.24444">
        <ele>97</ele>
        <time>2012-04-12T16:56:36.000Z</time>
      </trkpt>
      <trkpt lat="48.2311" lon="3.24444">
        <ele>97</ele>
        <time>2012-04-12T16:56:36.000Z</time>
      </trkpt>
      <trkpt lat="48.2311" lon="3.24444">
        <ele>97</ele>
        <time>2012-04-12T16:56:37.000Z</time>
      </trkpt>
      <trkpt lat="48.23104" lon="3.24444">
        <ele>97</ele>
        <time>2012-04-12T16:56:40.000Z</time>
      </trkpt>
      <trkpt lat="48.23104" lon="3.24444">
        <ele>97</ele>
        <time>2012-04-12T16:56:40.000Z</time>
      </trkpt>
      <trkpt lat="48.23104" lon="3.24444">
        <ele>97</ele>
        <time>2012-04-12T16:56:42.000Z</time>
      </trkpt>
      <trkpt lat="48.2311" lon="3.24451">
        <ele>96</ele>
        <time>2012-04-12T16:56:44.000Z</time>
      </trkpt>
      <trkpt lat="48.23115" lon="3.24457">
        <ele>96</ele>
        <time>2012-04-12T16:56:46.000Z</time>
      </trkpt>
      <trkpt lat="48.23119" lon="3.24461">
        <ele>96</ele>
        <time>2012-04-12T16:56:47.000Z</time>
      </trkpt>
      <trkpt lat="48.23124" lon="3.24464">
        <ele>96</ele>
        <time>2012-04-12T16:56:48.000Z</time>
      </trkpt>
      <trkpt lat="48.23128" lon="3.24468">
        <ele>96</ele>
        <time>2012-04-12T16:56:49.000Z</time>
      </trkpt>
      <trkpt lat="48.23133" lon="3.2447">
        <ele>96</ele>
        <time>2012-04-12T16:56:50.000Z</time>
      </trkpt>
      <trkpt lat="48.23138" lon="3.24474">
        <ele>95</ele>
        <time>2012-04-12T16:56:51.000Z</time>
      </trkpt>
      <trkpt lat="48.23145" lon="3.24479">
        <ele>95</ele>
        <time>2012-04-12T16:56:52.000Z</time>
      </trkpt>
      <trkpt lat="48.2315" lon="3.24483">
        <ele>95</ele>
        <time>2012-04-12T16:56:53.000Z</time>
      </trkpt>
      <trkpt lat="48.23157" lon="3.24487">
        <ele>94</ele>
        <time>2012-04-12T16:56:54.000Z</time>
      </trkpt>
      <trkpt lat="48.23162" lon="3.24494">
        <ele>94</ele>
        <time>2012-04-12T16:56:55.000Z</time>
      </trkpt>
      <trkpt lat="48.23166" lon="3.24502">
        <ele>93</ele>
        <time>2012-04-12T16:56:56.000Z</time>
      </trkpt>
      <trkpt lat="48.23171" lon="3.24511">
        <ele>94</ele>
        <time>2012-04-12T16:56:57.000Z</time>
      </trkpt>
      <trkpt lat="48.23171" lon="3.24519">
        <ele>95</ele>
        <time>2012-04-12T16:56:58.000Z</time>
      </trkpt>
      <trkpt lat="48.23169" lon="3.2453">
        <ele>95</ele>
        <time>2012-04-12T16:56:59.000Z</time>
      </trkpt>
      <trkpt lat="48.23165" lon="3.24541">
        <ele>93</ele>
        <time>2012-04-12T16:57:00.000Z</time>
      </trkpt>
      <trkpt lat="48.23162" lon="3.24552">
        <ele>93</ele>
        <time>2012-04-12T16:57:01.000Z</time>
      </trkpt>
      <trkpt lat="48.2316" lon="3.2456">
        <ele>93</ele>
        <time>2012-04-12T16:57:02.000Z</time>
      </trkpt>
      <trkpt lat="48.23156" lon="3.24571">
        <ele>93</ele>
        <time>2012-04-12T16:57:03.000Z</time>
      </trkpt>
      <trkpt lat="48.2315" lon="3.24579">
        <ele>93</ele>
        <time>2012-04-12T16:57:04.000Z</time>
      </trkpt>
      <trkpt lat="48.23146" lon="3.24588">
        <ele>92</ele>
        <time>2012-04-12T16:57:05.000Z</time>
      </trkpt>
      <trkpt lat="48.23141" lon="3.24597">
        <ele>92</ele>
        <time>2012-04-12T16:57:06.000Z</time>
      </trkpt>
      <trkpt lat="48.23136" lon="3.24607">
        <ele>92</ele>
        <time>2012-04-12T16:57:07.000Z</time>
      </trkpt>
      <trkpt lat="48.23132" lon="3.24616">
        <ele>92</ele>
        <time>2012-04-12T16:57:08.000Z</time>
      </trkpt>
      <trkpt lat="48.23127" lon="3.24624">
        <ele>92</ele>
        <time>2012-04-12T16:57:09.000Z</time>
      </trkpt>
      <trkpt lat="48.23122" lon="3.24633">
        <ele>92</ele>
        <time>2012-04-12T16:57:10.000Z</time>
      </trkpt>
      <trkpt lat="48.23117" lon="3.24642">
        <ele>91</ele>
        <time>2012-04-12T16:57:11.000Z</time>
      </trkpt>
      <trkpt lat="48.23113" lon="3.2465">
        <ele>91</ele>
        <time>2012-04-12T16:57:12.000Z</time>
      </trkpt>
      <trkpt lat="48.23107" lon="3.24657">
        <ele>91</ele>
        <time>2012-04-12T16:57:13.000Z</time>
      </trkpt>
      <trkpt lat="48.23102" lon="3.24665">
        <ele>91</ele>
        <time>2012-04-12T16:57:14.000Z</time>
      </trkpt>
      <trkpt lat="48.23097" lon="3.24672">
        <ele>89</ele>
        <time>2012-04-12T16:57:15.000Z</time>
      </trkpt>
      <trkpt lat="48.2309" lon="3.24678">
        <ele>89</ele>
        <time>2012-04-12T16:57:16.000Z</time>
      </trkpt>
      <trkpt lat="48.23085" lon="3.24682">
        <ele>89</ele>
        <time>2012-04-12T16:57:17.000Z</time>
      </trkpt>
      <trkpt lat="48.23078" lon="3.24687">
        <ele>87</ele>
        <time>2012-04-12T16:57:18.000Z</time>
      </trkpt>
      <trkpt lat="48.23071" lon="3.24693">
        <ele>87</ele>
        <time>2012-04-12T16:57:19.000Z</time>
      </trkpt>
      <trkpt lat="48.23064" lon="3.24697">
        <ele>86</ele>
        <time>2012-04-12T16:57:20.000Z</time>
      </trkpt>
      <trkpt lat="48.23058" lon="3.24702">
        <ele>86</ele>
        <time>2012-04-12T16:57:21.000Z</time>
      </trkpt>
      <trkpt lat="48.23052" lon="3.24708">
        <ele>86</ele>
        <time>2012-04-12T16:57:22.000Z</time>
      </trkpt>
      <trkpt lat="48.23044" lon="3.24712">
        <ele>86</ele>
        <time>2012-04-12T16:57:23.000Z</time>
      </trkpt>
      <trkpt lat="48.23038" lon="3.24719">
        <ele>86</ele>
        <time>2012-04-12T16:57:24.000Z</time>
      </trkpt>
      <trkpt lat="48.2303" lon="3.24723">
        <ele>85</ele>
        <time>2012-04-12T16:57:25.000Z</time>
      </trkpt>
      <trkpt lat="48.23023" lon="3.24728">
        <ele>85</ele>
        <time>2012-04-12T16:57:26.000Z</time>
      </trkpt>
      <trkpt lat="48.23015" lon="3.24732">
        <ele>85</ele>
        <time>2012-04-12T16:57:27.000Z</time>
      </trkpt>
      <trkpt lat="48.23008" lon="3.24736">
        <ele>85</ele>
        <time>2012-04-12T16:57:28.000Z</time>
      </trkpt>
      <trkpt lat="48.23" lon="3.24742">
        <ele>84</ele>
        <time>2012-04-12T16:57:29.000Z</time>
      </trkpt>
      <trkpt lat="48.22994" lon="3.24747">
        <ele>84</ele>
        <time>2012-04-12T16:57:30.000Z</time>
      </trkpt>
      <trkpt lat="48.22987" lon="3.24753">
        <ele>83</ele>
        <time>2012-04-12T16:57:31.000Z</time>
      </trkpt>
      <trkpt lat="48.22983" lon="3.24762">
        <ele>83</ele>
        <time>2012-04-12T16:57:32.000Z</time>
      </trkpt>
      <trkpt lat="48.22982" lon="3.24772">
        <ele>83</ele>
        <time>2012-04-12T16:57:33.000Z</time>
      </trkpt>
      <trkpt lat="48.22983" lon="3.24781">
        <ele>82</ele>
        <time>2012-04-12T16:57:34.000Z</time>
      </trkpt>
      <trkpt lat="48.22985" lon="3.2479">
        <ele>82</ele>
        <time>2012-04-12T16:57:35.000Z</time>
      </trkpt>
      <trkpt lat="48.22988" lon="3.248">
        <ele>82</ele>
        <time>2012-04-12T16:57:36.000Z</time>
      </trkpt>
      <trkpt lat="48.2299" lon="3.24809">
        <ele>82</ele>
        <time>2012-04-12T16:57:37.000Z</time>
      </trkpt>
      <trkpt lat="48.22994" lon="3.24818">
        <ele>82</ele>
        <time>2012-04-12T16:57:38.000Z</time>
      </trkpt>
      <trkpt lat="48.22997" lon="3.24826">
        <ele>82</ele>
        <time>2012-04-12T16:57:39.000Z</time>
      </trkpt>
      <trkpt lat="48.23" lon="3.24835">
        <ele>82</ele>
        <time>2012-04-12T16:57:40.000Z</time>
      </trkpt>
      <trkpt lat="48.23003" lon="3.24841">
        <ele>82</ele>
        <time>2012-04-12T16:57:41.000Z</time>
      </trkpt>
      <trkpt lat="48.23008" lon="3.2485">
        <ele>81</ele>
        <time>2012-04-12T16:57:42.000Z</time>
      </trkpt>
      <trkpt lat="48.23011" lon="3.24858">
        <ele>81</ele>
        <time>2012-04-12T16:57:43.000Z</time>
      </trkpt>
      <trkpt lat="48.23016" lon="3.24865">
        <ele>81</ele>
        <time>2012-04-12T16:57:44.000Z</time>
      </trkpt>
      <trkpt lat="48.2302" lon="3.24871">
        <ele>81</ele>
        <time>2012-04-12T16:57:45.000Z</time>
      </trkpt>
      <trkpt lat="48.23025" lon="3.24876">
        <ele>81</ele>
        <time>2012-04-12T16:57:46.000Z</time>
      </trkpt>
      <trkpt lat="48.23029" lon="3.24882">
        <ele>81</ele>
        <time>2012-04-12T16:57:47.000Z</time>
      </trkpt>
      <trkpt lat="48.23033" lon="3.24891">
        <ele>80</ele>
        <time>2012-04-12T16:57:49.000Z</time>
      </trkpt>
      <trkpt lat="48.23031" lon="3.24899">
        <ele>80</ele>
        <time>2012-04-12T16:57:50.000Z</time>
      </trkpt>
      <trkpt lat="48.23026" lon="3.24906">
        <ele>80</ele>
        <time>2012-04-12T16:57:51.000Z</time>
      </trkpt>
      <trkpt lat="48.23022" lon="3.24912">
        <ele>80</ele>
        <time>2012-04-12T16:57:52.000Z</time>
      </trkpt>
      <trkpt lat="48.23016" lon="3.24918">
        <ele>79</ele>
        <time>2012-04-12T16:57:53.000Z</time>
      </trkpt>
      <trkpt lat="48.23012" lon="3.24925">
        <ele>79</ele>
        <time>2012-04-12T16:57:54.000Z</time>
      </trkpt>
      <trkpt lat="48.23007" lon="3.24931">
        <ele>79</ele>
        <time>2012-04-12T16:57:55.000Z</time>
      </trkpt>
      <trkpt lat="48.23002" lon="3.24938">
        <ele>79</ele>
        <time>2012-04-12T16:57:56.000Z</time>
      </trkpt>
      <trkpt lat="48.22997" lon="3.24944">
        <ele>78</ele>
        <time>2012-04-12T16:57:57.000Z</time>
      </trkpt>
      <trkpt lat="48.22993" lon="3.24953">
        <ele>78</ele>
        <time>2012-04-12T16:57:58.000Z</time>
      </trkpt>
      <trkpt lat="48.22987" lon="3.24959">
        <ele>78</ele>
        <time>2012-04-12T16:57:59.000Z</time>
      </trkpt>
      <trkpt lat="48.22983" lon="3.24966">
        <ele>78</ele>
        <time>2012-04-12T16:58:00.000Z</time>
      </trkpt>
      <trkpt lat="48.22978" lon="3.24972">
        <ele>78</ele>
        <time>2012-04-12T16:58:01.000Z</time>
      </trkpt>
      <trkpt lat="48.22973" lon="3.24976">
        <ele>78</ele>
        <time>2012-04-12T16:58:02.000Z</time>
      </trkpt>
      <trkpt lat="48.22968" lon="3.24983">
        <ele>78</ele>
        <time>2012-04-12T16:58:03.000Z</time>
      </trkpt>
      <trkpt lat="48.22963" lon="3.24987">
        <ele>78</ele>
        <time>2012-04-12T16:58:04.000Z</time>
      </trkpt>
      <trkpt lat="48.22958" lon="3.24991">
        <ele>78</ele>
        <time>2012-04-12T16:58:05.000Z</time>
      </trkpt>
      <trkpt lat="48.22953" lon="3.24998">
        <ele>78</ele>
        <time>2012-04-12T16:58:06.000Z</time>
      </trkpt>
      <trkpt lat="48.22948" lon="3.25002">
        <ele>77</ele>
        <time>2012-04-12T16:58:07.000Z</time>
      </trkpt>
      <trkpt lat="48.22942" lon="3.25006">
        <ele>77</ele>
        <time>2012-04-12T16:58:08.000Z</time>
      </trkpt>
      <trkpt lat="48.22937" lon="3.25011">
        <ele>77</ele>
        <time>2012-04-12T16:58:09.000Z</time>
      </trkpt>
      <trkpt lat="48.22933" lon="3.25015">
        <ele>77</ele>
        <time>2012-04-12T16:58:10.000Z</time>
      </trkpt>
      <trkpt lat="48.22927" lon="3.25019">
        <ele>77</ele>
        <time>2012-04-12T16:58:11.000Z</time>
      </trkpt>
      <trkpt lat="48.22922" lon="3.25024">
        <ele>77</ele>
        <time>2012-04-12T16:58:12.000Z</time>
      </trkpt>
      <trkpt lat="48.22916" lon="3.25028">
        <ele>76</ele>
        <time>2012-04-12T16:58:13.000Z</time>
      </trkpt>
      <trkpt lat="48.22912" lon="3.25032">
        <ele>76</ele>
        <time>2012-04-12T16:58:14.000Z</time>
      </trkpt>
      <trkpt lat="48.22907" lon="3.25036">
        <ele>76</ele>
        <time>2012-04-12T16:58:15.000Z</time>
      </trkpt>
      <trkpt lat="48.22901" lon="3.25041">
        <ele>76</ele>
        <time>2012-04-12T16:58:16.000Z</time>
      </trkpt>
      <trkpt lat="48.22896" lon="3.25045">
        <ele>76</ele>
        <time>2012-04-12T16:58:17.000Z</time>
      </trkpt>
      <trkpt lat="48.22891" lon="3.25052">
        <ele>76</ele>
        <time>2012-04-12T16:58:18.000Z</time>
      </trkpt>
      <trkpt lat="48.22886" lon="3.25056">
        <ele>76</ele>
        <time>2012-04-12T16:58:19.000Z</time>
      </trkpt>
      <trkpt lat="48.22881" lon="3.25062">
        <ele>76</ele>
        <time>2012-04-12T16:58:20.000Z</time>
      </trkpt>
      <trkpt lat="48.22877" lon="3.25066">
        <ele>76</ele>
        <time>2012-04-12T16:58:21.000Z</time>
      </trkpt>
      <trkpt lat="48.22872" lon="3.25073">
        <ele>75</ele>
        <time>2012-04-12T16:58:22.000Z</time>
      </trkpt>
      <trkpt lat="48.22867" lon="3.25079">
        <ele>75</ele>
        <time>2012-04-12T16:58:23.000Z</time>
      </trkpt>
      <trkpt lat="48.22863" lon="3.25084">
        <ele>74</ele>
        <time>2012-04-12T16:58:24.000Z</time>
      </trkpt>
      <trkpt lat="48.22858" lon="3.2509">
        <ele>74</ele>
        <time>2012-04-12T16:58:25.000Z</time>
      </trkpt>
      <trkpt lat="48.22854" lon="3.25097">
        <ele>74</ele>
        <time>2012-04-12T16:58:26.000Z</time>
      </trkpt>
      <trkpt lat="48.2285" lon="3.25103">
        <ele>74</ele>
        <time>2012-04-12T16:58:27.000Z</time>
      </trkpt>
      <trkpt lat="48.22845" lon="3.25107">
        <ele>74</ele>
        <time>2012-04-12T16:58:28.000Z</time>
      </trkpt>
      <trkpt lat="48.2284" lon="3.25114">
        <ele>74</ele>
        <time>2012-04-12T16:58:29.000Z</time>
      </trkpt>
      <trkpt lat="48.22835" lon="3.25118">
        <ele>74</ele>
        <time>2012-04-12T16:58:30.000Z</time>
      </trkpt>
      <trkpt lat="48.22828" lon="3.2512">
        <ele>72</ele>
        <time>2012-04-12T16:58:31.000Z</time>
      </trkpt>
      <trkpt lat="48.22823" lon="3.25124">
        <ele>72</ele>
        <time>2012-04-12T16:58:32.000Z</time>
      </trkpt>
      <trkpt lat="48.22817" lon="3.25127">
        <ele>72</ele>
        <time>2012-04-12T16:58:33.000Z</time>
      </trkpt>
      <trkpt lat="48.22811" lon="3.25131">
        <ele>72</ele>
        <time>2012-04-12T16:58:34.000Z</time>
      </trkpt>
      <trkpt lat="48.22805" lon="3.25133">
        <ele>72</ele>
        <time>2012-04-12T16:58:35.000Z</time>
      </trkpt>
      <trkpt lat="48.22798" lon="3.25137">
        <ele>72</ele>
        <time>2012-04-12T16:58:36.000Z</time>
      </trkpt>
      <trkpt lat="48.22793" lon="3.2514">
        <ele>72</ele>
        <time>2012-04-12T16:58:37.000Z</time>
      </trkpt>
      <trkpt lat="48.22787" lon="3.25144">
        <ele>72</ele>
        <time>2012-04-12T16:58:38.000Z</time>
      </trkpt>
      <trkpt lat="48.22781" lon="3.25146">
        <ele>71</ele>
        <time>2012-04-12T16:58:39.000Z</time>
      </trkpt>
      <trkpt lat="48.22775" lon="3.2515">
        <ele>71</ele>
        <time>2012-04-12T16:58:40.000Z</time>
      </trkpt>
      <trkpt lat="48.22768" lon="3.25152">
        <ele>71</ele>
        <time>2012-04-12T16:58:41.000Z</time>
      </trkpt>
      <trkpt lat="48.22763" lon="3.25154">
        <ele>71</ele>
        <time>2012-04-12T16:58:42.000Z</time>
      </trkpt>
      <trkpt lat="48.22757" lon="3.25159">
        <ele>71</ele>
        <time>2012-04-12T16:58:43.000Z</time>
      </trkpt>
      <trkpt lat="48.22751" lon="3.25161">
        <ele>70</ele>
        <time>2012-04-12T16:58:44.000Z</time>
      </trkpt>
      <trkpt lat="48.22745" lon="3.25163">
        <ele>70</ele>
        <time>2012-04-12T16:58:45.000Z</time>
      </trkpt>
      <trkpt lat="48.22739" lon="3.25165">
        <ele>70</ele>
        <time>2012-04-12T16:58:46.000Z</time>
      </trkpt>
      <trkpt lat="48.22734" lon="3.2517">
        <ele>70</ele>
        <time>2012-04-12T16:58:47.000Z</time>
      </trkpt>
      <trkpt lat="48.22729" lon="3.25172">
        <ele>70</ele>
        <time>2012-04-12T16:58:48.000Z</time>
      </trkpt>
      <trkpt lat="48.22723" lon="3.25174">
        <ele>70</ele>
        <time>2012-04-12T16:58:49.000Z</time>
      </trkpt>
      <trkpt lat="48.22718" lon="3.25176">
        <ele>70</ele>
        <time>2012-04-12T16:58:50.000Z</time>
      </trkpt>
      <trkpt lat="48.22713" lon="3.2518">
        <ele>70</ele>
        <time>2012-04-12T16:58:51.000Z</time>
      </trkpt>
      <trkpt lat="48.22707" lon="3.2518">
        <ele>70</ele>
        <time>2012-04-12T16:58:52.000Z</time>
      </trkpt>
      <trkpt lat="48.22702" lon="3.25182">
        <ele>70</ele>
        <time>2012-04-12T16:58:53.000Z</time>
      </trkpt>
      <trkpt lat="48.22698" lon="3.25184">
        <ele>70</ele>
        <time>2012-04-12T16:58:54.000Z</time>
      </trkpt>
      <trkpt lat="48.22692" lon="3.25187">
        <ele>70</ele>
        <time>2012-04-12T16:58:55.000Z</time>
      </trkpt>
      <trkpt lat="48.22687" lon="3.25189">
        <ele>70</ele>
        <time>2012-04-12T16:58:56.000Z</time>
      </trkpt>
      <trkpt lat="48.22682" lon="3.25191">
        <ele>70</ele>
        <time>2012-04-12T16:58:57.000Z</time>
      </trkpt>
      <trkpt lat="48.22672" lon="3.25197">
        <ele>70</ele>
        <time>2012-04-12T16:58:59.000Z</time>
      </trkpt>
      <trkpt lat="48.22662" lon="3.25202">
        <ele>70</ele>
        <time>2012-04-12T16:59:01.000Z</time>
      </trkpt>
      <trkpt lat="48.22657" lon="3.25204">
        <ele>70</ele>
        <time>2012-04-12T16:59:02.000Z</time>
      </trkpt>
      <trkpt lat="48.22647" lon="3.25208">
        <ele>70</ele>
        <time>2012-04-12T16:59:04.000Z</time>
      </trkpt>
      <trkpt lat="48.22642" lon="3.2521">
        <ele>71</ele>
        <time>2012-04-12T16:59:05.000Z</time>
      </trkpt>
      <trkpt lat="48.22632" lon="3.25217">
        <ele>71</ele>
        <time>2012-04-12T16:59:07.000Z</time>
      </trkpt>
      <trkpt lat="48.22622" lon="3.25221">
        <ele>71</ele>
        <time>2012-04-12T16:59:09.000Z</time>
      </trkpt>
      <trkpt lat="48.22617" lon="3.25223">
        <ele>71</ele>
        <time>2012-04-12T16:59:10.000Z</time>
      </trkpt>
      <trkpt lat="48.22613" lon="3.25227">
        <ele>71</ele>
        <time>2012-04-12T16:59:11.000Z</time>
      </trkpt>
      <trkpt lat="48.22608" lon="3.2523">
        <ele>71</ele>
        <time>2012-04-12T16:59:12.000Z</time>
      </trkpt>
      <trkpt lat="48.22603" lon="3.25232">
        <ele>71</ele>
        <time>2012-04-12T16:59:13.000Z</time>
      </trkpt>
      <trkpt lat="48.22598" lon="3.25234">
        <ele>71</ele>
        <time>2012-04-12T16:59:14.000Z</time>
      </trkpt>
      <trkpt lat="48.22588" lon="3.25238">
        <ele>71</ele>
        <time>2012-04-12T16:59:16.000Z</time>
      </trkpt>
      <trkpt lat="48.22584" lon="3.2524">
        <ele>71</ele>
        <time>2012-04-12T16:59:17.000Z</time>
      </trkpt>
      <trkpt lat="48.22584" lon="3.2524">
        <ele>71</ele>
        <time>2012-04-12T16:59:17.000Z</time>
      </trkpt>
      <trkpt lat="48.22584" lon="3.2524">
        <ele>71</ele>
        <time>2012-04-12T16:59:18.000Z</time>
      </trkpt>
      <trkpt lat="48.22575" lon="3.25247">
        <ele>71</ele>
        <time>2012-04-12T16:59:23.000Z</time>
      </trkpt>
      <trkpt lat="48.2257" lon="3.25251">
        <ele>72</ele>
        <time>2012-04-12T16:59:25.000Z</time>
      </trkpt>
      <trkpt lat="48.22564" lon="3.25255">
        <ele>72</ele>
        <time>2012-04-12T16:59:27.000Z</time>
      </trkpt>
      <trkpt lat="48.22559" lon="3.25258">
        <ele>73</ele>
        <time>2012-04-12T16:59:28.000Z</time>
      </trkpt>
      <trkpt lat="48.22555" lon="3.2526">
        <ele>73</ele>
        <time>2012-04-12T16:59:29.000Z</time>
      </trkpt>
      <trkpt lat="48.22551" lon="3.25262">
        <ele>73</ele>
        <time>2012-04-12T16:59:30.000Z</time>
      </trkpt>
      <trkpt lat="48.22542" lon="3.25266">
        <ele>73</ele>
        <time>2012-04-12T16:59:32.000Z</time>
      </trkpt>
      <trkpt lat="48.22533" lon="3.25272">
        <ele>73</ele>
        <time>2012-04-12T16:59:34.000Z</time>
      </trkpt>
      <trkpt lat="48.22525" lon="3.25277">
        <ele>74</ele>
        <time>2012-04-12T16:59:36.000Z</time>
      </trkpt>
      <trkpt lat="48.22517" lon="3.25283">
        <ele>74</ele>
        <time>2012-04-12T16:59:38.000Z</time>
      </trkpt>
      <trkpt lat="48.22509" lon="3.2529">
        <ele>74</ele>
        <time>2012-04-12T16:59:40.000Z</time>
      </trkpt>
      <trkpt lat="48.22504" lon="3.25292">
        <ele>74</ele>
        <time>2012-04-12T16:59:41.000Z</time>
      </trkpt>
      <trkpt lat="48.225" lon="3.25294">
        <ele>74</ele>
        <time>2012-04-12T16:59:42.000Z</time>
      </trkpt>
      <trkpt lat="48.22496" lon="3.25298">
        <ele>75</ele>
        <time>2012-04-12T16:59:43.000Z</time>
      </trkpt>
      <trkpt lat="48.22487" lon="3.25303">
        <ele>76</ele>
        <time>2012-04-12T16:59:45.000Z</time>
      </trkpt>
      <trkpt lat="48.22483" lon="3.25307">
        <ele>76</ele>
        <time>2012-04-12T16:59:46.000Z</time>
      </trkpt>
      <trkpt lat="48.22476" lon="3.25311">
        <ele>76</ele>
        <time>2012-04-12T16:59:48.000Z</time>
      </trkpt>
      <trkpt lat="48.22467" lon="3.25315">
        <ele>76</ele>
        <time>2012-04-12T16:59:50.000Z</time>
      </trkpt>
      <trkpt lat="48.22458" lon="3.2532">
        <ele>76</ele>
        <time>2012-04-12T16:59:52.000Z</time>
      </trkpt>
      <trkpt lat="48.22451" lon="3.25324">
        <ele>76</ele>
        <time>2012-04-12T16:59:54.000Z</time>
      </trkpt>
      <trkpt lat="48.22443" lon="3.25328">
        <ele>77</ele>
        <time>2012-04-12T16:59:56.000Z</time>
      </trkpt>
      <trkpt lat="48.22437" lon="3.25333">
        <ele>77</ele>
        <time>2012-04-12T16:59:58.000Z</time>
      </trkpt>
      <trkpt lat="48.2243" lon="3.25337">
        <ele>77</ele>
        <time>2012-04-12T17:00:00.000Z</time>
      </trkpt>
      <trkpt lat="48.22423" lon="3.25339">
        <ele>78</ele>
        <time>2012-04-12T17:00:02.000Z</time>
      </trkpt>
      <trkpt lat="48.22415" lon="3.25343">
        <ele>79</ele>
        <time>2012-04-12T17:00:04.000Z</time>
      </trkpt>
      <trkpt lat="48.22407" lon="3.25348">
        <ele>79</ele>
        <time>2012-04-12T17:00:06.000Z</time>
      </trkpt>
      <trkpt lat="48.22398" lon="3.25352">
        <ele>79</ele>
        <time>2012-04-12T17:00:08.000Z</time>
      </trkpt>
      <trkpt lat="48.22394" lon="3.25354">
        <ele>79</ele>
        <time>2012-04-12T17:00:09.000Z</time>
      </trkpt>
      <trkpt lat="48.2239" lon="3.25356">
        <ele>79</ele>
        <time>2012-04-12T17:00:10.000Z</time>
      </trkpt>
      <trkpt lat="48.22385" lon="3.25358">
        <ele>80</ele>
        <time>2012-04-12T17:00:11.000Z</time>
      </trkpt>
      <trkpt lat="48.22381" lon="3.2536">
        <ele>80</ele>
        <time>2012-04-12T17:00:12.000Z</time>
      </trkpt>
      <trkpt lat="48.22372" lon="3.25365">
        <ele>80</ele>
        <time>2012-04-12T17:00:14.000Z</time>
      </trkpt>
      <trkpt lat="48.22365" lon="3.25369">
        <ele>80</ele>
        <time>2012-04-12T17:00:16.000Z</time>
      </trkpt>
      <trkpt lat="48.22356" lon="3.25373">
        <ele>80</ele>
        <time>2012-04-12T17:00:18.000Z</time>
      </trkpt>
      <trkpt lat="48.22349" lon="3.25376">
        <ele>80</ele>
        <time>2012-04-12T17:00:20.000Z</time>
      </trkpt>
      <trkpt lat="48.22341" lon="3.2538">
        <ele>81</ele>
        <time>2012-04-12T17:00:22.000Z</time>
      </trkpt>
      <trkpt lat="48.22333" lon="3.25382">
        <ele>84</ele>
        <time>2012-04-12T17:00:24.000Z</time>
      </trkpt>
      <trkpt lat="48.22325" lon="3.25384">
        <ele>84</ele>
        <time>2012-04-12T17:00:26.000Z</time>
      </trkpt>
      <trkpt lat="48.22318" lon="3.25388">
        <ele>84</ele>
        <time>2012-04-12T17:00:28.000Z</time>
      </trkpt>
      <trkpt lat="48.22311" lon="3.2539">
        <ele>84</ele>
        <time>2012-04-12T17:00:30.000Z</time>
      </trkpt>
      <trkpt lat="48.22307" lon="3.25393">
        <ele>84</ele>
        <time>2012-04-12T17:00:31.000Z</time>
      </trkpt>
      <trkpt lat="48.22301" lon="3.25395">
        <ele>85</ele>
        <time>2012-04-12T17:00:33.000Z</time>
      </trkpt>
      <trkpt lat="48.22294" lon="3.25399">
        <ele>85</ele>
        <time>2012-04-12T17:00:35.000Z</time>
      </trkpt>
      <trkpt lat="48.22288" lon="3.25401">
        <ele>85</ele>
        <time>2012-04-12T17:00:37.000Z</time>
      </trkpt>
      <trkpt lat="48.2228" lon="3.25406">
        <ele>86</ele>
        <time>2012-04-12T17:00:39.000Z</time>
      </trkpt>
      <trkpt lat="48.22274" lon="3.25408">
        <ele>86</ele>
        <time>2012-04-12T17:00:41.000Z</time>
      </trkpt>
      <trkpt lat="48.22268" lon="3.2541">
        <ele>86</ele>
        <time>2012-04-12T17:00:43.000Z</time>
      </trkpt>
      <trkpt lat="48.22262" lon="3.25414">
        <ele>87</ele>
        <time>2012-04-12T17:00:45.000Z</time>
      </trkpt>
      <trkpt lat="48.22256" lon="3.25416">
        <ele>87</ele>
        <time>2012-04-12T17:00:47.000Z</time>
      </trkpt>
      <trkpt lat="48.22249" lon="3.25423">
        <ele>89</ele>
        <time>2012-04-12T17:00:49.000Z</time>
      </trkpt>
      <trkpt lat="48.22243" lon="3.25427">
        <ele>90</ele>
        <time>2012-04-12T17:00:51.000Z</time>
      </trkpt>
      <trkpt lat="48.22236" lon="3.25433">
        <ele>90</ele>
        <time>2012-04-12T17:00:53.000Z</time>
      </trkpt>
      <trkpt lat="48.22229" lon="3.25438">
        <ele>91</ele>
        <time>2012-04-12T17:00:55.000Z</time>
      </trkpt>
      <trkpt lat="48.22223" lon="3.25444">
        <ele>91</ele>
        <time>2012-04-12T17:00:57.000Z</time>
      </trkpt>
      <trkpt lat="48.22217" lon="3.25448">
        <ele>92</ele>
        <time>2012-04-12T17:00:59.000Z</time>
      </trkpt>
      <trkpt lat="48.2221" lon="3.25455">
        <ele>92</ele>
        <time>2012-04-12T17:01:01.000Z</time>
      </trkpt>
      <trkpt lat="48.22205" lon="3.25459">
        <ele>92</ele>
        <time>2012-04-12T17:01:03.000Z</time>
      </trkpt>
      <trkpt lat="48.22199" lon="3.25464">
        <ele>92</ele>
        <time>2012-04-12T17:01:05.000Z</time>
      </trkpt>
      <trkpt lat="48.22193" lon="3.25468">
        <ele>93</ele>
        <time>2012-04-12T17:01:07.000Z</time>
      </trkpt>
      <trkpt lat="48.22187" lon="3.25472">
        <ele>93</ele>
        <time>2012-04-12T17:01:09.000Z</time>
      </trkpt>
      <trkpt lat="48.22182" lon="3.25476">
        <ele>93</ele>
        <time>2012-04-12T17:01:11.000Z</time>
      </trkpt>
      <trkpt lat="48.22176" lon="3.25481">
        <ele>93</ele>
        <time>2012-04-12T17:01:13.000Z</time>
      </trkpt>
      <trkpt lat="48.2217" lon="3.25485">
        <ele>94</ele>
        <time>2012-04-12T17:01:15.000Z</time>
      </trkpt>
      <trkpt lat="48.22164" lon="3.25489">
        <ele>96</ele>
        <time>2012-04-12T17:01:17.000Z</time>
      </trkpt>
      <trkpt lat="48.22159" lon="3.25494">
        <ele>96</ele>
        <time>2012-04-12T17:01:19.000Z</time>
      </trkpt>
      <trkpt lat="48.22152" lon="3.25498">
        <ele>97</ele>
        <time>2012-04-12T17:01:22.000Z</time>
      </trkpt>
      <trkpt lat="48.22147" lon="3.25502">
        <ele>97</ele>
        <time>2012-04-12T17:01:24.000Z</time>
      </trkpt>
      <trkpt lat="48.22142" lon="3.25504">
        <ele>98</ele>
        <time>2012-04-12T17:01:26.000Z</time>
      </trkpt>
      <trkpt lat="48.22138" lon="3.25508">
        <ele>98</ele>
        <time>2012-04-12T17:01:28.000Z</time>
      </trkpt>
      <trkpt lat="48.22132" lon="3.25513">
        <ele>98</ele>
        <time>2012-04-12T17:01:30.000Z</time>
      </trkpt>
      <trkpt lat="48.22128" lon="3.25515">
        <ele>99</ele>
        <time>2012-04-12T17:01:32.000Z</time>
      </trkpt>
      <trkpt lat="48.22122" lon="3.25519">
        <ele>99</ele>
        <time>2012-04-12T17:01:34.000Z</time>
      </trkpt>
      <trkpt lat="48.22118" lon="3.25524">
        <ele>99</ele>
        <time>2012-04-12T17:01:36.000Z</time>
      </trkpt>
      <trkpt lat="48.22113" lon="3.25526">
        <ele>99</ele>
        <time>2012-04-12T17:01:38.000Z</time>
      </trkpt>
      <trkpt lat="48.22108" lon="3.2553">
        <ele>99</ele>
        <time>2012-04-12T17:01:40.000Z</time>
      </trkpt>
      <trkpt lat="48.22102" lon="3.25534">
        <ele>100</ele>
        <time>2012-04-12T17:01:42.000Z</time>
      </trkpt>
      <trkpt lat="48.22096" lon="3.25539">
        <ele>100</ele>
        <time>2012-04-12T17:01:45.000Z</time>
      </trkpt>
      <trkpt lat="48.22091" lon="3.25543">
        <ele>100</ele>
        <time>2012-04-12T17:01:47.000Z</time>
      </trkpt>
      <trkpt lat="48.22086" lon="3.25545">
        <ele>100</ele>
        <time>2012-04-12T17:01:49.000Z</time>
      </trkpt>
      <trkpt lat="48.22082" lon="3.25549">
        <ele>100</ele>
        <time>2012-04-12T17:01:51.000Z</time>
      </trkpt>
      <trkpt lat="48.22076" lon="3.25552">
        <ele>100</ele>
        <time>2012-04-12T17:01:53.000Z</time>
      </trkpt>
      <trkpt lat="48.2207" lon="3.25554">
        <ele>100</ele>
        <time>2012-04-12T17:01:56.000Z</time>
      </trkpt>
      <trkpt lat="48.22065" lon="3.25556">
        <ele>100</ele>
        <time>2012-04-12T17:01:58.000Z</time>
      </trkpt>
      <trkpt lat="48.22058" lon="3.25558">
        <ele>99</ele>
        <time>2012-04-12T17:02:00.000Z</time>
      </trkpt>
      <trkpt lat="48.22052" lon="3.2556">
        <ele>99</ele>
        <time>2012-04-12T17:02:02.000Z</time>
      </trkpt>
      <trkpt lat="48.22045" lon="3.25562">
        <ele>99</ele>
        <time>2012-04-12T17:02:04.000Z</time>
      </trkpt>
      <trkpt lat="48.22039" lon="3.25566">
        <ele>99</ele>
        <time>2012-04-12T17:02:06.000Z</time>
      </trkpt>
      <trkpt lat="48.2203" lon="3.25569">
        <ele>98</ele>
        <time>2012-04-12T17:02:08.000Z</time>
      </trkpt>
      <trkpt lat="48.22026" lon="3.25573">
        <ele>98</ele>
        <time>2012-04-12T17:02:09.000Z</time>
      </trkpt>
      <trkpt lat="48.22022" lon="3.25575">
        <ele>98</ele>
        <time>2012-04-12T17:02:10.000Z</time>
      </trkpt>
      <trkpt lat="48.22017" lon="3.25577">
        <ele>97</ele>
        <time>2012-04-12T17:02:11.000Z</time>
      </trkpt>
      <trkpt lat="48.2201" lon="3.25582">
        <ele>96</ele>
        <time>2012-04-12T17:02:13.000Z</time>
      </trkpt>
      <trkpt lat="48.22006" lon="3.25584">
        <ele>95</ele>
        <time>2012-04-12T17:02:14.000Z</time>
      </trkpt>
      <trkpt lat="48.21999" lon="3.25588">
        <ele>95</ele>
        <time>2012-04-12T17:02:16.000Z</time>
      </trkpt>
      <trkpt lat="48.21995" lon="3.25592">
        <ele>94</ele>
        <time>2012-04-12T17:02:18.000Z</time>
      </trkpt>
      <trkpt lat="48.21991" lon="3.25594">
        <ele>94</ele>
        <time>2012-04-12T17:02:20.000Z</time>
      </trkpt>
      <trkpt lat="48.21982" lon="3.25592">
        <ele>94</ele>
        <time>2012-04-12T17:02:24.000Z</time>
      </trkpt>
      <trkpt lat="48.21976" lon="3.25594">
        <ele>94</ele>
        <time>2012-04-12T17:02:26.000Z</time>
      </trkpt>
      <trkpt lat="48.21969" lon="3.25603">
        <ele>94</ele>
        <time>2012-04-12T17:02:28.000Z</time>
      </trkpt>
      <trkpt lat="48.21966" lon="3.25609">
        <ele>94</ele>
        <time>2012-04-12T17:02:29.000Z</time>
      </trkpt>
      <trkpt lat="48.21959" lon="3.2562">
        <ele>93</ele>
        <time>2012-04-12T17:02:31.000Z</time>
      </trkpt>
      <trkpt lat="48.21955" lon="3.25627">
        <ele>93</ele>
        <time>2012-04-12T17:02:32.000Z</time>
      </trkpt>
      <trkpt lat="48.21952" lon="3.25633">
        <ele>93</ele>
        <time>2012-04-12T17:02:33.000Z</time>
      </trkpt>
      <trkpt lat="48.21948" lon="3.25642">
        <ele>93</ele>
        <time>2012-04-12T17:02:34.000Z</time>
      </trkpt>
      <trkpt lat="48.21943" lon="3.2565">
        <ele>93</ele>
        <time>2012-04-12T17:02:35.000Z</time>
      </trkpt>
      <trkpt lat="48.21938" lon="3.25659">
        <ele>92</ele>
        <time>2012-04-12T17:02:36.000Z</time>
      </trkpt>
      <trkpt lat="48.21934" lon="3.2567">
        <ele>91</ele>
        <time>2012-04-12T17:02:37.000Z</time>
      </trkpt>
      <trkpt lat="48.21928" lon="3.25678">
        <ele>91</ele>
        <time>2012-04-12T17:02:38.000Z</time>
      </trkpt>
      <trkpt lat="48.21924" lon="3.25689">
        <ele>91</ele>
        <time>2012-04-12T17:02:39.000Z</time>
      </trkpt>
      <trkpt lat="48.21918" lon="3.257">
        <ele>91</ele>
        <time>2012-04-12T17:02:40.000Z</time>
      </trkpt>
      <trkpt lat="48.21912" lon="3.2571">
        <ele>91</ele>
        <time>2012-04-12T17:02:41.000Z</time>
      </trkpt>
      <trkpt lat="48.21906" lon="3.25719">
        <ele>91</ele>
        <time>2012-04-12T17:02:42.000Z</time>
      </trkpt>
      <trkpt lat="48.21899" lon="3.2573">
        <ele>91</ele>
        <time>2012-04-12T17:02:43.000Z</time>
      </trkpt>
      <trkpt lat="48.21894" lon="3.25742">
        <ele>91</ele>
        <time>2012-04-12T17:02:44.000Z</time>
      </trkpt>
      <trkpt lat="48.21888" lon="3.25753">
        <ele>89</ele>
        <time>2012-04-12T17:02:45.000Z</time>
      </trkpt>
      <trkpt lat="48.21881" lon="3.25764">
        <ele>89</ele>
        <time>2012-04-12T17:02:46.000Z</time>
      </trkpt>
      <trkpt lat="48.21875" lon="3.25775">
        <ele>89</ele>
        <time>2012-04-12T17:02:47.000Z</time>
      </trkpt>
      <trkpt lat="48.21868" lon="3.25788">
        <ele>89</ele>
        <time>2012-04-12T17:02:48.000Z</time>
      </trkpt>
      <trkpt lat="48.21862" lon="3.25798">
        <ele>89</ele>
        <time>2012-04-12T17:02:49.000Z</time>
      </trkpt>
      <trkpt lat="48.21856" lon="3.25811">
        <ele>89</ele>
        <time>2012-04-12T17:02:50.000Z</time>
      </trkpt>
      <trkpt lat="48.2185" lon="3.25824">
        <ele>89</ele>
        <time>2012-04-12T17:02:51.000Z</time>
      </trkpt>
      <trkpt lat="48.21844" lon="3.25839">
        <ele>87</ele>
        <time>2012-04-12T17:02:52.000Z</time>
      </trkpt>
      <trkpt lat="48.21838" lon="3.25854">
        <ele>87</ele>
        <time>2012-04-12T17:02:53.000Z</time>
      </trkpt>
      <trkpt lat="48.21832" lon="3.25867">
        <ele>86</ele>
        <time>2012-04-12T17:02:54.000Z</time>
      </trkpt>
      <trkpt lat="48.21825" lon="3.25882">
        <ele>85</ele>
        <time>2012-04-12T17:02:55.000Z</time>
      </trkpt>
      <trkpt lat="48.21819" lon="3.25897">
        <ele>85</ele>
        <time>2012-04-12T17:02:56.000Z</time>
      </trkpt>
      <trkpt lat="48.21812" lon="3.25912">
        <ele>84</ele>
        <time>2012-04-12T17:02:57.000Z</time>
      </trkpt>
      <trkpt lat="48.21805" lon="3.25927">
        <ele>82</ele>
        <time>2012-04-12T17:02:58.000Z</time>
      </trkpt>
      <trkpt lat="48.21798" lon="3.25942">
        <ele>81</ele>
        <time>2012-04-12T17:02:59.000Z</time>
      </trkpt>
      <trkpt lat="48.21791" lon="3.25955">
        <ele>81</ele>
        <time>2012-04-12T17:03:00.000Z</time>
      </trkpt>
      <trkpt lat="48.21785" lon="3.2597">
        <ele>80</ele>
        <time>2012-04-12T17:03:01.000Z</time>
      </trkpt>
      <trkpt lat="48.21777" lon="3.25983">
        <ele>80</ele>
        <time>2012-04-12T17:03:02.000Z</time>
      </trkpt>
      <trkpt lat="48.21771" lon="3.25998">
        <ele>79</ele>
        <time>2012-04-12T17:03:03.000Z</time>
      </trkpt>
      <trkpt lat="48.21764" lon="3.26011">
        <ele>77</ele>
        <time>2012-04-12T17:03:04.000Z</time>
      </trkpt>
      <trkpt lat="48.21757" lon="3.26026">
        <ele>77</ele>
        <time>2012-04-12T17:03:05.000Z</time>
      </trkpt>
      <trkpt lat="48.2175" lon="3.26038">
        <ele>76</ele>
        <time>2012-04-12T17:03:06.000Z</time>
      </trkpt>
      <trkpt lat="48.21743" lon="3.26054">
        <ele>74</ele>
        <time>2012-04-12T17:03:07.000Z</time>
      </trkpt>
      <trkpt lat="48.21735" lon="3.26066">
        <ele>74</ele>
        <time>2012-04-12T17:03:08.000Z</time>
      </trkpt>
      <trkpt lat="48.21729" lon="3.26082">
        <ele>74</ele>
        <time>2012-04-12T17:03:09.000Z</time>
      </trkpt>
      <trkpt lat="48.21721" lon="3.26094">
        <ele>72</ele>
        <time>2012-04-12T17:03:10.000Z</time>
      </trkpt>
      <trkpt lat="48.21714" lon="3.26107">
        <ele>72</ele>
        <time>2012-04-12T17:03:11.000Z</time>
      </trkpt>
      <trkpt lat="48.21706" lon="3.26122">
        <ele>71</ele>
        <time>2012-04-12T17:03:12.000Z</time>
      </trkpt>
      <trkpt lat="48.217" lon="3.26135">
        <ele>71</ele>
        <time>2012-04-12T17:03:13.000Z</time>
      </trkpt>
      <trkpt lat="48.21693" lon="3.2615">
        <ele>71</ele>
        <time>2012-04-12T17:03:14.000Z</time>
      </trkpt>
      <trkpt lat="48.21687" lon="3.26163">
        <ele>70</ele>
        <time>2012-04-12T17:03:15.000Z</time>
      </trkpt>
      <trkpt lat="48.2168" lon="3.26178">
        <ele>69</ele>
        <time>2012-04-12T17:03:16.000Z</time>
      </trkpt>
      <trkpt lat="48.21675" lon="3.26191">
        <ele>69</ele>
        <time>2012-04-12T17:03:17.000Z</time>
      </trkpt>
      <trkpt lat="48.21669" lon="3.26204">
        <ele>68</ele>
        <time>2012-04-12T17:03:18.000Z</time>
      </trkpt>
      <trkpt lat="48.21662" lon="3.26217">
        <ele>67</ele>
        <time>2012-04-12T17:03:19.000Z</time>
      </trkpt>
      <trkpt lat="48.21656" lon="3.2623">
        <ele>67</ele>
        <time>2012-04-12T17:03:20.000Z</time>
      </trkpt>
      <trkpt lat="48.21649" lon="3.2624">
        <ele>67</ele>
        <time>2012-04-12T17:03:21.000Z</time>
      </trkpt>
      <trkpt lat="48.21643" lon="3.26253">
        <ele>65</ele>
        <time>2012-04-12T17:03:22.000Z</time>
      </trkpt>
      <trkpt lat="48.21638" lon="3.26266">
        <ele>65</ele>
        <time>2012-04-12T17:03:23.000Z</time>
      </trkpt>
      <trkpt lat="48.2163" lon="3.26279">
        <ele>65</ele>
        <time>2012-04-12T17:03:24.000Z</time>
      </trkpt>
      <trkpt lat="48.21623" lon="3.2629">
        <ele>65</ele>
        <time>2012-04-12T17:03:25.000Z</time>
      </trkpt>
      <trkpt lat="48.21615" lon="3.263">
        <ele>65</ele>
        <time>2012-04-12T17:03:26.000Z</time>
      </trkpt>
      <trkpt lat="48.21605" lon="3.26309">
        <ele>65</ele>
        <time>2012-04-12T17:03:27.000Z</time>
      </trkpt>
      <trkpt lat="48.21595" lon="3.26318">
        <ele>65</ele>
        <time>2012-04-12T17:03:28.000Z</time>
      </trkpt>
      <trkpt lat="48.21585" lon="3.26324">
        <ele>64</ele>
        <time>2012-04-12T17:03:29.000Z</time>
      </trkpt>
      <trkpt lat="48.21575" lon="3.2633">
        <ele>65</ele>
        <time>2012-04-12T17:03:30.000Z</time>
      </trkpt>
      <trkpt lat="48.21565" lon="3.26337">
        <ele>66</ele>
        <time>2012-04-12T17:03:31.000Z</time>
      </trkpt>
      <trkpt lat="48.21556" lon="3.26341">
        <ele>66</ele>
        <time>2012-04-12T17:03:32.000Z</time>
      </trkpt>
      <trkpt lat="48.21546" lon="3.26348">
        <ele>67</ele>
        <time>2012-04-12T17:03:33.000Z</time>
      </trkpt>
      <trkpt lat="48.21538" lon="3.26352">
        <ele>67</ele>
        <time>2012-04-12T17:03:34.000Z</time>
      </trkpt>
      <trkpt lat="48.21529" lon="3.26356">
        <ele>67</ele>
        <time>2012-04-12T17:03:35.000Z</time>
      </trkpt>
      <trkpt lat="48.21521" lon="3.26358">
        <ele>67</ele>
        <time>2012-04-12T17:03:36.000Z</time>
      </trkpt>
      <trkpt lat="48.21512" lon="3.26363">
        <ele>68</ele>
        <time>2012-04-12T17:03:37.000Z</time>
      </trkpt>
      <trkpt lat="48.21504" lon="3.26365">
        <ele>68</ele>
        <time>2012-04-12T17:03:38.000Z</time>
      </trkpt>
      <trkpt lat="48.21495" lon="3.26367">
        <ele>71</ele>
        <time>2012-04-12T17:03:39.000Z</time>
      </trkpt>
      <trkpt lat="48.21487" lon="3.26369">
        <ele>71</ele>
        <time>2012-04-12T17:03:40.000Z</time>
      </trkpt>
      <trkpt lat="48.21479" lon="3.26371">
        <ele>71</ele>
        <time>2012-04-12T17:03:41.000Z</time>
      </trkpt>
      <trkpt lat="48.21471" lon="3.26373">
        <ele>71</ele>
        <time>2012-04-12T17:03:42.000Z</time>
      </trkpt>
      <trkpt lat="48.21465" lon="3.26375">
        <ele>71</ele>
        <time>2012-04-12T17:03:43.000Z</time>
      </trkpt>
      <trkpt lat="48.21457" lon="3.26378">
        <ele>72</ele>
        <time>2012-04-12T17:03:44.000Z</time>
      </trkpt>
      <trkpt lat="48.21451" lon="3.26378">
        <ele>72</ele>
        <time>2012-04-12T17:03:45.000Z</time>
      </trkpt>
      <trkpt lat="48.21443" lon="3.2638">
        <ele>72</ele>
        <time>2012-04-12T17:03:46.000Z</time>
      </trkpt>
      <trkpt lat="48.21437" lon="3.2638">
        <ele>72</ele>
        <time>2012-04-12T17:03:47.000Z</time>
      </trkpt>
      <trkpt lat="48.21429" lon="3.26382">
        <ele>72</ele>
        <time>2012-04-12T17:03:48.000Z</time>
      </trkpt>
      <trkpt lat="48.21423" lon="3.26384">
        <ele>72</ele>
        <time>2012-04-12T17:03:49.000Z</time>
      </trkpt>
      <trkpt lat="48.21417" lon="3.26384">
        <ele>72</ele>
        <time>2012-04-12T17:03:50.000Z</time>
      </trkpt>
      <trkpt lat="48.2141" lon="3.26386">
        <ele>76</ele>
        <time>2012-04-12T17:03:51.000Z</time>
      </trkpt>
      <trkpt lat="48.21404" lon="3.26386">
        <ele>76</ele>
        <time>2012-04-12T17:03:52.000Z</time>
      </trkpt>
      <trkpt lat="48.21397" lon="3.26386">
        <ele>76</ele>
        <time>2012-04-12T17:03:53.000Z</time>
      </trkpt>
      <trkpt lat="48.21391" lon="3.26388">
        <ele>76</ele>
        <time>2012-04-12T17:03:54.000Z</time>
      </trkpt>
      <trkpt lat="48.21384" lon="3.26388">
        <ele>77</ele>
        <time>2012-04-12T17:03:55.000Z</time>
      </trkpt>
      <trkpt lat="48.21378" lon="3.2639">
        <ele>77</ele>
        <time>2012-04-12T17:03:56.000Z</time>
      </trkpt>
      <trkpt lat="48.21372" lon="3.2639">
        <ele>77</ele>
        <time>2012-04-12T17:03:57.000Z</time>
      </trkpt>
      <trkpt lat="48.21365" lon="3.26393">
        <ele>77</ele>
        <time>2012-04-12T17:03:58.000Z</time>
      </trkpt>
      <trkpt lat="48.21359" lon="3.26393">
        <ele>77</ele>
        <time>2012-04-12T17:03:59.000Z</time>
      </trkpt>
      <trkpt lat="48.21351" lon="3.26393">
        <ele>77</ele>
        <time>2012-04-12T17:04:00.000Z</time>
      </trkpt>
      <trkpt lat="48.21345" lon="3.26393">
        <ele>77</ele>
        <time>2012-04-12T17:04:01.000Z</time>
      </trkpt>
      <trkpt lat="48.21338" lon="3.2639">
        <ele>77</ele>
        <time>2012-04-12T17:04:02.000Z</time>
      </trkpt>
      <trkpt lat="48.21333" lon="3.2639">
        <ele>81</ele>
        <time>2012-04-12T17:04:03.000Z</time>
      </trkpt>
      <trkpt lat="48.21326" lon="3.26388">
        <ele>82</ele>
        <time>2012-04-12T17:04:04.000Z</time>
      </trkpt>
      <trkpt lat="48.2132" lon="3.26388">
        <ele>82</ele>
        <time>2012-04-12T17:04:05.000Z</time>
      </trkpt>
      <trkpt lat="48.21315" lon="3.26388">
        <ele>82</ele>
        <time>2012-04-12T17:04:06.000Z</time>
      </trkpt>
      <trkpt lat="48.21308" lon="3.26388">
        <ele>83</ele>
        <time>2012-04-12T17:04:07.000Z</time>
      </trkpt>
      <trkpt lat="48.21303" lon="3.26388">
        <ele>83</ele>
        <time>2012-04-12T17:04:08.000Z</time>
      </trkpt>
      <trkpt lat="48.21296" lon="3.2639">
        <ele>84</ele>
        <time>2012-04-12T17:04:09.000Z</time>
      </trkpt>
      <trkpt lat="48.21291" lon="3.26393">
        <ele>84</ele>
        <time>2012-04-12T17:04:10.000Z</time>
      </trkpt>
      <trkpt lat="48.21285" lon="3.26395">
        <ele>84</ele>
        <time>2012-04-12T17:04:11.000Z</time>
      </trkpt>
      <trkpt lat="48.21279" lon="3.26397">
        <ele>84</ele>
        <time>2012-04-12T17:04:12.000Z</time>
      </trkpt>
      <trkpt lat="48.21273" lon="3.26399">
        <ele>84</ele>
        <time>2012-04-12T17:04:13.000Z</time>
      </trkpt>
      <trkpt lat="48.21267" lon="3.26401">
        <ele>84</ele>
        <time>2012-04-12T17:04:14.000Z</time>
      </trkpt>
      <trkpt lat="48.21261" lon="3.26403">
        <ele>83</ele>
        <time>2012-04-12T17:04:15.000Z</time>
      </trkpt>
      <trkpt lat="48.21256" lon="3.26406">
        <ele>83</ele>
        <time>2012-04-12T17:04:16.000Z</time>
      </trkpt>
      <trkpt lat="48.2125" lon="3.26408">
        <ele>84</ele>
        <time>2012-04-12T17:04:17.000Z</time>
      </trkpt>
      <trkpt lat="48.21245" lon="3.2641">
        <ele>84</ele>
        <time>2012-04-12T17:04:18.000Z</time>
      </trkpt>
      <trkpt lat="48.2124" lon="3.26412">
        <ele>85</ele>
        <time>2012-04-12T17:04:19.000Z</time>
      </trkpt>
      <trkpt lat="48.21235" lon="3.26418">
        <ele>79</ele>
        <time>2012-04-12T17:04:20.000Z</time>
      </trkpt>
      <trkpt lat="48.21231" lon="3.26423">
        <ele>79</ele>
        <time>2012-04-12T17:04:21.000Z</time>
      </trkpt>
      <trkpt lat="48.21228" lon="3.26429">
        <ele>78</ele>
        <time>2012-04-12T17:04:22.000Z</time>
      </trkpt>
      <trkpt lat="48.21224" lon="3.26436">
        <ele>78</ele>
        <time>2012-04-12T17:04:23.000Z</time>
      </trkpt>
      <trkpt lat="48.21219" lon="3.26446">
        <ele>77</ele>
        <time>2012-04-12T17:04:25.000Z</time>
      </trkpt>
      <trkpt lat="48.21216" lon="3.26455">
        <ele>76</ele>
        <time>2012-04-12T17:04:26.000Z</time>
      </trkpt>
      <trkpt lat="48.21213" lon="3.26463">
        <ele>75</ele>
        <time>2012-04-12T17:04:27.000Z</time>
      </trkpt>
      <trkpt lat="48.21208" lon="3.26472">
        <ele>74</ele>
        <time>2012-04-12T17:04:28.000Z</time>
      </trkpt>
      <trkpt lat="48.21204" lon="3.26483">
        <ele>74</ele>
        <time>2012-04-12T17:04:29.000Z</time>
      </trkpt>
      <trkpt lat="48.212" lon="3.26489">
        <ele>73</ele>
        <time>2012-04-12T17:04:30.000Z</time>
      </trkpt>
      <trkpt lat="48.21194" lon="3.26498">
        <ele>72</ele>
        <time>2012-04-12T17:04:31.000Z</time>
      </trkpt>
      <trkpt lat="48.2119" lon="3.26506">
        <ele>67</ele>
        <time>2012-04-12T17:04:32.000Z</time>
      </trkpt>
      <trkpt lat="48.21185" lon="3.26513">
        <ele>67</ele>
        <time>2012-04-12T17:04:33.000Z</time>
      </trkpt>
      <trkpt lat="48.21178" lon="3.26521">
        <ele>67</ele>
        <time>2012-04-12T17:04:34.000Z</time>
      </trkpt>
      <trkpt lat="48.21172" lon="3.26526">
        <ele>67</ele>
        <time>2012-04-12T17:04:35.000Z</time>
      </trkpt>
      <trkpt lat="48.21164" lon="3.26532">
        <ele>67</ele>
        <time>2012-04-12T17:04:36.000Z</time>
      </trkpt>
      <trkpt lat="48.21158" lon="3.26536">
        <ele>67</ele>
        <time>2012-04-12T17:04:37.000Z</time>
      </trkpt>
      <trkpt lat="48.2115" lon="3.26543">
        <ele>67</ele>
        <time>2012-04-12T17:04:38.000Z</time>
      </trkpt>
      <trkpt lat="48.21143" lon="3.26547">
        <ele>67</ele>
        <time>2012-04-12T17:04:39.000Z</time>
      </trkpt>
      <trkpt lat="48.21136" lon="3.26551">
        <ele>67</ele>
        <time>2012-04-12T17:04:40.000Z</time>
      </trkpt>
      <trkpt lat="48.21128" lon="3.26556">
        <ele>66</ele>
        <time>2012-04-12T17:04:41.000Z</time>
      </trkpt>
      <trkpt lat="48.2112" lon="3.26558">
        <ele>66</ele>
        <time>2012-04-12T17:04:42.000Z</time>
      </trkpt>
      <trkpt lat="48.21113" lon="3.26562">
        <ele>66</ele>
        <time>2012-04-12T17:04:43.000Z</time>
      </trkpt>
      <trkpt lat="48.21105" lon="3.26564">
        <ele>66</ele>
        <time>2012-04-12T17:04:44.000Z</time>
      </trkpt>
      <trkpt lat="48.21097" lon="3.26566">
        <ele>66</ele>
        <time>2012-04-12T17:04:45.000Z</time>
      </trkpt>
      <trkpt lat="48.21088" lon="3.26569">
        <ele>66</ele>
        <time>2012-04-12T17:04:46.000Z</time>
      </trkpt>
      <trkpt lat="48.2108" lon="3.26569">
        <ele>66</ele>
        <time>2012-04-12T17:04:47.000Z</time>
      </trkpt>
      <trkpt lat="48.21071" lon="3.26569">
        <ele>66</ele>
        <time>2012-04-12T17:04:48.000Z</time>
      </trkpt>
      <trkpt lat="48.21062" lon="3.26569">
        <ele>66</ele>
        <time>2012-04-12T17:04:49.000Z</time>
      </trkpt>
      <trkpt lat="48.21055" lon="3.26569">
        <ele>66</ele>
        <time>2012-04-12T17:04:50.000Z</time>
      </trkpt>
      <trkpt lat="48.21046" lon="3.26566">
        <ele>66</ele>
        <time>2012-04-12T17:04:51.000Z</time>
      </trkpt>
      <trkpt lat="48.21038" lon="3.26564">
        <ele>66</ele>
        <time>2012-04-12T17:04:52.000Z</time>
      </trkpt>
      <trkpt lat="48.21029" lon="3.26562">
        <ele>66</ele>
        <time>2012-04-12T17:04:53.000Z</time>
      </trkpt>
      <trkpt lat="48.21022" lon="3.26558">
        <ele>66</ele>
        <time>2012-04-12T17:04:54.000Z</time>
      </trkpt>
      <trkpt lat="48.21013" lon="3.26556">
        <ele>66</ele>
        <time>2012-04-12T17:04:55.000Z</time>
      </trkpt>
      <trkpt lat="48.21005" lon="3.26554">
        <ele>66</ele>
        <time>2012-04-12T17:04:56.000Z</time>
      </trkpt>
      <trkpt lat="48.20996" lon="3.26551">
        <ele>66</ele>
        <time>2012-04-12T17:04:57.000Z</time>
      </trkpt>
      <trkpt lat="48.20987" lon="3.26549">
        <ele>66</ele>
        <time>2012-04-12T17:04:58.000Z</time>
      </trkpt>
      <trkpt lat="48.20979" lon="3.26547">
        <ele>66</ele>
        <time>2012-04-12T17:04:59.000Z</time>
      </trkpt>
      <trkpt lat="48.20971" lon="3.26549">
        <ele>65</ele>
        <time>2012-04-12T17:05:00.000Z</time>
      </trkpt>
      <trkpt lat="48.20963" lon="3.26551">
        <ele>65</ele>
        <time>2012-04-12T17:05:01.000Z</time>
      </trkpt>
      <trkpt lat="48.20954" lon="3.26554">
        <ele>65</ele>
        <time>2012-04-12T17:05:02.000Z</time>
      </trkpt>
      <trkpt lat="48.20949" lon="3.26558">
        <ele>65</ele>
        <time>2012-04-12T17:05:03.000Z</time>
      </trkpt>
      <trkpt lat="48.20948" lon="3.26569">
        <ele>65</ele>
        <time>2012-04-12T17:05:04.000Z</time>
      </trkpt>
      <trkpt lat="48.2095" lon="3.26579">
        <ele>65</ele>
        <time>2012-04-12T17:05:05.000Z</time>
      </trkpt>
      <trkpt lat="48.20952" lon="3.2659">
        <ele>65</ele>
        <time>2012-04-12T17:05:06.000Z</time>
      </trkpt>
      <trkpt lat="48.20955" lon="3.26599">
        <ele>65</ele>
        <time>2012-04-12T17:05:07.000Z</time>
      </trkpt>
      <trkpt lat="48.20957" lon="3.26609">
        <ele>65</ele>
        <time>2012-04-12T17:05:08.000Z</time>
      </trkpt>
      <trkpt lat="48.2096" lon="3.26618">
        <ele>65</ele>
        <time>2012-04-12T17:05:09.000Z</time>
      </trkpt>
      <trkpt lat="48.20962" lon="3.26629">
        <ele>65</ele>
        <time>2012-04-12T17:05:10.000Z</time>
      </trkpt>
      <trkpt lat="48.20964" lon="3.26639">
        <ele>65</ele>
        <time>2012-04-12T17:05:11.000Z</time>
      </trkpt>
      <trkpt lat="48.20964" lon="3.2665">
        <ele>65</ele>
        <time>2012-04-12T17:05:12.000Z</time>
      </trkpt>
      <trkpt lat="48.20963" lon="3.26659">
        <ele>65</ele>
        <time>2012-04-12T17:05:13.000Z</time>
      </trkpt>
      <trkpt lat="48.20962" lon="3.26669">
        <ele>65</ele>
        <time>2012-04-12T17:05:14.000Z</time>
      </trkpt>
      <trkpt lat="48.20958" lon="3.26678">
        <ele>65</ele>
        <time>2012-04-12T17:05:15.000Z</time>
      </trkpt>
      <trkpt lat="48.20955" lon="3.26684">
        <ele>65</ele>
        <time>2012-04-12T17:05:16.000Z</time>
      </trkpt>
      <trkpt lat="48.20951" lon="3.26693">
        <ele>65</ele>
        <time>2012-04-12T17:05:17.000Z</time>
      </trkpt>
      <trkpt lat="48.20948" lon="3.26699">
        <ele>65</ele>
        <time>2012-04-12T17:05:18.000Z</time>
      </trkpt>
      <trkpt lat="48.20943" lon="3.26706">
        <ele>65</ele>
        <time>2012-04-12T17:05:19.000Z</time>
      </trkpt>
      <trkpt lat="48.2094" lon="3.26712">
        <ele>65</ele>
        <time>2012-04-12T17:05:20.000Z</time>
      </trkpt>
      <trkpt lat="48.20936" lon="3.26719">
        <ele>65</ele>
        <time>2012-04-12T17:05:21.000Z</time>
      </trkpt>
      <trkpt lat="48.20932" lon="3.26725">
        <ele>65</ele>
        <time>2012-04-12T17:05:22.000Z</time>
      </trkpt>
      <trkpt lat="48.20928" lon="3.26732">
        <ele>64</ele>
        <time>2012-04-12T17:05:23.000Z</time>
      </trkpt>
      <trkpt lat="48.20924" lon="3.26738">
        <ele>64</ele>
        <time>2012-04-12T17:05:24.000Z</time>
      </trkpt>
      <trkpt lat="48.2092" lon="3.26744">
        <ele>64</ele>
        <time>2012-04-12T17:05:25.000Z</time>
      </trkpt>
      <trkpt lat="48.20916" lon="3.26751">
        <ele>64</ele>
        <time>2012-04-12T17:05:26.000Z</time>
      </trkpt>
      <trkpt lat="48.20912" lon="3.26757">
        <ele>64</ele>
        <time>2012-04-12T17:05:27.000Z</time>
      </trkpt>
      <trkpt lat="48.20908" lon="3.26764">
        <ele>64</ele>
        <time>2012-04-12T17:05:28.000Z</time>
      </trkpt>
      <trkpt lat="48.20904" lon="3.26768">
        <ele>64</ele>
        <time>2012-04-12T17:05:29.000Z</time>
      </trkpt>
      <trkpt lat="48.20899" lon="3.26774">
        <ele>64</ele>
        <time>2012-04-12T17:05:30.000Z</time>
      </trkpt>
      <trkpt lat="48.20895" lon="3.26781">
        <ele>64</ele>
        <time>2012-04-12T17:05:31.000Z</time>
      </trkpt>
      <trkpt lat="48.20891" lon="3.26787">
        <ele>64</ele>
        <time>2012-04-12T17:05:32.000Z</time>
      </trkpt>
      <trkpt lat="48.20887" lon="3.26794">
        <ele>64</ele>
        <time>2012-04-12T17:05:33.000Z</time>
      </trkpt>
      <trkpt lat="48.20882" lon="3.268">
        <ele>64</ele>
        <time>2012-04-12T17:05:34.000Z</time>
      </trkpt>
      <trkpt lat="48.20877" lon="3.26807">
        <ele>64</ele>
        <time>2012-04-12T17:05:35.000Z</time>
      </trkpt>
      <trkpt lat="48.20873" lon="3.26813">
        <ele>65</ele>
        <time>2012-04-12T17:05:36.000Z</time>
      </trkpt>
      <trkpt lat="48.20868" lon="3.2682">
        <ele>65</ele>
        <time>2012-04-12T17:05:37.000Z</time>
      </trkpt>
      <trkpt lat="48.20864" lon="3.26826">
        <ele>65</ele>
        <time>2012-04-12T17:05:38.000Z</time>
      </trkpt>
      <trkpt lat="48.2086" lon="3.26835">
        <ele>65</ele>
        <time>2012-04-12T17:05:39.000Z</time>
      </trkpt>
      <trkpt lat="48.20855" lon="3.26841">
        <ele>65</ele>
        <time>2012-04-12T17:05:40.000Z</time>
      </trkpt>
      <trkpt lat="48.20851" lon="3.26848">
        <ele>65</ele>
        <time>2012-04-12T17:05:41.000Z</time>
      </trkpt>
      <trkpt lat="48.20847" lon="3.26854">
        <ele>65</ele>
        <time>2012-04-12T17:05:42.000Z</time>
      </trkpt>
      <trkpt lat="48.20843" lon="3.2686">
        <ele>65</ele>
        <time>2012-04-12T17:05:43.000Z</time>
      </trkpt>
      <trkpt lat="48.20837" lon="3.26867">
        <ele>65</ele>
        <time>2012-04-12T17:05:44.000Z</time>
      </trkpt>
      <trkpt lat="48.20833" lon="3.26873">
        <ele>65</ele>
        <time>2012-04-12T17:05:45.000Z</time>
      </trkpt>
      <trkpt lat="48.20829" lon="3.2688">
        <ele>66</ele>
        <time>2012-04-12T17:05:46.000Z</time>
      </trkpt>
      <trkpt lat="48.20824" lon="3.26886">
        <ele>66</ele>
        <time>2012-04-12T17:05:47.000Z</time>
      </trkpt>
      <trkpt lat="48.2082" lon="3.26893">
        <ele>66</ele>
        <time>2012-04-12T17:05:48.000Z</time>
      </trkpt>
      <trkpt lat="48.20815" lon="3.26901">
        <ele>66</ele>
        <time>2012-04-12T17:05:49.000Z</time>
      </trkpt>
      <trkpt lat="48.2081" lon="3.26908">
        <ele>66</ele>
        <time>2012-04-12T17:05:50.000Z</time>
      </trkpt>
      <trkpt lat="48.20806" lon="3.26914">
        <ele>66</ele>
        <time>2012-04-12T17:05:51.000Z</time>
      </trkpt>
      <trkpt lat="48.20801" lon="3.2692">
        <ele>65</ele>
        <time>2012-04-12T17:05:52.000Z</time>
      </trkpt>
      <trkpt lat="48.20796" lon="3.26929">
        <ele>65</ele>
        <time>2012-04-12T17:05:53.000Z</time>
      </trkpt>
      <trkpt lat="48.20791" lon="3.26936">
        <ele>65</ele>
        <time>2012-04-12T17:05:54.000Z</time>
      </trkpt>
      <trkpt lat="48.20786" lon="3.26942">
        <ele>64</ele>
        <time>2012-04-12T17:05:55.000Z</time>
      </trkpt>
      <trkpt lat="48.20781" lon="3.26948">
        <ele>64</ele>
        <time>2012-04-12T17:05:56.000Z</time>
      </trkpt>
      <trkpt lat="48.20776" lon="3.26955">
        <ele>64</ele>
        <time>2012-04-12T17:05:57.000Z</time>
      </trkpt>
      <trkpt lat="48.20771" lon="3.26963">
        <ele>64</ele>
        <time>2012-04-12T17:05:58.000Z</time>
      </trkpt>
      <trkpt lat="48.20765" lon="3.2697">
        <ele>64</ele>
        <time>2012-04-12T17:05:59.000Z</time>
      </trkpt>
      <trkpt lat="48.2076" lon="3.26976">
        <ele>64</ele>
        <time>2012-04-12T17:06:00.000Z</time>
      </trkpt>
      <trkpt lat="48.20755" lon="3.26983">
        <ele>64</ele>
        <time>2012-04-12T17:06:01.000Z</time>
      </trkpt>
      <trkpt lat="48.20749" lon="3.26989">
        <ele>64</ele>
        <time>2012-04-12T17:06:02.000Z</time>
      </trkpt>
      <trkpt lat="48.20744" lon="3.26993">
        <ele>64</ele>
        <time>2012-04-12T17:06:03.000Z</time>
      </trkpt>
      <trkpt lat="48.20738" lon="3.27">
        <ele>63</ele>
        <time>2012-04-12T17:06:04.000Z</time>
      </trkpt>
      <trkpt lat="48.20732" lon="3.27004">
        <ele>64</ele>
        <time>2012-04-12T17:06:05.000Z</time>
      </trkpt>
      <trkpt lat="48.20727" lon="3.27006">
        <ele>64</ele>
        <time>2012-04-12T17:06:06.000Z</time>
      </trkpt>
      <trkpt lat="48.2072" lon="3.27011">
        <ele>64</ele>
        <time>2012-04-12T17:06:07.000Z</time>
      </trkpt>
      <trkpt lat="48.20714" lon="3.27013">
        <ele>65</ele>
        <time>2012-04-12T17:06:08.000Z</time>
      </trkpt>
      <trkpt lat="48.20707" lon="3.27015">
        <ele>65</ele>
        <time>2012-04-12T17:06:09.000Z</time>
      </trkpt>
      <trkpt lat="48.20701" lon="3.27017">
        <ele>65</ele>
        <time>2012-04-12T17:06:10.000Z</time>
      </trkpt>
      <trkpt lat="48.20696" lon="3.27024">
        <ele>65</ele>
        <time>2012-04-12T17:06:11.000Z</time>
      </trkpt>
      <trkpt lat="48.2069" lon="3.27028">
        <ele>65</ele>
        <time>2012-04-12T17:06:12.000Z</time>
      </trkpt>
      <trkpt lat="48.20685" lon="3.27034">
        <ele>65</ele>
        <time>2012-04-12T17:06:13.000Z</time>
      </trkpt>
      <trkpt lat="48.2068" lon="3.27041">
        <ele>65</ele>
        <time>2012-04-12T17:06:14.000Z</time>
      </trkpt>
      <trkpt lat="48.20673" lon="3.27045">
        <ele>65</ele>
        <time>2012-04-12T17:06:15.000Z</time>
      </trkpt>
      <trkpt lat="48.20667" lon="3.27049">
        <ele>65</ele>
        <time>2012-04-12T17:06:16.000Z</time>
      </trkpt>
      <trkpt lat="48.2066" lon="3.27054">
        <ele>66</ele>
        <time>2012-04-12T17:06:17.000Z</time>
      </trkpt>
      <trkpt lat="48.20654" lon="3.27056">
        <ele>66</ele>
        <time>2012-04-12T17:06:18.000Z</time>
      </trkpt>
      <trkpt lat="48.20647" lon="3.2706">
        <ele>67</ele>
        <time>2012-04-12T17:06:19.000Z</time>
      </trkpt>
      <trkpt lat="48.20641" lon="3.27062">
        <ele>67</ele>
        <time>2012-04-12T17:06:20.000Z</time>
      </trkpt>
      <trkpt lat="48.20634" lon="3.27066">
        <ele>67</ele>
        <time>2012-04-12T17:06:21.000Z</time>
      </trkpt>
      <trkpt lat="48.20628" lon="3.27068">
        <ele>67</ele>
        <time>2012-04-12T17:06:22.000Z</time>
      </trkpt>
      <trkpt lat="48.20623" lon="3.27071">
        <ele>67</ele>
        <time>2012-04-12T17:06:23.000Z</time>
      </trkpt>
      <trkpt lat="48.20616" lon="3.27075">
        <ele>67</ele>
        <time>2012-04-12T17:06:24.000Z</time>
      </trkpt>
      <trkpt lat="48.2061" lon="3.27077">
        <ele>67</ele>
        <time>2012-04-12T17:06:25.000Z</time>
      </trkpt>
      <trkpt lat="48.20603" lon="3.27079">
        <ele>67</ele>
        <time>2012-04-12T17:06:26.000Z</time>
      </trkpt>
      <trkpt lat="48.20597" lon="3.27084">
        <ele>66</ele>
        <time>2012-04-12T17:06:27.000Z</time>
      </trkpt>
      <trkpt lat="48.20592" lon="3.27086">
        <ele>67</ele>
        <time>2012-04-12T17:06:28.000Z</time>
      </trkpt>
      <trkpt lat="48.20585" lon="3.2709">
        <ele>67</ele>
        <time>2012-04-12T17:06:29.000Z</time>
      </trkpt>
      <trkpt lat="48.20579" lon="3.27092">
        <ele>66</ele>
        <time>2012-04-12T17:06:30.000Z</time>
      </trkpt>
      <trkpt lat="48.20572" lon="3.27094">
        <ele>66</ele>
        <time>2012-04-12T17:06:31.000Z</time>
      </trkpt>
      <trkpt lat="48.20567" lon="3.27099">
        <ele>66</ele>
        <time>2012-04-12T17:06:32.000Z</time>
      </trkpt>
      <trkpt lat="48.2056" lon="3.27101">
        <ele>66</ele>
        <time>2012-04-12T17:06:33.000Z</time>
      </trkpt>
      <trkpt lat="48.20555" lon="3.27105">
        <ele>66</ele>
        <time>2012-04-12T17:06:34.000Z</time>
      </trkpt>
      <trkpt lat="48.20549" lon="3.27107">
        <ele>66</ele>
        <time>2012-04-12T17:06:35.000Z</time>
      </trkpt>
      <trkpt lat="48.20542" lon="3.27111">
        <ele>66</ele>
        <time>2012-04-12T17:06:36.000Z</time>
      </trkpt>
      <trkpt lat="48.20536" lon="3.27114">
        <ele>66</ele>
        <time>2012-04-12T17:06:37.000Z</time>
      </trkpt>
      <trkpt lat="48.2053" lon="3.27118">
        <ele>66</ele>
        <time>2012-04-12T17:06:38.000Z</time>
      </trkpt>
      <trkpt lat="48.20524" lon="3.2712">
        <ele>66</ele>
        <time>2012-04-12T17:06:39.000Z</time>
      </trkpt>
      <trkpt lat="48.20518" lon="3.27122">
        <ele>66</ele>
        <time>2012-04-12T17:06:40.000Z</time>
      </trkpt>
      <trkpt lat="48.20511" lon="3.27126">
        <ele>65</ele>
        <time>2012-04-12T17:06:41.000Z</time>
      </trkpt>
      <trkpt lat="48.20505" lon="3.27131">
        <ele>65</ele>
        <time>2012-04-12T17:06:42.000Z</time>
      </trkpt>
      <trkpt lat="48.20498" lon="3.27133">
        <ele>65</ele>
        <time>2012-04-12T17:06:43.000Z</time>
      </trkpt>
      <trkpt lat="48.20493" lon="3.27137">
        <ele>65</ele>
        <time>2012-04-12T17:06:44.000Z</time>
      </trkpt>
      <trkpt lat="48.20486" lon="3.27139">
        <ele>65</ele>
        <time>2012-04-12T17:06:45.000Z</time>
      </trkpt>
      <trkpt lat="48.2048" lon="3.27144">
        <ele>65</ele>
        <time>2012-04-12T17:06:46.000Z</time>
      </trkpt>
      <trkpt lat="48.20474" lon="3.27146">
        <ele>65</ele>
        <time>2012-04-12T17:06:47.000Z</time>
      </trkpt>
      <trkpt lat="48.20467" lon="3.2715">
        <ele>65</ele>
        <time>2012-04-12T17:06:48.000Z</time>
      </trkpt>
      <trkpt lat="48.20462" lon="3.27152">
        <ele>65</ele>
        <time>2012-04-12T17:06:49.000Z</time>
      </trkpt>
      <trkpt lat="48.20455" lon="3.27156">
        <ele>65</ele>
        <time>2012-04-12T17:06:50.000Z</time>
      </trkpt>
      <trkpt lat="48.20449" lon="3.27159">
        <ele>65</ele>
        <time>2012-04-12T17:06:51.000Z</time>
      </trkpt>
      <trkpt lat="48.20444" lon="3.27163">
        <ele>65</ele>
        <time>2012-04-12T17:06:52.000Z</time>
      </trkpt>
      <trkpt lat="48.20437" lon="3.27167">
        <ele>65</ele>
        <time>2012-04-12T17:06:53.000Z</time>
      </trkpt>
      <trkpt lat="48.20433" lon="3.27176">
        <ele>65</ele>
        <time>2012-04-12T17:06:54.000Z</time>
      </trkpt>
      <trkpt lat="48.2043" lon="3.27184">
        <ele>65</ele>
        <time>2012-04-12T17:06:55.000Z</time>
      </trkpt>
      <trkpt lat="48.20428" lon="3.27193">
        <ele>65</ele>
        <time>2012-04-12T17:06:56.000Z</time>
      </trkpt>
      <trkpt lat="48.2043" lon="3.27202">
        <ele>65</ele>
        <time>2012-04-12T17:06:57.000Z</time>
      </trkpt>
      <trkpt lat="48.20431" lon="3.2721">
        <ele>66</ele>
        <time>2012-04-12T17:06:58.000Z</time>
      </trkpt>
      <trkpt lat="48.20432" lon="3.27221">
        <ele>66</ele>
        <time>2012-04-12T17:06:59.000Z</time>
      </trkpt>
      <trkpt lat="48.20433" lon="3.27229">
        <ele>66</ele>
        <time>2012-04-12T17:07:00.000Z</time>
      </trkpt>
      <trkpt lat="48.20435" lon="3.27238">
        <ele>66</ele>
        <time>2012-04-12T17:07:01.000Z</time>
      </trkpt>
      <trkpt lat="48.20436" lon="3.27247">
        <ele>66</ele>
        <time>2012-04-12T17:07:02.000Z</time>
      </trkpt>
      <trkpt lat="48.20438" lon="3.27255">
        <ele>66</ele>
        <time>2012-04-12T17:07:03.000Z</time>
      </trkpt>
      <trkpt lat="48.20439" lon="3.27264">
        <ele>66</ele>
        <time>2012-04-12T17:07:04.000Z</time>
      </trkpt>
      <trkpt lat="48.2044" lon="3.27272">
        <ele>66</ele>
        <time>2012-04-12T17:07:05.000Z</time>
      </trkpt>
      <trkpt lat="48.20442" lon="3.27287">
        <ele>66</ele>
        <time>2012-04-12T17:07:07.000Z</time>
      </trkpt>
      <trkpt lat="48.20444" lon="3.273">
        <ele>66</ele>
        <time>2012-04-12T17:07:09.000Z</time>
      </trkpt>
      <trkpt lat="48.20446" lon="3.27309">
        <ele>66</ele>
        <time>2012-04-12T17:07:10.000Z</time>
      </trkpt>
      <trkpt lat="48.20447" lon="3.27315">
        <ele>66</ele>
        <time>2012-04-12T17:07:11.000Z</time>
      </trkpt>
      <trkpt lat="48.20449" lon="3.27326">
        <ele>66</ele>
        <time>2012-04-12T17:07:13.000Z</time>
      </trkpt>
      <trkpt lat="48.20451" lon="3.27339">
        <ele>67</ele>
        <time>2012-04-12T17:07:15.000Z</time>
      </trkpt>
      <trkpt lat="48.20453" lon="3.2735">
        <ele>67</ele>
        <time>2012-04-12T17:07:17.000Z</time>
      </trkpt>
      <trkpt lat="48.20455" lon="3.2736">
        <ele>67</ele>
        <time>2012-04-12T17:07:19.000Z</time>
      </trkpt>
      <trkpt lat="48.20456" lon="3.27367">
        <ele>67</ele>
        <time>2012-04-12T17:07:20.000Z</time>
      </trkpt>
      <trkpt lat="48.20457" lon="3.27378">
        <ele>67</ele>
        <time>2012-04-12T17:07:22.000Z</time>
      </trkpt>
      <trkpt lat="48.2046" lon="3.2739">
        <ele>67</ele>
        <time>2012-04-12T17:07:24.000Z</time>
      </trkpt>
      <trkpt lat="48.20462" lon="3.27401">
        <ele>67</ele>
        <time>2012-04-12T17:07:26.000Z</time>
      </trkpt>
      <trkpt lat="48.20464" lon="3.27412">
        <ele>67</ele>
        <time>2012-04-12T17:07:28.000Z</time>
      </trkpt>
      <trkpt lat="48.20465" lon="3.27418">
        <ele>67</ele>
        <time>2012-04-12T17:07:29.000Z</time>
      </trkpt>
      <trkpt lat="48.20467" lon="3.27429">
        <ele>67</ele>
        <time>2012-04-12T17:07:31.000Z</time>
      </trkpt>
      <trkpt lat="48.20468" lon="3.2744">
        <ele>67</ele>
        <time>2012-04-12T17:07:33.000Z</time>
      </trkpt>
      <trkpt lat="48.20469" lon="3.27446">
        <ele>67</ele>
        <time>2012-04-12T17:07:34.000Z</time>
      </trkpt>
      <trkpt lat="48.20471" lon="3.27459">
        <ele>67</ele>
        <time>2012-04-12T17:07:36.000Z</time>
      </trkpt>
      <trkpt lat="48.20474" lon="3.2747">
        <ele>66</ele>
        <time>2012-04-12T17:07:38.000Z</time>
      </trkpt>
      <trkpt lat="48.20476" lon="3.27485">
        <ele>66</ele>
        <time>2012-04-12T17:07:40.000Z</time>
      </trkpt>
      <trkpt lat="48.20478" lon="3.27498">
        <ele>66</ele>
        <time>2012-04-12T17:07:42.000Z</time>
      </trkpt>
      <trkpt lat="48.2048" lon="3.2751">
        <ele>65</ele>
        <time>2012-04-12T17:07:44.000Z</time>
      </trkpt>
      <trkpt lat="48.20481" lon="3.27517">
        <ele>66</ele>
        <time>2012-04-12T17:07:45.000Z</time>
      </trkpt>
      <trkpt lat="48.20482" lon="3.27526">
        <ele>66</ele>
        <time>2012-04-12T17:07:46.000Z</time>
      </trkpt>
      <trkpt lat="48.20484" lon="3.27538">
        <ele>66</ele>
        <time>2012-04-12T17:07:48.000Z</time>
      </trkpt>
      <trkpt lat="48.20485" lon="3.27545">
        <ele>66</ele>
        <time>2012-04-12T17:07:49.000Z</time>
      </trkpt>
      <trkpt lat="48.20487" lon="3.27558">
        <ele>65</ele>
        <time>2012-04-12T17:07:51.000Z</time>
      </trkpt>
      <trkpt lat="48.2049" lon="3.27566">
        <ele>65</ele>
        <time>2012-04-12T17:07:52.000Z</time>
      </trkpt>
      <trkpt lat="48.20491" lon="3.27573">
        <ele>65</ele>
        <time>2012-04-12T17:07:53.000Z</time>
      </trkpt>
      <trkpt lat="48.20492" lon="3.27581">
        <ele>65</ele>
        <time>2012-04-12T17:07:54.000Z</time>
      </trkpt>
      <trkpt lat="48.20493" lon="3.2759">
        <ele>65</ele>
        <time>2012-04-12T17:07:55.000Z</time>
      </trkpt>
      <trkpt lat="48.20495" lon="3.27598">
        <ele>65</ele>
        <time>2012-04-12T17:07:56.000Z</time>
      </trkpt>
      <trkpt lat="48.20496" lon="3.27609">
        <ele>65</ele>
        <time>2012-04-12T17:07:57.000Z</time>
      </trkpt>
      <trkpt lat="48.20498" lon="3.2762">
        <ele>65</ele>
        <time>2012-04-12T17:07:58.000Z</time>
      </trkpt>
      <trkpt lat="48.20499" lon="3.27629">
        <ele>65</ele>
        <time>2012-04-12T17:07:59.000Z</time>
      </trkpt>
      <trkpt lat="48.20501" lon="3.27639">
        <ele>65</ele>
        <time>2012-04-12T17:08:00.000Z</time>
      </trkpt>
      <trkpt lat="48.20504" lon="3.2765">
        <ele>65</ele>
        <time>2012-04-12T17:08:01.000Z</time>
      </trkpt>
      <trkpt lat="48.20505" lon="3.27661">
        <ele>64</ele>
        <time>2012-04-12T17:08:02.000Z</time>
      </trkpt>
      <trkpt lat="48.20507" lon="3.27674">
        <ele>64</ele>
        <time>2012-04-12T17:08:03.000Z</time>
      </trkpt>
      <trkpt lat="48.20509" lon="3.27684">
        <ele>65</ele>
        <time>2012-04-12T17:08:04.000Z</time>
      </trkpt>
      <trkpt lat="48.20511" lon="3.27695">
        <ele>65</ele>
        <time>2012-04-12T17:08:05.000Z</time>
      </trkpt>
      <trkpt lat="48.20513" lon="3.27708">
        <ele>65</ele>
        <time>2012-04-12T17:08:06.000Z</time>
      </trkpt>
      <trkpt lat="48.20515" lon="3.27719">
        <ele>65</ele>
        <time>2012-04-12T17:08:07.000Z</time>
      </trkpt>
      <trkpt lat="48.20516" lon="3.27729">
        <ele>65</ele>
        <time>2012-04-12T17:08:08.000Z</time>
      </trkpt>
      <trkpt lat="48.20514" lon="3.27742">
        <ele>65</ele>
        <time>2012-04-12T17:08:09.000Z</time>
      </trkpt>
      <trkpt lat="48.20512" lon="3.27753">
        <ele>64</ele>
        <time>2012-04-12T17:08:10.000Z</time>
      </trkpt>
      <trkpt lat="48.20509" lon="3.27766">
        <ele>64</ele>
        <time>2012-04-12T17:08:11.000Z</time>
      </trkpt>
      <trkpt lat="48.20502" lon="3.27774">
        <ele>64</ele>
        <time>2012-04-12T17:08:12.000Z</time>
      </trkpt>
      <trkpt lat="48.20496" lon="3.27783">
        <ele>64</ele>
        <time>2012-04-12T17:08:13.000Z</time>
      </trkpt>
      <trkpt lat="48.2049" lon="3.2779">
        <ele>65</ele>
        <time>2012-04-12T17:08:14.000Z</time>
      </trkpt>
      <trkpt lat="48.20483" lon="3.27798">
        <ele>65</ele>
        <time>2012-04-12T17:08:15.000Z</time>
      </trkpt>
      <trkpt lat="48.20477" lon="3.27804">
        <ele>65</ele>
        <time>2012-04-12T17:08:16.000Z</time>
      </trkpt>
      <trkpt lat="48.20469" lon="3.27811">
        <ele>65</ele>
        <time>2012-04-12T17:08:17.000Z</time>
      </trkpt>
      <trkpt lat="48.20463" lon="3.27817">
        <ele>65</ele>
        <time>2012-04-12T17:08:18.000Z</time>
      </trkpt>
      <trkpt lat="48.20456" lon="3.27826">
        <ele>65</ele>
        <time>2012-04-12T17:08:19.000Z</time>
      </trkpt>
      <trkpt lat="48.2045" lon="3.27832">
        <ele>65</ele>
        <time>2012-04-12T17:08:20.000Z</time>
      </trkpt>
      <trkpt lat="48.20444" lon="3.27839">
        <ele>65</ele>
        <time>2012-04-12T17:08:21.000Z</time>
      </trkpt>
      <trkpt lat="48.20437" lon="3.27847">
        <ele>65</ele>
        <time>2012-04-12T17:08:22.000Z</time>
      </trkpt>
      <trkpt lat="48.20431" lon="3.27854">
        <ele>65</ele>
        <time>2012-04-12T17:08:23.000Z</time>
      </trkpt>
      <trkpt lat="48.20424" lon="3.2786">
        <ele>65</ele>
        <time>2012-04-12T17:08:24.000Z</time>
      </trkpt>
      <trkpt lat="48.20419" lon="3.27867">
        <ele>65</ele>
        <time>2012-04-12T17:08:25.000Z</time>
      </trkpt>
      <trkpt lat="48.20413" lon="3.27871">
        <ele>66</ele>
        <time>2012-04-12T17:08:26.000Z</time>
      </trkpt>
      <trkpt lat="48.20407" lon="3.27878">
        <ele>67</ele>
        <time>2012-04-12T17:08:27.000Z</time>
      </trkpt>
      <trkpt lat="48.20402" lon="3.27884">
        <ele>67</ele>
        <time>2012-04-12T17:08:28.000Z</time>
      </trkpt>
      <trkpt lat="48.20396" lon="3.2789">
        <ele>67</ele>
        <time>2012-04-12T17:08:29.000Z</time>
      </trkpt>
      <trkpt lat="48.20391" lon="3.27897">
        <ele>67</ele>
        <time>2012-04-12T17:08:30.000Z</time>
      </trkpt>
      <trkpt lat="48.20386" lon="3.27901">
        <ele>67</ele>
        <time>2012-04-12T17:08:31.000Z</time>
      </trkpt>
      <trkpt lat="48.2038" lon="3.27908">
        <ele>67</ele>
        <time>2012-04-12T17:08:32.000Z</time>
      </trkpt>
      <trkpt lat="48.20375" lon="3.27914">
        <ele>67</ele>
        <time>2012-04-12T17:08:33.000Z</time>
      </trkpt>
      <trkpt lat="48.20369" lon="3.27918">
        <ele>67</ele>
        <time>2012-04-12T17:08:34.000Z</time>
      </trkpt>
      <trkpt lat="48.20364" lon="3.27925">
        <ele>67</ele>
        <time>2012-04-12T17:08:35.000Z</time>
      </trkpt>
      <trkpt lat="48.20359" lon="3.27929">
        <ele>67</ele>
        <time>2012-04-12T17:08:36.000Z</time>
      </trkpt>
      <trkpt lat="48.20353" lon="3.27935">
        <ele>67</ele>
        <time>2012-04-12T17:08:37.000Z</time>
      </trkpt>
      <trkpt lat="48.20349" lon="3.27942">
        <ele>67</ele>
        <time>2012-04-12T17:08:38.000Z</time>
      </trkpt>
      <trkpt lat="48.20344" lon="3.27946">
        <ele>67</ele>
        <time>2012-04-12T17:08:39.000Z</time>
      </trkpt>
      <trkpt lat="48.20338" lon="3.27953">
        <ele>67</ele>
        <time>2012-04-12T17:08:40.000Z</time>
      </trkpt>
      <trkpt lat="48.20334" lon="3.27957">
        <ele>67</ele>
        <time>2012-04-12T17:08:41.000Z</time>
      </trkpt>
      <trkpt lat="48.20329" lon="3.27963">
        <ele>67</ele>
        <time>2012-04-12T17:08:42.000Z</time>
      </trkpt>
      <trkpt lat="48.20324" lon="3.27968">
        <ele>67</ele>
        <time>2012-04-12T17:08:43.000Z</time>
      </trkpt>
      <trkpt lat="48.2032" lon="3.27974">
        <ele>67</ele>
        <time>2012-04-12T17:08:44.000Z</time>
      </trkpt>
      <trkpt lat="48.20316" lon="3.27978">
        <ele>67</ele>
        <time>2012-04-12T17:08:45.000Z</time>
      </trkpt>
      <trkpt lat="48.2031" lon="3.27983">
        <ele>67</ele>
        <time>2012-04-12T17:08:46.000Z</time>
      </trkpt>
      <trkpt lat="48.20306" lon="3.27989">
        <ele>67</ele>
        <time>2012-04-12T17:08:47.000Z</time>
      </trkpt>
      <trkpt lat="48.20302" lon="3.27993">
        <ele>67</ele>
        <time>2012-04-12T17:08:48.000Z</time>
      </trkpt>
      <trkpt lat="48.20298" lon="3.27998">
        <ele>67</ele>
        <time>2012-04-12T17:08:49.000Z</time>
      </trkpt>
      <trkpt lat="48.20293" lon="3.28002">
        <ele>66</ele>
        <time>2012-04-12T17:08:50.000Z</time>
      </trkpt>
      <trkpt lat="48.20287" lon="3.28008">
        <ele>67</ele>
        <time>2012-04-12T17:08:52.000Z</time>
      </trkpt>
      <trkpt lat="48.20282" lon="3.28015">
        <ele>67</ele>
        <time>2012-04-12T17:08:54.000Z</time>
      </trkpt>
      <trkpt lat="48.20276" lon="3.28019">
        <ele>67</ele>
        <time>2012-04-12T17:08:56.000Z</time>
      </trkpt>
      <trkpt lat="48.20272" lon="3.28023">
        <ele>67</ele>
        <time>2012-04-12T17:08:58.000Z</time>
      </trkpt>
      <trkpt lat="48.20268" lon="3.28028">
        <ele>67</ele>
        <time>2012-04-12T17:09:00.000Z</time>
      </trkpt>
      <trkpt lat="48.20263" lon="3.28032">
        <ele>67</ele>
        <time>2012-04-12T17:09:02.000Z</time>
      </trkpt>
      <trkpt lat="48.2026" lon="3.28038">
        <ele>67</ele>
        <time>2012-04-12T17:09:04.000Z</time>
      </trkpt>
      <trkpt lat="48.2026" lon="3.28038">
        <ele>67</ele>
        <time>2012-04-12T17:09:04.000Z</time>
      </trkpt>
      <trkpt lat="48.2026" lon="3.28038">
        <ele>67</ele>
        <time>2012-04-12T17:09:07.000Z</time>
      </trkpt>
      <trkpt lat="48.20263" lon="3.28047">
        <ele>67</ele>
        <time>2012-04-12T17:09:08.000Z</time>
      </trkpt>
      <trkpt lat="48.20263" lon="3.28047">
        <ele>67</ele>
        <time>2012-04-12T17:09:08.000Z</time>
      </trkpt>
      <trkpt lat="48.20263" lon="3.28047">
        <ele>67</ele>
        <time>2012-04-12T17:11:52.000Z</time>
      </trkpt>
      <trkpt lat="48.20265" lon="3.28053">
        <ele>67</ele>
        <time>2012-04-12T17:12:05.000Z</time>
      </trkpt>
      <trkpt lat="48.20265" lon="3.28053">
        <ele>67</ele>
        <time>2012-04-12T17:12:05.000Z</time>
      </trkpt>
      <trkpt lat="48.20265" lon="3.28053">
        <ele>67</ele>
        <time>2012-04-12T17:12:16.000Z</time>
      </trkpt>
      <trkpt lat="48.20262" lon="3.28047">
        <ele>67</ele>
        <time>2012-04-12T17:12:30.000Z</time>
      </trkpt>
      <trkpt lat="48.20259" lon="3.2804">
        <ele>67</ele>
        <time>2012-04-12T17:12:32.000Z</time>
      </trkpt>
      <trkpt lat="48.20249" lon="3.28023">
        <ele>68</ele>
        <time>2012-04-12T17:12:34.000Z</time>
      </trkpt>
      <trkpt lat="48.2025" lon="3.28156">
        <ele>67</ele>
        <time>2012-04-12T17:12:55.000Z</time>
      </trkpt>
      <trkpt lat="48.20269" lon="3.28114">
        <ele>67</ele>
        <time>2012-04-12T17:12:59.000Z</time>
      </trkpt>
      <trkpt lat="48.20277" lon="3.28094">
        <ele>67</ele>
        <time>2012-04-12T17:13:00.000Z</time>
      </trkpt>
      <trkpt lat="48.20288" lon="3.28073">
        <ele>67</ele>
        <time>2012-04-12T17:13:01.000Z</time>
      </trkpt>
    </trkseg>
  </trk>
</gpx>